<?xml version="1.0" encoding="UTF-8" standalone="no" ?>
<gpx xmlns="http://www.topografix.com/GPX/1/1" xmlns:xsi="http://www.w3.org/2001/XMLSchema-instance" xsi:schemaLocation="http://www.topografix.com/GPX/1/1 http://www.topografix.com/GPX/1/1/gpx.xsd" version="1.1" creator="VisuGPX - https://www.visugpx.com">
  <metadata>
    <name>Grenoble Trail - Entrainement</name>
  </metadata>
  <trk>
    <name><![CDATA[Grenoble Trail]]></name>
    <trkseg>
      <trkpt lat="45.1966" lon="5.73996">
        <ele>214</ele>
        <time>2021-10-17T03:15:18.000Z</time>
      </trkpt>
      <trkpt lat="45.19659" lon="5.73995">
        <ele>214</ele>
        <time>2021-10-17T03:15:19.000Z</time>
      </trkpt>
      <trkpt lat="45.19655" lon="5.73994">
        <ele>214</ele>
        <time>2021-10-17T03:15:22.000Z</time>
      </trkpt>
      <trkpt lat="45.1965" lon="5.73992">
        <ele>214</ele>
        <time>2021-10-17T03:15:27.000Z</time>
      </trkpt>
      <trkpt lat="45.19647" lon="5.73993">
        <ele>214</ele>
        <time>2021-10-17T03:15:31.000Z</time>
      </trkpt>
      <trkpt lat="45.19647" lon="5.73994">
        <ele>214</ele>
        <time>2021-10-17T03:15:32.000Z</time>
      </trkpt>
      <trkpt lat="45.19644" lon="5.73996">
        <ele>214</ele>
        <time>2021-10-17T03:15:37.000Z</time>
      </trkpt>
      <trkpt lat="45.19643" lon="5.73993">
        <ele>213.80000305176</ele>
        <time>2021-10-17T03:15:42.000Z</time>
      </trkpt>
      <trkpt lat="45.19639" lon="5.73992">
        <ele>212.60000610352</ele>
        <time>2021-10-17T03:15:45.000Z</time>
      </trkpt>
      <trkpt lat="45.19638" lon="5.73991">
        <ele>212.39999389648</ele>
        <time>2021-10-17T03:15:46.000Z</time>
      </trkpt>
      <trkpt lat="45.19638" lon="5.7399">
        <ele>212</ele>
        <time>2021-10-17T03:15:47.000Z</time>
      </trkpt>
      <trkpt lat="45.19636" lon="5.73987">
        <ele>211.60000610352</ele>
        <time>2021-10-17T03:15:49.000Z</time>
      </trkpt>
      <trkpt lat="45.19636" lon="5.73989">
        <ele>211.19999694824</ele>
        <time>2021-10-17T03:15:52.000Z</time>
      </trkpt>
      <trkpt lat="45.19632" lon="5.73987">
        <ele>210.19999694824</ele>
        <time>2021-10-17T03:15:55.000Z</time>
      </trkpt>
      <trkpt lat="45.19632" lon="5.73987">
        <ele>209.80000305176</ele>
        <time>2021-10-17T03:15:56.000Z</time>
      </trkpt>
      <trkpt lat="45.1963" lon="5.73986">
        <ele>209.19999694824</ele>
        <time>2021-10-17T03:15:58.000Z</time>
      </trkpt>
      <trkpt lat="45.19629" lon="5.73985">
        <ele>208.60000610352</ele>
        <time>2021-10-17T03:16:01.000Z</time>
      </trkpt>
      <trkpt lat="45.19629" lon="5.73987">
        <ele>208.39999389648</ele>
        <time>2021-10-17T03:16:03.000Z</time>
      </trkpt>
      <trkpt lat="45.19629" lon="5.73986">
        <ele>208</ele>
        <time>2021-10-17T03:16:06.000Z</time>
      </trkpt>
      <trkpt lat="45.19629" lon="5.73985">
        <ele>207.60000610352</ele>
        <time>2021-10-17T03:16:07.000Z</time>
      </trkpt>
      <trkpt lat="45.19627" lon="5.73983">
        <ele>207.19999694824</ele>
        <time>2021-10-17T03:16:09.000Z</time>
      </trkpt>
      <trkpt lat="45.19626" lon="5.73982">
        <ele>206.80000305176</ele>
        <time>2021-10-17T03:16:10.000Z</time>
      </trkpt>
      <trkpt lat="45.19623" lon="5.7398">
        <ele>206.60000610352</ele>
        <time>2021-10-17T03:16:11.000Z</time>
      </trkpt>
      <trkpt lat="45.19614" lon="5.73972">
        <ele>206.39999389648</ele>
        <time>2021-10-17T03:16:14.000Z</time>
      </trkpt>
      <trkpt lat="45.19613" lon="5.73972">
        <ele>206.39999389648</ele>
        <time>2021-10-17T03:16:17.000Z</time>
      </trkpt>
      <trkpt lat="45.19617" lon="5.73974">
        <ele>206.39999389648</ele>
        <time>2021-10-17T03:16:20.000Z</time>
      </trkpt>
      <trkpt lat="45.19621" lon="5.73975">
        <ele>206.60000610352</ele>
        <time>2021-10-17T03:16:22.000Z</time>
      </trkpt>
      <trkpt lat="45.1963" lon="5.73975">
        <ele>208.19999694824</ele>
        <time>2021-10-17T03:16:26.000Z</time>
      </trkpt>
      <trkpt lat="45.19631" lon="5.73975">
        <ele>208.19999694824</ele>
        <time>2021-10-17T03:16:27.000Z</time>
      </trkpt>
      <trkpt lat="45.19637" lon="5.73976">
        <ele>208.80000305176</ele>
        <time>2021-10-17T03:16:29.000Z</time>
      </trkpt>
      <trkpt lat="45.19639" lon="5.73974">
        <ele>208.80000305176</ele>
        <time>2021-10-17T03:16:30.000Z</time>
      </trkpt>
      <trkpt lat="45.19646" lon="5.7397">
        <ele>208.80000305176</ele>
        <time>2021-10-17T03:16:32.000Z</time>
      </trkpt>
      <trkpt lat="45.19649" lon="5.73968">
        <ele>208.60000610352</ele>
        <time>2021-10-17T03:16:33.000Z</time>
      </trkpt>
      <trkpt lat="45.19653" lon="5.73963">
        <ele>208.39999389648</ele>
        <time>2021-10-17T03:16:36.000Z</time>
      </trkpt>
      <trkpt lat="45.19654" lon="5.73962">
        <ele>208.39999389648</ele>
        <time>2021-10-17T03:16:37.000Z</time>
      </trkpt>
      <trkpt lat="45.19656" lon="5.73961">
        <ele>208.39999389648</ele>
        <time>2021-10-17T03:16:38.000Z</time>
      </trkpt>
      <trkpt lat="45.19661" lon="5.73958">
        <ele>208.39999389648</ele>
        <time>2021-10-17T03:16:40.000Z</time>
      </trkpt>
      <trkpt lat="45.1967" lon="5.73963">
        <ele>208.39999389648</ele>
        <time>2021-10-17T03:16:42.000Z</time>
      </trkpt>
      <trkpt lat="45.19676" lon="5.73968">
        <ele>208.19999694824</ele>
        <time>2021-10-17T03:16:44.000Z</time>
      </trkpt>
      <trkpt lat="45.19678" lon="5.73973">
        <ele>208.19999694824</ele>
        <time>2021-10-17T03:16:46.000Z</time>
      </trkpt>
      <trkpt lat="45.19678" lon="5.73975">
        <ele>208.19999694824</ele>
        <time>2021-10-17T03:16:47.000Z</time>
      </trkpt>
      <trkpt lat="45.19677" lon="5.73979">
        <ele>208.19999694824</ele>
        <time>2021-10-17T03:16:49.000Z</time>
      </trkpt>
      <trkpt lat="45.19677" lon="5.73981">
        <ele>208.19999694824</ele>
        <time>2021-10-17T03:16:50.000Z</time>
      </trkpt>
      <trkpt lat="45.19677" lon="5.73984">
        <ele>208.19999694824</ele>
        <time>2021-10-17T03:16:51.000Z</time>
      </trkpt>
      <trkpt lat="45.19676" lon="5.73987">
        <ele>208.19999694824</ele>
        <time>2021-10-17T03:16:52.000Z</time>
      </trkpt>
      <trkpt lat="45.19675" lon="5.73993">
        <ele>208.39999389648</ele>
        <time>2021-10-17T03:16:54.000Z</time>
      </trkpt>
      <trkpt lat="45.19676" lon="5.73995">
        <ele>208.39999389648</ele>
        <time>2021-10-17T03:16:55.000Z</time>
      </trkpt>
      <trkpt lat="45.19678" lon="5.73999">
        <ele>208.60000610352</ele>
        <time>2021-10-17T03:16:57.000Z</time>
      </trkpt>
      <trkpt lat="45.19678" lon="5.74001">
        <ele>208.60000610352</ele>
        <time>2021-10-17T03:16:59.000Z</time>
      </trkpt>
      <trkpt lat="45.19677" lon="5.74002">
        <ele>208.60000610352</ele>
        <time>2021-10-17T03:17:00.000Z</time>
      </trkpt>
      <trkpt lat="45.19677" lon="5.74003">
        <ele>208.60000610352</ele>
        <time>2021-10-17T03:17:01.000Z</time>
      </trkpt>
      <trkpt lat="45.19677" lon="5.74009">
        <ele>208.60000610352</ele>
        <time>2021-10-17T03:17:03.000Z</time>
      </trkpt>
      <trkpt lat="45.19678" lon="5.74012">
        <ele>208.60000610352</ele>
        <time>2021-10-17T03:17:04.000Z</time>
      </trkpt>
      <trkpt lat="45.19682" lon="5.74024">
        <ele>208.60000610352</ele>
        <time>2021-10-17T03:17:08.000Z</time>
      </trkpt>
      <trkpt lat="45.19684" lon="5.74029">
        <ele>208.60000610352</ele>
        <time>2021-10-17T03:17:09.000Z</time>
      </trkpt>
      <trkpt lat="45.19689" lon="5.74045">
        <ele>208.39999389648</ele>
        <time>2021-10-17T03:17:13.000Z</time>
      </trkpt>
      <trkpt lat="45.1969" lon="5.74054">
        <ele>208.39999389648</ele>
        <time>2021-10-17T03:17:16.000Z</time>
      </trkpt>
      <trkpt lat="45.1969" lon="5.74056">
        <ele>208.60000610352</ele>
        <time>2021-10-17T03:17:17.000Z</time>
      </trkpt>
      <trkpt lat="45.19693" lon="5.74071">
        <ele>208.60000610352</ele>
        <time>2021-10-17T03:17:22.000Z</time>
      </trkpt>
      <trkpt lat="45.19694" lon="5.74074">
        <ele>208.60000610352</ele>
        <time>2021-10-17T03:17:23.000Z</time>
      </trkpt>
      <trkpt lat="45.19694" lon="5.74077">
        <ele>208.60000610352</ele>
        <time>2021-10-17T03:17:24.000Z</time>
      </trkpt>
      <trkpt lat="45.19696" lon="5.74085">
        <ele>208.60000610352</ele>
        <time>2021-10-17T03:17:27.000Z</time>
      </trkpt>
      <trkpt lat="45.19701" lon="5.741">
        <ele>208.60000610352</ele>
        <time>2021-10-17T03:17:31.000Z</time>
      </trkpt>
      <trkpt lat="45.19705" lon="5.74119">
        <ele>208.60000610352</ele>
        <time>2021-10-17T03:17:36.000Z</time>
      </trkpt>
      <trkpt lat="45.19708" lon="5.74128">
        <ele>208.60000610352</ele>
        <time>2021-10-17T03:17:39.000Z</time>
      </trkpt>
      <trkpt lat="45.19712" lon="5.74138">
        <ele>208.60000610352</ele>
        <time>2021-10-17T03:17:42.000Z</time>
      </trkpt>
      <trkpt lat="45.19713" lon="5.74143">
        <ele>208.60000610352</ele>
        <time>2021-10-17T03:17:44.000Z</time>
      </trkpt>
      <trkpt lat="45.19713" lon="5.74145">
        <ele>208.60000610352</ele>
        <time>2021-10-17T03:17:45.000Z</time>
      </trkpt>
      <trkpt lat="45.19714" lon="5.74154">
        <ele>208.60000610352</ele>
        <time>2021-10-17T03:17:48.000Z</time>
      </trkpt>
      <trkpt lat="45.19718" lon="5.74172">
        <ele>208.60000610352</ele>
        <time>2021-10-17T03:17:54.000Z</time>
      </trkpt>
      <trkpt lat="45.19723" lon="5.74198">
        <ele>208.60000610352</ele>
        <time>2021-10-17T03:18:02.000Z</time>
      </trkpt>
      <trkpt lat="45.19726" lon="5.74211">
        <ele>208.60000610352</ele>
        <time>2021-10-17T03:18:06.000Z</time>
      </trkpt>
      <trkpt lat="45.19728" lon="5.74215">
        <ele>208.60000610352</ele>
        <time>2021-10-17T03:18:07.000Z</time>
      </trkpt>
      <trkpt lat="45.19734" lon="5.74237">
        <ele>208.80000305176</ele>
        <time>2021-10-17T03:18:14.000Z</time>
      </trkpt>
      <trkpt lat="45.19735" lon="5.74242">
        <ele>209</ele>
        <time>2021-10-17T03:18:16.000Z</time>
      </trkpt>
      <trkpt lat="45.19739" lon="5.7425">
        <ele>209</ele>
        <time>2021-10-17T03:18:19.000Z</time>
      </trkpt>
      <trkpt lat="45.1974" lon="5.74253">
        <ele>209.39999389648</ele>
        <time>2021-10-17T03:18:21.000Z</time>
      </trkpt>
      <trkpt lat="45.19739" lon="5.74253">
        <ele>209.80000305176</ele>
        <time>2021-10-17T03:18:23.000Z</time>
      </trkpt>
      <trkpt lat="45.1974" lon="5.74253">
        <ele>210</ele>
        <time>2021-10-17T03:18:24.000Z</time>
      </trkpt>
      <trkpt lat="45.19742" lon="5.74254">
        <ele>210.19999694824</ele>
        <time>2021-10-17T03:18:25.000Z</time>
      </trkpt>
      <trkpt lat="45.19744" lon="5.74254">
        <ele>210.39999389648</ele>
        <time>2021-10-17T03:18:26.000Z</time>
      </trkpt>
      <trkpt lat="45.19747" lon="5.74254">
        <ele>210.60000610352</ele>
        <time>2021-10-17T03:18:27.000Z</time>
      </trkpt>
      <trkpt lat="45.19756" lon="5.74255">
        <ele>210.60000610352</ele>
        <time>2021-10-17T03:18:31.000Z</time>
      </trkpt>
      <trkpt lat="45.19758" lon="5.74255">
        <ele>210.60000610352</ele>
        <time>2021-10-17T03:18:32.000Z</time>
      </trkpt>
      <trkpt lat="45.19761" lon="5.74255">
        <ele>210.60000610352</ele>
        <time>2021-10-17T03:18:33.000Z</time>
      </trkpt>
      <trkpt lat="45.19771" lon="5.74255">
        <ele>210.60000610352</ele>
        <time>2021-10-17T03:18:38.000Z</time>
      </trkpt>
      <trkpt lat="45.19778" lon="5.74252">
        <ele>210.80000305176</ele>
        <time>2021-10-17T03:18:42.000Z</time>
      </trkpt>
      <trkpt lat="45.19787" lon="5.74251">
        <ele>210.80000305176</ele>
        <time>2021-10-17T03:18:46.000Z</time>
      </trkpt>
      <trkpt lat="45.19804" lon="5.74255">
        <ele>210.80000305176</ele>
        <time>2021-10-17T03:18:52.000Z</time>
      </trkpt>
      <trkpt lat="45.19813" lon="5.74256">
        <ele>210.80000305176</ele>
        <time>2021-10-17T03:18:55.000Z</time>
      </trkpt>
      <trkpt lat="45.19819" lon="5.74254">
        <ele>210.60000610352</ele>
        <time>2021-10-17T03:18:58.000Z</time>
      </trkpt>
      <trkpt lat="45.1983" lon="5.74247">
        <ele>210.39999389648</ele>
        <time>2021-10-17T03:19:03.000Z</time>
      </trkpt>
      <trkpt lat="45.19835" lon="5.74242">
        <ele>210.39999389648</ele>
        <time>2021-10-17T03:19:06.000Z</time>
      </trkpt>
      <trkpt lat="45.19839" lon="5.74239">
        <ele>210.60000610352</ele>
        <time>2021-10-17T03:19:08.000Z</time>
      </trkpt>
      <trkpt lat="45.19848" lon="5.74233">
        <ele>211</ele>
        <time>2021-10-17T03:19:13.000Z</time>
      </trkpt>
      <trkpt lat="45.19858" lon="5.74225">
        <ele>211</ele>
        <time>2021-10-17T03:19:18.000Z</time>
      </trkpt>
      <trkpt lat="45.19862" lon="5.74218">
        <ele>211</ele>
        <time>2021-10-17T03:19:21.000Z</time>
      </trkpt>
      <trkpt lat="45.19864" lon="5.74212">
        <ele>211</ele>
        <time>2021-10-17T03:19:23.000Z</time>
      </trkpt>
      <trkpt lat="45.19872" lon="5.74204">
        <ele>210.80000305176</ele>
        <time>2021-10-17T03:19:28.000Z</time>
      </trkpt>
      <trkpt lat="45.19877" lon="5.74203">
        <ele>210.80000305176</ele>
        <time>2021-10-17T03:19:30.000Z</time>
      </trkpt>
      <trkpt lat="45.19882" lon="5.74204">
        <ele>210.80000305176</ele>
        <time>2021-10-17T03:19:32.000Z</time>
      </trkpt>
      <trkpt lat="45.19893" lon="5.74203">
        <ele>211</ele>
        <time>2021-10-17T03:19:36.000Z</time>
      </trkpt>
      <trkpt lat="45.19899" lon="5.74201">
        <ele>211</ele>
        <time>2021-10-17T03:19:38.000Z</time>
      </trkpt>
      <trkpt lat="45.19906" lon="5.74198">
        <ele>211</ele>
        <time>2021-10-17T03:19:41.000Z</time>
      </trkpt>
      <trkpt lat="45.19908" lon="5.74196">
        <ele>211</ele>
        <time>2021-10-17T03:19:42.000Z</time>
      </trkpt>
      <trkpt lat="45.19917" lon="5.7419">
        <ele>211.19999694824</ele>
        <time>2021-10-17T03:19:46.000Z</time>
      </trkpt>
      <trkpt lat="45.1992" lon="5.74186">
        <ele>211.19999694824</ele>
        <time>2021-10-17T03:19:48.000Z</time>
      </trkpt>
      <trkpt lat="45.19923" lon="5.74181">
        <ele>211.19999694824</ele>
        <time>2021-10-17T03:19:50.000Z</time>
      </trkpt>
      <trkpt lat="45.19925" lon="5.74178">
        <ele>211</ele>
        <time>2021-10-17T03:19:51.000Z</time>
      </trkpt>
      <trkpt lat="45.19927" lon="5.74177">
        <ele>211</ele>
        <time>2021-10-17T03:19:52.000Z</time>
      </trkpt>
      <trkpt lat="45.19931" lon="5.74175">
        <ele>211</ele>
        <time>2021-10-17T03:19:54.000Z</time>
      </trkpt>
      <trkpt lat="45.19937" lon="5.74173">
        <ele>211</ele>
        <time>2021-10-17T03:19:56.000Z</time>
      </trkpt>
      <trkpt lat="45.19951" lon="5.74171">
        <ele>211.19999694824</ele>
        <time>2021-10-17T03:20:01.000Z</time>
      </trkpt>
      <trkpt lat="45.19954" lon="5.7417">
        <ele>211.19999694824</ele>
        <time>2021-10-17T03:20:02.000Z</time>
      </trkpt>
      <trkpt lat="45.19964" lon="5.74161">
        <ele>211.19999694824</ele>
        <time>2021-10-17T03:20:07.000Z</time>
      </trkpt>
      <trkpt lat="45.19974" lon="5.74152">
        <ele>211.19999694824</ele>
        <time>2021-10-17T03:20:12.000Z</time>
      </trkpt>
      <trkpt lat="45.1998" lon="5.74147">
        <ele>211</ele>
        <time>2021-10-17T03:20:15.000Z</time>
      </trkpt>
      <trkpt lat="45.19987" lon="5.74134">
        <ele>210.80000305176</ele>
        <time>2021-10-17T03:20:20.000Z</time>
      </trkpt>
      <trkpt lat="45.19989" lon="5.74131">
        <ele>210.60000610352</ele>
        <time>2021-10-17T03:20:21.000Z</time>
      </trkpt>
      <trkpt lat="45.1999" lon="5.7413">
        <ele>210.19999694824</ele>
        <time>2021-10-17T03:20:22.000Z</time>
      </trkpt>
      <trkpt lat="45.19995" lon="5.74125">
        <ele>209.80000305176</ele>
        <time>2021-10-17T03:20:24.000Z</time>
      </trkpt>
      <trkpt lat="45.20001" lon="5.74118">
        <ele>209</ele>
        <time>2021-10-17T03:20:27.000Z</time>
      </trkpt>
      <trkpt lat="45.20008" lon="5.74111">
        <ele>208.60000610352</ele>
        <time>2021-10-17T03:20:30.000Z</time>
      </trkpt>
      <trkpt lat="45.20013" lon="5.74109">
        <ele>208.60000610352</ele>
        <time>2021-10-17T03:20:32.000Z</time>
      </trkpt>
      <trkpt lat="45.20017" lon="5.74106">
        <ele>208.39999389648</ele>
        <time>2021-10-17T03:20:34.000Z</time>
      </trkpt>
      <trkpt lat="45.20025" lon="5.74097">
        <ele>208.39999389648</ele>
        <time>2021-10-17T03:20:39.000Z</time>
      </trkpt>
      <trkpt lat="45.20029" lon="5.74057">
        <ele>209</ele>
        <time>2021-10-17T03:20:52.000Z</time>
      </trkpt>
      <trkpt lat="45.20041" lon="5.74051">
        <ele>209.39999389648</ele>
        <time>2021-10-17T03:20:54.000Z</time>
      </trkpt>
      <trkpt lat="45.20042" lon="5.74039">
        <ele>209.80000305176</ele>
        <time>2021-10-17T03:20:56.000Z</time>
      </trkpt>
      <trkpt lat="45.20042" lon="5.74033">
        <ele>210</ele>
        <time>2021-10-17T03:20:57.000Z</time>
      </trkpt>
      <trkpt lat="45.20041" lon="5.74027">
        <ele>210.19999694824</ele>
        <time>2021-10-17T03:20:58.000Z</time>
      </trkpt>
      <trkpt lat="45.20041" lon="5.74022">
        <ele>210.39999389648</ele>
        <time>2021-10-17T03:20:59.000Z</time>
      </trkpt>
      <trkpt lat="45.20043" lon="5.74015">
        <ele>210.80000305176</ele>
        <time>2021-10-17T03:21:02.000Z</time>
      </trkpt>
      <trkpt lat="45.20046" lon="5.74017">
        <ele>211</ele>
        <time>2021-10-17T03:21:05.000Z</time>
      </trkpt>
      <trkpt lat="45.20045" lon="5.74017">
        <ele>211.19999694824</ele>
        <time>2021-10-17T03:21:06.000Z</time>
      </trkpt>
      <trkpt lat="45.20045" lon="5.74019">
        <ele>211.19999694824</ele>
        <time>2021-10-17T03:21:07.000Z</time>
      </trkpt>
      <trkpt lat="45.20046" lon="5.74026">
        <ele>211.80000305176</ele>
        <time>2021-10-17T03:21:10.000Z</time>
      </trkpt>
      <trkpt lat="45.20045" lon="5.7403">
        <ele>212</ele>
        <time>2021-10-17T03:21:11.000Z</time>
      </trkpt>
      <trkpt lat="45.20044" lon="5.74032">
        <ele>212.19999694824</ele>
        <time>2021-10-17T03:21:12.000Z</time>
      </trkpt>
      <trkpt lat="45.20042" lon="5.74035">
        <ele>212.39999389648</ele>
        <time>2021-10-17T03:21:13.000Z</time>
      </trkpt>
      <trkpt lat="45.20041" lon="5.74036">
        <ele>212.60000610352</ele>
        <time>2021-10-17T03:21:14.000Z</time>
      </trkpt>
      <trkpt lat="45.20039" lon="5.74042">
        <ele>213</ele>
        <time>2021-10-17T03:21:16.000Z</time>
      </trkpt>
      <trkpt lat="45.20038" lon="5.74047">
        <ele>213.19999694824</ele>
        <time>2021-10-17T03:21:17.000Z</time>
      </trkpt>
      <trkpt lat="45.20037" lon="5.74054">
        <ele>213.19999694824</ele>
        <time>2021-10-17T03:21:19.000Z</time>
      </trkpt>
      <trkpt lat="45.20036" lon="5.74057">
        <ele>213.39999389648</ele>
        <time>2021-10-17T03:21:20.000Z</time>
      </trkpt>
      <trkpt lat="45.20035" lon="5.74059">
        <ele>213.39999389648</ele>
        <time>2021-10-17T03:21:21.000Z</time>
      </trkpt>
      <trkpt lat="45.20032" lon="5.74063">
        <ele>213.80000305176</ele>
        <time>2021-10-17T03:21:23.000Z</time>
      </trkpt>
      <trkpt lat="45.20032" lon="5.74064">
        <ele>214</ele>
        <time>2021-10-17T03:21:24.000Z</time>
      </trkpt>
      <trkpt lat="45.20033" lon="5.74068">
        <ele>214.39999389648</ele>
        <time>2021-10-17T03:21:27.000Z</time>
      </trkpt>
      <trkpt lat="45.20034" lon="5.7407">
        <ele>214.39999389648</ele>
        <time>2021-10-17T03:21:28.000Z</time>
      </trkpt>
      <trkpt lat="45.20035" lon="5.74072">
        <ele>214.60000610352</ele>
        <time>2021-10-17T03:21:29.000Z</time>
      </trkpt>
      <trkpt lat="45.20037" lon="5.74077">
        <ele>215</ele>
        <time>2021-10-17T03:21:32.000Z</time>
      </trkpt>
      <trkpt lat="45.20038" lon="5.74079">
        <ele>215</ele>
        <time>2021-10-17T03:21:33.000Z</time>
      </trkpt>
      <trkpt lat="45.2004" lon="5.74082">
        <ele>215</ele>
        <time>2021-10-17T03:21:35.000Z</time>
      </trkpt>
      <trkpt lat="45.20045" lon="5.74088">
        <ele>215</ele>
        <time>2021-10-17T03:21:37.000Z</time>
      </trkpt>
      <trkpt lat="45.20055" lon="5.74102">
        <ele>215.19999694824</ele>
        <time>2021-10-17T03:21:42.000Z</time>
      </trkpt>
      <trkpt lat="45.20058" lon="5.74107">
        <ele>215.19999694824</ele>
        <time>2021-10-17T03:21:44.000Z</time>
      </trkpt>
      <trkpt lat="45.20069" lon="5.74123">
        <ele>215.19999694824</ele>
        <time>2021-10-17T03:21:49.000Z</time>
      </trkpt>
      <trkpt lat="45.20081" lon="5.74136">
        <ele>215.19999694824</ele>
        <time>2021-10-17T03:21:54.000Z</time>
      </trkpt>
      <trkpt lat="45.20096" lon="5.74154">
        <ele>215.19999694824</ele>
        <time>2021-10-17T03:22:02.000Z</time>
      </trkpt>
      <trkpt lat="45.20098" lon="5.74155">
        <ele>215.19999694824</ele>
        <time>2021-10-17T03:22:03.000Z</time>
      </trkpt>
      <trkpt lat="45.20107" lon="5.74162">
        <ele>215.19999694824</ele>
        <time>2021-10-17T03:22:09.000Z</time>
      </trkpt>
      <trkpt lat="45.20116" lon="5.74169">
        <ele>215</ele>
        <time>2021-10-17T03:22:14.000Z</time>
      </trkpt>
      <trkpt lat="45.20123" lon="5.74161">
        <ele>214.39999389648</ele>
        <time>2021-10-17T03:22:18.000Z</time>
      </trkpt>
      <trkpt lat="45.2013" lon="5.74146">
        <ele>213.80000305176</ele>
        <time>2021-10-17T03:22:23.000Z</time>
      </trkpt>
      <trkpt lat="45.20133" lon="5.74141">
        <ele>213.19999694824</ele>
        <time>2021-10-17T03:22:25.000Z</time>
      </trkpt>
      <trkpt lat="45.2014" lon="5.74127">
        <ele>212.39999389648</ele>
        <time>2021-10-17T03:22:29.000Z</time>
      </trkpt>
      <trkpt lat="45.20141" lon="5.74123">
        <ele>212.19999694824</ele>
        <time>2021-10-17T03:22:30.000Z</time>
      </trkpt>
      <trkpt lat="45.20148" lon="5.74107">
        <ele>211.39999389648</ele>
        <time>2021-10-17T03:22:35.000Z</time>
      </trkpt>
      <trkpt lat="45.2015" lon="5.74102">
        <ele>211</ele>
        <time>2021-10-17T03:22:37.000Z</time>
      </trkpt>
      <trkpt lat="45.20152" lon="5.74098">
        <ele>211</ele>
        <time>2021-10-17T03:22:38.000Z</time>
      </trkpt>
      <trkpt lat="45.20152" lon="5.74095">
        <ele>210.80000305176</ele>
        <time>2021-10-17T03:22:39.000Z</time>
      </trkpt>
      <trkpt lat="45.2016" lon="5.74078">
        <ele>210.39999389648</ele>
        <time>2021-10-17T03:22:44.000Z</time>
      </trkpt>
      <trkpt lat="45.20167" lon="5.74066">
        <ele>210.19999694824</ele>
        <time>2021-10-17T03:22:48.000Z</time>
      </trkpt>
      <trkpt lat="45.2017" lon="5.7406">
        <ele>210</ele>
        <time>2021-10-17T03:22:50.000Z</time>
      </trkpt>
      <trkpt lat="45.20172" lon="5.74057">
        <ele>209.80000305176</ele>
        <time>2021-10-17T03:22:51.000Z</time>
      </trkpt>
      <trkpt lat="45.20178" lon="5.74044">
        <ele>209.80000305176</ele>
        <time>2021-10-17T03:22:55.000Z</time>
      </trkpt>
      <trkpt lat="45.20183" lon="5.74036">
        <ele>210</ele>
        <time>2021-10-17T03:22:58.000Z</time>
      </trkpt>
      <trkpt lat="45.20196" lon="5.74018">
        <ele>209.80000305176</ele>
        <time>2021-10-17T03:23:05.000Z</time>
      </trkpt>
      <trkpt lat="45.20202" lon="5.74011">
        <ele>209.60000610352</ele>
        <time>2021-10-17T03:23:08.000Z</time>
      </trkpt>
      <trkpt lat="45.20206" lon="5.74003">
        <ele>209.60000610352</ele>
        <time>2021-10-17T03:23:11.000Z</time>
      </trkpt>
      <trkpt lat="45.20208" lon="5.73997">
        <ele>209.80000305176</ele>
        <time>2021-10-17T03:23:13.000Z</time>
      </trkpt>
      <trkpt lat="45.2021" lon="5.73991">
        <ele>209.80000305176</ele>
        <time>2021-10-17T03:23:15.000Z</time>
      </trkpt>
      <trkpt lat="45.20218" lon="5.73966">
        <ele>209.80000305176</ele>
        <time>2021-10-17T03:23:22.000Z</time>
      </trkpt>
      <trkpt lat="45.20219" lon="5.73959">
        <ele>209.80000305176</ele>
        <time>2021-10-17T03:23:24.000Z</time>
      </trkpt>
      <trkpt lat="45.20226" lon="5.73932">
        <ele>209.60000610352</ele>
        <time>2021-10-17T03:23:32.000Z</time>
      </trkpt>
      <trkpt lat="45.20232" lon="5.73907">
        <ele>209.60000610352</ele>
        <time>2021-10-17T03:23:39.000Z</time>
      </trkpt>
      <trkpt lat="45.20232" lon="5.73903">
        <ele>209.60000610352</ele>
        <time>2021-10-17T03:23:40.000Z</time>
      </trkpt>
      <trkpt lat="45.20234" lon="5.73896">
        <ele>209.60000610352</ele>
        <time>2021-10-17T03:23:42.000Z</time>
      </trkpt>
      <trkpt lat="45.20237" lon="5.73879">
        <ele>209.60000610352</ele>
        <time>2021-10-17T03:23:47.000Z</time>
      </trkpt>
      <trkpt lat="45.20242" lon="5.73854">
        <ele>209.60000610352</ele>
        <time>2021-10-17T03:23:54.000Z</time>
      </trkpt>
      <trkpt lat="45.20249" lon="5.73829">
        <ele>209.60000610352</ele>
        <time>2021-10-17T03:24:01.000Z</time>
      </trkpt>
      <trkpt lat="45.20259" lon="5.73816">
        <ele>209.60000610352</ele>
        <time>2021-10-17T03:24:06.000Z</time>
      </trkpt>
      <trkpt lat="45.20263" lon="5.73812">
        <ele>209.80000305176</ele>
        <time>2021-10-17T03:24:08.000Z</time>
      </trkpt>
      <trkpt lat="45.20271" lon="5.73806">
        <ele>209.80000305176</ele>
        <time>2021-10-17T03:24:11.000Z</time>
      </trkpt>
      <trkpt lat="45.20273" lon="5.73802">
        <ele>210</ele>
        <time>2021-10-17T03:24:13.000Z</time>
      </trkpt>
      <trkpt lat="45.20277" lon="5.738">
        <ele>210.19999694824</ele>
        <time>2021-10-17T03:24:15.000Z</time>
      </trkpt>
      <trkpt lat="45.20281" lon="5.73799">
        <ele>210.19999694824</ele>
        <time>2021-10-17T03:24:17.000Z</time>
      </trkpt>
      <trkpt lat="45.20286" lon="5.73796">
        <ele>210.80000305176</ele>
        <time>2021-10-17T03:24:20.000Z</time>
      </trkpt>
      <trkpt lat="45.20288" lon="5.73796">
        <ele>211</ele>
        <time>2021-10-17T03:24:21.000Z</time>
      </trkpt>
      <trkpt lat="45.2029" lon="5.73796">
        <ele>211.19999694824</ele>
        <time>2021-10-17T03:24:22.000Z</time>
      </trkpt>
      <trkpt lat="45.20294" lon="5.73796">
        <ele>211.60000610352</ele>
        <time>2021-10-17T03:24:24.000Z</time>
      </trkpt>
      <trkpt lat="45.20296" lon="5.73795">
        <ele>211.80000305176</ele>
        <time>2021-10-17T03:24:25.000Z</time>
      </trkpt>
      <trkpt lat="45.20298" lon="5.73794">
        <ele>212.19999694824</ele>
        <time>2021-10-17T03:24:27.000Z</time>
      </trkpt>
      <trkpt lat="45.20299" lon="5.73793">
        <ele>212.39999389648</ele>
        <time>2021-10-17T03:24:28.000Z</time>
      </trkpt>
      <trkpt lat="45.20302" lon="5.73792">
        <ele>212.80000305176</ele>
        <time>2021-10-17T03:24:30.000Z</time>
      </trkpt>
      <trkpt lat="45.20305" lon="5.73789">
        <ele>213</ele>
        <time>2021-10-17T03:24:32.000Z</time>
      </trkpt>
      <trkpt lat="45.20306" lon="5.73788">
        <ele>213.19999694824</ele>
        <time>2021-10-17T03:24:33.000Z</time>
      </trkpt>
      <trkpt lat="45.20313" lon="5.73785">
        <ele>213.60000610352</ele>
        <time>2021-10-17T03:24:36.000Z</time>
      </trkpt>
      <trkpt lat="45.20315" lon="5.73785">
        <ele>213.60000610352</ele>
        <time>2021-10-17T03:24:37.000Z</time>
      </trkpt>
      <trkpt lat="45.20318" lon="5.73782">
        <ele>214</ele>
        <time>2021-10-17T03:24:39.000Z</time>
      </trkpt>
      <trkpt lat="45.20321" lon="5.73779">
        <ele>214.19999694824</ele>
        <time>2021-10-17T03:24:41.000Z</time>
      </trkpt>
      <trkpt lat="45.20323" lon="5.73779">
        <ele>214.39999389648</ele>
        <time>2021-10-17T03:24:42.000Z</time>
      </trkpt>
      <trkpt lat="45.20326" lon="5.73779">
        <ele>214.60000610352</ele>
        <time>2021-10-17T03:24:43.000Z</time>
      </trkpt>
      <trkpt lat="45.20328" lon="5.73777">
        <ele>214.80000305176</ele>
        <time>2021-10-17T03:24:44.000Z</time>
      </trkpt>
      <trkpt lat="45.20329" lon="5.73774">
        <ele>214.80000305176</ele>
        <time>2021-10-17T03:24:45.000Z</time>
      </trkpt>
      <trkpt lat="45.20331" lon="5.7377">
        <ele>215</ele>
        <time>2021-10-17T03:24:46.000Z</time>
      </trkpt>
      <trkpt lat="45.20341" lon="5.73761">
        <ele>215.60000610352</ele>
        <time>2021-10-17T03:24:50.000Z</time>
      </trkpt>
      <trkpt lat="45.20344" lon="5.73758">
        <ele>215.80000305176</ele>
        <time>2021-10-17T03:24:52.000Z</time>
      </trkpt>
      <trkpt lat="45.20349" lon="5.73756">
        <ele>216</ele>
        <time>2021-10-17T03:24:54.000Z</time>
      </trkpt>
      <trkpt lat="45.20352" lon="5.73753">
        <ele>216.39999389648</ele>
        <time>2021-10-17T03:24:56.000Z</time>
      </trkpt>
      <trkpt lat="45.20356" lon="5.73747">
        <ele>216.80000305176</ele>
        <time>2021-10-17T03:24:58.000Z</time>
      </trkpt>
      <trkpt lat="45.20365" lon="5.73733">
        <ele>217</ele>
        <time>2021-10-17T03:25:04.000Z</time>
      </trkpt>
      <trkpt lat="45.20371" lon="5.73726">
        <ele>217.19999694824</ele>
        <time>2021-10-17T03:25:07.000Z</time>
      </trkpt>
      <trkpt lat="45.20372" lon="5.73723">
        <ele>217.39999389648</ele>
        <time>2021-10-17T03:25:08.000Z</time>
      </trkpt>
      <trkpt lat="45.20374" lon="5.73722">
        <ele>217.60000610352</ele>
        <time>2021-10-17T03:25:09.000Z</time>
      </trkpt>
      <trkpt lat="45.20377" lon="5.73716">
        <ele>218</ele>
        <time>2021-10-17T03:25:11.000Z</time>
      </trkpt>
      <trkpt lat="45.20384" lon="5.73703">
        <ele>218.80000305176</ele>
        <time>2021-10-17T03:25:16.000Z</time>
      </trkpt>
      <trkpt lat="45.20386" lon="5.73703">
        <ele>219</ele>
        <time>2021-10-17T03:25:17.000Z</time>
      </trkpt>
      <trkpt lat="45.20397" lon="5.73707">
        <ele>219.39999389648</ele>
        <time>2021-10-17T03:25:20.000Z</time>
      </trkpt>
      <trkpt lat="45.20407" lon="5.73715">
        <ele>220</ele>
        <time>2021-10-17T03:25:24.000Z</time>
      </trkpt>
      <trkpt lat="45.20413" lon="5.73722">
        <ele>220</ele>
        <time>2021-10-17T03:25:27.000Z</time>
      </trkpt>
      <trkpt lat="45.20417" lon="5.73726">
        <ele>220.19999694824</ele>
        <time>2021-10-17T03:25:29.000Z</time>
      </trkpt>
      <trkpt lat="45.20418" lon="5.73728">
        <ele>220.39999389648</ele>
        <time>2021-10-17T03:25:30.000Z</time>
      </trkpt>
      <trkpt lat="45.20422" lon="5.73731">
        <ele>220.60000610352</ele>
        <time>2021-10-17T03:25:33.000Z</time>
      </trkpt>
      <trkpt lat="45.20424" lon="5.73733">
        <ele>220.60000610352</ele>
        <time>2021-10-17T03:25:34.000Z</time>
      </trkpt>
      <trkpt lat="45.2043" lon="5.73742">
        <ele>221</ele>
        <time>2021-10-17T03:25:38.000Z</time>
      </trkpt>
      <trkpt lat="45.20432" lon="5.73745">
        <ele>221.19999694824</ele>
        <time>2021-10-17T03:25:40.000Z</time>
      </trkpt>
      <trkpt lat="45.20434" lon="5.7375">
        <ele>221.39999389648</ele>
        <time>2021-10-17T03:25:42.000Z</time>
      </trkpt>
      <trkpt lat="45.20437" lon="5.73754">
        <ele>221.39999389648</ele>
        <time>2021-10-17T03:25:44.000Z</time>
      </trkpt>
      <trkpt lat="45.20442" lon="5.73759">
        <ele>221.80000305176</ele>
        <time>2021-10-17T03:25:47.000Z</time>
      </trkpt>
      <trkpt lat="45.20447" lon="5.73763">
        <ele>222</ele>
        <time>2021-10-17T03:25:49.000Z</time>
      </trkpt>
      <trkpt lat="45.20451" lon="5.73767">
        <ele>222</ele>
        <time>2021-10-17T03:25:52.000Z</time>
      </trkpt>
      <trkpt lat="45.20452" lon="5.73769">
        <ele>222.19999694824</ele>
        <time>2021-10-17T03:25:53.000Z</time>
      </trkpt>
      <trkpt lat="45.20453" lon="5.73772">
        <ele>222.39999389648</ele>
        <time>2021-10-17T03:25:54.000Z</time>
      </trkpt>
      <trkpt lat="45.20459" lon="5.73779">
        <ele>222.60000610352</ele>
        <time>2021-10-17T03:25:58.000Z</time>
      </trkpt>
      <trkpt lat="45.20463" lon="5.73787">
        <ele>222.80000305176</ele>
        <time>2021-10-17T03:26:01.000Z</time>
      </trkpt>
      <trkpt lat="45.20469" lon="5.73793">
        <ele>223.19999694824</ele>
        <time>2021-10-17T03:26:04.000Z</time>
      </trkpt>
      <trkpt lat="45.20478" lon="5.73804">
        <ele>223.60000610352</ele>
        <time>2021-10-17T03:26:09.000Z</time>
      </trkpt>
      <trkpt lat="45.20484" lon="5.7381">
        <ele>224.39999389648</ele>
        <time>2021-10-17T03:26:13.000Z</time>
      </trkpt>
      <trkpt lat="45.20488" lon="5.73814">
        <ele>224.60000610352</ele>
        <time>2021-10-17T03:26:15.000Z</time>
      </trkpt>
      <trkpt lat="45.20491" lon="5.73817">
        <ele>225</ele>
        <time>2021-10-17T03:26:17.000Z</time>
      </trkpt>
      <trkpt lat="45.20493" lon="5.73818">
        <ele>225.19999694824</ele>
        <time>2021-10-17T03:26:20.000Z</time>
      </trkpt>
      <trkpt lat="45.20494" lon="5.73819">
        <ele>225.39999389648</ele>
        <time>2021-10-17T03:26:21.000Z</time>
      </trkpt>
      <trkpt lat="45.20497" lon="5.73821">
        <ele>226</ele>
        <time>2021-10-17T03:26:24.000Z</time>
      </trkpt>
      <trkpt lat="45.20507" lon="5.73832">
        <ele>226.60000610352</ele>
        <time>2021-10-17T03:26:30.000Z</time>
      </trkpt>
      <trkpt lat="45.20509" lon="5.73835">
        <ele>227</ele>
        <time>2021-10-17T03:26:31.000Z</time>
      </trkpt>
      <trkpt lat="45.2051" lon="5.73836">
        <ele>227.19999694824</ele>
        <time>2021-10-17T03:26:32.000Z</time>
      </trkpt>
      <trkpt lat="45.20515" lon="5.7384">
        <ele>227.60000610352</ele>
        <time>2021-10-17T03:26:34.000Z</time>
      </trkpt>
      <trkpt lat="45.2052" lon="5.73844">
        <ele>228</ele>
        <time>2021-10-17T03:26:36.000Z</time>
      </trkpt>
      <trkpt lat="45.20527" lon="5.73845">
        <ele>228.80000305176</ele>
        <time>2021-10-17T03:26:39.000Z</time>
      </trkpt>
      <trkpt lat="45.20528" lon="5.73845">
        <ele>229</ele>
        <time>2021-10-17T03:26:40.000Z</time>
      </trkpt>
      <trkpt lat="45.20532" lon="5.7385">
        <ele>229.39999389648</ele>
        <time>2021-10-17T03:26:43.000Z</time>
      </trkpt>
      <trkpt lat="45.20535" lon="5.73854">
        <ele>230.19999694824</ele>
        <time>2021-10-17T03:26:45.000Z</time>
      </trkpt>
      <trkpt lat="45.20539" lon="5.73858">
        <ele>230.60000610352</ele>
        <time>2021-10-17T03:26:47.000Z</time>
      </trkpt>
      <trkpt lat="45.20543" lon="5.73863">
        <ele>231.19999694824</ele>
        <time>2021-10-17T03:26:49.000Z</time>
      </trkpt>
      <trkpt lat="45.20544" lon="5.73866">
        <ele>231.80000305176</ele>
        <time>2021-10-17T03:26:51.000Z</time>
      </trkpt>
      <trkpt lat="45.20546" lon="5.73869">
        <ele>232.39999389648</ele>
        <time>2021-10-17T03:26:53.000Z</time>
      </trkpt>
      <trkpt lat="45.20549" lon="5.73873">
        <ele>233.60000610352</ele>
        <time>2021-10-17T03:26:57.000Z</time>
      </trkpt>
      <trkpt lat="45.20549" lon="5.7387">
        <ele>233.80000305176</ele>
        <time>2021-10-17T03:26:58.000Z</time>
      </trkpt>
      <trkpt lat="45.20551" lon="5.73871">
        <ele>234.60000610352</ele>
        <time>2021-10-17T03:27:00.000Z</time>
      </trkpt>
      <trkpt lat="45.20554" lon="5.73872">
        <ele>235.19999694824</ele>
        <time>2021-10-17T03:27:02.000Z</time>
      </trkpt>
      <trkpt lat="45.20555" lon="5.73871">
        <ele>235.60000610352</ele>
        <time>2021-10-17T03:27:04.000Z</time>
      </trkpt>
      <trkpt lat="45.20557" lon="5.73871">
        <ele>236</ele>
        <time>2021-10-17T03:27:05.000Z</time>
      </trkpt>
      <trkpt lat="45.20562" lon="5.73875">
        <ele>236.60000610352</ele>
        <time>2021-10-17T03:27:07.000Z</time>
      </trkpt>
      <trkpt lat="45.20567" lon="5.73878">
        <ele>237</ele>
        <time>2021-10-17T03:27:09.000Z</time>
      </trkpt>
      <trkpt lat="45.20568" lon="5.73877">
        <ele>237.39999389648</ele>
        <time>2021-10-17T03:27:10.000Z</time>
      </trkpt>
      <trkpt lat="45.2057" lon="5.73876">
        <ele>237.60000610352</ele>
        <time>2021-10-17T03:27:11.000Z</time>
      </trkpt>
      <trkpt lat="45.20573" lon="5.73875">
        <ele>238</ele>
        <time>2021-10-17T03:27:13.000Z</time>
      </trkpt>
      <trkpt lat="45.20578" lon="5.73873">
        <ele>238.80000305176</ele>
        <time>2021-10-17T03:27:16.000Z</time>
      </trkpt>
      <trkpt lat="45.20579" lon="5.73871">
        <ele>239.19999694824</ele>
        <time>2021-10-17T03:27:17.000Z</time>
      </trkpt>
      <trkpt lat="45.20583" lon="5.7387">
        <ele>239.80000305176</ele>
        <time>2021-10-17T03:27:20.000Z</time>
      </trkpt>
      <trkpt lat="45.20585" lon="5.73869">
        <ele>240.39999389648</ele>
        <time>2021-10-17T03:27:22.000Z</time>
      </trkpt>
      <trkpt lat="45.20587" lon="5.73867">
        <ele>241</ele>
        <time>2021-10-17T03:27:24.000Z</time>
      </trkpt>
      <trkpt lat="45.20589" lon="5.73867">
        <ele>241.39999389648</ele>
        <time>2021-10-17T03:27:26.000Z</time>
      </trkpt>
      <trkpt lat="45.20591" lon="5.73865">
        <ele>242</ele>
        <time>2021-10-17T03:27:28.000Z</time>
      </trkpt>
      <trkpt lat="45.20593" lon="5.73863">
        <ele>242.60000610352</ele>
        <time>2021-10-17T03:27:30.000Z</time>
      </trkpt>
      <trkpt lat="45.20598" lon="5.73858">
        <ele>243.80000305176</ele>
        <time>2021-10-17T03:27:34.000Z</time>
      </trkpt>
      <trkpt lat="45.20603" lon="5.73858">
        <ele>244.80000305176</ele>
        <time>2021-10-17T03:27:37.000Z</time>
      </trkpt>
      <trkpt lat="45.20607" lon="5.73857">
        <ele>245.60000610352</ele>
        <time>2021-10-17T03:27:40.000Z</time>
      </trkpt>
      <trkpt lat="45.20608" lon="5.73857">
        <ele>245.80000305176</ele>
        <time>2021-10-17T03:27:41.000Z</time>
      </trkpt>
      <trkpt lat="45.20611" lon="5.73856">
        <ele>246.39999389648</ele>
        <time>2021-10-17T03:27:43.000Z</time>
      </trkpt>
      <trkpt lat="45.20614" lon="5.73855">
        <ele>247</ele>
        <time>2021-10-17T03:27:45.000Z</time>
      </trkpt>
      <trkpt lat="45.20619" lon="5.7385">
        <ele>248</ele>
        <time>2021-10-17T03:27:49.000Z</time>
      </trkpt>
      <trkpt lat="45.2062" lon="5.7385">
        <ele>248.39999389648</ele>
        <time>2021-10-17T03:27:50.000Z</time>
      </trkpt>
      <trkpt lat="45.20624" lon="5.73849">
        <ele>248.80000305176</ele>
        <time>2021-10-17T03:27:52.000Z</time>
      </trkpt>
      <trkpt lat="45.20627" lon="5.73848">
        <ele>249.19999694824</ele>
        <time>2021-10-17T03:27:54.000Z</time>
      </trkpt>
      <trkpt lat="45.20629" lon="5.73848">
        <ele>249.80000305176</ele>
        <time>2021-10-17T03:27:56.000Z</time>
      </trkpt>
      <trkpt lat="45.20632" lon="5.73848">
        <ele>250.39999389648</ele>
        <time>2021-10-17T03:27:58.000Z</time>
      </trkpt>
      <trkpt lat="45.20635" lon="5.73847">
        <ele>251.60000610352</ele>
        <time>2021-10-17T03:28:01.000Z</time>
      </trkpt>
      <trkpt lat="45.20636" lon="5.73848">
        <ele>252</ele>
        <time>2021-10-17T03:28:02.000Z</time>
      </trkpt>
      <trkpt lat="45.20641" lon="5.73847">
        <ele>253</ele>
        <time>2021-10-17T03:28:05.000Z</time>
      </trkpt>
      <trkpt lat="45.20644" lon="5.73847">
        <ele>253.39999389648</ele>
        <time>2021-10-17T03:28:07.000Z</time>
      </trkpt>
      <trkpt lat="45.20646" lon="5.73846">
        <ele>254.19999694824</ele>
        <time>2021-10-17T03:28:09.000Z</time>
      </trkpt>
      <trkpt lat="45.20649" lon="5.73845">
        <ele>255</ele>
        <time>2021-10-17T03:28:12.000Z</time>
      </trkpt>
      <trkpt lat="45.2065" lon="5.73844">
        <ele>255.39999389648</ele>
        <time>2021-10-17T03:28:13.000Z</time>
      </trkpt>
      <trkpt lat="45.20653" lon="5.73843">
        <ele>256.20001220703</ele>
        <time>2021-10-17T03:28:16.000Z</time>
      </trkpt>
      <trkpt lat="45.20654" lon="5.73842">
        <ele>256.79998779297</ele>
        <time>2021-10-17T03:28:17.000Z</time>
      </trkpt>
      <trkpt lat="45.20655" lon="5.73841">
        <ele>257.20001220703</ele>
        <time>2021-10-17T03:28:18.000Z</time>
      </trkpt>
      <trkpt lat="45.20659" lon="5.73841">
        <ele>257.79998779297</ele>
        <time>2021-10-17T03:28:20.000Z</time>
      </trkpt>
      <trkpt lat="45.20661" lon="5.73841">
        <ele>258</ele>
        <time>2021-10-17T03:28:21.000Z</time>
      </trkpt>
      <trkpt lat="45.20666" lon="5.73839">
        <ele>259.20001220703</ele>
        <time>2021-10-17T03:28:25.000Z</time>
      </trkpt>
      <trkpt lat="45.20667" lon="5.73839">
        <ele>259.39999389648</ele>
        <time>2021-10-17T03:28:26.000Z</time>
      </trkpt>
      <trkpt lat="45.20671" lon="5.73838">
        <ele>260.39999389648</ele>
        <time>2021-10-17T03:28:29.000Z</time>
      </trkpt>
      <trkpt lat="45.20675" lon="5.73832">
        <ele>261.39999389648</ele>
        <time>2021-10-17T03:28:32.000Z</time>
      </trkpt>
      <trkpt lat="45.20676" lon="5.73832">
        <ele>261.60000610352</ele>
        <time>2021-10-17T03:28:33.000Z</time>
      </trkpt>
      <trkpt lat="45.2068" lon="5.73831">
        <ele>262.39999389648</ele>
        <time>2021-10-17T03:28:37.000Z</time>
      </trkpt>
      <trkpt lat="45.20681" lon="5.7383">
        <ele>262.60000610352</ele>
        <time>2021-10-17T03:28:38.000Z</time>
      </trkpt>
      <trkpt lat="45.20683" lon="5.73827">
        <ele>263.39999389648</ele>
        <time>2021-10-17T03:28:41.000Z</time>
      </trkpt>
      <trkpt lat="45.20684" lon="5.73825">
        <ele>263.60000610352</ele>
        <time>2021-10-17T03:28:42.000Z</time>
      </trkpt>
      <trkpt lat="45.20687" lon="5.73822">
        <ele>264.39999389648</ele>
        <time>2021-10-17T03:28:45.000Z</time>
      </trkpt>
      <trkpt lat="45.20688" lon="5.73822">
        <ele>265</ele>
        <time>2021-10-17T03:28:46.000Z</time>
      </trkpt>
      <trkpt lat="45.20694" lon="5.73824">
        <ele>265.79998779297</ele>
        <time>2021-10-17T03:28:50.000Z</time>
      </trkpt>
      <trkpt lat="45.20695" lon="5.73822">
        <ele>266.20001220703</ele>
        <time>2021-10-17T03:28:51.000Z</time>
      </trkpt>
      <trkpt lat="45.20696" lon="5.73817">
        <ele>266.79998779297</ele>
        <time>2021-10-17T03:28:53.000Z</time>
      </trkpt>
      <trkpt lat="45.20697" lon="5.73815">
        <ele>267</ele>
        <time>2021-10-17T03:28:54.000Z</time>
      </trkpt>
      <trkpt lat="45.20698" lon="5.73811">
        <ele>267.60000610352</ele>
        <time>2021-10-17T03:28:56.000Z</time>
      </trkpt>
      <trkpt lat="45.20698" lon="5.7381">
        <ele>268</ele>
        <time>2021-10-17T03:28:57.000Z</time>
      </trkpt>
      <trkpt lat="45.20701" lon="5.73809">
        <ele>268.60000610352</ele>
        <time>2021-10-17T03:29:00.000Z</time>
      </trkpt>
      <trkpt lat="45.20702" lon="5.73809">
        <ele>269</ele>
        <time>2021-10-17T03:29:01.000Z</time>
      </trkpt>
      <trkpt lat="45.20703" lon="5.73809">
        <ele>269.20001220703</ele>
        <time>2021-10-17T03:29:02.000Z</time>
      </trkpt>
      <trkpt lat="45.20706" lon="5.73808">
        <ele>269.79998779297</ele>
        <time>2021-10-17T03:29:04.000Z</time>
      </trkpt>
      <trkpt lat="45.20708" lon="5.73806">
        <ele>270.20001220703</ele>
        <time>2021-10-17T03:29:06.000Z</time>
      </trkpt>
      <trkpt lat="45.20708" lon="5.73805">
        <ele>270.60000610352</ele>
        <time>2021-10-17T03:29:07.000Z</time>
      </trkpt>
      <trkpt lat="45.20711" lon="5.73805">
        <ele>271.20001220703</ele>
        <time>2021-10-17T03:29:09.000Z</time>
      </trkpt>
      <trkpt lat="45.20712" lon="5.73804">
        <ele>271.60000610352</ele>
        <time>2021-10-17T03:29:11.000Z</time>
      </trkpt>
      <trkpt lat="45.20713" lon="5.73803">
        <ele>272</ele>
        <time>2021-10-17T03:29:12.000Z</time>
      </trkpt>
      <trkpt lat="45.20715" lon="5.73802">
        <ele>272.39999389648</ele>
        <time>2021-10-17T03:29:13.000Z</time>
      </trkpt>
      <trkpt lat="45.2072" lon="5.73798">
        <ele>273.60000610352</ele>
        <time>2021-10-17T03:29:17.000Z</time>
      </trkpt>
      <trkpt lat="45.20725" lon="5.73797">
        <ele>274.60000610352</ele>
        <time>2021-10-17T03:29:20.000Z</time>
      </trkpt>
      <trkpt lat="45.20727" lon="5.73796">
        <ele>275</ele>
        <time>2021-10-17T03:29:21.000Z</time>
      </trkpt>
      <trkpt lat="45.20729" lon="5.73794">
        <ele>275.79998779297</ele>
        <time>2021-10-17T03:29:24.000Z</time>
      </trkpt>
      <trkpt lat="45.2073" lon="5.73787">
        <ele>277</ele>
        <time>2021-10-17T03:29:28.000Z</time>
      </trkpt>
      <trkpt lat="45.20731" lon="5.73781">
        <ele>278.39999389648</ele>
        <time>2021-10-17T03:29:33.000Z</time>
      </trkpt>
      <trkpt lat="45.20732" lon="5.73782">
        <ele>278.79998779297</ele>
        <time>2021-10-17T03:29:34.000Z</time>
      </trkpt>
      <trkpt lat="45.20733" lon="5.73782">
        <ele>279.39999389648</ele>
        <time>2021-10-17T03:29:36.000Z</time>
      </trkpt>
      <trkpt lat="45.20734" lon="5.73781">
        <ele>279.79998779297</ele>
        <time>2021-10-17T03:29:37.000Z</time>
      </trkpt>
      <trkpt lat="45.20737" lon="5.7378">
        <ele>280.79998779297</ele>
        <time>2021-10-17T03:29:40.000Z</time>
      </trkpt>
      <trkpt lat="45.20738" lon="5.73778">
        <ele>281.20001220703</ele>
        <time>2021-10-17T03:29:41.000Z</time>
      </trkpt>
      <trkpt lat="45.2074" lon="5.73778">
        <ele>281.79998779297</ele>
        <time>2021-10-17T03:29:43.000Z</time>
      </trkpt>
      <trkpt lat="45.20741" lon="5.73777">
        <ele>282.20001220703</ele>
        <time>2021-10-17T03:29:44.000Z</time>
      </trkpt>
      <trkpt lat="45.20744" lon="5.73776">
        <ele>282.79998779297</ele>
        <time>2021-10-17T03:29:46.000Z</time>
      </trkpt>
      <trkpt lat="45.20748" lon="5.73779">
        <ele>284</ele>
        <time>2021-10-17T03:29:49.000Z</time>
      </trkpt>
      <trkpt lat="45.2075" lon="5.73779">
        <ele>284.60000610352</ele>
        <time>2021-10-17T03:29:51.000Z</time>
      </trkpt>
      <trkpt lat="45.2075" lon="5.73777">
        <ele>285.20001220703</ele>
        <time>2021-10-17T03:29:53.000Z</time>
      </trkpt>
      <trkpt lat="45.20749" lon="5.73775">
        <ele>285.79998779297</ele>
        <time>2021-10-17T03:29:55.000Z</time>
      </trkpt>
      <trkpt lat="45.2075" lon="5.73774">
        <ele>286.39999389648</ele>
        <time>2021-10-17T03:29:57.000Z</time>
      </trkpt>
      <trkpt lat="45.20752" lon="5.73774">
        <ele>286.79998779297</ele>
        <time>2021-10-17T03:29:58.000Z</time>
      </trkpt>
      <trkpt lat="45.20753" lon="5.73774">
        <ele>287</ele>
        <time>2021-10-17T03:29:59.000Z</time>
      </trkpt>
      <trkpt lat="45.20755" lon="5.73771">
        <ele>287.60000610352</ele>
        <time>2021-10-17T03:30:01.000Z</time>
      </trkpt>
      <trkpt lat="45.20756" lon="5.73771">
        <ele>288.20001220703</ele>
        <time>2021-10-17T03:30:02.000Z</time>
      </trkpt>
      <trkpt lat="45.20759" lon="5.73769">
        <ele>288.79998779297</ele>
        <time>2021-10-17T03:30:04.000Z</time>
      </trkpt>
      <trkpt lat="45.2076" lon="5.73769">
        <ele>289</ele>
        <time>2021-10-17T03:30:05.000Z</time>
      </trkpt>
      <trkpt lat="45.20762" lon="5.73767">
        <ele>289.60000610352</ele>
        <time>2021-10-17T03:30:07.000Z</time>
      </trkpt>
      <trkpt lat="45.20763" lon="5.73765">
        <ele>290</ele>
        <time>2021-10-17T03:30:08.000Z</time>
      </trkpt>
      <trkpt lat="45.20766" lon="5.7376">
        <ele>290.79998779297</ele>
        <time>2021-10-17T03:30:11.000Z</time>
      </trkpt>
      <trkpt lat="45.20768" lon="5.73759">
        <ele>291</ele>
        <time>2021-10-17T03:30:12.000Z</time>
      </trkpt>
      <trkpt lat="45.20769" lon="5.73755">
        <ele>292.20001220703</ele>
        <time>2021-10-17T03:30:15.000Z</time>
      </trkpt>
      <trkpt lat="45.20769" lon="5.73755">
        <ele>292.79998779297</ele>
        <time>2021-10-17T03:30:16.000Z</time>
      </trkpt>
      <trkpt lat="45.20772" lon="5.73755">
        <ele>293.39999389648</ele>
        <time>2021-10-17T03:30:18.000Z</time>
      </trkpt>
      <trkpt lat="45.20774" lon="5.7375">
        <ele>294.20001220703</ele>
        <time>2021-10-17T03:30:21.000Z</time>
      </trkpt>
      <trkpt lat="45.20774" lon="5.73749">
        <ele>294.60000610352</ele>
        <time>2021-10-17T03:30:22.000Z</time>
      </trkpt>
      <trkpt lat="45.20776" lon="5.73745">
        <ele>295.60000610352</ele>
        <time>2021-10-17T03:30:25.000Z</time>
      </trkpt>
      <trkpt lat="45.20777" lon="5.73745">
        <ele>295.79998779297</ele>
        <time>2021-10-17T03:30:26.000Z</time>
      </trkpt>
      <trkpt lat="45.20781" lon="5.73745">
        <ele>296.39999389648</ele>
        <time>2021-10-17T03:30:30.000Z</time>
      </trkpt>
      <trkpt lat="45.20783" lon="5.73745">
        <ele>296.60000610352</ele>
        <time>2021-10-17T03:30:31.000Z</time>
      </trkpt>
      <trkpt lat="45.20784" lon="5.73744">
        <ele>296.79998779297</ele>
        <time>2021-10-17T03:30:32.000Z</time>
      </trkpt>
      <trkpt lat="45.20789" lon="5.73742">
        <ele>297.79998779297</ele>
        <time>2021-10-17T03:30:36.000Z</time>
      </trkpt>
      <trkpt lat="45.20791" lon="5.73741">
        <ele>298.79998779297</ele>
        <time>2021-10-17T03:30:39.000Z</time>
      </trkpt>
      <trkpt lat="45.20792" lon="5.7374">
        <ele>299</ele>
        <time>2021-10-17T03:30:40.000Z</time>
      </trkpt>
      <trkpt lat="45.20795" lon="5.73739">
        <ele>300</ele>
        <time>2021-10-17T03:30:44.000Z</time>
      </trkpt>
      <trkpt lat="45.20797" lon="5.73736">
        <ele>301</ele>
        <time>2021-10-17T03:30:47.000Z</time>
      </trkpt>
      <trkpt lat="45.20799" lon="5.73736">
        <ele>301.20001220703</ele>
        <time>2021-10-17T03:30:48.000Z</time>
      </trkpt>
      <trkpt lat="45.20804" lon="5.73739">
        <ele>301.60000610352</ele>
        <time>2021-10-17T03:30:50.000Z</time>
      </trkpt>
      <trkpt lat="45.20805" lon="5.73738">
        <ele>302</ele>
        <time>2021-10-17T03:30:51.000Z</time>
      </trkpt>
      <trkpt lat="45.20806" lon="5.73737">
        <ele>302.20001220703</ele>
        <time>2021-10-17T03:30:52.000Z</time>
      </trkpt>
      <trkpt lat="45.20806" lon="5.73736">
        <ele>302.60000610352</ele>
        <time>2021-10-17T03:30:53.000Z</time>
      </trkpt>
      <trkpt lat="45.20807" lon="5.73734">
        <ele>303.39999389648</ele>
        <time>2021-10-17T03:30:55.000Z</time>
      </trkpt>
      <trkpt lat="45.20808" lon="5.73733">
        <ele>303.60000610352</ele>
        <time>2021-10-17T03:30:56.000Z</time>
      </trkpt>
      <trkpt lat="45.20808" lon="5.73732">
        <ele>304</ele>
        <time>2021-10-17T03:30:57.000Z</time>
      </trkpt>
      <trkpt lat="45.20808" lon="5.73731">
        <ele>304.60000610352</ele>
        <time>2021-10-17T03:30:59.000Z</time>
      </trkpt>
      <trkpt lat="45.20809" lon="5.73731">
        <ele>305.20001220703</ele>
        <time>2021-10-17T03:31:00.000Z</time>
      </trkpt>
      <trkpt lat="45.20811" lon="5.73732">
        <ele>305.60000610352</ele>
        <time>2021-10-17T03:31:02.000Z</time>
      </trkpt>
      <trkpt lat="45.20812" lon="5.73732">
        <ele>305.79998779297</ele>
        <time>2021-10-17T03:31:03.000Z</time>
      </trkpt>
      <trkpt lat="45.20813" lon="5.73733">
        <ele>306</ele>
        <time>2021-10-17T03:31:04.000Z</time>
      </trkpt>
      <trkpt lat="45.20815" lon="5.73735">
        <ele>306.60000610352</ele>
        <time>2021-10-17T03:31:06.000Z</time>
      </trkpt>
      <trkpt lat="45.20818" lon="5.73741">
        <ele>307.39999389648</ele>
        <time>2021-10-17T03:31:10.000Z</time>
      </trkpt>
      <trkpt lat="45.20819" lon="5.73742">
        <ele>307.39999389648</ele>
        <time>2021-10-17T03:31:11.000Z</time>
      </trkpt>
      <trkpt lat="45.20821" lon="5.73743">
        <ele>307.79998779297</ele>
        <time>2021-10-17T03:31:13.000Z</time>
      </trkpt>
      <trkpt lat="45.20825" lon="5.73742">
        <ele>308.39999389648</ele>
        <time>2021-10-17T03:31:16.000Z</time>
      </trkpt>
      <trkpt lat="45.20826" lon="5.73742">
        <ele>308.79998779297</ele>
        <time>2021-10-17T03:31:17.000Z</time>
      </trkpt>
      <trkpt lat="45.20827" lon="5.73742">
        <ele>309.20001220703</ele>
        <time>2021-10-17T03:31:18.000Z</time>
      </trkpt>
      <trkpt lat="45.20833" lon="5.73744">
        <ele>310.20001220703</ele>
        <time>2021-10-17T03:31:22.000Z</time>
      </trkpt>
      <trkpt lat="45.20836" lon="5.73744">
        <ele>311</ele>
        <time>2021-10-17T03:31:24.000Z</time>
      </trkpt>
      <trkpt lat="45.20837" lon="5.73743">
        <ele>311.20001220703</ele>
        <time>2021-10-17T03:31:25.000Z</time>
      </trkpt>
      <trkpt lat="45.20839" lon="5.73741">
        <ele>311.79998779297</ele>
        <time>2021-10-17T03:31:27.000Z</time>
      </trkpt>
      <trkpt lat="45.2084" lon="5.73739">
        <ele>311.79998779297</ele>
        <time>2021-10-17T03:31:28.000Z</time>
      </trkpt>
      <trkpt lat="45.20841" lon="5.73736">
        <ele>312.60000610352</ele>
        <time>2021-10-17T03:31:30.000Z</time>
      </trkpt>
      <trkpt lat="45.20841" lon="5.73734">
        <ele>312.79998779297</ele>
        <time>2021-10-17T03:31:31.000Z</time>
      </trkpt>
      <trkpt lat="45.20842" lon="5.73732">
        <ele>313.20001220703</ele>
        <time>2021-10-17T03:31:32.000Z</time>
      </trkpt>
      <trkpt lat="45.20843" lon="5.73732">
        <ele>313.60000610352</ele>
        <time>2021-10-17T03:31:33.000Z</time>
      </trkpt>
      <trkpt lat="45.20844" lon="5.73732">
        <ele>313.79998779297</ele>
        <time>2021-10-17T03:31:34.000Z</time>
      </trkpt>
      <trkpt lat="45.20845" lon="5.73732">
        <ele>314.60000610352</ele>
        <time>2021-10-17T03:31:36.000Z</time>
      </trkpt>
      <trkpt lat="45.20846" lon="5.73735">
        <ele>315.20001220703</ele>
        <time>2021-10-17T03:31:38.000Z</time>
      </trkpt>
      <trkpt lat="45.20847" lon="5.73736">
        <ele>315.79998779297</ele>
        <time>2021-10-17T03:31:40.000Z</time>
      </trkpt>
      <trkpt lat="45.20847" lon="5.73737">
        <ele>316</ele>
        <time>2021-10-17T03:31:41.000Z</time>
      </trkpt>
      <trkpt lat="45.2085" lon="5.73738">
        <ele>316.39999389648</ele>
        <time>2021-10-17T03:31:43.000Z</time>
      </trkpt>
      <trkpt lat="45.20852" lon="5.73737">
        <ele>316.79998779297</ele>
        <time>2021-10-17T03:31:45.000Z</time>
      </trkpt>
      <trkpt lat="45.20852" lon="5.73736">
        <ele>317.39999389648</ele>
        <time>2021-10-17T03:31:47.000Z</time>
      </trkpt>
      <trkpt lat="45.20852" lon="5.73735">
        <ele>317.79998779297</ele>
        <time>2021-10-17T03:31:48.000Z</time>
      </trkpt>
      <trkpt lat="45.2085" lon="5.73733">
        <ele>318.20001220703</ele>
        <time>2021-10-17T03:31:49.000Z</time>
      </trkpt>
      <trkpt lat="45.2085" lon="5.73731">
        <ele>318.39999389648</ele>
        <time>2021-10-17T03:31:50.000Z</time>
      </trkpt>
      <trkpt lat="45.20851" lon="5.7373">
        <ele>318.60000610352</ele>
        <time>2021-10-17T03:31:51.000Z</time>
      </trkpt>
      <trkpt lat="45.20852" lon="5.73731">
        <ele>319.20001220703</ele>
        <time>2021-10-17T03:31:53.000Z</time>
      </trkpt>
      <trkpt lat="45.20856" lon="5.73731">
        <ele>319.60000610352</ele>
        <time>2021-10-17T03:31:55.000Z</time>
      </trkpt>
      <trkpt lat="45.20857" lon="5.73732">
        <ele>319.79998779297</ele>
        <time>2021-10-17T03:31:56.000Z</time>
      </trkpt>
      <trkpt lat="45.20861" lon="5.73734">
        <ele>320.60000610352</ele>
        <time>2021-10-17T03:31:59.000Z</time>
      </trkpt>
      <trkpt lat="45.20862" lon="5.73733">
        <ele>320.79998779297</ele>
        <time>2021-10-17T03:32:00.000Z</time>
      </trkpt>
      <trkpt lat="45.20863" lon="5.73733">
        <ele>321</ele>
        <time>2021-10-17T03:32:01.000Z</time>
      </trkpt>
      <trkpt lat="45.20865" lon="5.73732">
        <ele>321.79998779297</ele>
        <time>2021-10-17T03:32:04.000Z</time>
      </trkpt>
      <trkpt lat="45.20868" lon="5.73733">
        <ele>322.79998779297</ele>
        <time>2021-10-17T03:32:07.000Z</time>
      </trkpt>
      <trkpt lat="45.20873" lon="5.73737">
        <ele>323.79998779297</ele>
        <time>2021-10-17T03:32:12.000Z</time>
      </trkpt>
      <trkpt lat="45.20875" lon="5.73738">
        <ele>324.60000610352</ele>
        <time>2021-10-17T03:32:14.000Z</time>
      </trkpt>
      <trkpt lat="45.20877" lon="5.73738">
        <ele>325</ele>
        <time>2021-10-17T03:32:16.000Z</time>
      </trkpt>
      <trkpt lat="45.2088" lon="5.73736">
        <ele>325.60000610352</ele>
        <time>2021-10-17T03:32:19.000Z</time>
      </trkpt>
      <trkpt lat="45.20881" lon="5.73736">
        <ele>326</ele>
        <time>2021-10-17T03:32:20.000Z</time>
      </trkpt>
      <trkpt lat="45.20883" lon="5.73736">
        <ele>326.60000610352</ele>
        <time>2021-10-17T03:32:22.000Z</time>
      </trkpt>
      <trkpt lat="45.20884" lon="5.73734">
        <ele>327</ele>
        <time>2021-10-17T03:32:24.000Z</time>
      </trkpt>
      <trkpt lat="45.20885" lon="5.73733">
        <ele>327.20001220703</ele>
        <time>2021-10-17T03:32:25.000Z</time>
      </trkpt>
      <trkpt lat="45.20885" lon="5.73731">
        <ele>327.39999389648</ele>
        <time>2021-10-17T03:32:26.000Z</time>
      </trkpt>
      <trkpt lat="45.20886" lon="5.73728">
        <ele>327.79998779297</ele>
        <time>2021-10-17T03:32:28.000Z</time>
      </trkpt>
      <trkpt lat="45.20886" lon="5.73727">
        <ele>328.20001220703</ele>
        <time>2021-10-17T03:32:29.000Z</time>
      </trkpt>
      <trkpt lat="45.20887" lon="5.73727">
        <ele>328.39999389648</ele>
        <time>2021-10-17T03:32:30.000Z</time>
      </trkpt>
      <trkpt lat="45.20888" lon="5.73726">
        <ele>328.79998779297</ele>
        <time>2021-10-17T03:32:31.000Z</time>
      </trkpt>
      <trkpt lat="45.20889" lon="5.73725">
        <ele>329.20001220703</ele>
        <time>2021-10-17T03:32:33.000Z</time>
      </trkpt>
      <trkpt lat="45.20891" lon="5.73722">
        <ele>330.39999389648</ele>
        <time>2021-10-17T03:32:37.000Z</time>
      </trkpt>
      <trkpt lat="45.20894" lon="5.73721">
        <ele>331.39999389648</ele>
        <time>2021-10-17T03:32:40.000Z</time>
      </trkpt>
      <trkpt lat="45.20895" lon="5.7372">
        <ele>331.79998779297</ele>
        <time>2021-10-17T03:32:41.000Z</time>
      </trkpt>
      <trkpt lat="45.20896" lon="5.73719">
        <ele>332</ele>
        <time>2021-10-17T03:32:42.000Z</time>
      </trkpt>
      <trkpt lat="45.20897" lon="5.73718">
        <ele>332.20001220703</ele>
        <time>2021-10-17T03:32:43.000Z</time>
      </trkpt>
      <trkpt lat="45.20898" lon="5.73716">
        <ele>333.20001220703</ele>
        <time>2021-10-17T03:32:45.000Z</time>
      </trkpt>
      <trkpt lat="45.209" lon="5.73714">
        <ele>334</ele>
        <time>2021-10-17T03:32:48.000Z</time>
      </trkpt>
      <trkpt lat="45.20901" lon="5.73713">
        <ele>334.20001220703</ele>
        <time>2021-10-17T03:32:49.000Z</time>
      </trkpt>
      <trkpt lat="45.20903" lon="5.73712">
        <ele>334.60000610352</ele>
        <time>2021-10-17T03:32:51.000Z</time>
      </trkpt>
      <trkpt lat="45.20904" lon="5.73711">
        <ele>335.39999389648</ele>
        <time>2021-10-17T03:32:53.000Z</time>
      </trkpt>
      <trkpt lat="45.20908" lon="5.73709">
        <ele>336.60000610352</ele>
        <time>2021-10-17T03:32:57.000Z</time>
      </trkpt>
      <trkpt lat="45.20909" lon="5.73708">
        <ele>337.39999389648</ele>
        <time>2021-10-17T03:33:00.000Z</time>
      </trkpt>
      <trkpt lat="45.2091" lon="5.73707">
        <ele>337.79998779297</ele>
        <time>2021-10-17T03:33:01.000Z</time>
      </trkpt>
      <trkpt lat="45.20913" lon="5.73707">
        <ele>339</ele>
        <time>2021-10-17T03:33:05.000Z</time>
      </trkpt>
      <trkpt lat="45.20916" lon="5.73706">
        <ele>339.60000610352</ele>
        <time>2021-10-17T03:33:08.000Z</time>
      </trkpt>
      <trkpt lat="45.20917" lon="5.73706">
        <ele>340</ele>
        <time>2021-10-17T03:33:09.000Z</time>
      </trkpt>
      <trkpt lat="45.20918" lon="5.73707">
        <ele>340.39999389648</ele>
        <time>2021-10-17T03:33:10.000Z</time>
      </trkpt>
      <trkpt lat="45.20921" lon="5.73707">
        <ele>341</ele>
        <time>2021-10-17T03:33:12.000Z</time>
      </trkpt>
      <trkpt lat="45.20921" lon="5.73706">
        <ele>341.20001220703</ele>
        <time>2021-10-17T03:33:13.000Z</time>
      </trkpt>
      <trkpt lat="45.20925" lon="5.73708">
        <ele>342.20001220703</ele>
        <time>2021-10-17T03:33:17.000Z</time>
      </trkpt>
      <trkpt lat="45.20925" lon="5.73709">
        <ele>342.39999389648</ele>
        <time>2021-10-17T03:33:18.000Z</time>
      </trkpt>
      <trkpt lat="45.20925" lon="5.73709">
        <ele>342.79998779297</ele>
        <time>2021-10-17T03:33:19.000Z</time>
      </trkpt>
      <trkpt lat="45.20925" lon="5.73708">
        <ele>343.60000610352</ele>
        <time>2021-10-17T03:33:21.000Z</time>
      </trkpt>
      <trkpt lat="45.20928" lon="5.73707">
        <ele>344</ele>
        <time>2021-10-17T03:33:23.000Z</time>
      </trkpt>
      <trkpt lat="45.2093" lon="5.73706">
        <ele>344.60000610352</ele>
        <time>2021-10-17T03:33:25.000Z</time>
      </trkpt>
      <trkpt lat="45.20935" lon="5.73707">
        <ele>345.60000610352</ele>
        <time>2021-10-17T03:33:29.000Z</time>
      </trkpt>
      <trkpt lat="45.20936" lon="5.73706">
        <ele>346.60000610352</ele>
        <time>2021-10-17T03:33:32.000Z</time>
      </trkpt>
      <trkpt lat="45.20937" lon="5.73706">
        <ele>347</ele>
        <time>2021-10-17T03:33:33.000Z</time>
      </trkpt>
      <trkpt lat="45.20942" lon="5.73705">
        <ele>348</ele>
        <time>2021-10-17T03:33:37.000Z</time>
      </trkpt>
      <trkpt lat="45.20946" lon="5.73706">
        <ele>349.20001220703</ele>
        <time>2021-10-17T03:33:40.000Z</time>
      </trkpt>
      <trkpt lat="45.20947" lon="5.73705">
        <ele>349.79998779297</ele>
        <time>2021-10-17T03:33:42.000Z</time>
      </trkpt>
      <trkpt lat="45.20948" lon="5.73704">
        <ele>350</ele>
        <time>2021-10-17T03:33:43.000Z</time>
      </trkpt>
      <trkpt lat="45.20952" lon="5.73701">
        <ele>350.39999389648</ele>
        <time>2021-10-17T03:33:46.000Z</time>
      </trkpt>
      <trkpt lat="45.20954" lon="5.73698">
        <ele>351.39999389648</ele>
        <time>2021-10-17T03:33:50.000Z</time>
      </trkpt>
      <trkpt lat="45.20958" lon="5.73697">
        <ele>352.60000610352</ele>
        <time>2021-10-17T03:33:54.000Z</time>
      </trkpt>
      <trkpt lat="45.20961" lon="5.73697">
        <ele>353</ele>
        <time>2021-10-17T03:33:56.000Z</time>
      </trkpt>
      <trkpt lat="45.20963" lon="5.73694">
        <ele>354</ele>
        <time>2021-10-17T03:33:59.000Z</time>
      </trkpt>
      <trkpt lat="45.20964" lon="5.73691">
        <ele>354.39999389648</ele>
        <time>2021-10-17T03:34:01.000Z</time>
      </trkpt>
      <trkpt lat="45.20965" lon="5.73689">
        <ele>355</ele>
        <time>2021-10-17T03:34:03.000Z</time>
      </trkpt>
      <trkpt lat="45.20964" lon="5.73687">
        <ele>356</ele>
        <time>2021-10-17T03:34:06.000Z</time>
      </trkpt>
      <trkpt lat="45.20965" lon="5.73688">
        <ele>356.39999389648</ele>
        <time>2021-10-17T03:34:07.000Z</time>
      </trkpt>
      <trkpt lat="45.20965" lon="5.73687">
        <ele>356.79998779297</ele>
        <time>2021-10-17T03:34:08.000Z</time>
      </trkpt>
      <trkpt lat="45.20966" lon="5.73683">
        <ele>357.79998779297</ele>
        <time>2021-10-17T03:34:11.000Z</time>
      </trkpt>
      <trkpt lat="45.20967" lon="5.73683">
        <ele>358</ele>
        <time>2021-10-17T03:34:12.000Z</time>
      </trkpt>
      <trkpt lat="45.20968" lon="5.73681">
        <ele>359</ele>
        <time>2021-10-17T03:34:15.000Z</time>
      </trkpt>
      <trkpt lat="45.2097" lon="5.73676">
        <ele>360</ele>
        <time>2021-10-17T03:34:19.000Z</time>
      </trkpt>
      <trkpt lat="45.2097" lon="5.73674">
        <ele>360.20001220703</ele>
        <time>2021-10-17T03:34:20.000Z</time>
      </trkpt>
      <trkpt lat="45.20973" lon="5.73672">
        <ele>361.39999389648</ele>
        <time>2021-10-17T03:34:24.000Z</time>
      </trkpt>
      <trkpt lat="45.20973" lon="5.73667">
        <ele>362</ele>
        <time>2021-10-17T03:34:26.000Z</time>
      </trkpt>
      <trkpt lat="45.20974" lon="5.73664">
        <ele>362.60000610352</ele>
        <time>2021-10-17T03:34:28.000Z</time>
      </trkpt>
      <trkpt lat="45.20975" lon="5.73663">
        <ele>363</ele>
        <time>2021-10-17T03:34:30.000Z</time>
      </trkpt>
      <trkpt lat="45.20977" lon="5.73662">
        <ele>363.60000610352</ele>
        <time>2021-10-17T03:34:32.000Z</time>
      </trkpt>
      <trkpt lat="45.20978" lon="5.73661">
        <ele>363.79998779297</ele>
        <time>2021-10-17T03:34:33.000Z</time>
      </trkpt>
      <trkpt lat="45.20979" lon="5.73656">
        <ele>365</ele>
        <time>2021-10-17T03:34:37.000Z</time>
      </trkpt>
      <trkpt lat="45.2098" lon="5.73655">
        <ele>365.20001220703</ele>
        <time>2021-10-17T03:34:38.000Z</time>
      </trkpt>
      <trkpt lat="45.2098" lon="5.73654">
        <ele>366</ele>
        <time>2021-10-17T03:34:40.000Z</time>
      </trkpt>
      <trkpt lat="45.2098" lon="5.73653">
        <ele>366.39999389648</ele>
        <time>2021-10-17T03:34:42.000Z</time>
      </trkpt>
      <trkpt lat="45.20981" lon="5.73651">
        <ele>366.79998779297</ele>
        <time>2021-10-17T03:34:44.000Z</time>
      </trkpt>
      <trkpt lat="45.20981" lon="5.7365">
        <ele>367</ele>
        <time>2021-10-17T03:34:45.000Z</time>
      </trkpt>
      <trkpt lat="45.20982" lon="5.73647">
        <ele>368.20001220703</ele>
        <time>2021-10-17T03:34:48.000Z</time>
      </trkpt>
      <trkpt lat="45.20983" lon="5.73647">
        <ele>368.60000610352</ele>
        <time>2021-10-17T03:34:49.000Z</time>
      </trkpt>
      <trkpt lat="45.20984" lon="5.73645">
        <ele>369</ele>
        <time>2021-10-17T03:34:51.000Z</time>
      </trkpt>
      <trkpt lat="45.20984" lon="5.73643">
        <ele>369.39999389648</ele>
        <time>2021-10-17T03:34:53.000Z</time>
      </trkpt>
      <trkpt lat="45.20985" lon="5.73643">
        <ele>370.20001220703</ele>
        <time>2021-10-17T03:34:55.000Z</time>
      </trkpt>
      <trkpt lat="45.20985" lon="5.73642">
        <ele>370.60000610352</ele>
        <time>2021-10-17T03:34:56.000Z</time>
      </trkpt>
      <trkpt lat="45.20987" lon="5.73639">
        <ele>371.39999389648</ele>
        <time>2021-10-17T03:34:59.000Z</time>
      </trkpt>
      <trkpt lat="45.20987" lon="5.73638">
        <ele>371.60000610352</ele>
        <time>2021-10-17T03:35:00.000Z</time>
      </trkpt>
      <trkpt lat="45.20987" lon="5.73635">
        <ele>372.39999389648</ele>
        <time>2021-10-17T03:35:03.000Z</time>
      </trkpt>
      <trkpt lat="45.20986" lon="5.73633">
        <ele>372.60000610352</ele>
        <time>2021-10-17T03:35:04.000Z</time>
      </trkpt>
      <trkpt lat="45.20986" lon="5.73632">
        <ele>372.79998779297</ele>
        <time>2021-10-17T03:35:05.000Z</time>
      </trkpt>
      <trkpt lat="45.20986" lon="5.73629">
        <ele>374</ele>
        <time>2021-10-17T03:35:08.000Z</time>
      </trkpt>
      <trkpt lat="45.20987" lon="5.73627">
        <ele>374.60000610352</ele>
        <time>2021-10-17T03:35:10.000Z</time>
      </trkpt>
      <trkpt lat="45.20988" lon="5.73625">
        <ele>375.20001220703</ele>
        <time>2021-10-17T03:35:12.000Z</time>
      </trkpt>
      <trkpt lat="45.20988" lon="5.73623">
        <ele>375.79998779297</ele>
        <time>2021-10-17T03:35:15.000Z</time>
      </trkpt>
      <trkpt lat="45.20988" lon="5.73622">
        <ele>376.20001220703</ele>
        <time>2021-10-17T03:35:16.000Z</time>
      </trkpt>
      <trkpt lat="45.2099" lon="5.73619">
        <ele>377.39999389648</ele>
        <time>2021-10-17T03:35:20.000Z</time>
      </trkpt>
      <trkpt lat="45.2099" lon="5.73617">
        <ele>377.79998779297</ele>
        <time>2021-10-17T03:35:21.000Z</time>
      </trkpt>
      <trkpt lat="45.2099" lon="5.73609">
        <ele>378.39999389648</ele>
        <time>2021-10-17T03:35:25.000Z</time>
      </trkpt>
      <trkpt lat="45.20988" lon="5.73605">
        <ele>379.60000610352</ele>
        <time>2021-10-17T03:35:29.000Z</time>
      </trkpt>
      <trkpt lat="45.20988" lon="5.73602">
        <ele>380.60000610352</ele>
        <time>2021-10-17T03:35:31.000Z</time>
      </trkpt>
      <trkpt lat="45.2099" lon="5.736">
        <ele>381.79998779297</ele>
        <time>2021-10-17T03:35:36.000Z</time>
      </trkpt>
      <trkpt lat="45.2099" lon="5.73598">
        <ele>383</ele>
        <time>2021-10-17T03:35:39.000Z</time>
      </trkpt>
      <trkpt lat="45.20991" lon="5.73597">
        <ele>383.39999389648</ele>
        <time>2021-10-17T03:35:40.000Z</time>
      </trkpt>
      <trkpt lat="45.20992" lon="5.73593">
        <ele>384</ele>
        <time>2021-10-17T03:35:42.000Z</time>
      </trkpt>
      <trkpt lat="45.20993" lon="5.73591">
        <ele>384.39999389648</ele>
        <time>2021-10-17T03:35:43.000Z</time>
      </trkpt>
      <trkpt lat="45.20995" lon="5.73587">
        <ele>385</ele>
        <time>2021-10-17T03:35:46.000Z</time>
      </trkpt>
      <trkpt lat="45.20995" lon="5.73586">
        <ele>385.20001220703</ele>
        <time>2021-10-17T03:35:47.000Z</time>
      </trkpt>
      <trkpt lat="45.20996" lon="5.73585">
        <ele>385.60000610352</ele>
        <time>2021-10-17T03:35:48.000Z</time>
      </trkpt>
      <trkpt lat="45.20996" lon="5.73583">
        <ele>386</ele>
        <time>2021-10-17T03:35:49.000Z</time>
      </trkpt>
      <trkpt lat="45.20995" lon="5.73581">
        <ele>386.79998779297</ele>
        <time>2021-10-17T03:35:51.000Z</time>
      </trkpt>
      <trkpt lat="45.20996" lon="5.7358">
        <ele>387.20001220703</ele>
        <time>2021-10-17T03:35:53.000Z</time>
      </trkpt>
      <trkpt lat="45.20996" lon="5.73579">
        <ele>387.60000610352</ele>
        <time>2021-10-17T03:35:54.000Z</time>
      </trkpt>
      <trkpt lat="45.20996" lon="5.73578">
        <ele>387.79998779297</ele>
        <time>2021-10-17T03:35:55.000Z</time>
      </trkpt>
      <trkpt lat="45.20995" lon="5.73576">
        <ele>388</ele>
        <time>2021-10-17T03:35:57.000Z</time>
      </trkpt>
      <trkpt lat="45.20994" lon="5.73575">
        <ele>388.39999389648</ele>
        <time>2021-10-17T03:35:58.000Z</time>
      </trkpt>
      <trkpt lat="45.20995" lon="5.73571">
        <ele>389.20001220703</ele>
        <time>2021-10-17T03:36:01.000Z</time>
      </trkpt>
      <trkpt lat="45.20997" lon="5.73569">
        <ele>390</ele>
        <time>2021-10-17T03:36:03.000Z</time>
      </trkpt>
      <trkpt lat="45.20998" lon="5.73569">
        <ele>390.20001220703</ele>
        <time>2021-10-17T03:36:04.000Z</time>
      </trkpt>
      <trkpt lat="45.20999" lon="5.73566">
        <ele>391.20001220703</ele>
        <time>2021-10-17T03:36:07.000Z</time>
      </trkpt>
      <trkpt lat="45.20999" lon="5.73566">
        <ele>391.79998779297</ele>
        <time>2021-10-17T03:36:09.000Z</time>
      </trkpt>
      <trkpt lat="45.20999" lon="5.73565">
        <ele>392</ele>
        <time>2021-10-17T03:36:10.000Z</time>
      </trkpt>
      <trkpt lat="45.20999" lon="5.73564">
        <ele>392.20001220703</ele>
        <time>2021-10-17T03:36:11.000Z</time>
      </trkpt>
      <trkpt lat="45.20999" lon="5.73564">
        <ele>392.39999389648</ele>
        <time>2021-10-17T03:36:12.000Z</time>
      </trkpt>
      <trkpt lat="45.21" lon="5.73561">
        <ele>393.39999389648</ele>
        <time>2021-10-17T03:36:15.000Z</time>
      </trkpt>
      <trkpt lat="45.21" lon="5.73559">
        <ele>393.60000610352</ele>
        <time>2021-10-17T03:36:16.000Z</time>
      </trkpt>
      <trkpt lat="45.21001" lon="5.73558">
        <ele>394</ele>
        <time>2021-10-17T03:36:17.000Z</time>
      </trkpt>
      <trkpt lat="45.21002" lon="5.73556">
        <ele>394.60000610352</ele>
        <time>2021-10-17T03:36:19.000Z</time>
      </trkpt>
      <trkpt lat="45.21002" lon="5.73555">
        <ele>394.79998779297</ele>
        <time>2021-10-17T03:36:20.000Z</time>
      </trkpt>
      <trkpt lat="45.21002" lon="5.73554">
        <ele>395.39999389648</ele>
        <time>2021-10-17T03:36:22.000Z</time>
      </trkpt>
      <trkpt lat="45.21002" lon="5.73554">
        <ele>395.60000610352</ele>
        <time>2021-10-17T03:36:23.000Z</time>
      </trkpt>
      <trkpt lat="45.21002" lon="5.73552">
        <ele>396.60000610352</ele>
        <time>2021-10-17T03:36:26.000Z</time>
      </trkpt>
      <trkpt lat="45.21002" lon="5.73551">
        <ele>397</ele>
        <time>2021-10-17T03:36:27.000Z</time>
      </trkpt>
      <trkpt lat="45.21002" lon="5.7355">
        <ele>397.79998779297</ele>
        <time>2021-10-17T03:36:30.000Z</time>
      </trkpt>
      <trkpt lat="45.21002" lon="5.73549">
        <ele>398.20001220703</ele>
        <time>2021-10-17T03:36:31.000Z</time>
      </trkpt>
      <trkpt lat="45.21002" lon="5.73546">
        <ele>398.60000610352</ele>
        <time>2021-10-17T03:36:33.000Z</time>
      </trkpt>
      <trkpt lat="45.21004" lon="5.73543">
        <ele>399</ele>
        <time>2021-10-17T03:36:35.000Z</time>
      </trkpt>
      <trkpt lat="45.21004" lon="5.73541">
        <ele>399.20001220703</ele>
        <time>2021-10-17T03:36:36.000Z</time>
      </trkpt>
      <trkpt lat="45.21005" lon="5.73538">
        <ele>400</ele>
        <time>2021-10-17T03:36:38.000Z</time>
      </trkpt>
      <trkpt lat="45.21005" lon="5.73535">
        <ele>400.60000610352</ele>
        <time>2021-10-17T03:36:40.000Z</time>
      </trkpt>
      <trkpt lat="45.21006" lon="5.7353">
        <ele>401.60000610352</ele>
        <time>2021-10-17T03:36:45.000Z</time>
      </trkpt>
      <trkpt lat="45.21008" lon="5.7353">
        <ele>402.79998779297</ele>
        <time>2021-10-17T03:36:48.000Z</time>
      </trkpt>
      <trkpt lat="45.21009" lon="5.73529">
        <ele>403.20001220703</ele>
        <time>2021-10-17T03:36:49.000Z</time>
      </trkpt>
      <trkpt lat="45.21009" lon="5.73527">
        <ele>403.79998779297</ele>
        <time>2021-10-17T03:36:51.000Z</time>
      </trkpt>
      <trkpt lat="45.21009" lon="5.73526">
        <ele>404</ele>
        <time>2021-10-17T03:36:52.000Z</time>
      </trkpt>
      <trkpt lat="45.21011" lon="5.73525">
        <ele>404.39999389648</ele>
        <time>2021-10-17T03:36:54.000Z</time>
      </trkpt>
      <trkpt lat="45.21011" lon="5.73525">
        <ele>404.60000610352</ele>
        <time>2021-10-17T03:36:55.000Z</time>
      </trkpt>
      <trkpt lat="45.21011" lon="5.73524">
        <ele>404.79998779297</ele>
        <time>2021-10-17T03:36:56.000Z</time>
      </trkpt>
      <trkpt lat="45.21012" lon="5.73522">
        <ele>405.60000610352</ele>
        <time>2021-10-17T03:36:59.000Z</time>
      </trkpt>
      <trkpt lat="45.21012" lon="5.73521">
        <ele>406</ele>
        <time>2021-10-17T03:37:00.000Z</time>
      </trkpt>
      <trkpt lat="45.21012" lon="5.73519">
        <ele>406.20001220703</ele>
        <time>2021-10-17T03:37:02.000Z</time>
      </trkpt>
      <trkpt lat="45.21012" lon="5.73516">
        <ele>407</ele>
        <time>2021-10-17T03:37:05.000Z</time>
      </trkpt>
      <trkpt lat="45.21012" lon="5.73511">
        <ele>408.20001220703</ele>
        <time>2021-10-17T03:37:09.000Z</time>
      </trkpt>
      <trkpt lat="45.21012" lon="5.73508">
        <ele>409</ele>
        <time>2021-10-17T03:37:12.000Z</time>
      </trkpt>
      <trkpt lat="45.21012" lon="5.73507">
        <ele>409.60000610352</ele>
        <time>2021-10-17T03:37:13.000Z</time>
      </trkpt>
      <trkpt lat="45.21012" lon="5.73507">
        <ele>410.20001220703</ele>
        <time>2021-10-17T03:37:15.000Z</time>
      </trkpt>
      <trkpt lat="45.21012" lon="5.73506">
        <ele>410.60000610352</ele>
        <time>2021-10-17T03:37:17.000Z</time>
      </trkpt>
      <trkpt lat="45.21012" lon="5.73506">
        <ele>411</ele>
        <time>2021-10-17T03:37:18.000Z</time>
      </trkpt>
      <trkpt lat="45.21012" lon="5.73505">
        <ele>411</ele>
        <time>2021-10-17T03:37:19.000Z</time>
      </trkpt>
      <trkpt lat="45.21014" lon="5.73502">
        <ele>411.79998779297</ele>
        <time>2021-10-17T03:37:22.000Z</time>
      </trkpt>
      <trkpt lat="45.21014" lon="5.73501">
        <ele>413</ele>
        <time>2021-10-17T03:37:25.000Z</time>
      </trkpt>
      <trkpt lat="45.21015" lon="5.73498">
        <ele>414.20001220703</ele>
        <time>2021-10-17T03:37:30.000Z</time>
      </trkpt>
      <trkpt lat="45.21015" lon="5.73494">
        <ele>415</ele>
        <time>2021-10-17T03:37:34.000Z</time>
      </trkpt>
      <trkpt lat="45.21016" lon="5.73493">
        <ele>415.39999389648</ele>
        <time>2021-10-17T03:37:35.000Z</time>
      </trkpt>
      <trkpt lat="45.21016" lon="5.73491">
        <ele>416.39999389648</ele>
        <time>2021-10-17T03:37:39.000Z</time>
      </trkpt>
      <trkpt lat="45.21016" lon="5.73488">
        <ele>417.39999389648</ele>
        <time>2021-10-17T03:37:43.000Z</time>
      </trkpt>
      <trkpt lat="45.21016" lon="5.73486">
        <ele>418.60000610352</ele>
        <time>2021-10-17T03:37:46.000Z</time>
      </trkpt>
      <trkpt lat="45.21016" lon="5.73484">
        <ele>419.39999389648</ele>
        <time>2021-10-17T03:37:48.000Z</time>
      </trkpt>
      <trkpt lat="45.21017" lon="5.73483">
        <ele>419.60000610352</ele>
        <time>2021-10-17T03:37:49.000Z</time>
      </trkpt>
      <trkpt lat="45.21019" lon="5.73481">
        <ele>420.60000610352</ele>
        <time>2021-10-17T03:37:53.000Z</time>
      </trkpt>
      <trkpt lat="45.2102" lon="5.73478">
        <ele>421.79998779297</ele>
        <time>2021-10-17T03:37:57.000Z</time>
      </trkpt>
      <trkpt lat="45.21019" lon="5.73478">
        <ele>422.60000610352</ele>
        <time>2021-10-17T03:37:59.000Z</time>
      </trkpt>
      <trkpt lat="45.21019" lon="5.73478">
        <ele>422.79998779297</ele>
        <time>2021-10-17T03:38:00.000Z</time>
      </trkpt>
      <trkpt lat="45.21019" lon="5.73478">
        <ele>423.20001220703</ele>
        <time>2021-10-17T03:38:01.000Z</time>
      </trkpt>
      <trkpt lat="45.21017" lon="5.73476">
        <ele>424</ele>
        <time>2021-10-17T03:38:03.000Z</time>
      </trkpt>
      <trkpt lat="45.21017" lon="5.73475">
        <ele>424.60000610352</ele>
        <time>2021-10-17T03:38:05.000Z</time>
      </trkpt>
      <trkpt lat="45.21017" lon="5.73474">
        <ele>425</ele>
        <time>2021-10-17T03:38:06.000Z</time>
      </trkpt>
      <trkpt lat="45.21017" lon="5.73472">
        <ele>425.39999389648</ele>
        <time>2021-10-17T03:38:07.000Z</time>
      </trkpt>
      <trkpt lat="45.21017" lon="5.73469">
        <ele>426.39999389648</ele>
        <time>2021-10-17T03:38:11.000Z</time>
      </trkpt>
      <trkpt lat="45.21017" lon="5.73468">
        <ele>426.79998779297</ele>
        <time>2021-10-17T03:38:12.000Z</time>
      </trkpt>
      <trkpt lat="45.21016" lon="5.73463">
        <ele>427.79998779297</ele>
        <time>2021-10-17T03:38:15.000Z</time>
      </trkpt>
      <trkpt lat="45.21015" lon="5.73461">
        <ele>428.79998779297</ele>
        <time>2021-10-17T03:38:17.000Z</time>
      </trkpt>
      <trkpt lat="45.21014" lon="5.7346">
        <ele>429.20001220703</ele>
        <time>2021-10-17T03:38:18.000Z</time>
      </trkpt>
      <trkpt lat="45.21012" lon="5.73459">
        <ele>430.20001220703</ele>
        <time>2021-10-17T03:38:22.000Z</time>
      </trkpt>
      <trkpt lat="45.21013" lon="5.7346">
        <ele>431.60000610352</ele>
        <time>2021-10-17T03:38:25.000Z</time>
      </trkpt>
      <trkpt lat="45.21013" lon="5.73461">
        <ele>431.79998779297</ele>
        <time>2021-10-17T03:38:26.000Z</time>
      </trkpt>
      <trkpt lat="45.21011" lon="5.73459">
        <ele>432.60000610352</ele>
        <time>2021-10-17T03:38:30.000Z</time>
      </trkpt>
      <trkpt lat="45.2101" lon="5.73459">
        <ele>432.79998779297</ele>
        <time>2021-10-17T03:38:31.000Z</time>
      </trkpt>
      <trkpt lat="45.21009" lon="5.7346">
        <ele>432.79998779297</ele>
        <time>2021-10-17T03:38:32.000Z</time>
      </trkpt>
      <trkpt lat="45.21008" lon="5.73459">
        <ele>433</ele>
        <time>2021-10-17T03:38:33.000Z</time>
      </trkpt>
      <trkpt lat="45.21005" lon="5.73456">
        <ele>433.79998779297</ele>
        <time>2021-10-17T03:38:36.000Z</time>
      </trkpt>
      <trkpt lat="45.21005" lon="5.73456">
        <ele>434.20001220703</ele>
        <time>2021-10-17T03:38:37.000Z</time>
      </trkpt>
      <trkpt lat="45.21002" lon="5.73456">
        <ele>434.79998779297</ele>
        <time>2021-10-17T03:38:40.000Z</time>
      </trkpt>
      <trkpt lat="45.21002" lon="5.73455">
        <ele>435.20001220703</ele>
        <time>2021-10-17T03:38:42.000Z</time>
      </trkpt>
      <trkpt lat="45.21001" lon="5.73455">
        <ele>435.39999389648</ele>
        <time>2021-10-17T03:38:43.000Z</time>
      </trkpt>
      <trkpt lat="45.21" lon="5.73454">
        <ele>436</ele>
        <time>2021-10-17T03:38:45.000Z</time>
      </trkpt>
      <trkpt lat="45.20998" lon="5.73453">
        <ele>436.79998779297</ele>
        <time>2021-10-17T03:38:48.000Z</time>
      </trkpt>
      <trkpt lat="45.20997" lon="5.73452">
        <ele>437.20001220703</ele>
        <time>2021-10-17T03:38:49.000Z</time>
      </trkpt>
      <trkpt lat="45.20992" lon="5.73451">
        <ele>437.60000610352</ele>
        <time>2021-10-17T03:38:53.000Z</time>
      </trkpt>
      <trkpt lat="45.2099" lon="5.73451">
        <ele>437.79998779297</ele>
        <time>2021-10-17T03:38:54.000Z</time>
      </trkpt>
      <trkpt lat="45.20988" lon="5.73449">
        <ele>438.39999389648</ele>
        <time>2021-10-17T03:38:56.000Z</time>
      </trkpt>
      <trkpt lat="45.20988" lon="5.73449">
        <ele>438.79998779297</ele>
        <time>2021-10-17T03:38:57.000Z</time>
      </trkpt>
      <trkpt lat="45.20986" lon="5.73447">
        <ele>439.39999389648</ele>
        <time>2021-10-17T03:38:59.000Z</time>
      </trkpt>
      <trkpt lat="45.20985" lon="5.73447">
        <ele>439.60000610352</ele>
        <time>2021-10-17T03:39:00.000Z</time>
      </trkpt>
      <trkpt lat="45.20983" lon="5.73446">
        <ele>440.39999389648</ele>
        <time>2021-10-17T03:39:03.000Z</time>
      </trkpt>
      <trkpt lat="45.20983" lon="5.73446">
        <ele>440.60000610352</ele>
        <time>2021-10-17T03:39:04.000Z</time>
      </trkpt>
      <trkpt lat="45.20982" lon="5.73446">
        <ele>441</ele>
        <time>2021-10-17T03:39:05.000Z</time>
      </trkpt>
      <trkpt lat="45.20979" lon="5.73444">
        <ele>441.39999389648</ele>
        <time>2021-10-17T03:39:07.000Z</time>
      </trkpt>
      <trkpt lat="45.20976" lon="5.73443">
        <ele>442</ele>
        <time>2021-10-17T03:39:10.000Z</time>
      </trkpt>
      <trkpt lat="45.20974" lon="5.7344">
        <ele>443</ele>
        <time>2021-10-17T03:39:14.000Z</time>
      </trkpt>
      <trkpt lat="45.20973" lon="5.73439">
        <ele>444</ele>
        <time>2021-10-17T03:39:16.000Z</time>
      </trkpt>
      <trkpt lat="45.20973" lon="5.73439">
        <ele>444.20001220703</ele>
        <time>2021-10-17T03:39:17.000Z</time>
      </trkpt>
      <trkpt lat="45.20972" lon="5.73438">
        <ele>445.39999389648</ele>
        <time>2021-10-17T03:39:21.000Z</time>
      </trkpt>
      <trkpt lat="45.20971" lon="5.73437">
        <ele>445.39999389648</ele>
        <time>2021-10-17T03:39:22.000Z</time>
      </trkpt>
      <trkpt lat="45.2097" lon="5.73433">
        <ele>446.60000610352</ele>
        <time>2021-10-17T03:39:26.000Z</time>
      </trkpt>
      <trkpt lat="45.20968" lon="5.73433">
        <ele>447</ele>
        <time>2021-10-17T03:39:28.000Z</time>
      </trkpt>
      <trkpt lat="45.20966" lon="5.7343">
        <ele>447.60000610352</ele>
        <time>2021-10-17T03:39:31.000Z</time>
      </trkpt>
      <trkpt lat="45.20966" lon="5.73428">
        <ele>448</ele>
        <time>2021-10-17T03:39:32.000Z</time>
      </trkpt>
      <trkpt lat="45.20964" lon="5.73425">
        <ele>448.79998779297</ele>
        <time>2021-10-17T03:39:35.000Z</time>
      </trkpt>
      <trkpt lat="45.20963" lon="5.73424">
        <ele>449.39999389648</ele>
        <time>2021-10-17T03:39:36.000Z</time>
      </trkpt>
      <trkpt lat="45.20963" lon="5.73424">
        <ele>449.79998779297</ele>
        <time>2021-10-17T03:39:37.000Z</time>
      </trkpt>
      <trkpt lat="45.20963" lon="5.73423">
        <ele>450</ele>
        <time>2021-10-17T03:39:38.000Z</time>
      </trkpt>
      <trkpt lat="45.20959" lon="5.73419">
        <ele>451.20001220703</ele>
        <time>2021-10-17T03:39:42.000Z</time>
      </trkpt>
      <trkpt lat="45.20958" lon="5.73418">
        <ele>451.39999389648</ele>
        <time>2021-10-17T03:39:43.000Z</time>
      </trkpt>
      <trkpt lat="45.20957" lon="5.73416">
        <ele>452.39999389648</ele>
        <time>2021-10-17T03:39:46.000Z</time>
      </trkpt>
      <trkpt lat="45.20955" lon="5.73413">
        <ele>453.39999389648</ele>
        <time>2021-10-17T03:39:50.000Z</time>
      </trkpt>
      <trkpt lat="45.20956" lon="5.73412">
        <ele>454.79998779297</ele>
        <time>2021-10-17T03:39:53.000Z</time>
      </trkpt>
      <trkpt lat="45.20955" lon="5.73407">
        <ele>455.39999389648</ele>
        <time>2021-10-17T03:39:55.000Z</time>
      </trkpt>
      <trkpt lat="45.20955" lon="5.73405">
        <ele>455.79998779297</ele>
        <time>2021-10-17T03:39:57.000Z</time>
      </trkpt>
      <trkpt lat="45.20954" lon="5.73405">
        <ele>456.79998779297</ele>
        <time>2021-10-17T03:40:00.000Z</time>
      </trkpt>
      <trkpt lat="45.20954" lon="5.73404">
        <ele>457.20001220703</ele>
        <time>2021-10-17T03:40:01.000Z</time>
      </trkpt>
      <trkpt lat="45.20952" lon="5.73401">
        <ele>458.20001220703</ele>
        <time>2021-10-17T03:40:04.000Z</time>
      </trkpt>
      <trkpt lat="45.20951" lon="5.734">
        <ele>458.39999389648</ele>
        <time>2021-10-17T03:40:05.000Z</time>
      </trkpt>
      <trkpt lat="45.2095" lon="5.73398">
        <ele>459</ele>
        <time>2021-10-17T03:40:07.000Z</time>
      </trkpt>
      <trkpt lat="45.20949" lon="5.73397">
        <ele>459.39999389648</ele>
        <time>2021-10-17T03:40:08.000Z</time>
      </trkpt>
      <trkpt lat="45.20945" lon="5.73394">
        <ele>459.79998779297</ele>
        <time>2021-10-17T03:40:14.000Z</time>
      </trkpt>
      <trkpt lat="45.20939" lon="5.73391">
        <ele>458.60000610352</ele>
        <time>2021-10-17T03:40:21.000Z</time>
      </trkpt>
      <trkpt lat="45.20936" lon="5.73389">
        <ele>458.39999389648</ele>
        <time>2021-10-17T03:40:23.000Z</time>
      </trkpt>
      <trkpt lat="45.2093" lon="5.73387">
        <ele>458.39999389648</ele>
        <time>2021-10-17T03:40:26.000Z</time>
      </trkpt>
      <trkpt lat="45.20928" lon="5.73385">
        <ele>458.79998779297</ele>
        <time>2021-10-17T03:40:28.000Z</time>
      </trkpt>
      <trkpt lat="45.20925" lon="5.73382">
        <ele>459.60000610352</ele>
        <time>2021-10-17T03:40:31.000Z</time>
      </trkpt>
      <trkpt lat="45.20923" lon="5.7338">
        <ele>460.60000610352</ele>
        <time>2021-10-17T03:40:34.000Z</time>
      </trkpt>
      <trkpt lat="45.20922" lon="5.7338">
        <ele>461</ele>
        <time>2021-10-17T03:40:35.000Z</time>
      </trkpt>
      <trkpt lat="45.2092" lon="5.73378">
        <ele>461.39999389648</ele>
        <time>2021-10-17T03:40:37.000Z</time>
      </trkpt>
      <trkpt lat="45.2092" lon="5.73377">
        <ele>462</ele>
        <time>2021-10-17T03:40:39.000Z</time>
      </trkpt>
      <trkpt lat="45.2092" lon="5.73376">
        <ele>462.39999389648</ele>
        <time>2021-10-17T03:40:40.000Z</time>
      </trkpt>
      <trkpt lat="45.2092" lon="5.73376">
        <ele>462.60000610352</ele>
        <time>2021-10-17T03:40:41.000Z</time>
      </trkpt>
      <trkpt lat="45.20918" lon="5.73375">
        <ele>463.20001220703</ele>
        <time>2021-10-17T03:40:43.000Z</time>
      </trkpt>
      <trkpt lat="45.20916" lon="5.73374">
        <ele>463.60000610352</ele>
        <time>2021-10-17T03:40:45.000Z</time>
      </trkpt>
      <trkpt lat="45.20916" lon="5.73371">
        <ele>464</ele>
        <time>2021-10-17T03:40:47.000Z</time>
      </trkpt>
      <trkpt lat="45.20916" lon="5.7337">
        <ele>464.60000610352</ele>
        <time>2021-10-17T03:40:48.000Z</time>
      </trkpt>
      <trkpt lat="45.20915" lon="5.73368">
        <ele>466</ele>
        <time>2021-10-17T03:40:51.000Z</time>
      </trkpt>
      <trkpt lat="45.20915" lon="5.73368">
        <ele>466.20001220703</ele>
        <time>2021-10-17T03:40:52.000Z</time>
      </trkpt>
      <trkpt lat="45.20914" lon="5.73366">
        <ele>467</ele>
        <time>2021-10-17T03:40:55.000Z</time>
      </trkpt>
      <trkpt lat="45.20914" lon="5.73366">
        <ele>467.39999389648</ele>
        <time>2021-10-17T03:40:57.000Z</time>
      </trkpt>
      <trkpt lat="45.20913" lon="5.73364">
        <ele>467.79998779297</ele>
        <time>2021-10-17T03:40:58.000Z</time>
      </trkpt>
      <trkpt lat="45.20911" lon="5.73364">
        <ele>468</ele>
        <time>2021-10-17T03:40:59.000Z</time>
      </trkpt>
      <trkpt lat="45.20908" lon="5.73361">
        <ele>469.20001220703</ele>
        <time>2021-10-17T03:41:03.000Z</time>
      </trkpt>
      <trkpt lat="45.20907" lon="5.73359">
        <ele>470.39999389648</ele>
        <time>2021-10-17T03:41:06.000Z</time>
      </trkpt>
      <trkpt lat="45.20906" lon="5.73357">
        <ele>471.20001220703</ele>
        <time>2021-10-17T03:41:10.000Z</time>
      </trkpt>
      <trkpt lat="45.20905" lon="5.73356">
        <ele>471.39999389648</ele>
        <time>2021-10-17T03:41:11.000Z</time>
      </trkpt>
      <trkpt lat="45.209" lon="5.73352">
        <ele>472.79998779297</ele>
        <time>2021-10-17T03:41:16.000Z</time>
      </trkpt>
      <trkpt lat="45.20898" lon="5.73351">
        <ele>472.79998779297</ele>
        <time>2021-10-17T03:41:17.000Z</time>
      </trkpt>
      <trkpt lat="45.20897" lon="5.73349">
        <ele>474</ele>
        <time>2021-10-17T03:41:21.000Z</time>
      </trkpt>
      <trkpt lat="45.20895" lon="5.73348">
        <ele>474.79998779297</ele>
        <time>2021-10-17T03:41:24.000Z</time>
      </trkpt>
      <trkpt lat="45.20894" lon="5.73347">
        <ele>475.20001220703</ele>
        <time>2021-10-17T03:41:25.000Z</time>
      </trkpt>
      <trkpt lat="45.20891" lon="5.73346">
        <ele>476.20001220703</ele>
        <time>2021-10-17T03:41:30.000Z</time>
      </trkpt>
      <trkpt lat="45.20889" lon="5.73344">
        <ele>477.20001220703</ele>
        <time>2021-10-17T03:41:33.000Z</time>
      </trkpt>
      <trkpt lat="45.20888" lon="5.73344">
        <ele>477.60000610352</ele>
        <time>2021-10-17T03:41:34.000Z</time>
      </trkpt>
      <trkpt lat="45.20885" lon="5.73342">
        <ele>478.60000610352</ele>
        <time>2021-10-17T03:41:38.000Z</time>
      </trkpt>
      <trkpt lat="45.20883" lon="5.73339">
        <ele>479.60000610352</ele>
        <time>2021-10-17T03:41:42.000Z</time>
      </trkpt>
      <trkpt lat="45.20882" lon="5.73338">
        <ele>479.79998779297</ele>
        <time>2021-10-17T03:41:43.000Z</time>
      </trkpt>
      <trkpt lat="45.20881" lon="5.73337">
        <ele>480.20001220703</ele>
        <time>2021-10-17T03:41:44.000Z</time>
      </trkpt>
      <trkpt lat="45.20881" lon="5.73337">
        <ele>480.60000610352</ele>
        <time>2021-10-17T03:41:46.000Z</time>
      </trkpt>
      <trkpt lat="45.20878" lon="5.7334">
        <ele>481.39999389648</ele>
        <time>2021-10-17T03:41:49.000Z</time>
      </trkpt>
      <trkpt lat="45.20876" lon="5.73342">
        <ele>481.79998779297</ele>
        <time>2021-10-17T03:41:51.000Z</time>
      </trkpt>
      <trkpt lat="45.20873" lon="5.73342">
        <ele>482.79998779297</ele>
        <time>2021-10-17T03:41:54.000Z</time>
      </trkpt>
      <trkpt lat="45.20872" lon="5.73341">
        <ele>483.20001220703</ele>
        <time>2021-10-17T03:41:55.000Z</time>
      </trkpt>
      <trkpt lat="45.20868" lon="5.73339">
        <ele>484.20001220703</ele>
        <time>2021-10-17T03:41:59.000Z</time>
      </trkpt>
      <trkpt lat="45.20867" lon="5.73339">
        <ele>484.39999389648</ele>
        <time>2021-10-17T03:42:00.000Z</time>
      </trkpt>
      <trkpt lat="45.20865" lon="5.73338">
        <ele>485</ele>
        <time>2021-10-17T03:42:02.000Z</time>
      </trkpt>
      <trkpt lat="45.20864" lon="5.73336">
        <ele>485.39999389648</ele>
        <time>2021-10-17T03:42:04.000Z</time>
      </trkpt>
      <trkpt lat="45.20863" lon="5.73336">
        <ele>486.39999389648</ele>
        <time>2021-10-17T03:42:07.000Z</time>
      </trkpt>
      <trkpt lat="45.20862" lon="5.73336">
        <ele>487</ele>
        <time>2021-10-17T03:42:08.000Z</time>
      </trkpt>
      <trkpt lat="45.2086" lon="5.73335">
        <ele>487.60000610352</ele>
        <time>2021-10-17T03:42:10.000Z</time>
      </trkpt>
      <trkpt lat="45.2086" lon="5.73333">
        <ele>487.79998779297</ele>
        <time>2021-10-17T03:42:11.000Z</time>
      </trkpt>
      <trkpt lat="45.2086" lon="5.73333">
        <ele>488</ele>
        <time>2021-10-17T03:42:12.000Z</time>
      </trkpt>
      <trkpt lat="45.20859" lon="5.73329">
        <ele>489</ele>
        <time>2021-10-17T03:42:16.000Z</time>
      </trkpt>
      <trkpt lat="45.20858" lon="5.73328">
        <ele>489.20001220703</ele>
        <time>2021-10-17T03:42:17.000Z</time>
      </trkpt>
      <trkpt lat="45.20858" lon="5.73324">
        <ele>490.20001220703</ele>
        <time>2021-10-17T03:42:20.000Z</time>
      </trkpt>
      <trkpt lat="45.20858" lon="5.73321">
        <ele>491</ele>
        <time>2021-10-17T03:42:23.000Z</time>
      </trkpt>
      <trkpt lat="45.20858" lon="5.7332">
        <ele>491.60000610352</ele>
        <time>2021-10-17T03:42:25.000Z</time>
      </trkpt>
      <trkpt lat="45.20857" lon="5.73313">
        <ele>492.20001220703</ele>
        <time>2021-10-17T03:42:29.000Z</time>
      </trkpt>
      <trkpt lat="45.20857" lon="5.7331">
        <ele>492.79998779297</ele>
        <time>2021-10-17T03:42:31.000Z</time>
      </trkpt>
      <trkpt lat="45.20856" lon="5.73302">
        <ele>493.60000610352</ele>
        <time>2021-10-17T03:42:35.000Z</time>
      </trkpt>
      <trkpt lat="45.20856" lon="5.73299">
        <ele>493.79998779297</ele>
        <time>2021-10-17T03:42:37.000Z</time>
      </trkpt>
      <trkpt lat="45.20855" lon="5.73295">
        <ele>494.60000610352</ele>
        <time>2021-10-17T03:42:40.000Z</time>
      </trkpt>
      <trkpt lat="45.20856" lon="5.73293">
        <ele>494.79998779297</ele>
        <time>2021-10-17T03:42:41.000Z</time>
      </trkpt>
      <trkpt lat="45.20856" lon="5.73291">
        <ele>494.79998779297</ele>
        <time>2021-10-17T03:42:42.000Z</time>
      </trkpt>
      <trkpt lat="45.20855" lon="5.73287">
        <ele>495.79998779297</ele>
        <time>2021-10-17T03:42:45.000Z</time>
      </trkpt>
      <trkpt lat="45.20855" lon="5.73286">
        <ele>496</ele>
        <time>2021-10-17T03:42:46.000Z</time>
      </trkpt>
      <trkpt lat="45.20858" lon="5.73283">
        <ele>497.20001220703</ele>
        <time>2021-10-17T03:42:50.000Z</time>
      </trkpt>
      <trkpt lat="45.20858" lon="5.73282">
        <ele>497.39999389648</ele>
        <time>2021-10-17T03:42:51.000Z</time>
      </trkpt>
      <trkpt lat="45.20858" lon="5.73282">
        <ele>497.79998779297</ele>
        <time>2021-10-17T03:42:52.000Z</time>
      </trkpt>
      <trkpt lat="45.20859" lon="5.73282">
        <ele>498.20001220703</ele>
        <time>2021-10-17T03:42:54.000Z</time>
      </trkpt>
      <trkpt lat="45.20861" lon="5.73284">
        <ele>499.20001220703</ele>
        <time>2021-10-17T03:42:57.000Z</time>
      </trkpt>
      <trkpt lat="45.20862" lon="5.73286">
        <ele>499.39999389648</ele>
        <time>2021-10-17T03:42:58.000Z</time>
      </trkpt>
      <trkpt lat="45.20864" lon="5.73287">
        <ele>499.79998779297</ele>
        <time>2021-10-17T03:43:01.000Z</time>
      </trkpt>
      <trkpt lat="45.20864" lon="5.73287">
        <ele>500.20001220703</ele>
        <time>2021-10-17T03:43:02.000Z</time>
      </trkpt>
      <trkpt lat="45.20865" lon="5.73287">
        <ele>500.60000610352</ele>
        <time>2021-10-17T03:43:03.000Z</time>
      </trkpt>
      <trkpt lat="45.20865" lon="5.73287">
        <ele>500.79998779297</ele>
        <time>2021-10-17T03:43:04.000Z</time>
      </trkpt>
      <trkpt lat="45.20866" lon="5.73288">
        <ele>501.39999389648</ele>
        <time>2021-10-17T03:43:06.000Z</time>
      </trkpt>
      <trkpt lat="45.20867" lon="5.73288">
        <ele>501.79998779297</ele>
        <time>2021-10-17T03:43:07.000Z</time>
      </trkpt>
      <trkpt lat="45.20869" lon="5.73288">
        <ele>502.79998779297</ele>
        <time>2021-10-17T03:43:10.000Z</time>
      </trkpt>
      <trkpt lat="45.20871" lon="5.73286">
        <ele>504</ele>
        <time>2021-10-17T03:43:14.000Z</time>
      </trkpt>
      <trkpt lat="45.20871" lon="5.73286">
        <ele>504.60000610352</ele>
        <time>2021-10-17T03:43:15.000Z</time>
      </trkpt>
      <trkpt lat="45.20872" lon="5.73287">
        <ele>505</ele>
        <time>2021-10-17T03:43:16.000Z</time>
      </trkpt>
      <trkpt lat="45.20873" lon="5.73286">
        <ele>505.20001220703</ele>
        <time>2021-10-17T03:43:17.000Z</time>
      </trkpt>
      <trkpt lat="45.20875" lon="5.73287">
        <ele>505.60000610352</ele>
        <time>2021-10-17T03:43:19.000Z</time>
      </trkpt>
      <trkpt lat="45.20877" lon="5.73287">
        <ele>506.20001220703</ele>
        <time>2021-10-17T03:43:22.000Z</time>
      </trkpt>
      <trkpt lat="45.20878" lon="5.73288">
        <ele>507.39999389648</ele>
        <time>2021-10-17T03:43:25.000Z</time>
      </trkpt>
      <trkpt lat="45.20877" lon="5.73285">
        <ele>508.60000610352</ele>
        <time>2021-10-17T03:43:29.000Z</time>
      </trkpt>
      <trkpt lat="45.20878" lon="5.73282">
        <ele>509</ele>
        <time>2021-10-17T03:43:31.000Z</time>
      </trkpt>
      <trkpt lat="45.20879" lon="5.7328">
        <ele>509.79998779297</ele>
        <time>2021-10-17T03:43:34.000Z</time>
      </trkpt>
      <trkpt lat="45.20878" lon="5.73279">
        <ele>510.79998779297</ele>
        <time>2021-10-17T03:43:37.000Z</time>
      </trkpt>
      <trkpt lat="45.20879" lon="5.73275">
        <ele>512</ele>
        <time>2021-10-17T03:43:41.000Z</time>
      </trkpt>
      <trkpt lat="45.20878" lon="5.73271">
        <ele>512.59997558594</ele>
        <time>2021-10-17T03:43:43.000Z</time>
      </trkpt>
      <trkpt lat="45.20878" lon="5.73268">
        <ele>513.20001220703</ele>
        <time>2021-10-17T03:43:46.000Z</time>
      </trkpt>
      <trkpt lat="45.20878" lon="5.73268">
        <ele>513.79998779297</ele>
        <time>2021-10-17T03:43:48.000Z</time>
      </trkpt>
      <trkpt lat="45.20878" lon="5.73267">
        <ele>514.20001220703</ele>
        <time>2021-10-17T03:43:50.000Z</time>
      </trkpt>
      <trkpt lat="45.20875" lon="5.73262">
        <ele>515.20001220703</ele>
        <time>2021-10-17T03:43:54.000Z</time>
      </trkpt>
      <trkpt lat="45.20874" lon="5.73261">
        <ele>515.40002441406</ele>
        <time>2021-10-17T03:43:55.000Z</time>
      </trkpt>
      <trkpt lat="45.20868" lon="5.73254">
        <ele>515.59997558594</ele>
        <time>2021-10-17T03:44:02.000Z</time>
      </trkpt>
      <trkpt lat="45.20861" lon="5.73242">
        <ele>515.79998779297</ele>
        <time>2021-10-17T03:44:09.000Z</time>
      </trkpt>
      <trkpt lat="45.20859" lon="5.73236">
        <ele>516.20001220703</ele>
        <time>2021-10-17T03:44:12.000Z</time>
      </trkpt>
      <trkpt lat="45.20855" lon="5.73225">
        <ele>517</ele>
        <time>2021-10-17T03:44:17.000Z</time>
      </trkpt>
      <trkpt lat="45.20853" lon="5.7322">
        <ele>517.40002441406</ele>
        <time>2021-10-17T03:44:19.000Z</time>
      </trkpt>
      <trkpt lat="45.20845" lon="5.73212">
        <ele>517.79998779297</ele>
        <time>2021-10-17T03:44:24.000Z</time>
      </trkpt>
      <trkpt lat="45.2084" lon="5.732">
        <ele>518.40002441406</ele>
        <time>2021-10-17T03:44:30.000Z</time>
      </trkpt>
      <trkpt lat="45.20837" lon="5.73193">
        <ele>519.20001220703</ele>
        <time>2021-10-17T03:44:34.000Z</time>
      </trkpt>
      <trkpt lat="45.20837" lon="5.73192">
        <ele>519.40002441406</ele>
        <time>2021-10-17T03:44:35.000Z</time>
      </trkpt>
      <trkpt lat="45.20835" lon="5.73187">
        <ele>520.59997558594</ele>
        <time>2021-10-17T03:44:39.000Z</time>
      </trkpt>
      <trkpt lat="45.20835" lon="5.73185">
        <ele>520.79998779297</ele>
        <time>2021-10-17T03:44:40.000Z</time>
      </trkpt>
      <trkpt lat="45.20834" lon="5.73179">
        <ele>521.59997558594</ele>
        <time>2021-10-17T03:44:43.000Z</time>
      </trkpt>
      <trkpt lat="45.20833" lon="5.73171">
        <ele>522.59997558594</ele>
        <time>2021-10-17T03:44:48.000Z</time>
      </trkpt>
      <trkpt lat="45.20831" lon="5.73165">
        <ele>523.40002441406</ele>
        <time>2021-10-17T03:44:52.000Z</time>
      </trkpt>
      <trkpt lat="45.2083" lon="5.73162">
        <ele>523.79998779297</ele>
        <time>2021-10-17T03:44:54.000Z</time>
      </trkpt>
      <trkpt lat="45.20829" lon="5.73161">
        <ele>524</ele>
        <time>2021-10-17T03:44:55.000Z</time>
      </trkpt>
      <trkpt lat="45.20828" lon="5.73156">
        <ele>524.79998779297</ele>
        <time>2021-10-17T03:44:59.000Z</time>
      </trkpt>
      <trkpt lat="45.20826" lon="5.73153">
        <ele>525.20001220703</ele>
        <time>2021-10-17T03:45:01.000Z</time>
      </trkpt>
      <trkpt lat="45.20824" lon="5.73152">
        <ele>525.40002441406</ele>
        <time>2021-10-17T03:45:02.000Z</time>
      </trkpt>
      <trkpt lat="45.20821" lon="5.73149">
        <ele>526</ele>
        <time>2021-10-17T03:45:05.000Z</time>
      </trkpt>
      <trkpt lat="45.20821" lon="5.73148">
        <ele>526.20001220703</ele>
        <time>2021-10-17T03:45:06.000Z</time>
      </trkpt>
      <trkpt lat="45.2082" lon="5.73147">
        <ele>526.59997558594</ele>
        <time>2021-10-17T03:45:07.000Z</time>
      </trkpt>
      <trkpt lat="45.20816" lon="5.73143">
        <ele>527</ele>
        <time>2021-10-17T03:45:11.000Z</time>
      </trkpt>
      <trkpt lat="45.20815" lon="5.73141">
        <ele>527</ele>
        <time>2021-10-17T03:45:12.000Z</time>
      </trkpt>
      <trkpt lat="45.20813" lon="5.73136">
        <ele>527.59997558594</ele>
        <time>2021-10-17T03:45:15.000Z</time>
      </trkpt>
      <trkpt lat="45.20812" lon="5.7313">
        <ele>528</ele>
        <time>2021-10-17T03:45:19.000Z</time>
      </trkpt>
      <trkpt lat="45.20811" lon="5.7313">
        <ele>528.20001220703</ele>
        <time>2021-10-17T03:45:20.000Z</time>
      </trkpt>
      <trkpt lat="45.20808" lon="5.73127">
        <ele>529.20001220703</ele>
        <time>2021-10-17T03:45:23.000Z</time>
      </trkpt>
      <trkpt lat="45.20806" lon="5.73123">
        <ele>530.20001220703</ele>
        <time>2021-10-17T03:45:26.000Z</time>
      </trkpt>
      <trkpt lat="45.20805" lon="5.73121">
        <ele>530.40002441406</ele>
        <time>2021-10-17T03:45:27.000Z</time>
      </trkpt>
      <trkpt lat="45.20802" lon="5.73117">
        <ele>531.20001220703</ele>
        <time>2021-10-17T03:45:32.000Z</time>
      </trkpt>
      <trkpt lat="45.20801" lon="5.73115">
        <ele>531.59997558594</ele>
        <time>2021-10-17T03:45:33.000Z</time>
      </trkpt>
      <trkpt lat="45.208" lon="5.73105">
        <ele>532.79998779297</ele>
        <time>2021-10-17T03:45:39.000Z</time>
      </trkpt>
      <trkpt lat="45.20799" lon="5.73104">
        <ele>532.79998779297</ele>
        <time>2021-10-17T03:45:40.000Z</time>
      </trkpt>
      <trkpt lat="45.20798" lon="5.731">
        <ele>533.79998779297</ele>
        <time>2021-10-17T03:45:43.000Z</time>
      </trkpt>
      <trkpt lat="45.20795" lon="5.73095">
        <ele>534.20001220703</ele>
        <time>2021-10-17T03:45:46.000Z</time>
      </trkpt>
      <trkpt lat="45.20794" lon="5.73094">
        <ele>534.40002441406</ele>
        <time>2021-10-17T03:45:47.000Z</time>
      </trkpt>
      <trkpt lat="45.20793" lon="5.73093">
        <ele>535</ele>
        <time>2021-10-17T03:45:49.000Z</time>
      </trkpt>
      <trkpt lat="45.20792" lon="5.73093">
        <ele>535.20001220703</ele>
        <time>2021-10-17T03:45:50.000Z</time>
      </trkpt>
      <trkpt lat="45.20791" lon="5.73092">
        <ele>535.59997558594</ele>
        <time>2021-10-17T03:45:51.000Z</time>
      </trkpt>
      <trkpt lat="45.2079" lon="5.7309">
        <ele>535.79998779297</ele>
        <time>2021-10-17T03:45:53.000Z</time>
      </trkpt>
      <trkpt lat="45.20789" lon="5.73087">
        <ele>536.40002441406</ele>
        <time>2021-10-17T03:45:55.000Z</time>
      </trkpt>
      <trkpt lat="45.20789" lon="5.73084">
        <ele>536.79998779297</ele>
        <time>2021-10-17T03:45:57.000Z</time>
      </trkpt>
      <trkpt lat="45.20787" lon="5.73078">
        <ele>537.40002441406</ele>
        <time>2021-10-17T03:46:00.000Z</time>
      </trkpt>
      <trkpt lat="45.20784" lon="5.73072">
        <ele>538.40002441406</ele>
        <time>2021-10-17T03:46:05.000Z</time>
      </trkpt>
      <trkpt lat="45.20783" lon="5.73071">
        <ele>538.79998779297</ele>
        <time>2021-10-17T03:46:06.000Z</time>
      </trkpt>
      <trkpt lat="45.20783" lon="5.7307">
        <ele>539</ele>
        <time>2021-10-17T03:46:07.000Z</time>
      </trkpt>
      <trkpt lat="45.20781" lon="5.73068">
        <ele>539.59997558594</ele>
        <time>2021-10-17T03:46:10.000Z</time>
      </trkpt>
      <trkpt lat="45.20776" lon="5.73062">
        <ele>540.40002441406</ele>
        <time>2021-10-17T03:46:15.000Z</time>
      </trkpt>
      <trkpt lat="45.20774" lon="5.73059">
        <ele>540.79998779297</ele>
        <time>2021-10-17T03:46:17.000Z</time>
      </trkpt>
      <trkpt lat="45.20773" lon="5.73055">
        <ele>541.20001220703</ele>
        <time>2021-10-17T03:46:19.000Z</time>
      </trkpt>
      <trkpt lat="45.20771" lon="5.73053">
        <ele>541.59997558594</ele>
        <time>2021-10-17T03:46:21.000Z</time>
      </trkpt>
      <trkpt lat="45.20769" lon="5.73052">
        <ele>542.20001220703</ele>
        <time>2021-10-17T03:46:23.000Z</time>
      </trkpt>
      <trkpt lat="45.20767" lon="5.73049">
        <ele>542.40002441406</ele>
        <time>2021-10-17T03:46:25.000Z</time>
      </trkpt>
      <trkpt lat="45.20766" lon="5.73046">
        <ele>542.59997558594</ele>
        <time>2021-10-17T03:46:27.000Z</time>
      </trkpt>
      <trkpt lat="45.20765" lon="5.73044">
        <ele>542.79998779297</ele>
        <time>2021-10-17T03:46:28.000Z</time>
      </trkpt>
      <trkpt lat="45.20763" lon="5.73041">
        <ele>543</ele>
        <time>2021-10-17T03:46:30.000Z</time>
      </trkpt>
      <trkpt lat="45.20761" lon="5.7304">
        <ele>543.20001220703</ele>
        <time>2021-10-17T03:46:31.000Z</time>
      </trkpt>
      <trkpt lat="45.2076" lon="5.73039">
        <ele>543.40002441406</ele>
        <time>2021-10-17T03:46:32.000Z</time>
      </trkpt>
      <trkpt lat="45.20759" lon="5.73037">
        <ele>543.40002441406</ele>
        <time>2021-10-17T03:46:33.000Z</time>
      </trkpt>
      <trkpt lat="45.20754" lon="5.73032">
        <ele>544</ele>
        <time>2021-10-17T03:46:37.000Z</time>
      </trkpt>
      <trkpt lat="45.20748" lon="5.73029">
        <ele>544</ele>
        <time>2021-10-17T03:46:40.000Z</time>
      </trkpt>
      <trkpt lat="45.20743" lon="5.73026">
        <ele>544.59997558594</ele>
        <time>2021-10-17T03:46:43.000Z</time>
      </trkpt>
      <trkpt lat="45.2074" lon="5.73024">
        <ele>544.79998779297</ele>
        <time>2021-10-17T03:46:45.000Z</time>
      </trkpt>
      <trkpt lat="45.20738" lon="5.73023">
        <ele>544.79998779297</ele>
        <time>2021-10-17T03:46:46.000Z</time>
      </trkpt>
      <trkpt lat="45.20733" lon="5.73016">
        <ele>545.20001220703</ele>
        <time>2021-10-17T03:46:50.000Z</time>
      </trkpt>
      <trkpt lat="45.20731" lon="5.73012">
        <ele>545.59997558594</ele>
        <time>2021-10-17T03:46:52.000Z</time>
      </trkpt>
      <trkpt lat="45.20729" lon="5.73009">
        <ele>545.79998779297</ele>
        <time>2021-10-17T03:46:54.000Z</time>
      </trkpt>
      <trkpt lat="45.20726" lon="5.73006">
        <ele>546.59997558594</ele>
        <time>2021-10-17T03:46:57.000Z</time>
      </trkpt>
      <trkpt lat="45.20724" lon="5.73005">
        <ele>546.79998779297</ele>
        <time>2021-10-17T03:46:58.000Z</time>
      </trkpt>
      <trkpt lat="45.20722" lon="5.73">
        <ele>547.20001220703</ele>
        <time>2021-10-17T03:47:01.000Z</time>
      </trkpt>
      <trkpt lat="45.2072" lon="5.72997">
        <ele>547.59997558594</ele>
        <time>2021-10-17T03:47:03.000Z</time>
      </trkpt>
      <trkpt lat="45.2072" lon="5.72995">
        <ele>547.79998779297</ele>
        <time>2021-10-17T03:47:04.000Z</time>
      </trkpt>
      <trkpt lat="45.20716" lon="5.72988">
        <ele>548.79998779297</ele>
        <time>2021-10-17T03:47:09.000Z</time>
      </trkpt>
      <trkpt lat="45.20714" lon="5.72986">
        <ele>549</ele>
        <time>2021-10-17T03:47:10.000Z</time>
      </trkpt>
      <trkpt lat="45.20711" lon="5.7298">
        <ele>550</ele>
        <time>2021-10-17T03:47:15.000Z</time>
      </trkpt>
      <trkpt lat="45.2071" lon="5.72979">
        <ele>550.40002441406</ele>
        <time>2021-10-17T03:47:16.000Z</time>
      </trkpt>
      <trkpt lat="45.20706" lon="5.72973">
        <ele>551.20001220703</ele>
        <time>2021-10-17T03:47:20.000Z</time>
      </trkpt>
      <trkpt lat="45.20704" lon="5.72971">
        <ele>551.40002441406</ele>
        <time>2021-10-17T03:47:22.000Z</time>
      </trkpt>
      <trkpt lat="45.20695" lon="5.72966">
        <ele>552.20001220703</ele>
        <time>2021-10-17T03:47:28.000Z</time>
      </trkpt>
      <trkpt lat="45.20693" lon="5.72965">
        <ele>552.40002441406</ele>
        <time>2021-10-17T03:47:29.000Z</time>
      </trkpt>
      <trkpt lat="45.2068" lon="5.72951">
        <ele>553</ele>
        <time>2021-10-17T03:47:37.000Z</time>
      </trkpt>
      <trkpt lat="45.20678" lon="5.72947">
        <ele>553.20001220703</ele>
        <time>2021-10-17T03:47:39.000Z</time>
      </trkpt>
      <trkpt lat="45.20672" lon="5.72939">
        <ele>554.40002441406</ele>
        <time>2021-10-17T03:47:44.000Z</time>
      </trkpt>
      <trkpt lat="45.20671" lon="5.72936">
        <ele>554.59997558594</ele>
        <time>2021-10-17T03:47:45.000Z</time>
      </trkpt>
      <trkpt lat="45.20667" lon="5.72928">
        <ele>555.40002441406</ele>
        <time>2021-10-17T03:47:49.000Z</time>
      </trkpt>
      <trkpt lat="45.20662" lon="5.7292">
        <ele>556.20001220703</ele>
        <time>2021-10-17T03:47:54.000Z</time>
      </trkpt>
      <trkpt lat="45.20661" lon="5.72917">
        <ele>556.59997558594</ele>
        <time>2021-10-17T03:47:56.000Z</time>
      </trkpt>
      <trkpt lat="45.20655" lon="5.72907">
        <ele>557.59997558594</ele>
        <time>2021-10-17T03:48:01.000Z</time>
      </trkpt>
      <trkpt lat="45.20652" lon="5.72902">
        <ele>558.40002441406</ele>
        <time>2021-10-17T03:48:04.000Z</time>
      </trkpt>
      <trkpt lat="45.20649" lon="5.72899">
        <ele>558.79998779297</ele>
        <time>2021-10-17T03:48:06.000Z</time>
      </trkpt>
      <trkpt lat="45.20639" lon="5.72888">
        <ele>559.20001220703</ele>
        <time>2021-10-17T03:48:13.000Z</time>
      </trkpt>
      <trkpt lat="45.20628" lon="5.72876">
        <ele>558.79998779297</ele>
        <time>2021-10-17T03:48:20.000Z</time>
      </trkpt>
      <trkpt lat="45.20616" lon="5.72866">
        <ele>558.20001220703</ele>
        <time>2021-10-17T03:48:26.000Z</time>
      </trkpt>
      <trkpt lat="45.20603" lon="5.72856">
        <ele>558.20001220703</ele>
        <time>2021-10-17T03:48:33.000Z</time>
      </trkpt>
      <trkpt lat="45.20597" lon="5.72847">
        <ele>559</ele>
        <time>2021-10-17T03:48:38.000Z</time>
      </trkpt>
      <trkpt lat="45.20591" lon="5.7284">
        <ele>559.79998779297</ele>
        <time>2021-10-17T03:48:42.000Z</time>
      </trkpt>
      <trkpt lat="45.20587" lon="5.72834">
        <ele>560.20001220703</ele>
        <time>2021-10-17T03:48:45.000Z</time>
      </trkpt>
      <trkpt lat="45.20582" lon="5.72827">
        <ele>560.20001220703</ele>
        <time>2021-10-17T03:48:48.000Z</time>
      </trkpt>
      <trkpt lat="45.20577" lon="5.72821">
        <ele>559.79998779297</ele>
        <time>2021-10-17T03:48:51.000Z</time>
      </trkpt>
      <trkpt lat="45.20571" lon="5.72816">
        <ele>559.79998779297</ele>
        <time>2021-10-17T03:48:54.000Z</time>
      </trkpt>
      <trkpt lat="45.20569" lon="5.72811">
        <ele>559.79998779297</ele>
        <time>2021-10-17T03:48:56.000Z</time>
      </trkpt>
      <trkpt lat="45.2056" lon="5.72799">
        <ele>559.40002441406</ele>
        <time>2021-10-17T03:49:02.000Z</time>
      </trkpt>
      <trkpt lat="45.2055" lon="5.72783">
        <ele>559.40002441406</ele>
        <time>2021-10-17T03:49:08.000Z</time>
      </trkpt>
      <trkpt lat="45.2054" lon="5.72773">
        <ele>559.79998779297</ele>
        <time>2021-10-17T03:49:13.000Z</time>
      </trkpt>
      <trkpt lat="45.20537" lon="5.72769">
        <ele>560</ele>
        <time>2021-10-17T03:49:15.000Z</time>
      </trkpt>
      <trkpt lat="45.20525" lon="5.72759">
        <ele>560.40002441406</ele>
        <time>2021-10-17T03:49:21.000Z</time>
      </trkpt>
      <trkpt lat="45.20519" lon="5.72752">
        <ele>560.40002441406</ele>
        <time>2021-10-17T03:49:25.000Z</time>
      </trkpt>
      <trkpt lat="45.20515" lon="5.7275">
        <ele>560.20001220703</ele>
        <time>2021-10-17T03:49:27.000Z</time>
      </trkpt>
      <trkpt lat="45.20505" lon="5.72741">
        <ele>559.40002441406</ele>
        <time>2021-10-17T03:49:33.000Z</time>
      </trkpt>
      <trkpt lat="45.20497" lon="5.72736">
        <ele>558.59997558594</ele>
        <time>2021-10-17T03:49:37.000Z</time>
      </trkpt>
      <trkpt lat="45.20488" lon="5.72731">
        <ele>557.79998779297</ele>
        <time>2021-10-17T03:49:42.000Z</time>
      </trkpt>
      <trkpt lat="45.20486" lon="5.7273">
        <ele>557.59997558594</ele>
        <time>2021-10-17T03:49:43.000Z</time>
      </trkpt>
      <trkpt lat="45.20477" lon="5.72725">
        <ele>556.40002441406</ele>
        <time>2021-10-17T03:49:48.000Z</time>
      </trkpt>
      <trkpt lat="45.20466" lon="5.72726">
        <ele>555.40002441406</ele>
        <time>2021-10-17T03:49:53.000Z</time>
      </trkpt>
      <trkpt lat="45.20464" lon="5.72726">
        <ele>555</ele>
        <time>2021-10-17T03:49:54.000Z</time>
      </trkpt>
      <trkpt lat="45.20457" lon="5.72724">
        <ele>554.20001220703</ele>
        <time>2021-10-17T03:49:58.000Z</time>
      </trkpt>
      <trkpt lat="45.20455" lon="5.72722">
        <ele>554</ele>
        <time>2021-10-17T03:49:59.000Z</time>
      </trkpt>
      <trkpt lat="45.20448" lon="5.72722">
        <ele>553.20001220703</ele>
        <time>2021-10-17T03:50:03.000Z</time>
      </trkpt>
      <trkpt lat="45.20441" lon="5.7272">
        <ele>551.79998779297</ele>
        <time>2021-10-17T03:50:07.000Z</time>
      </trkpt>
      <trkpt lat="45.20436" lon="5.72718">
        <ele>551.20001220703</ele>
        <time>2021-10-17T03:50:10.000Z</time>
      </trkpt>
      <trkpt lat="45.20433" lon="5.72717">
        <ele>550.79998779297</ele>
        <time>2021-10-17T03:50:12.000Z</time>
      </trkpt>
      <trkpt lat="45.20428" lon="5.72714">
        <ele>549.59997558594</ele>
        <time>2021-10-17T03:50:16.000Z</time>
      </trkpt>
      <trkpt lat="45.20422" lon="5.72707">
        <ele>549</ele>
        <time>2021-10-17T03:50:20.000Z</time>
      </trkpt>
      <trkpt lat="45.20421" lon="5.72706">
        <ele>548.59997558594</ele>
        <time>2021-10-17T03:50:21.000Z</time>
      </trkpt>
      <trkpt lat="45.2042" lon="5.72705">
        <ele>548.20001220703</ele>
        <time>2021-10-17T03:50:22.000Z</time>
      </trkpt>
      <trkpt lat="45.20416" lon="5.72702">
        <ele>547.59997558594</ele>
        <time>2021-10-17T03:50:25.000Z</time>
      </trkpt>
      <trkpt lat="45.20413" lon="5.727">
        <ele>547</ele>
        <time>2021-10-17T03:50:27.000Z</time>
      </trkpt>
      <trkpt lat="45.2041" lon="5.72697">
        <ele>546.20001220703</ele>
        <time>2021-10-17T03:50:29.000Z</time>
      </trkpt>
      <trkpt lat="45.20405" lon="5.72692">
        <ele>545.40002441406</ele>
        <time>2021-10-17T03:50:32.000Z</time>
      </trkpt>
      <trkpt lat="45.20402" lon="5.72689">
        <ele>545</ele>
        <time>2021-10-17T03:50:34.000Z</time>
      </trkpt>
      <trkpt lat="45.204" lon="5.72687">
        <ele>544.79998779297</ele>
        <time>2021-10-17T03:50:35.000Z</time>
      </trkpt>
      <trkpt lat="45.20395" lon="5.72682">
        <ele>543.79998779297</ele>
        <time>2021-10-17T03:50:38.000Z</time>
      </trkpt>
      <trkpt lat="45.2039" lon="5.72677">
        <ele>542.79998779297</ele>
        <time>2021-10-17T03:50:41.000Z</time>
      </trkpt>
      <trkpt lat="45.20387" lon="5.72673">
        <ele>542.40002441406</ele>
        <time>2021-10-17T03:50:43.000Z</time>
      </trkpt>
      <trkpt lat="45.20384" lon="5.72671">
        <ele>541.79998779297</ele>
        <time>2021-10-17T03:50:45.000Z</time>
      </trkpt>
      <trkpt lat="45.20381" lon="5.72669">
        <ele>541.40002441406</ele>
        <time>2021-10-17T03:50:47.000Z</time>
      </trkpt>
      <trkpt lat="45.20379" lon="5.72666">
        <ele>540.79998779297</ele>
        <time>2021-10-17T03:50:49.000Z</time>
      </trkpt>
      <trkpt lat="45.20377" lon="5.72664">
        <ele>540.59997558594</ele>
        <time>2021-10-17T03:50:50.000Z</time>
      </trkpt>
      <trkpt lat="45.2037" lon="5.72657">
        <ele>539.59997558594</ele>
        <time>2021-10-17T03:50:55.000Z</time>
      </trkpt>
      <trkpt lat="45.20369" lon="5.72656">
        <ele>539.20001220703</ele>
        <time>2021-10-17T03:50:56.000Z</time>
      </trkpt>
      <trkpt lat="45.20365" lon="5.72653">
        <ele>538.59997558594</ele>
        <time>2021-10-17T03:50:59.000Z</time>
      </trkpt>
      <trkpt lat="45.20363" lon="5.7265">
        <ele>538</ele>
        <time>2021-10-17T03:51:01.000Z</time>
      </trkpt>
      <trkpt lat="45.20362" lon="5.72649">
        <ele>537.59997558594</ele>
        <time>2021-10-17T03:51:02.000Z</time>
      </trkpt>
      <trkpt lat="45.20361" lon="5.72648">
        <ele>537.40002441406</ele>
        <time>2021-10-17T03:51:03.000Z</time>
      </trkpt>
      <trkpt lat="45.20357" lon="5.72644">
        <ele>536.79998779297</ele>
        <time>2021-10-17T03:51:06.000Z</time>
      </trkpt>
      <trkpt lat="45.20355" lon="5.72642">
        <ele>536.40002441406</ele>
        <time>2021-10-17T03:51:07.000Z</time>
      </trkpt>
      <trkpt lat="45.20347" lon="5.72635">
        <ele>535.20001220703</ele>
        <time>2021-10-17T03:51:11.000Z</time>
      </trkpt>
      <trkpt lat="45.20343" lon="5.72631">
        <ele>534.79998779297</ele>
        <time>2021-10-17T03:51:13.000Z</time>
      </trkpt>
      <trkpt lat="45.20337" lon="5.72626">
        <ele>534.20001220703</ele>
        <time>2021-10-17T03:51:16.000Z</time>
      </trkpt>
      <trkpt lat="45.20329" lon="5.7262">
        <ele>533</ele>
        <time>2021-10-17T03:51:20.000Z</time>
      </trkpt>
      <trkpt lat="45.20322" lon="5.72619">
        <ele>531.79998779297</ele>
        <time>2021-10-17T03:51:24.000Z</time>
      </trkpt>
      <trkpt lat="45.20321" lon="5.72618">
        <ele>531.40002441406</ele>
        <time>2021-10-17T03:51:25.000Z</time>
      </trkpt>
      <trkpt lat="45.20316" lon="5.72616">
        <ele>530.79998779297</ele>
        <time>2021-10-17T03:51:28.000Z</time>
      </trkpt>
      <trkpt lat="45.20313" lon="5.72614">
        <ele>530.20001220703</ele>
        <time>2021-10-17T03:51:30.000Z</time>
      </trkpt>
      <trkpt lat="45.20312" lon="5.72614">
        <ele>529.59997558594</ele>
        <time>2021-10-17T03:51:31.000Z</time>
      </trkpt>
      <trkpt lat="45.20305" lon="5.72611">
        <ele>528.59997558594</ele>
        <time>2021-10-17T03:51:36.000Z</time>
      </trkpt>
      <trkpt lat="45.20301" lon="5.7261">
        <ele>528.20001220703</ele>
        <time>2021-10-17T03:51:38.000Z</time>
      </trkpt>
      <trkpt lat="45.20298" lon="5.72609">
        <ele>527.59997558594</ele>
        <time>2021-10-17T03:51:40.000Z</time>
      </trkpt>
      <trkpt lat="45.20296" lon="5.72609">
        <ele>527</ele>
        <time>2021-10-17T03:51:41.000Z</time>
      </trkpt>
      <trkpt lat="45.20295" lon="5.72609">
        <ele>526.79998779297</ele>
        <time>2021-10-17T03:51:42.000Z</time>
      </trkpt>
      <trkpt lat="45.2029" lon="5.72608">
        <ele>526</ele>
        <time>2021-10-17T03:51:45.000Z</time>
      </trkpt>
      <trkpt lat="45.20284" lon="5.72609">
        <ele>525.59997558594</ele>
        <time>2021-10-17T03:51:48.000Z</time>
      </trkpt>
      <trkpt lat="45.20281" lon="5.72609">
        <ele>525.20001220703</ele>
        <time>2021-10-17T03:51:49.000Z</time>
      </trkpt>
      <trkpt lat="45.2028" lon="5.72609">
        <ele>524.79998779297</ele>
        <time>2021-10-17T03:51:50.000Z</time>
      </trkpt>
      <trkpt lat="45.20276" lon="5.72609">
        <ele>524.40002441406</ele>
        <time>2021-10-17T03:51:52.000Z</time>
      </trkpt>
      <trkpt lat="45.20273" lon="5.72608">
        <ele>523.59997558594</ele>
        <time>2021-10-17T03:51:54.000Z</time>
      </trkpt>
      <trkpt lat="45.2027" lon="5.72608">
        <ele>523.20001220703</ele>
        <time>2021-10-17T03:51:56.000Z</time>
      </trkpt>
      <trkpt lat="45.20266" lon="5.72609">
        <ele>522.59997558594</ele>
        <time>2021-10-17T03:51:58.000Z</time>
      </trkpt>
      <trkpt lat="45.2026" lon="5.72609">
        <ele>521.59997558594</ele>
        <time>2021-10-17T03:52:02.000Z</time>
      </trkpt>
      <trkpt lat="45.20258" lon="5.72608">
        <ele>521.40002441406</ele>
        <time>2021-10-17T03:52:03.000Z</time>
      </trkpt>
      <trkpt lat="45.20251" lon="5.72608">
        <ele>520.40002441406</ele>
        <time>2021-10-17T03:52:07.000Z</time>
      </trkpt>
      <trkpt lat="45.20245" lon="5.72608">
        <ele>519.59997558594</ele>
        <time>2021-10-17T03:52:10.000Z</time>
      </trkpt>
      <trkpt lat="45.20243" lon="5.72608">
        <ele>519.20001220703</ele>
        <time>2021-10-17T03:52:11.000Z</time>
      </trkpt>
      <trkpt lat="45.20235" lon="5.72604">
        <ele>517.79998779297</ele>
        <time>2021-10-17T03:52:16.000Z</time>
      </trkpt>
      <trkpt lat="45.20228" lon="5.72597">
        <ele>516.59997558594</ele>
        <time>2021-10-17T03:52:20.000Z</time>
      </trkpt>
      <trkpt lat="45.20226" lon="5.72597">
        <ele>516.40002441406</ele>
        <time>2021-10-17T03:52:21.000Z</time>
      </trkpt>
      <trkpt lat="45.20224" lon="5.72596">
        <ele>516</ele>
        <time>2021-10-17T03:52:22.000Z</time>
      </trkpt>
      <trkpt lat="45.20222" lon="5.72596">
        <ele>515.79998779297</ele>
        <time>2021-10-17T03:52:23.000Z</time>
      </trkpt>
      <trkpt lat="45.2022" lon="5.72596">
        <ele>515.59997558594</ele>
        <time>2021-10-17T03:52:24.000Z</time>
      </trkpt>
      <trkpt lat="45.20214" lon="5.72593">
        <ele>514.79998779297</ele>
        <time>2021-10-17T03:52:27.000Z</time>
      </trkpt>
      <trkpt lat="45.20212" lon="5.72592">
        <ele>514.40002441406</ele>
        <time>2021-10-17T03:52:28.000Z</time>
      </trkpt>
      <trkpt lat="45.20209" lon="5.7259">
        <ele>514</ele>
        <time>2021-10-17T03:52:30.000Z</time>
      </trkpt>
      <trkpt lat="45.20204" lon="5.72589">
        <ele>513.40002441406</ele>
        <time>2021-10-17T03:52:32.000Z</time>
      </trkpt>
      <trkpt lat="45.20203" lon="5.72589">
        <ele>513.20001220703</ele>
        <time>2021-10-17T03:52:33.000Z</time>
      </trkpt>
      <trkpt lat="45.20199" lon="5.72587">
        <ele>512.59997558594</ele>
        <time>2021-10-17T03:52:35.000Z</time>
      </trkpt>
      <trkpt lat="45.20198" lon="5.72586">
        <ele>512.40002441406</ele>
        <time>2021-10-17T03:52:36.000Z</time>
      </trkpt>
      <trkpt lat="45.20192" lon="5.72583">
        <ele>511.39999389648</ele>
        <time>2021-10-17T03:52:39.000Z</time>
      </trkpt>
      <trkpt lat="45.2019" lon="5.72582">
        <ele>511.20001220703</ele>
        <time>2021-10-17T03:52:40.000Z</time>
      </trkpt>
      <trkpt lat="45.20181" lon="5.72576">
        <ele>510</ele>
        <time>2021-10-17T03:52:45.000Z</time>
      </trkpt>
      <trkpt lat="45.20178" lon="5.72574">
        <ele>509.60000610352</ele>
        <time>2021-10-17T03:52:47.000Z</time>
      </trkpt>
      <trkpt lat="45.20173" lon="5.7257">
        <ele>508.79998779297</ele>
        <time>2021-10-17T03:52:50.000Z</time>
      </trkpt>
      <trkpt lat="45.20166" lon="5.72566">
        <ele>507.79998779297</ele>
        <time>2021-10-17T03:52:54.000Z</time>
      </trkpt>
      <trkpt lat="45.20165" lon="5.72565">
        <ele>507.60000610352</ele>
        <time>2021-10-17T03:52:55.000Z</time>
      </trkpt>
      <trkpt lat="45.20155" lon="5.72559">
        <ele>506.39999389648</ele>
        <time>2021-10-17T03:53:00.000Z</time>
      </trkpt>
      <trkpt lat="45.20154" lon="5.72559">
        <ele>506</ele>
        <time>2021-10-17T03:53:01.000Z</time>
      </trkpt>
      <trkpt lat="45.20147" lon="5.72557">
        <ele>505.20001220703</ele>
        <time>2021-10-17T03:53:04.000Z</time>
      </trkpt>
      <trkpt lat="45.20142" lon="5.72555">
        <ele>504.60000610352</ele>
        <time>2021-10-17T03:53:07.000Z</time>
      </trkpt>
      <trkpt lat="45.20138" lon="5.72554">
        <ele>504</ele>
        <time>2021-10-17T03:53:09.000Z</time>
      </trkpt>
      <trkpt lat="45.20132" lon="5.7255">
        <ele>503</ele>
        <time>2021-10-17T03:53:13.000Z</time>
      </trkpt>
      <trkpt lat="45.20129" lon="5.7255">
        <ele>502.79998779297</ele>
        <time>2021-10-17T03:53:15.000Z</time>
      </trkpt>
      <trkpt lat="45.20124" lon="5.72548">
        <ele>501.79998779297</ele>
        <time>2021-10-17T03:53:18.000Z</time>
      </trkpt>
      <trkpt lat="45.20117" lon="5.72544">
        <ele>500.79998779297</ele>
        <time>2021-10-17T03:53:23.000Z</time>
      </trkpt>
      <trkpt lat="45.20115" lon="5.72541">
        <ele>500.79998779297</ele>
        <time>2021-10-17T03:53:25.000Z</time>
      </trkpt>
      <trkpt lat="45.20111" lon="5.72525">
        <ele>502.60000610352</ele>
        <time>2021-10-17T03:53:34.000Z</time>
      </trkpt>
      <trkpt lat="45.20111" lon="5.72523">
        <ele>502.79998779297</ele>
        <time>2021-10-17T03:53:35.000Z</time>
      </trkpt>
      <trkpt lat="45.20112" lon="5.72518">
        <ele>503.79998779297</ele>
        <time>2021-10-17T03:53:38.000Z</time>
      </trkpt>
      <trkpt lat="45.20115" lon="5.72514">
        <ele>504.60000610352</ele>
        <time>2021-10-17T03:53:41.000Z</time>
      </trkpt>
      <trkpt lat="45.20116" lon="5.72512">
        <ele>505</ele>
        <time>2021-10-17T03:53:42.000Z</time>
      </trkpt>
      <trkpt lat="45.2012" lon="5.72508">
        <ele>506</ele>
        <time>2021-10-17T03:53:46.000Z</time>
      </trkpt>
      <trkpt lat="45.20121" lon="5.72504">
        <ele>506.79998779297</ele>
        <time>2021-10-17T03:53:48.000Z</time>
      </trkpt>
      <trkpt lat="45.20123" lon="5.72499">
        <ele>507.20001220703</ele>
        <time>2021-10-17T03:53:51.000Z</time>
      </trkpt>
      <trkpt lat="45.20126" lon="5.72496">
        <ele>508.20001220703</ele>
        <time>2021-10-17T03:53:55.000Z</time>
      </trkpt>
      <trkpt lat="45.20127" lon="5.72494">
        <ele>508.39999389648</ele>
        <time>2021-10-17T03:53:56.000Z</time>
      </trkpt>
      <trkpt lat="45.20128" lon="5.7249">
        <ele>509.39999389648</ele>
        <time>2021-10-17T03:53:59.000Z</time>
      </trkpt>
      <trkpt lat="45.2013" lon="5.72486">
        <ele>510</ele>
        <time>2021-10-17T03:54:02.000Z</time>
      </trkpt>
      <trkpt lat="45.2013" lon="5.72483">
        <ele>510.39999389648</ele>
        <time>2021-10-17T03:54:04.000Z</time>
      </trkpt>
      <trkpt lat="45.20131" lon="5.7248">
        <ele>511.60000610352</ele>
        <time>2021-10-17T03:54:07.000Z</time>
      </trkpt>
      <trkpt lat="45.20132" lon="5.72475">
        <ele>512.20001220703</ele>
        <time>2021-10-17T03:54:10.000Z</time>
      </trkpt>
      <trkpt lat="45.20132" lon="5.72473">
        <ele>513</ele>
        <time>2021-10-17T03:54:12.000Z</time>
      </trkpt>
      <trkpt lat="45.20134" lon="5.72467">
        <ele>513.79998779297</ele>
        <time>2021-10-17T03:54:16.000Z</time>
      </trkpt>
      <trkpt lat="45.20135" lon="5.72467">
        <ele>514</ele>
        <time>2021-10-17T03:54:17.000Z</time>
      </trkpt>
      <trkpt lat="45.20135" lon="5.72466">
        <ele>514.20001220703</ele>
        <time>2021-10-17T03:54:18.000Z</time>
      </trkpt>
      <trkpt lat="45.20136" lon="5.72465">
        <ele>515</ele>
        <time>2021-10-17T03:54:20.000Z</time>
      </trkpt>
      <trkpt lat="45.20136" lon="5.72464">
        <ele>515.20001220703</ele>
        <time>2021-10-17T03:54:21.000Z</time>
      </trkpt>
      <trkpt lat="45.20137" lon="5.72462">
        <ele>515.59997558594</ele>
        <time>2021-10-17T03:54:23.000Z</time>
      </trkpt>
      <trkpt lat="45.20139" lon="5.72462">
        <ele>516.20001220703</ele>
        <time>2021-10-17T03:54:25.000Z</time>
      </trkpt>
      <trkpt lat="45.2014" lon="5.72461">
        <ele>517.20001220703</ele>
        <time>2021-10-17T03:54:27.000Z</time>
      </trkpt>
      <trkpt lat="45.2014" lon="5.72461">
        <ele>517.59997558594</ele>
        <time>2021-10-17T03:54:28.000Z</time>
      </trkpt>
      <trkpt lat="45.20141" lon="5.72459">
        <ele>518</ele>
        <time>2021-10-17T03:54:30.000Z</time>
      </trkpt>
      <trkpt lat="45.20143" lon="5.72457">
        <ele>518.20001220703</ele>
        <time>2021-10-17T03:54:32.000Z</time>
      </trkpt>
      <trkpt lat="45.20144" lon="5.72455">
        <ele>518.59997558594</ele>
        <time>2021-10-17T03:54:34.000Z</time>
      </trkpt>
      <trkpt lat="45.20146" lon="5.72456">
        <ele>519.40002441406</ele>
        <time>2021-10-17T03:54:36.000Z</time>
      </trkpt>
      <trkpt lat="45.20147" lon="5.72458">
        <ele>520</ele>
        <time>2021-10-17T03:54:39.000Z</time>
      </trkpt>
      <trkpt lat="45.20149" lon="5.72458">
        <ele>520.79998779297</ele>
        <time>2021-10-17T03:54:41.000Z</time>
      </trkpt>
      <trkpt lat="45.20152" lon="5.72461">
        <ele>521.79998779297</ele>
        <time>2021-10-17T03:54:45.000Z</time>
      </trkpt>
      <trkpt lat="45.20153" lon="5.72462">
        <ele>522.20001220703</ele>
        <time>2021-10-17T03:54:47.000Z</time>
      </trkpt>
      <trkpt lat="45.20154" lon="5.72463">
        <ele>522.79998779297</ele>
        <time>2021-10-17T03:54:49.000Z</time>
      </trkpt>
      <trkpt lat="45.20155" lon="5.72465">
        <ele>524</ele>
        <time>2021-10-17T03:54:54.000Z</time>
      </trkpt>
      <trkpt lat="45.20157" lon="5.72468">
        <ele>525.20001220703</ele>
        <time>2021-10-17T03:54:59.000Z</time>
      </trkpt>
      <trkpt lat="45.20158" lon="5.7247">
        <ele>525.79998779297</ele>
        <time>2021-10-17T03:55:01.000Z</time>
      </trkpt>
      <trkpt lat="45.20159" lon="5.72472">
        <ele>526.20001220703</ele>
        <time>2021-10-17T03:55:03.000Z</time>
      </trkpt>
      <trkpt lat="45.20162" lon="5.72473">
        <ele>527.20001220703</ele>
        <time>2021-10-17T03:55:07.000Z</time>
      </trkpt>
      <trkpt lat="45.20163" lon="5.72473">
        <ele>527.40002441406</ele>
        <time>2021-10-17T03:55:08.000Z</time>
      </trkpt>
      <trkpt lat="45.20164" lon="5.72473">
        <ele>528.79998779297</ele>
        <time>2021-10-17T03:55:12.000Z</time>
      </trkpt>
      <trkpt lat="45.20165" lon="5.72474">
        <ele>529</ele>
        <time>2021-10-17T03:55:13.000Z</time>
      </trkpt>
      <trkpt lat="45.20166" lon="5.72475">
        <ele>529.40002441406</ele>
        <time>2021-10-17T03:55:14.000Z</time>
      </trkpt>
      <trkpt lat="45.20167" lon="5.72478">
        <ele>529.79998779297</ele>
        <time>2021-10-17T03:55:17.000Z</time>
      </trkpt>
      <trkpt lat="45.20168" lon="5.7248">
        <ele>530.20001220703</ele>
        <time>2021-10-17T03:55:19.000Z</time>
      </trkpt>
      <trkpt lat="45.2017" lon="5.72482">
        <ele>530.79998779297</ele>
        <time>2021-10-17T03:55:21.000Z</time>
      </trkpt>
      <trkpt lat="45.20172" lon="5.72485">
        <ele>532.20001220703</ele>
        <time>2021-10-17T03:55:24.000Z</time>
      </trkpt>
      <trkpt lat="45.20173" lon="5.72488">
        <ele>532.59997558594</ele>
        <time>2021-10-17T03:55:26.000Z</time>
      </trkpt>
      <trkpt lat="45.20176" lon="5.72491">
        <ele>533.20001220703</ele>
        <time>2021-10-17T03:55:29.000Z</time>
      </trkpt>
      <trkpt lat="45.2018" lon="5.72495">
        <ele>534.20001220703</ele>
        <time>2021-10-17T03:55:33.000Z</time>
      </trkpt>
      <trkpt lat="45.20181" lon="5.72495">
        <ele>534.40002441406</ele>
        <time>2021-10-17T03:55:34.000Z</time>
      </trkpt>
      <trkpt lat="45.20185" lon="5.72497">
        <ele>535</ele>
        <time>2021-10-17T03:55:38.000Z</time>
      </trkpt>
      <trkpt lat="45.20186" lon="5.72498">
        <ele>535.40002441406</ele>
        <time>2021-10-17T03:55:39.000Z</time>
      </trkpt>
      <trkpt lat="45.20187" lon="5.725">
        <ele>536</ele>
        <time>2021-10-17T03:55:41.000Z</time>
      </trkpt>
      <trkpt lat="45.20193" lon="5.72505">
        <ele>536.79998779297</ele>
        <time>2021-10-17T03:55:47.000Z</time>
      </trkpt>
      <trkpt lat="45.20194" lon="5.72506">
        <ele>537</ele>
        <time>2021-10-17T03:55:48.000Z</time>
      </trkpt>
      <trkpt lat="45.20194" lon="5.72506">
        <ele>537.20001220703</ele>
        <time>2021-10-17T03:55:49.000Z</time>
      </trkpt>
      <trkpt lat="45.20195" lon="5.72508">
        <ele>537.40002441406</ele>
        <time>2021-10-17T03:55:51.000Z</time>
      </trkpt>
      <trkpt lat="45.20198" lon="5.7251">
        <ele>537.79998779297</ele>
        <time>2021-10-17T03:55:54.000Z</time>
      </trkpt>
      <trkpt lat="45.20198" lon="5.72512">
        <ele>538.20001220703</ele>
        <time>2021-10-17T03:55:56.000Z</time>
      </trkpt>
      <trkpt lat="45.20201" lon="5.72514">
        <ele>538.79998779297</ele>
        <time>2021-10-17T03:56:00.000Z</time>
      </trkpt>
      <trkpt lat="45.20205" lon="5.72518">
        <ele>539.79998779297</ele>
        <time>2021-10-17T03:56:04.000Z</time>
      </trkpt>
      <trkpt lat="45.20206" lon="5.72518">
        <ele>540</ele>
        <time>2021-10-17T03:56:05.000Z</time>
      </trkpt>
      <trkpt lat="45.20213" lon="5.72523">
        <ele>541</ele>
        <time>2021-10-17T03:56:11.000Z</time>
      </trkpt>
      <trkpt lat="45.20213" lon="5.72524">
        <ele>541.40002441406</ele>
        <time>2021-10-17T03:56:12.000Z</time>
      </trkpt>
      <trkpt lat="45.20215" lon="5.72524">
        <ele>542</ele>
        <time>2021-10-17T03:56:15.000Z</time>
      </trkpt>
      <trkpt lat="45.20215" lon="5.72524">
        <ele>542.20001220703</ele>
        <time>2021-10-17T03:56:16.000Z</time>
      </trkpt>
      <trkpt lat="45.20217" lon="5.72524">
        <ele>542.79998779297</ele>
        <time>2021-10-17T03:56:18.000Z</time>
      </trkpt>
      <trkpt lat="45.20218" lon="5.72524">
        <ele>543</ele>
        <time>2021-10-17T03:56:19.000Z</time>
      </trkpt>
      <trkpt lat="45.20218" lon="5.72524">
        <ele>543.40002441406</ele>
        <time>2021-10-17T03:56:20.000Z</time>
      </trkpt>
      <trkpt lat="45.20219" lon="5.72524">
        <ele>543.79998779297</ele>
        <time>2021-10-17T03:56:21.000Z</time>
      </trkpt>
      <trkpt lat="45.20222" lon="5.72524">
        <ele>544.40002441406</ele>
        <time>2021-10-17T03:56:24.000Z</time>
      </trkpt>
      <trkpt lat="45.20222" lon="5.72524">
        <ele>544.59997558594</ele>
        <time>2021-10-17T03:56:25.000Z</time>
      </trkpt>
      <trkpt lat="45.20224" lon="5.72524">
        <ele>545.59997558594</ele>
        <time>2021-10-17T03:56:27.000Z</time>
      </trkpt>
      <trkpt lat="45.20227" lon="5.72523">
        <ele>546.20001220703</ele>
        <time>2021-10-17T03:56:30.000Z</time>
      </trkpt>
      <trkpt lat="45.2023" lon="5.72523">
        <ele>546.59997558594</ele>
        <time>2021-10-17T03:56:33.000Z</time>
      </trkpt>
      <trkpt lat="45.20233" lon="5.72524">
        <ele>547.40002441406</ele>
        <time>2021-10-17T03:56:36.000Z</time>
      </trkpt>
      <trkpt lat="45.20233" lon="5.72523">
        <ele>547.79998779297</ele>
        <time>2021-10-17T03:56:37.000Z</time>
      </trkpt>
      <trkpt lat="45.20236" lon="5.72523">
        <ele>548.79998779297</ele>
        <time>2021-10-17T03:56:42.000Z</time>
      </trkpt>
      <trkpt lat="45.20237" lon="5.72524">
        <ele>549</ele>
        <time>2021-10-17T03:56:43.000Z</time>
      </trkpt>
      <trkpt lat="45.20239" lon="5.72525">
        <ele>549.79998779297</ele>
        <time>2021-10-17T03:56:45.000Z</time>
      </trkpt>
      <trkpt lat="45.20242" lon="5.72526">
        <ele>550.79998779297</ele>
        <time>2021-10-17T03:56:48.000Z</time>
      </trkpt>
      <trkpt lat="45.20242" lon="5.72526">
        <ele>551</ele>
        <time>2021-10-17T03:56:49.000Z</time>
      </trkpt>
      <trkpt lat="45.20243" lon="5.72526">
        <ele>551</ele>
        <time>2021-10-17T03:56:50.000Z</time>
      </trkpt>
      <trkpt lat="45.20243" lon="5.72525">
        <ele>551.20001220703</ele>
        <time>2021-10-17T03:56:51.000Z</time>
      </trkpt>
      <trkpt lat="45.20244" lon="5.72523">
        <ele>552.20001220703</ele>
        <time>2021-10-17T03:56:53.000Z</time>
      </trkpt>
      <trkpt lat="45.20246" lon="5.72523">
        <ele>553.20001220703</ele>
        <time>2021-10-17T03:56:56.000Z</time>
      </trkpt>
      <trkpt lat="45.20246" lon="5.72523">
        <ele>553.40002441406</ele>
        <time>2021-10-17T03:56:57.000Z</time>
      </trkpt>
      <trkpt lat="45.2025" lon="5.72523">
        <ele>554.59997558594</ele>
        <time>2021-10-17T03:57:01.000Z</time>
      </trkpt>
      <trkpt lat="45.20251" lon="5.72523">
        <ele>555.20001220703</ele>
        <time>2021-10-17T03:57:02.000Z</time>
      </trkpt>
      <trkpt lat="45.20253" lon="5.72523">
        <ele>555.59997558594</ele>
        <time>2021-10-17T03:57:03.000Z</time>
      </trkpt>
      <trkpt lat="45.20254" lon="5.72523">
        <ele>555.79998779297</ele>
        <time>2021-10-17T03:57:04.000Z</time>
      </trkpt>
      <trkpt lat="45.20259" lon="5.72522">
        <ele>556.59997558594</ele>
        <time>2021-10-17T03:57:09.000Z</time>
      </trkpt>
      <trkpt lat="45.2026" lon="5.72522">
        <ele>557</ele>
        <time>2021-10-17T03:57:10.000Z</time>
      </trkpt>
      <trkpt lat="45.20262" lon="5.72522">
        <ele>557.40002441406</ele>
        <time>2021-10-17T03:57:12.000Z</time>
      </trkpt>
      <trkpt lat="45.20263" lon="5.72522">
        <ele>557.79998779297</ele>
        <time>2021-10-17T03:57:14.000Z</time>
      </trkpt>
      <trkpt lat="45.20265" lon="5.72521">
        <ele>558</ele>
        <time>2021-10-17T03:57:16.000Z</time>
      </trkpt>
      <trkpt lat="45.20267" lon="5.7252">
        <ele>558.79998779297</ele>
        <time>2021-10-17T03:57:18.000Z</time>
      </trkpt>
      <trkpt lat="45.20268" lon="5.7252">
        <ele>559.20001220703</ele>
        <time>2021-10-17T03:57:19.000Z</time>
      </trkpt>
      <trkpt lat="45.2027" lon="5.7252">
        <ele>559.79998779297</ele>
        <time>2021-10-17T03:57:21.000Z</time>
      </trkpt>
      <trkpt lat="45.20272" lon="5.7252">
        <ele>560.20001220703</ele>
        <time>2021-10-17T03:57:24.000Z</time>
      </trkpt>
      <trkpt lat="45.20275" lon="5.72519">
        <ele>561</ele>
        <time>2021-10-17T03:57:27.000Z</time>
      </trkpt>
      <trkpt lat="45.20276" lon="5.7252">
        <ele>561.20001220703</ele>
        <time>2021-10-17T03:57:28.000Z</time>
      </trkpt>
      <trkpt lat="45.20276" lon="5.7252">
        <ele>561.40002441406</ele>
        <time>2021-10-17T03:57:29.000Z</time>
      </trkpt>
      <trkpt lat="45.20278" lon="5.7252">
        <ele>561.79998779297</ele>
        <time>2021-10-17T03:57:31.000Z</time>
      </trkpt>
      <trkpt lat="45.20279" lon="5.7252">
        <ele>562</ele>
        <time>2021-10-17T03:57:33.000Z</time>
      </trkpt>
      <trkpt lat="45.2028" lon="5.7252">
        <ele>562.20001220703</ele>
        <time>2021-10-17T03:57:34.000Z</time>
      </trkpt>
      <trkpt lat="45.2028" lon="5.7252">
        <ele>562.59997558594</ele>
        <time>2021-10-17T03:57:35.000Z</time>
      </trkpt>
      <trkpt lat="45.20281" lon="5.72519">
        <ele>562.79998779297</ele>
        <time>2021-10-17T03:57:37.000Z</time>
      </trkpt>
      <trkpt lat="45.20283" lon="5.72519">
        <ele>563</ele>
        <time>2021-10-17T03:57:38.000Z</time>
      </trkpt>
      <trkpt lat="45.20286" lon="5.7252">
        <ele>563.59997558594</ele>
        <time>2021-10-17T03:57:41.000Z</time>
      </trkpt>
      <trkpt lat="45.20288" lon="5.72521">
        <ele>563.79998779297</ele>
        <time>2021-10-17T03:57:42.000Z</time>
      </trkpt>
      <trkpt lat="45.20292" lon="5.7252">
        <ele>564.40002441406</ele>
        <time>2021-10-17T03:57:45.000Z</time>
      </trkpt>
      <trkpt lat="45.20294" lon="5.72519">
        <ele>564.59997558594</ele>
        <time>2021-10-17T03:57:47.000Z</time>
      </trkpt>
      <trkpt lat="45.20297" lon="5.72519">
        <ele>565</ele>
        <time>2021-10-17T03:57:49.000Z</time>
      </trkpt>
      <trkpt lat="45.20299" lon="5.72518">
        <ele>565.59997558594</ele>
        <time>2021-10-17T03:57:51.000Z</time>
      </trkpt>
      <trkpt lat="45.20303" lon="5.72519">
        <ele>566.20001220703</ele>
        <time>2021-10-17T03:57:54.000Z</time>
      </trkpt>
      <trkpt lat="45.20307" lon="5.72519">
        <ele>567.20001220703</ele>
        <time>2021-10-17T03:57:58.000Z</time>
      </trkpt>
      <trkpt lat="45.2031" lon="5.72518">
        <ele>567.59997558594</ele>
        <time>2021-10-17T03:58:00.000Z</time>
      </trkpt>
      <trkpt lat="45.20311" lon="5.72519">
        <ele>567.79998779297</ele>
        <time>2021-10-17T03:58:01.000Z</time>
      </trkpt>
      <trkpt lat="45.20312" lon="5.72519">
        <ele>568</ele>
        <time>2021-10-17T03:58:02.000Z</time>
      </trkpt>
      <trkpt lat="45.20312" lon="5.72519">
        <ele>568.20001220703</ele>
        <time>2021-10-17T03:58:03.000Z</time>
      </trkpt>
      <trkpt lat="45.20315" lon="5.72519">
        <ele>569.20001220703</ele>
        <time>2021-10-17T03:58:06.000Z</time>
      </trkpt>
      <trkpt lat="45.20317" lon="5.72519">
        <ele>570</ele>
        <time>2021-10-17T03:58:08.000Z</time>
      </trkpt>
      <trkpt lat="45.20318" lon="5.7252">
        <ele>570.20001220703</ele>
        <time>2021-10-17T03:58:09.000Z</time>
      </trkpt>
      <trkpt lat="45.20319" lon="5.72521">
        <ele>570.59997558594</ele>
        <time>2021-10-17T03:58:10.000Z</time>
      </trkpt>
      <trkpt lat="45.20321" lon="5.72521">
        <ele>571</ele>
        <time>2021-10-17T03:58:12.000Z</time>
      </trkpt>
      <trkpt lat="45.20321" lon="5.7252">
        <ele>571.59997558594</ele>
        <time>2021-10-17T03:58:13.000Z</time>
      </trkpt>
      <trkpt lat="45.20324" lon="5.72521">
        <ele>572.40002441406</ele>
        <time>2021-10-17T03:58:16.000Z</time>
      </trkpt>
      <trkpt lat="45.20325" lon="5.72521">
        <ele>572.59997558594</ele>
        <time>2021-10-17T03:58:17.000Z</time>
      </trkpt>
      <trkpt lat="45.20328" lon="5.72521">
        <ele>573.20001220703</ele>
        <time>2021-10-17T03:58:20.000Z</time>
      </trkpt>
      <trkpt lat="45.20329" lon="5.72521">
        <ele>574</ele>
        <time>2021-10-17T03:58:22.000Z</time>
      </trkpt>
      <trkpt lat="45.2033" lon="5.72521">
        <ele>574.59997558594</ele>
        <time>2021-10-17T03:58:24.000Z</time>
      </trkpt>
      <trkpt lat="45.20331" lon="5.72521">
        <ele>575</ele>
        <time>2021-10-17T03:58:26.000Z</time>
      </trkpt>
      <trkpt lat="45.20333" lon="5.7252">
        <ele>575.79998779297</ele>
        <time>2021-10-17T03:58:29.000Z</time>
      </trkpt>
      <trkpt lat="45.20333" lon="5.7252">
        <ele>576.20001220703</ele>
        <time>2021-10-17T03:58:31.000Z</time>
      </trkpt>
      <trkpt lat="45.20334" lon="5.72521">
        <ele>576.79998779297</ele>
        <time>2021-10-17T03:58:33.000Z</time>
      </trkpt>
      <trkpt lat="45.20335" lon="5.72521">
        <ele>577.20001220703</ele>
        <time>2021-10-17T03:58:35.000Z</time>
      </trkpt>
      <trkpt lat="45.20336" lon="5.72522">
        <ele>577.40002441406</ele>
        <time>2021-10-17T03:58:36.000Z</time>
      </trkpt>
      <trkpt lat="45.20338" lon="5.72522">
        <ele>578.20001220703</ele>
        <time>2021-10-17T03:58:39.000Z</time>
      </trkpt>
      <trkpt lat="45.20339" lon="5.72522">
        <ele>579.59997558594</ele>
        <time>2021-10-17T03:58:42.000Z</time>
      </trkpt>
      <trkpt lat="45.20343" lon="5.72524">
        <ele>580.79998779297</ele>
        <time>2021-10-17T03:58:46.000Z</time>
      </trkpt>
      <trkpt lat="45.20343" lon="5.72524">
        <ele>581</ele>
        <time>2021-10-17T03:58:47.000Z</time>
      </trkpt>
      <trkpt lat="45.20344" lon="5.72525">
        <ele>581.20001220703</ele>
        <time>2021-10-17T03:58:48.000Z</time>
      </trkpt>
      <trkpt lat="45.20347" lon="5.72527">
        <ele>581.79998779297</ele>
        <time>2021-10-17T03:58:52.000Z</time>
      </trkpt>
      <trkpt lat="45.20347" lon="5.72526">
        <ele>582</ele>
        <time>2021-10-17T03:58:53.000Z</time>
      </trkpt>
      <trkpt lat="45.20347" lon="5.72526">
        <ele>582.40002441406</ele>
        <time>2021-10-17T03:58:54.000Z</time>
      </trkpt>
      <trkpt lat="45.20348" lon="5.72525">
        <ele>582.79998779297</ele>
        <time>2021-10-17T03:58:55.000Z</time>
      </trkpt>
      <trkpt lat="45.20349" lon="5.72524">
        <ele>583</ele>
        <time>2021-10-17T03:58:56.000Z</time>
      </trkpt>
      <trkpt lat="45.20352" lon="5.72523">
        <ele>584</ele>
        <time>2021-10-17T03:59:00.000Z</time>
      </trkpt>
      <trkpt lat="45.20352" lon="5.7252">
        <ele>585</ele>
        <time>2021-10-17T03:59:03.000Z</time>
      </trkpt>
      <trkpt lat="45.20353" lon="5.72519">
        <ele>585.20001220703</ele>
        <time>2021-10-17T03:59:04.000Z</time>
      </trkpt>
      <trkpt lat="45.20357" lon="5.7252">
        <ele>586.40002441406</ele>
        <time>2021-10-17T03:59:09.000Z</time>
      </trkpt>
      <trkpt lat="45.2036" lon="5.72522">
        <ele>587.20001220703</ele>
        <time>2021-10-17T03:59:13.000Z</time>
      </trkpt>
      <trkpt lat="45.20361" lon="5.72523">
        <ele>587.59997558594</ele>
        <time>2021-10-17T03:59:14.000Z</time>
      </trkpt>
      <trkpt lat="45.20362" lon="5.72523">
        <ele>588</ele>
        <time>2021-10-17T03:59:16.000Z</time>
      </trkpt>
      <trkpt lat="45.20363" lon="5.72523">
        <ele>588.20001220703</ele>
        <time>2021-10-17T03:59:17.000Z</time>
      </trkpt>
      <trkpt lat="45.20366" lon="5.72522">
        <ele>588.59997558594</ele>
        <time>2021-10-17T03:59:20.000Z</time>
      </trkpt>
      <trkpt lat="45.20369" lon="5.72521">
        <ele>589.20001220703</ele>
        <time>2021-10-17T03:59:23.000Z</time>
      </trkpt>
      <trkpt lat="45.20374" lon="5.72522">
        <ele>589.59997558594</ele>
        <time>2021-10-17T03:59:26.000Z</time>
      </trkpt>
      <trkpt lat="45.20376" lon="5.72527">
        <ele>590.20001220703</ele>
        <time>2021-10-17T03:59:30.000Z</time>
      </trkpt>
      <trkpt lat="45.20376" lon="5.72528">
        <ele>590.59997558594</ele>
        <time>2021-10-17T03:59:31.000Z</time>
      </trkpt>
      <trkpt lat="45.20376" lon="5.72529">
        <ele>590.79998779297</ele>
        <time>2021-10-17T03:59:32.000Z</time>
      </trkpt>
      <trkpt lat="45.20376" lon="5.7253">
        <ele>591.20001220703</ele>
        <time>2021-10-17T03:59:33.000Z</time>
      </trkpt>
      <trkpt lat="45.20378" lon="5.72532">
        <ele>591.79998779297</ele>
        <time>2021-10-17T03:59:36.000Z</time>
      </trkpt>
      <trkpt lat="45.20379" lon="5.72532">
        <ele>592.20001220703</ele>
        <time>2021-10-17T03:59:37.000Z</time>
      </trkpt>
      <trkpt lat="45.20379" lon="5.72532">
        <ele>592.40002441406</ele>
        <time>2021-10-17T03:59:38.000Z</time>
      </trkpt>
      <trkpt lat="45.20381" lon="5.72533">
        <ele>593</ele>
        <time>2021-10-17T03:59:41.000Z</time>
      </trkpt>
      <trkpt lat="45.20381" lon="5.72533">
        <ele>593.40002441406</ele>
        <time>2021-10-17T03:59:42.000Z</time>
      </trkpt>
      <trkpt lat="45.20381" lon="5.72533">
        <ele>593.59997558594</ele>
        <time>2021-10-17T03:59:43.000Z</time>
      </trkpt>
      <trkpt lat="45.20383" lon="5.72534">
        <ele>594.40002441406</ele>
        <time>2021-10-17T03:59:45.000Z</time>
      </trkpt>
      <trkpt lat="45.20384" lon="5.72536">
        <ele>594.79998779297</ele>
        <time>2021-10-17T03:59:47.000Z</time>
      </trkpt>
      <trkpt lat="45.20384" lon="5.72536">
        <ele>595</ele>
        <time>2021-10-17T03:59:48.000Z</time>
      </trkpt>
      <trkpt lat="45.20384" lon="5.72536">
        <ele>595.20001220703</ele>
        <time>2021-10-17T03:59:49.000Z</time>
      </trkpt>
      <trkpt lat="45.20385" lon="5.72537">
        <ele>595.40002441406</ele>
        <time>2021-10-17T03:59:50.000Z</time>
      </trkpt>
      <trkpt lat="45.20388" lon="5.72539">
        <ele>596.40002441406</ele>
        <time>2021-10-17T03:59:54.000Z</time>
      </trkpt>
      <trkpt lat="45.20389" lon="5.72538">
        <ele>596.59997558594</ele>
        <time>2021-10-17T03:59:55.000Z</time>
      </trkpt>
      <trkpt lat="45.20391" lon="5.72539">
        <ele>597.59997558594</ele>
        <time>2021-10-17T04:00:00.000Z</time>
      </trkpt>
      <trkpt lat="45.20391" lon="5.72538">
        <ele>597.79998779297</ele>
        <time>2021-10-17T04:00:01.000Z</time>
      </trkpt>
      <trkpt lat="45.20393" lon="5.72535">
        <ele>599</ele>
        <time>2021-10-17T04:00:05.000Z</time>
      </trkpt>
      <trkpt lat="45.20393" lon="5.72534">
        <ele>599.79998779297</ele>
        <time>2021-10-17T04:00:06.000Z</time>
      </trkpt>
      <trkpt lat="45.20394" lon="5.72533">
        <ele>600.20001220703</ele>
        <time>2021-10-17T04:00:07.000Z</time>
      </trkpt>
      <trkpt lat="45.20395" lon="5.72534">
        <ele>600.59997558594</ele>
        <time>2021-10-17T04:00:08.000Z</time>
      </trkpt>
      <trkpt lat="45.20398" lon="5.72536">
        <ele>601.20001220703</ele>
        <time>2021-10-17T04:00:12.000Z</time>
      </trkpt>
      <trkpt lat="45.20398" lon="5.72536">
        <ele>601.40002441406</ele>
        <time>2021-10-17T04:00:13.000Z</time>
      </trkpt>
      <trkpt lat="45.204" lon="5.72535">
        <ele>602.59997558594</ele>
        <time>2021-10-17T04:00:18.000Z</time>
      </trkpt>
      <trkpt lat="45.20406" lon="5.72534">
        <ele>603.59997558594</ele>
        <time>2021-10-17T04:00:23.000Z</time>
      </trkpt>
      <trkpt lat="45.20407" lon="5.72533">
        <ele>603.79998779297</ele>
        <time>2021-10-17T04:00:24.000Z</time>
      </trkpt>
      <trkpt lat="45.2041" lon="5.72532">
        <ele>605</ele>
        <time>2021-10-17T04:00:28.000Z</time>
      </trkpt>
      <trkpt lat="45.20411" lon="5.72531">
        <ele>605.40002441406</ele>
        <time>2021-10-17T04:00:29.000Z</time>
      </trkpt>
      <trkpt lat="45.20412" lon="5.7253">
        <ele>605.59997558594</ele>
        <time>2021-10-17T04:00:30.000Z</time>
      </trkpt>
      <trkpt lat="45.20414" lon="5.7253">
        <ele>606.20001220703</ele>
        <time>2021-10-17T04:00:33.000Z</time>
      </trkpt>
      <trkpt lat="45.20415" lon="5.72529">
        <ele>607</ele>
        <time>2021-10-17T04:00:36.000Z</time>
      </trkpt>
      <trkpt lat="45.20416" lon="5.72527">
        <ele>607.20001220703</ele>
        <time>2021-10-17T04:00:39.000Z</time>
      </trkpt>
      <trkpt lat="45.20416" lon="5.72525">
        <ele>608.40002441406</ele>
        <time>2021-10-17T04:00:42.000Z</time>
      </trkpt>
      <trkpt lat="45.20417" lon="5.72524">
        <ele>608.79998779297</ele>
        <time>2021-10-17T04:00:44.000Z</time>
      </trkpt>
      <trkpt lat="45.20418" lon="5.72522">
        <ele>609.40002441406</ele>
        <time>2021-10-17T04:00:46.000Z</time>
      </trkpt>
      <trkpt lat="45.2042" lon="5.72517">
        <ele>609.79998779297</ele>
        <time>2021-10-17T04:00:50.000Z</time>
      </trkpt>
      <trkpt lat="45.20421" lon="5.72516">
        <ele>610.59997558594</ele>
        <time>2021-10-17T04:00:52.000Z</time>
      </trkpt>
      <trkpt lat="45.20421" lon="5.72514">
        <ele>611.59997558594</ele>
        <time>2021-10-17T04:00:55.000Z</time>
      </trkpt>
      <trkpt lat="45.20422" lon="5.72515">
        <ele>611.79998779297</ele>
        <time>2021-10-17T04:00:56.000Z</time>
      </trkpt>
      <trkpt lat="45.20427" lon="5.72515">
        <ele>613</ele>
        <time>2021-10-17T04:01:01.000Z</time>
      </trkpt>
      <trkpt lat="45.2043" lon="5.72517">
        <ele>614.20001220703</ele>
        <time>2021-10-17T04:01:05.000Z</time>
      </trkpt>
      <trkpt lat="45.2043" lon="5.72517">
        <ele>614.40002441406</ele>
        <time>2021-10-17T04:01:06.000Z</time>
      </trkpt>
      <trkpt lat="45.20431" lon="5.72515">
        <ele>615.20001220703</ele>
        <time>2021-10-17T04:01:08.000Z</time>
      </trkpt>
      <trkpt lat="45.20432" lon="5.72512">
        <ele>616.40002441406</ele>
        <time>2021-10-17T04:01:12.000Z</time>
      </trkpt>
      <trkpt lat="45.20433" lon="5.72512">
        <ele>616.79998779297</ele>
        <time>2021-10-17T04:01:13.000Z</time>
      </trkpt>
      <trkpt lat="45.20436" lon="5.72511">
        <ele>617.59997558594</ele>
        <time>2021-10-17T04:01:16.000Z</time>
      </trkpt>
      <trkpt lat="45.20443" lon="5.7251">
        <ele>618.40002441406</ele>
        <time>2021-10-17T04:01:21.000Z</time>
      </trkpt>
      <trkpt lat="45.20445" lon="5.72511">
        <ele>618.79998779297</ele>
        <time>2021-10-17T04:01:23.000Z</time>
      </trkpt>
      <trkpt lat="45.20447" lon="5.72513">
        <ele>619</ele>
        <time>2021-10-17T04:01:25.000Z</time>
      </trkpt>
      <trkpt lat="45.2045" lon="5.72515">
        <ele>619.59997558594</ele>
        <time>2021-10-17T04:01:28.000Z</time>
      </trkpt>
      <trkpt lat="45.20453" lon="5.72519">
        <ele>620</ele>
        <time>2021-10-17T04:01:30.000Z</time>
      </trkpt>
      <trkpt lat="45.20461" lon="5.72532">
        <ele>621</ele>
        <time>2021-10-17T04:01:37.000Z</time>
      </trkpt>
      <trkpt lat="45.20462" lon="5.72533">
        <ele>621</ele>
        <time>2021-10-17T04:01:38.000Z</time>
      </trkpt>
      <trkpt lat="45.2047" lon="5.72541">
        <ele>622</ele>
        <time>2021-10-17T04:01:45.000Z</time>
      </trkpt>
      <trkpt lat="45.20472" lon="5.72543">
        <ele>622.40002441406</ele>
        <time>2021-10-17T04:01:47.000Z</time>
      </trkpt>
      <trkpt lat="45.20477" lon="5.72548">
        <ele>623.20001220703</ele>
        <time>2021-10-17T04:01:52.000Z</time>
      </trkpt>
      <trkpt lat="45.2048" lon="5.72552">
        <ele>623.59997558594</ele>
        <time>2021-10-17T04:01:55.000Z</time>
      </trkpt>
      <trkpt lat="45.20483" lon="5.72557">
        <ele>624.40002441406</ele>
        <time>2021-10-17T04:01:59.000Z</time>
      </trkpt>
      <trkpt lat="45.2049" lon="5.72561">
        <ele>624.79998779297</ele>
        <time>2021-10-17T04:02:03.000Z</time>
      </trkpt>
      <trkpt lat="45.20492" lon="5.72559">
        <ele>625.20001220703</ele>
        <time>2021-10-17T04:02:05.000Z</time>
      </trkpt>
      <trkpt lat="45.20492" lon="5.72556">
        <ele>625.40002441406</ele>
        <time>2021-10-17T04:02:07.000Z</time>
      </trkpt>
      <trkpt lat="45.2049" lon="5.72551">
        <ele>626.40002441406</ele>
        <time>2021-10-17T04:02:11.000Z</time>
      </trkpt>
      <trkpt lat="45.20489" lon="5.72548">
        <ele>626.79998779297</ele>
        <time>2021-10-17T04:02:13.000Z</time>
      </trkpt>
      <trkpt lat="45.20488" lon="5.72544">
        <ele>627.79998779297</ele>
        <time>2021-10-17T04:02:16.000Z</time>
      </trkpt>
      <trkpt lat="45.20487" lon="5.72537">
        <ele>628.59997558594</ele>
        <time>2021-10-17T04:02:20.000Z</time>
      </trkpt>
      <trkpt lat="45.20486" lon="5.72535">
        <ele>628.79998779297</ele>
        <time>2021-10-17T04:02:21.000Z</time>
      </trkpt>
      <trkpt lat="45.20486" lon="5.72533">
        <ele>629</ele>
        <time>2021-10-17T04:02:22.000Z</time>
      </trkpt>
      <trkpt lat="45.20486" lon="5.72524">
        <ele>630</ele>
        <time>2021-10-17T04:02:27.000Z</time>
      </trkpt>
      <trkpt lat="45.20486" lon="5.72522">
        <ele>630.20001220703</ele>
        <time>2021-10-17T04:02:28.000Z</time>
      </trkpt>
      <trkpt lat="45.20487" lon="5.72511">
        <ele>630.79998779297</ele>
        <time>2021-10-17T04:02:33.000Z</time>
      </trkpt>
      <trkpt lat="45.20486" lon="5.72504">
        <ele>630.59997558594</ele>
        <time>2021-10-17T04:02:36.000Z</time>
      </trkpt>
      <trkpt lat="45.20483" lon="5.72497">
        <ele>630.40002441406</ele>
        <time>2021-10-17T04:02:39.000Z</time>
      </trkpt>
      <trkpt lat="45.20478" lon="5.7249">
        <ele>630.20001220703</ele>
        <time>2021-10-17T04:02:43.000Z</time>
      </trkpt>
      <trkpt lat="45.20476" lon="5.7249">
        <ele>630.20001220703</ele>
        <time>2021-10-17T04:02:44.000Z</time>
      </trkpt>
      <trkpt lat="45.2047" lon="5.72488">
        <ele>630</ele>
        <time>2021-10-17T04:02:48.000Z</time>
      </trkpt>
      <trkpt lat="45.20469" lon="5.72487">
        <ele>630</ele>
        <time>2021-10-17T04:02:49.000Z</time>
      </trkpt>
      <trkpt lat="45.20468" lon="5.72487">
        <ele>630</ele>
        <time>2021-10-17T04:02:50.000Z</time>
      </trkpt>
      <trkpt lat="45.20463" lon="5.72484">
        <ele>630</ele>
        <time>2021-10-17T04:02:53.000Z</time>
      </trkpt>
      <trkpt lat="45.20448" lon="5.72481">
        <ele>630.40002441406</ele>
        <time>2021-10-17T04:03:00.000Z</time>
      </trkpt>
      <trkpt lat="45.20444" lon="5.72477">
        <ele>630.40002441406</ele>
        <time>2021-10-17T04:03:03.000Z</time>
      </trkpt>
      <trkpt lat="45.20436" lon="5.72476">
        <ele>630.20001220703</ele>
        <time>2021-10-17T04:03:08.000Z</time>
      </trkpt>
      <trkpt lat="45.20428" lon="5.72472">
        <ele>629.79998779297</ele>
        <time>2021-10-17T04:03:12.000Z</time>
      </trkpt>
      <trkpt lat="45.2042" lon="5.72467">
        <ele>629.79998779297</ele>
        <time>2021-10-17T04:03:16.000Z</time>
      </trkpt>
      <trkpt lat="45.20411" lon="5.72453">
        <ele>630</ele>
        <time>2021-10-17T04:03:23.000Z</time>
      </trkpt>
      <trkpt lat="45.20404" lon="5.72448">
        <ele>630.79998779297</ele>
        <time>2021-10-17T04:03:27.000Z</time>
      </trkpt>
      <trkpt lat="45.20403" lon="5.72447">
        <ele>631</ele>
        <time>2021-10-17T04:03:28.000Z</time>
      </trkpt>
      <trkpt lat="45.20402" lon="5.72445">
        <ele>631.20001220703</ele>
        <time>2021-10-17T04:03:29.000Z</time>
      </trkpt>
      <trkpt lat="45.20402" lon="5.72443">
        <ele>631.59997558594</ele>
        <time>2021-10-17T04:03:31.000Z</time>
      </trkpt>
      <trkpt lat="45.20402" lon="5.72441">
        <ele>632.59997558594</ele>
        <time>2021-10-17T04:03:33.000Z</time>
      </trkpt>
      <trkpt lat="45.204" lon="5.7244">
        <ele>633.20001220703</ele>
        <time>2021-10-17T04:03:36.000Z</time>
      </trkpt>
      <trkpt lat="45.20398" lon="5.72441">
        <ele>633.40002441406</ele>
        <time>2021-10-17T04:03:38.000Z</time>
      </trkpt>
      <trkpt lat="45.20395" lon="5.72442">
        <ele>633.79998779297</ele>
        <time>2021-10-17T04:03:40.000Z</time>
      </trkpt>
      <trkpt lat="45.20392" lon="5.72442">
        <ele>634.20001220703</ele>
        <time>2021-10-17T04:03:43.000Z</time>
      </trkpt>
      <trkpt lat="45.20391" lon="5.72441">
        <ele>634.40002441406</ele>
        <time>2021-10-17T04:03:44.000Z</time>
      </trkpt>
      <trkpt lat="45.2039" lon="5.7244">
        <ele>634.59997558594</ele>
        <time>2021-10-17T04:03:45.000Z</time>
      </trkpt>
      <trkpt lat="45.20389" lon="5.72433">
        <ele>634.79998779297</ele>
        <time>2021-10-17T04:03:49.000Z</time>
      </trkpt>
      <trkpt lat="45.20395" lon="5.72429">
        <ele>635</ele>
        <time>2021-10-17T04:03:54.000Z</time>
      </trkpt>
      <trkpt lat="45.20399" lon="5.72424">
        <ele>635.59997558594</ele>
        <time>2021-10-17T04:03:57.000Z</time>
      </trkpt>
      <trkpt lat="45.204" lon="5.72416">
        <ele>635.79998779297</ele>
        <time>2021-10-17T04:04:01.000Z</time>
      </trkpt>
      <trkpt lat="45.20399" lon="5.72415">
        <ele>636</ele>
        <time>2021-10-17T04:04:02.000Z</time>
      </trkpt>
      <trkpt lat="45.20397" lon="5.72414">
        <ele>636</ele>
        <time>2021-10-17T04:04:05.000Z</time>
      </trkpt>
      <trkpt lat="45.2039" lon="5.72421">
        <ele>635.20001220703</ele>
        <time>2021-10-17T04:04:12.000Z</time>
      </trkpt>
      <trkpt lat="45.20387" lon="5.72421">
        <ele>634.79998779297</ele>
        <time>2021-10-17T04:04:14.000Z</time>
      </trkpt>
      <trkpt lat="45.20384" lon="5.72421">
        <ele>634</ele>
        <time>2021-10-17T04:04:18.000Z</time>
      </trkpt>
      <trkpt lat="45.20383" lon="5.72421">
        <ele>633.79998779297</ele>
        <time>2021-10-17T04:04:19.000Z</time>
      </trkpt>
      <trkpt lat="45.20383" lon="5.72421">
        <ele>633.59997558594</ele>
        <time>2021-10-17T04:04:20.000Z</time>
      </trkpt>
      <trkpt lat="45.20381" lon="5.72421">
        <ele>632.79998779297</ele>
        <time>2021-10-17T04:04:23.000Z</time>
      </trkpt>
      <trkpt lat="45.20378" lon="5.72421">
        <ele>632</ele>
        <time>2021-10-17T04:04:26.000Z</time>
      </trkpt>
      <trkpt lat="45.20376" lon="5.7242">
        <ele>631.59997558594</ele>
        <time>2021-10-17T04:04:28.000Z</time>
      </trkpt>
      <trkpt lat="45.20373" lon="5.72419">
        <ele>630.79998779297</ele>
        <time>2021-10-17T04:04:31.000Z</time>
      </trkpt>
      <trkpt lat="45.20372" lon="5.72419">
        <ele>630.59997558594</ele>
        <time>2021-10-17T04:04:32.000Z</time>
      </trkpt>
      <trkpt lat="45.20367" lon="5.72428">
        <ele>629.79998779297</ele>
        <time>2021-10-17T04:04:38.000Z</time>
      </trkpt>
      <trkpt lat="45.20367" lon="5.72423">
        <ele>629.79998779297</ele>
        <time>2021-10-17T04:04:41.000Z</time>
      </trkpt>
      <trkpt lat="45.20368" lon="5.72421">
        <ele>629.79998779297</ele>
        <time>2021-10-17T04:04:42.000Z</time>
      </trkpt>
      <trkpt lat="45.20369" lon="5.72415">
        <ele>629.79998779297</ele>
        <time>2021-10-17T04:04:44.000Z</time>
      </trkpt>
      <trkpt lat="45.20369" lon="5.72412">
        <ele>629.79998779297</ele>
        <time>2021-10-17T04:04:45.000Z</time>
      </trkpt>
      <trkpt lat="45.20371" lon="5.72406">
        <ele>629.79998779297</ele>
        <time>2021-10-17T04:04:47.000Z</time>
      </trkpt>
      <trkpt lat="45.20375" lon="5.72399">
        <ele>630</ele>
        <time>2021-10-17T04:04:50.000Z</time>
      </trkpt>
      <trkpt lat="45.2038" lon="5.72392">
        <ele>630</ele>
        <time>2021-10-17T04:04:53.000Z</time>
      </trkpt>
      <trkpt lat="45.20384" lon="5.72389">
        <ele>630</ele>
        <time>2021-10-17T04:04:55.000Z</time>
      </trkpt>
      <trkpt lat="45.2039" lon="5.72385">
        <ele>629.79998779297</ele>
        <time>2021-10-17T04:04:58.000Z</time>
      </trkpt>
      <trkpt lat="45.20406" lon="5.72384">
        <ele>629.79998779297</ele>
        <time>2021-10-17T04:05:05.000Z</time>
      </trkpt>
      <trkpt lat="45.20424" lon="5.72389">
        <ele>630</ele>
        <time>2021-10-17T04:05:12.000Z</time>
      </trkpt>
      <trkpt lat="45.20427" lon="5.7239">
        <ele>630</ele>
        <time>2021-10-17T04:05:13.000Z</time>
      </trkpt>
      <trkpt lat="45.20444" lon="5.724">
        <ele>630.40002441406</ele>
        <time>2021-10-17T04:05:21.000Z</time>
      </trkpt>
      <trkpt lat="45.20448" lon="5.72402">
        <ele>631</ele>
        <time>2021-10-17T04:05:23.000Z</time>
      </trkpt>
      <trkpt lat="45.20451" lon="5.72404">
        <ele>631.40002441406</ele>
        <time>2021-10-17T04:05:25.000Z</time>
      </trkpt>
      <trkpt lat="45.20454" lon="5.72405">
        <ele>631.59997558594</ele>
        <time>2021-10-17T04:05:27.000Z</time>
      </trkpt>
      <trkpt lat="45.20459" lon="5.72409">
        <ele>632.40002441406</ele>
        <time>2021-10-17T04:05:30.000Z</time>
      </trkpt>
      <trkpt lat="45.2046" lon="5.72411">
        <ele>632.59997558594</ele>
        <time>2021-10-17T04:05:31.000Z</time>
      </trkpt>
      <trkpt lat="45.20462" lon="5.72412">
        <ele>632.79998779297</ele>
        <time>2021-10-17T04:05:32.000Z</time>
      </trkpt>
      <trkpt lat="45.2047" lon="5.72424">
        <ele>634</ele>
        <time>2021-10-17T04:05:38.000Z</time>
      </trkpt>
      <trkpt lat="45.20472" lon="5.72426">
        <ele>634.20001220703</ele>
        <time>2021-10-17T04:05:39.000Z</time>
      </trkpt>
      <trkpt lat="45.20477" lon="5.72438">
        <ele>634.79998779297</ele>
        <time>2021-10-17T04:05:44.000Z</time>
      </trkpt>
      <trkpt lat="45.20481" lon="5.72451">
        <ele>634.59997558594</ele>
        <time>2021-10-17T04:05:49.000Z</time>
      </trkpt>
      <trkpt lat="45.20482" lon="5.72455">
        <ele>634.20001220703</ele>
        <time>2021-10-17T04:05:51.000Z</time>
      </trkpt>
      <trkpt lat="45.20483" lon="5.72461">
        <ele>633.40002441406</ele>
        <time>2021-10-17T04:05:54.000Z</time>
      </trkpt>
      <trkpt lat="45.20484" lon="5.72463">
        <ele>633</ele>
        <time>2021-10-17T04:05:55.000Z</time>
      </trkpt>
      <trkpt lat="45.20485" lon="5.72469">
        <ele>632</ele>
        <time>2021-10-17T04:05:58.000Z</time>
      </trkpt>
      <trkpt lat="45.20486" lon="5.72477">
        <ele>631</ele>
        <time>2021-10-17T04:06:01.000Z</time>
      </trkpt>
      <trkpt lat="45.20487" lon="5.72489">
        <ele>629.79998779297</ele>
        <time>2021-10-17T04:06:06.000Z</time>
      </trkpt>
      <trkpt lat="45.2049" lon="5.725">
        <ele>629.20001220703</ele>
        <time>2021-10-17T04:06:10.000Z</time>
      </trkpt>
      <trkpt lat="45.20491" lon="5.72503">
        <ele>629.20001220703</ele>
        <time>2021-10-17T04:06:11.000Z</time>
      </trkpt>
      <trkpt lat="45.20493" lon="5.72514">
        <ele>629.79998779297</ele>
        <time>2021-10-17T04:06:15.000Z</time>
      </trkpt>
      <trkpt lat="45.20496" lon="5.72524">
        <ele>630.20001220703</ele>
        <time>2021-10-17T04:06:19.000Z</time>
      </trkpt>
      <trkpt lat="45.205" lon="5.72531">
        <ele>630.79998779297</ele>
        <time>2021-10-17T04:06:23.000Z</time>
      </trkpt>
      <trkpt lat="45.20505" lon="5.72539">
        <ele>631.20001220703</ele>
        <time>2021-10-17T04:06:27.000Z</time>
      </trkpt>
      <trkpt lat="45.20519" lon="5.72556">
        <ele>631</ele>
        <time>2021-10-17T04:06:37.000Z</time>
      </trkpt>
      <trkpt lat="45.20521" lon="5.72557">
        <ele>631</ele>
        <time>2021-10-17T04:06:38.000Z</time>
      </trkpt>
      <trkpt lat="45.20524" lon="5.72558">
        <ele>630.79998779297</ele>
        <time>2021-10-17T04:06:40.000Z</time>
      </trkpt>
      <trkpt lat="45.20526" lon="5.7256">
        <ele>630.40002441406</ele>
        <time>2021-10-17T04:06:42.000Z</time>
      </trkpt>
      <trkpt lat="45.20528" lon="5.72561">
        <ele>630</ele>
        <time>2021-10-17T04:06:43.000Z</time>
      </trkpt>
      <trkpt lat="45.20531" lon="5.72562">
        <ele>629.59997558594</ele>
        <time>2021-10-17T04:06:45.000Z</time>
      </trkpt>
      <trkpt lat="45.20539" lon="5.72562">
        <ele>628.79998779297</ele>
        <time>2021-10-17T04:06:49.000Z</time>
      </trkpt>
      <trkpt lat="45.20545" lon="5.7256">
        <ele>628.79998779297</ele>
        <time>2021-10-17T04:06:52.000Z</time>
      </trkpt>
      <trkpt lat="45.2055" lon="5.72559">
        <ele>629.20001220703</ele>
        <time>2021-10-17T04:06:55.000Z</time>
      </trkpt>
      <trkpt lat="45.20562" lon="5.72562">
        <ele>629.79998779297</ele>
        <time>2021-10-17T04:07:01.000Z</time>
      </trkpt>
      <trkpt lat="45.20575" lon="5.72567">
        <ele>630.59997558594</ele>
        <time>2021-10-17T04:07:08.000Z</time>
      </trkpt>
      <trkpt lat="45.20579" lon="5.72568">
        <ele>630.79998779297</ele>
        <time>2021-10-17T04:07:10.000Z</time>
      </trkpt>
      <trkpt lat="45.20589" lon="5.72571">
        <ele>631.79998779297</ele>
        <time>2021-10-17T04:07:15.000Z</time>
      </trkpt>
      <trkpt lat="45.2059" lon="5.72572">
        <ele>632</ele>
        <time>2021-10-17T04:07:16.000Z</time>
      </trkpt>
      <trkpt lat="45.20597" lon="5.72579">
        <ele>632.79998779297</ele>
        <time>2021-10-17T04:07:21.000Z</time>
      </trkpt>
      <trkpt lat="45.20604" lon="5.72585">
        <ele>633.20001220703</ele>
        <time>2021-10-17T04:07:26.000Z</time>
      </trkpt>
      <trkpt lat="45.20613" lon="5.72592">
        <ele>634</ele>
        <time>2021-10-17T04:07:32.000Z</time>
      </trkpt>
      <trkpt lat="45.20618" lon="5.72595">
        <ele>634.79998779297</ele>
        <time>2021-10-17T04:07:36.000Z</time>
      </trkpt>
      <trkpt lat="45.20619" lon="5.72595">
        <ele>635.20001220703</ele>
        <time>2021-10-17T04:07:37.000Z</time>
      </trkpt>
      <trkpt lat="45.20627" lon="5.72599">
        <ele>636.20001220703</ele>
        <time>2021-10-17T04:07:43.000Z</time>
      </trkpt>
      <trkpt lat="45.20629" lon="5.72601">
        <ele>636.59997558594</ele>
        <time>2021-10-17T04:07:45.000Z</time>
      </trkpt>
      <trkpt lat="45.20636" lon="5.72604">
        <ele>637.40002441406</ele>
        <time>2021-10-17T04:07:49.000Z</time>
      </trkpt>
      <trkpt lat="45.20642" lon="5.72603">
        <ele>637.79998779297</ele>
        <time>2021-10-17T04:07:52.000Z</time>
      </trkpt>
      <trkpt lat="45.20643" lon="5.72603">
        <ele>637.79998779297</ele>
        <time>2021-10-17T04:07:53.000Z</time>
      </trkpt>
      <trkpt lat="45.20652" lon="5.72601">
        <ele>638.40002441406</ele>
        <time>2021-10-17T04:07:58.000Z</time>
      </trkpt>
      <trkpt lat="45.20654" lon="5.726">
        <ele>638.40002441406</ele>
        <time>2021-10-17T04:07:59.000Z</time>
      </trkpt>
      <trkpt lat="45.20655" lon="5.72599">
        <ele>638.59997558594</ele>
        <time>2021-10-17T04:08:00.000Z</time>
      </trkpt>
      <trkpt lat="45.20658" lon="5.72596">
        <ele>638.79998779297</ele>
        <time>2021-10-17T04:08:02.000Z</time>
      </trkpt>
      <trkpt lat="45.20659" lon="5.72595">
        <ele>639</ele>
        <time>2021-10-17T04:08:03.000Z</time>
      </trkpt>
      <trkpt lat="45.20661" lon="5.72593">
        <ele>639.20001220703</ele>
        <time>2021-10-17T04:08:05.000Z</time>
      </trkpt>
      <trkpt lat="45.20664" lon="5.72591">
        <ele>639.59997558594</ele>
        <time>2021-10-17T04:08:07.000Z</time>
      </trkpt>
      <trkpt lat="45.2067" lon="5.72582">
        <ele>640.59997558594</ele>
        <time>2021-10-17T04:08:12.000Z</time>
      </trkpt>
      <trkpt lat="45.20671" lon="5.72581">
        <ele>640.79998779297</ele>
        <time>2021-10-17T04:08:13.000Z</time>
      </trkpt>
      <trkpt lat="45.20674" lon="5.72579">
        <ele>641.20001220703</ele>
        <time>2021-10-17T04:08:15.000Z</time>
      </trkpt>
      <trkpt lat="45.20678" lon="5.72578">
        <ele>641.59997558594</ele>
        <time>2021-10-17T04:08:18.000Z</time>
      </trkpt>
      <trkpt lat="45.20685" lon="5.72576">
        <ele>642.59997558594</ele>
        <time>2021-10-17T04:08:22.000Z</time>
      </trkpt>
      <trkpt lat="45.20686" lon="5.72575">
        <ele>642.79998779297</ele>
        <time>2021-10-17T04:08:23.000Z</time>
      </trkpt>
      <trkpt lat="45.20692" lon="5.7257">
        <ele>644.20001220703</ele>
        <time>2021-10-17T04:08:28.000Z</time>
      </trkpt>
      <trkpt lat="45.20693" lon="5.72569">
        <ele>644.40002441406</ele>
        <time>2021-10-17T04:08:29.000Z</time>
      </trkpt>
      <trkpt lat="45.20694" lon="5.72568">
        <ele>644.40002441406</ele>
        <time>2021-10-17T04:08:30.000Z</time>
      </trkpt>
      <trkpt lat="45.20699" lon="5.72567">
        <ele>645.40002441406</ele>
        <time>2021-10-17T04:08:33.000Z</time>
      </trkpt>
      <trkpt lat="45.20703" lon="5.72568">
        <ele>646.40002441406</ele>
        <time>2021-10-17T04:08:37.000Z</time>
      </trkpt>
      <trkpt lat="45.20704" lon="5.72569">
        <ele>646.59997558594</ele>
        <time>2021-10-17T04:08:38.000Z</time>
      </trkpt>
      <trkpt lat="45.20706" lon="5.72572">
        <ele>647.20001220703</ele>
        <time>2021-10-17T04:08:41.000Z</time>
      </trkpt>
      <trkpt lat="45.20706" lon="5.72573">
        <ele>647.40002441406</ele>
        <time>2021-10-17T04:08:42.000Z</time>
      </trkpt>
      <trkpt lat="45.2071" lon="5.72576">
        <ele>648.79998779297</ele>
        <time>2021-10-17T04:08:47.000Z</time>
      </trkpt>
      <trkpt lat="45.20711" lon="5.72576">
        <ele>649</ele>
        <time>2021-10-17T04:08:48.000Z</time>
      </trkpt>
      <trkpt lat="45.20713" lon="5.72578">
        <ele>649.79998779297</ele>
        <time>2021-10-17T04:08:51.000Z</time>
      </trkpt>
      <trkpt lat="45.20716" lon="5.7258">
        <ele>650.79998779297</ele>
        <time>2021-10-17T04:08:55.000Z</time>
      </trkpt>
      <trkpt lat="45.20717" lon="5.7258">
        <ele>651</ele>
        <time>2021-10-17T04:08:56.000Z</time>
      </trkpt>
      <trkpt lat="45.20722" lon="5.72578">
        <ele>651.79998779297</ele>
        <time>2021-10-17T04:09:01.000Z</time>
      </trkpt>
      <trkpt lat="45.20725" lon="5.7258">
        <ele>652.79998779297</ele>
        <time>2021-10-17T04:09:04.000Z</time>
      </trkpt>
      <trkpt lat="45.20727" lon="5.7258">
        <ele>653</ele>
        <time>2021-10-17T04:09:05.000Z</time>
      </trkpt>
      <trkpt lat="45.20729" lon="5.72583">
        <ele>653.20001220703</ele>
        <time>2021-10-17T04:09:07.000Z</time>
      </trkpt>
      <trkpt lat="45.20731" lon="5.72586">
        <ele>654.20001220703</ele>
        <time>2021-10-17T04:09:10.000Z</time>
      </trkpt>
      <trkpt lat="45.20733" lon="5.72586">
        <ele>654.79998779297</ele>
        <time>2021-10-17T04:09:13.000Z</time>
      </trkpt>
      <trkpt lat="45.20734" lon="5.72586">
        <ele>655</ele>
        <time>2021-10-17T04:09:14.000Z</time>
      </trkpt>
      <trkpt lat="45.20735" lon="5.72586">
        <ele>655.40002441406</ele>
        <time>2021-10-17T04:09:15.000Z</time>
      </trkpt>
      <trkpt lat="45.20738" lon="5.72587">
        <ele>656.59997558594</ele>
        <time>2021-10-17T04:09:19.000Z</time>
      </trkpt>
      <trkpt lat="45.2074" lon="5.72589">
        <ele>656.79998779297</ele>
        <time>2021-10-17T04:09:21.000Z</time>
      </trkpt>
      <trkpt lat="45.20741" lon="5.72593">
        <ele>657.59997558594</ele>
        <time>2021-10-17T04:09:24.000Z</time>
      </trkpt>
      <trkpt lat="45.20741" lon="5.72595">
        <ele>657.79998779297</ele>
        <time>2021-10-17T04:09:25.000Z</time>
      </trkpt>
      <trkpt lat="45.20743" lon="5.72598">
        <ele>658.20001220703</ele>
        <time>2021-10-17T04:09:27.000Z</time>
      </trkpt>
      <trkpt lat="45.20743" lon="5.726">
        <ele>658.79998779297</ele>
        <time>2021-10-17T04:09:29.000Z</time>
      </trkpt>
      <trkpt lat="45.20746" lon="5.72606">
        <ele>659.40002441406</ele>
        <time>2021-10-17T04:09:32.000Z</time>
      </trkpt>
      <trkpt lat="45.20747" lon="5.7261">
        <ele>660</ele>
        <time>2021-10-17T04:09:34.000Z</time>
      </trkpt>
      <trkpt lat="45.20748" lon="5.72617">
        <ele>661</ele>
        <time>2021-10-17T04:09:38.000Z</time>
      </trkpt>
      <trkpt lat="45.20748" lon="5.72619">
        <ele>661.20001220703</ele>
        <time>2021-10-17T04:09:39.000Z</time>
      </trkpt>
      <trkpt lat="45.20748" lon="5.7262">
        <ele>661.59997558594</ele>
        <time>2021-10-17T04:09:41.000Z</time>
      </trkpt>
      <trkpt lat="45.20749" lon="5.72619">
        <ele>662</ele>
        <time>2021-10-17T04:09:43.000Z</time>
      </trkpt>
      <trkpt lat="45.2075" lon="5.72616">
        <ele>662.59997558594</ele>
        <time>2021-10-17T04:09:45.000Z</time>
      </trkpt>
      <trkpt lat="45.20751" lon="5.72615">
        <ele>663.20001220703</ele>
        <time>2021-10-17T04:09:47.000Z</time>
      </trkpt>
      <trkpt lat="45.20753" lon="5.72614">
        <ele>663.40002441406</ele>
        <time>2021-10-17T04:09:49.000Z</time>
      </trkpt>
      <trkpt lat="45.20757" lon="5.72612">
        <ele>664.40002441406</ele>
        <time>2021-10-17T04:09:53.000Z</time>
      </trkpt>
      <trkpt lat="45.20759" lon="5.72611">
        <ele>665.20001220703</ele>
        <time>2021-10-17T04:09:56.000Z</time>
      </trkpt>
      <trkpt lat="45.20762" lon="5.7261">
        <ele>665.59997558594</ele>
        <time>2021-10-17T04:09:59.000Z</time>
      </trkpt>
      <trkpt lat="45.20762" lon="5.7261">
        <ele>665.79998779297</ele>
        <time>2021-10-17T04:10:00.000Z</time>
      </trkpt>
      <trkpt lat="45.20764" lon="5.72609">
        <ele>666.40002441406</ele>
        <time>2021-10-17T04:10:02.000Z</time>
      </trkpt>
      <trkpt lat="45.20765" lon="5.72609">
        <ele>666.79998779297</ele>
        <time>2021-10-17T04:10:03.000Z</time>
      </trkpt>
      <trkpt lat="45.20769" lon="5.72607">
        <ele>668</ele>
        <time>2021-10-17T04:10:08.000Z</time>
      </trkpt>
      <trkpt lat="45.20771" lon="5.72609">
        <ele>668.20001220703</ele>
        <time>2021-10-17T04:10:10.000Z</time>
      </trkpt>
      <trkpt lat="45.20773" lon="5.72611">
        <ele>668.79998779297</ele>
        <time>2021-10-17T04:10:11.000Z</time>
      </trkpt>
      <trkpt lat="45.20774" lon="5.72612">
        <ele>669.20001220703</ele>
        <time>2021-10-17T04:10:12.000Z</time>
      </trkpt>
      <trkpt lat="45.20775" lon="5.72615">
        <ele>669.59997558594</ele>
        <time>2021-10-17T04:10:14.000Z</time>
      </trkpt>
      <trkpt lat="45.20775" lon="5.72617">
        <ele>670.20001220703</ele>
        <time>2021-10-17T04:10:16.000Z</time>
      </trkpt>
      <trkpt lat="45.20775" lon="5.72618">
        <ele>670.40002441406</ele>
        <time>2021-10-17T04:10:17.000Z</time>
      </trkpt>
      <trkpt lat="45.20777" lon="5.72625">
        <ele>670.79998779297</ele>
        <time>2021-10-17T04:10:20.000Z</time>
      </trkpt>
      <trkpt lat="45.20776" lon="5.72627">
        <ele>671.20001220703</ele>
        <time>2021-10-17T04:10:22.000Z</time>
      </trkpt>
      <trkpt lat="45.20775" lon="5.72629">
        <ele>671.79998779297</ele>
        <time>2021-10-17T04:10:24.000Z</time>
      </trkpt>
      <trkpt lat="45.20774" lon="5.72633">
        <ele>672.40002441406</ele>
        <time>2021-10-17T04:10:27.000Z</time>
      </trkpt>
      <trkpt lat="45.20774" lon="5.72635">
        <ele>673</ele>
        <time>2021-10-17T04:10:29.000Z</time>
      </trkpt>
      <trkpt lat="45.20775" lon="5.72636">
        <ele>673.40002441406</ele>
        <time>2021-10-17T04:10:30.000Z</time>
      </trkpt>
      <trkpt lat="45.20775" lon="5.72637">
        <ele>673.59997558594</ele>
        <time>2021-10-17T04:10:31.000Z</time>
      </trkpt>
      <trkpt lat="45.20774" lon="5.72642">
        <ele>674.79998779297</ele>
        <time>2021-10-17T04:10:36.000Z</time>
      </trkpt>
      <trkpt lat="45.20775" lon="5.72643">
        <ele>675.20001220703</ele>
        <time>2021-10-17T04:10:38.000Z</time>
      </trkpt>
      <trkpt lat="45.20776" lon="5.72644">
        <ele>675.40002441406</ele>
        <time>2021-10-17T04:10:39.000Z</time>
      </trkpt>
      <trkpt lat="45.20778" lon="5.72645">
        <ele>676.20001220703</ele>
        <time>2021-10-17T04:10:41.000Z</time>
      </trkpt>
      <trkpt lat="45.20779" lon="5.72645">
        <ele>676.59997558594</ele>
        <time>2021-10-17T04:10:43.000Z</time>
      </trkpt>
      <trkpt lat="45.2078" lon="5.72643">
        <ele>677.40002441406</ele>
        <time>2021-10-17T04:10:45.000Z</time>
      </trkpt>
      <trkpt lat="45.20783" lon="5.72641">
        <ele>678</ele>
        <time>2021-10-17T04:10:49.000Z</time>
      </trkpt>
      <trkpt lat="45.20785" lon="5.7264">
        <ele>678.59997558594</ele>
        <time>2021-10-17T04:10:51.000Z</time>
      </trkpt>
      <trkpt lat="45.20787" lon="5.72637">
        <ele>679.79998779297</ele>
        <time>2021-10-17T04:10:55.000Z</time>
      </trkpt>
      <trkpt lat="45.20789" lon="5.72636">
        <ele>680</ele>
        <time>2021-10-17T04:10:56.000Z</time>
      </trkpt>
      <trkpt lat="45.2079" lon="5.72634">
        <ele>680.40002441406</ele>
        <time>2021-10-17T04:10:58.000Z</time>
      </trkpt>
      <trkpt lat="45.20791" lon="5.72633">
        <ele>681</ele>
        <time>2021-10-17T04:11:00.000Z</time>
      </trkpt>
      <trkpt lat="45.20791" lon="5.7263">
        <ele>681.40002441406</ele>
        <time>2021-10-17T04:11:02.000Z</time>
      </trkpt>
      <trkpt lat="45.20791" lon="5.72629">
        <ele>681.40002441406</ele>
        <time>2021-10-17T04:11:03.000Z</time>
      </trkpt>
      <trkpt lat="45.20792" lon="5.72623">
        <ele>682.40002441406</ele>
        <time>2021-10-17T04:11:07.000Z</time>
      </trkpt>
      <trkpt lat="45.20795" lon="5.72621">
        <ele>683.59997558594</ele>
        <time>2021-10-17T04:11:11.000Z</time>
      </trkpt>
      <trkpt lat="45.20797" lon="5.72622">
        <ele>684</ele>
        <time>2021-10-17T04:11:13.000Z</time>
      </trkpt>
      <trkpt lat="45.20798" lon="5.72626">
        <ele>684.59997558594</ele>
        <time>2021-10-17T04:11:15.000Z</time>
      </trkpt>
      <trkpt lat="45.20802" lon="5.72632">
        <ele>685.59997558594</ele>
        <time>2021-10-17T04:11:21.000Z</time>
      </trkpt>
      <trkpt lat="45.20804" lon="5.72636">
        <ele>686.79998779297</ele>
        <time>2021-10-17T04:11:26.000Z</time>
      </trkpt>
      <trkpt lat="45.20805" lon="5.72638">
        <ele>687.40002441406</ele>
        <time>2021-10-17T04:11:28.000Z</time>
      </trkpt>
      <trkpt lat="45.20805" lon="5.7264">
        <ele>688</ele>
        <time>2021-10-17T04:11:30.000Z</time>
      </trkpt>
      <trkpt lat="45.20805" lon="5.72643">
        <ele>688.59997558594</ele>
        <time>2021-10-17T04:11:32.000Z</time>
      </trkpt>
      <trkpt lat="45.20805" lon="5.72644">
        <ele>689</ele>
        <time>2021-10-17T04:11:34.000Z</time>
      </trkpt>
      <trkpt lat="45.20806" lon="5.7265">
        <ele>690.20001220703</ele>
        <time>2021-10-17T04:11:39.000Z</time>
      </trkpt>
      <trkpt lat="45.20806" lon="5.72655">
        <ele>691</ele>
        <time>2021-10-17T04:11:42.000Z</time>
      </trkpt>
      <trkpt lat="45.20806" lon="5.72656">
        <ele>691.20001220703</ele>
        <time>2021-10-17T04:11:43.000Z</time>
      </trkpt>
      <trkpt lat="45.20806" lon="5.72659">
        <ele>691.59997558594</ele>
        <time>2021-10-17T04:11:45.000Z</time>
      </trkpt>
      <trkpt lat="45.20807" lon="5.72662">
        <ele>692</ele>
        <time>2021-10-17T04:11:47.000Z</time>
      </trkpt>
      <trkpt lat="45.20808" lon="5.72664">
        <ele>692.40002441406</ele>
        <time>2021-10-17T04:11:49.000Z</time>
      </trkpt>
      <trkpt lat="45.2081" lon="5.72663">
        <ele>693.40002441406</ele>
        <time>2021-10-17T04:11:53.000Z</time>
      </trkpt>
      <trkpt lat="45.20812" lon="5.72663">
        <ele>694</ele>
        <time>2021-10-17T04:11:55.000Z</time>
      </trkpt>
      <trkpt lat="45.20815" lon="5.72663">
        <ele>694.40002441406</ele>
        <time>2021-10-17T04:11:58.000Z</time>
      </trkpt>
      <trkpt lat="45.20816" lon="5.72662">
        <ele>694.79998779297</ele>
        <time>2021-10-17T04:11:59.000Z</time>
      </trkpt>
      <trkpt lat="45.20817" lon="5.7266">
        <ele>695.59997558594</ele>
        <time>2021-10-17T04:12:01.000Z</time>
      </trkpt>
      <trkpt lat="45.20822" lon="5.72656">
        <ele>696.79998779297</ele>
        <time>2021-10-17T04:12:07.000Z</time>
      </trkpt>
      <trkpt lat="45.20823" lon="5.72656">
        <ele>697</ele>
        <time>2021-10-17T04:12:08.000Z</time>
      </trkpt>
      <trkpt lat="45.20827" lon="5.72652">
        <ele>697.79998779297</ele>
        <time>2021-10-17T04:12:13.000Z</time>
      </trkpt>
      <trkpt lat="45.20828" lon="5.72652">
        <ele>698</ele>
        <time>2021-10-17T04:12:14.000Z</time>
      </trkpt>
      <trkpt lat="45.20829" lon="5.72652">
        <ele>698</ele>
        <time>2021-10-17T04:12:15.000Z</time>
      </trkpt>
      <trkpt lat="45.20831" lon="5.72652">
        <ele>698.20001220703</ele>
        <time>2021-10-17T04:12:16.000Z</time>
      </trkpt>
      <trkpt lat="45.20832" lon="5.72654">
        <ele>698.59997558594</ele>
        <time>2021-10-17T04:12:17.000Z</time>
      </trkpt>
      <trkpt lat="45.20834" lon="5.72658">
        <ele>699.20001220703</ele>
        <time>2021-10-17T04:12:19.000Z</time>
      </trkpt>
      <trkpt lat="45.20834" lon="5.72659">
        <ele>699.59997558594</ele>
        <time>2021-10-17T04:12:20.000Z</time>
      </trkpt>
      <trkpt lat="45.20836" lon="5.72663">
        <ele>700.20001220703</ele>
        <time>2021-10-17T04:12:24.000Z</time>
      </trkpt>
      <trkpt lat="45.20836" lon="5.72667">
        <ele>701.20001220703</ele>
        <time>2021-10-17T04:12:27.000Z</time>
      </trkpt>
      <trkpt lat="45.20836" lon="5.72667">
        <ele>701.59997558594</ele>
        <time>2021-10-17T04:12:28.000Z</time>
      </trkpt>
      <trkpt lat="45.20837" lon="5.72671">
        <ele>702.59997558594</ele>
        <time>2021-10-17T04:12:31.000Z</time>
      </trkpt>
      <trkpt lat="45.20837" lon="5.72677">
        <ele>703.59997558594</ele>
        <time>2021-10-17T04:12:36.000Z</time>
      </trkpt>
      <trkpt lat="45.20837" lon="5.72678">
        <ele>703.79998779297</ele>
        <time>2021-10-17T04:12:37.000Z</time>
      </trkpt>
      <trkpt lat="45.20837" lon="5.72685">
        <ele>705</ele>
        <time>2021-10-17T04:12:42.000Z</time>
      </trkpt>
      <trkpt lat="45.20839" lon="5.72688">
        <ele>705.40002441406</ele>
        <time>2021-10-17T04:12:44.000Z</time>
      </trkpt>
      <trkpt lat="45.2084" lon="5.72691">
        <ele>706.20001220703</ele>
        <time>2021-10-17T04:12:47.000Z</time>
      </trkpt>
      <trkpt lat="45.20842" lon="5.72694">
        <ele>707</ele>
        <time>2021-10-17T04:12:51.000Z</time>
      </trkpt>
      <trkpt lat="45.20842" lon="5.72694">
        <ele>707.40002441406</ele>
        <time>2021-10-17T04:12:52.000Z</time>
      </trkpt>
      <trkpt lat="45.20843" lon="5.72694">
        <ele>708.20001220703</ele>
        <time>2021-10-17T04:12:54.000Z</time>
      </trkpt>
      <trkpt lat="45.20843" lon="5.72692">
        <ele>708.59997558594</ele>
        <time>2021-10-17T04:12:56.000Z</time>
      </trkpt>
      <trkpt lat="45.20844" lon="5.72692">
        <ele>708.79998779297</ele>
        <time>2021-10-17T04:12:57.000Z</time>
      </trkpt>
      <trkpt lat="45.20846" lon="5.72691">
        <ele>709.20001220703</ele>
        <time>2021-10-17T04:13:00.000Z</time>
      </trkpt>
      <trkpt lat="45.20847" lon="5.72691">
        <ele>709.79998779297</ele>
        <time>2021-10-17T04:13:02.000Z</time>
      </trkpt>
      <trkpt lat="45.20848" lon="5.72692">
        <ele>710.40002441406</ele>
        <time>2021-10-17T04:13:04.000Z</time>
      </trkpt>
      <trkpt lat="45.20849" lon="5.72692">
        <ele>710.79998779297</ele>
        <time>2021-10-17T04:13:05.000Z</time>
      </trkpt>
      <trkpt lat="45.20851" lon="5.72691">
        <ele>711.40002441406</ele>
        <time>2021-10-17T04:13:08.000Z</time>
      </trkpt>
      <trkpt lat="45.20851" lon="5.7269">
        <ele>711.79998779297</ele>
        <time>2021-10-17T04:13:09.000Z</time>
      </trkpt>
      <trkpt lat="45.20853" lon="5.72689">
        <ele>712.40002441406</ele>
        <time>2021-10-17T04:13:12.000Z</time>
      </trkpt>
      <trkpt lat="45.20856" lon="5.72686">
        <ele>712.79998779297</ele>
        <time>2021-10-17T04:13:15.000Z</time>
      </trkpt>
      <trkpt lat="45.2086" lon="5.72684">
        <ele>713.40002441406</ele>
        <time>2021-10-17T04:13:20.000Z</time>
      </trkpt>
      <trkpt lat="45.20862" lon="5.72684">
        <ele>713.79998779297</ele>
        <time>2021-10-17T04:13:22.000Z</time>
      </trkpt>
      <trkpt lat="45.20863" lon="5.72684">
        <ele>713.79998779297</ele>
        <time>2021-10-17T04:13:23.000Z</time>
      </trkpt>
      <trkpt lat="45.20864" lon="5.72684">
        <ele>714</ele>
        <time>2021-10-17T04:13:24.000Z</time>
      </trkpt>
      <trkpt lat="45.20865" lon="5.72684">
        <ele>714.20001220703</ele>
        <time>2021-10-17T04:13:26.000Z</time>
      </trkpt>
      <trkpt lat="45.20866" lon="5.72685">
        <ele>714.59997558594</ele>
        <time>2021-10-17T04:13:27.000Z</time>
      </trkpt>
      <trkpt lat="45.20867" lon="5.72685">
        <ele>715</ele>
        <time>2021-10-17T04:13:28.000Z</time>
      </trkpt>
      <trkpt lat="45.20872" lon="5.72681">
        <ele>715.59997558594</ele>
        <time>2021-10-17T04:13:33.000Z</time>
      </trkpt>
      <trkpt lat="45.20876" lon="5.7268">
        <ele>716</ele>
        <time>2021-10-17T04:13:35.000Z</time>
      </trkpt>
      <trkpt lat="45.20881" lon="5.72678">
        <ele>717</ele>
        <time>2021-10-17T04:13:39.000Z</time>
      </trkpt>
      <trkpt lat="45.20882" lon="5.72678">
        <ele>717.20001220703</ele>
        <time>2021-10-17T04:13:40.000Z</time>
      </trkpt>
      <trkpt lat="45.20884" lon="5.72679">
        <ele>717.40002441406</ele>
        <time>2021-10-17T04:13:42.000Z</time>
      </trkpt>
      <trkpt lat="45.20887" lon="5.72678">
        <ele>718.40002441406</ele>
        <time>2021-10-17T04:13:46.000Z</time>
      </trkpt>
      <trkpt lat="45.20891" lon="5.72675">
        <ele>719.20001220703</ele>
        <time>2021-10-17T04:13:50.000Z</time>
      </trkpt>
      <trkpt lat="45.20894" lon="5.72675">
        <ele>719.59997558594</ele>
        <time>2021-10-17T04:13:52.000Z</time>
      </trkpt>
      <trkpt lat="45.20899" lon="5.72675">
        <ele>720.20001220703</ele>
        <time>2021-10-17T04:13:56.000Z</time>
      </trkpt>
      <trkpt lat="45.20899" lon="5.72675">
        <ele>720.59997558594</ele>
        <time>2021-10-17T04:13:57.000Z</time>
      </trkpt>
      <trkpt lat="45.209" lon="5.72672">
        <ele>721.40002441406</ele>
        <time>2021-10-17T04:13:59.000Z</time>
      </trkpt>
      <trkpt lat="45.209" lon="5.72672">
        <ele>721.59997558594</ele>
        <time>2021-10-17T04:14:00.000Z</time>
      </trkpt>
      <trkpt lat="45.20906" lon="5.7267">
        <ele>722.79998779297</ele>
        <time>2021-10-17T04:14:05.000Z</time>
      </trkpt>
      <trkpt lat="45.20907" lon="5.7267">
        <ele>723</ele>
        <time>2021-10-17T04:14:06.000Z</time>
      </trkpt>
      <trkpt lat="45.20909" lon="5.72669">
        <ele>724</ele>
        <time>2021-10-17T04:14:09.000Z</time>
      </trkpt>
      <trkpt lat="45.20913" lon="5.72669">
        <ele>724.59997558594</ele>
        <time>2021-10-17T04:14:12.000Z</time>
      </trkpt>
      <trkpt lat="45.20915" lon="5.72669">
        <ele>725</ele>
        <time>2021-10-17T04:14:14.000Z</time>
      </trkpt>
      <trkpt lat="45.20921" lon="5.72673">
        <ele>726.40002441406</ele>
        <time>2021-10-17T04:14:19.000Z</time>
      </trkpt>
      <trkpt lat="45.20922" lon="5.72674">
        <ele>726.59997558594</ele>
        <time>2021-10-17T04:14:20.000Z</time>
      </trkpt>
      <trkpt lat="45.20926" lon="5.72677">
        <ele>727.59997558594</ele>
        <time>2021-10-17T04:14:24.000Z</time>
      </trkpt>
      <trkpt lat="45.20929" lon="5.7268">
        <ele>728.20001220703</ele>
        <time>2021-10-17T04:14:28.000Z</time>
      </trkpt>
      <trkpt lat="45.20931" lon="5.7268">
        <ele>728.59997558594</ele>
        <time>2021-10-17T04:14:30.000Z</time>
      </trkpt>
      <trkpt lat="45.20937" lon="5.72683">
        <ele>729.59997558594</ele>
        <time>2021-10-17T04:14:35.000Z</time>
      </trkpt>
      <trkpt lat="45.20942" lon="5.72691">
        <ele>730.79998779297</ele>
        <time>2021-10-17T04:14:41.000Z</time>
      </trkpt>
      <trkpt lat="45.20943" lon="5.72692">
        <ele>731</ele>
        <time>2021-10-17T04:14:42.000Z</time>
      </trkpt>
      <trkpt lat="45.20944" lon="5.72693">
        <ele>731.20001220703</ele>
        <time>2021-10-17T04:14:43.000Z</time>
      </trkpt>
      <trkpt lat="45.20944" lon="5.72695">
        <ele>731.59997558594</ele>
        <time>2021-10-17T04:14:45.000Z</time>
      </trkpt>
      <trkpt lat="45.20945" lon="5.72697">
        <ele>732</ele>
        <time>2021-10-17T04:14:47.000Z</time>
      </trkpt>
      <trkpt lat="45.20946" lon="5.72699">
        <ele>732.40002441406</ele>
        <time>2021-10-17T04:14:49.000Z</time>
      </trkpt>
      <trkpt lat="45.20946" lon="5.727">
        <ele>732.79998779297</ele>
        <time>2021-10-17T04:14:50.000Z</time>
      </trkpt>
      <trkpt lat="45.20947" lon="5.72701">
        <ele>733</ele>
        <time>2021-10-17T04:14:51.000Z</time>
      </trkpt>
      <trkpt lat="45.2095" lon="5.72703">
        <ele>734</ele>
        <time>2021-10-17T04:14:56.000Z</time>
      </trkpt>
      <trkpt lat="45.2095" lon="5.72704">
        <ele>734.20001220703</ele>
        <time>2021-10-17T04:14:57.000Z</time>
      </trkpt>
      <trkpt lat="45.20951" lon="5.72704">
        <ele>734.20001220703</ele>
        <time>2021-10-17T04:14:58.000Z</time>
      </trkpt>
      <trkpt lat="45.20951" lon="5.72705">
        <ele>734.79998779297</ele>
        <time>2021-10-17T04:15:00.000Z</time>
      </trkpt>
      <trkpt lat="45.20952" lon="5.72706">
        <ele>735.20001220703</ele>
        <time>2021-10-17T04:15:01.000Z</time>
      </trkpt>
      <trkpt lat="45.20953" lon="5.72706">
        <ele>735.40002441406</ele>
        <time>2021-10-17T04:15:02.000Z</time>
      </trkpt>
      <trkpt lat="45.20956" lon="5.72708">
        <ele>735.79998779297</ele>
        <time>2021-10-17T04:15:04.000Z</time>
      </trkpt>
      <trkpt lat="45.20958" lon="5.7271">
        <ele>736.20001220703</ele>
        <time>2021-10-17T04:15:07.000Z</time>
      </trkpt>
      <trkpt lat="45.20959" lon="5.72711">
        <ele>736.40002441406</ele>
        <time>2021-10-17T04:15:08.000Z</time>
      </trkpt>
      <trkpt lat="45.20962" lon="5.72711">
        <ele>737.20001220703</ele>
        <time>2021-10-17T04:15:12.000Z</time>
      </trkpt>
      <trkpt lat="45.20963" lon="5.72711">
        <ele>737.59997558594</ele>
        <time>2021-10-17T04:15:13.000Z</time>
      </trkpt>
      <trkpt lat="45.20964" lon="5.72711">
        <ele>738.40002441406</ele>
        <time>2021-10-17T04:15:15.000Z</time>
      </trkpt>
      <trkpt lat="45.20965" lon="5.72713">
        <ele>738.79998779297</ele>
        <time>2021-10-17T04:15:16.000Z</time>
      </trkpt>
      <trkpt lat="45.20966" lon="5.72714">
        <ele>738.79998779297</ele>
        <time>2021-10-17T04:15:17.000Z</time>
      </trkpt>
      <trkpt lat="45.20967" lon="5.72715">
        <ele>739</ele>
        <time>2021-10-17T04:15:18.000Z</time>
      </trkpt>
      <trkpt lat="45.20968" lon="5.72717">
        <ele>739.40002441406</ele>
        <time>2021-10-17T04:15:19.000Z</time>
      </trkpt>
      <trkpt lat="45.2097" lon="5.72719">
        <ele>739.79998779297</ele>
        <time>2021-10-17T04:15:22.000Z</time>
      </trkpt>
      <trkpt lat="45.2097" lon="5.72719">
        <ele>740</ele>
        <time>2021-10-17T04:15:23.000Z</time>
      </trkpt>
      <trkpt lat="45.20971" lon="5.72719">
        <ele>740.59997558594</ele>
        <time>2021-10-17T04:15:24.000Z</time>
      </trkpt>
      <trkpt lat="45.20973" lon="5.72723">
        <ele>741.79998779297</ele>
        <time>2021-10-17T04:15:28.000Z</time>
      </trkpt>
      <trkpt lat="45.20975" lon="5.72724">
        <ele>742.20001220703</ele>
        <time>2021-10-17T04:15:30.000Z</time>
      </trkpt>
      <trkpt lat="45.20976" lon="5.72726">
        <ele>743</ele>
        <time>2021-10-17T04:15:33.000Z</time>
      </trkpt>
      <trkpt lat="45.20976" lon="5.72727">
        <ele>743.20001220703</ele>
        <time>2021-10-17T04:15:34.000Z</time>
      </trkpt>
      <trkpt lat="45.20977" lon="5.72728">
        <ele>743.40002441406</ele>
        <time>2021-10-17T04:15:35.000Z</time>
      </trkpt>
      <trkpt lat="45.20977" lon="5.72731">
        <ele>744.40002441406</ele>
        <time>2021-10-17T04:15:38.000Z</time>
      </trkpt>
      <trkpt lat="45.20978" lon="5.72732">
        <ele>745.20001220703</ele>
        <time>2021-10-17T04:15:41.000Z</time>
      </trkpt>
      <trkpt lat="45.20979" lon="5.72733">
        <ele>745.40002441406</ele>
        <time>2021-10-17T04:15:42.000Z</time>
      </trkpt>
      <trkpt lat="45.20979" lon="5.72734">
        <ele>745.40002441406</ele>
        <time>2021-10-17T04:15:43.000Z</time>
      </trkpt>
      <trkpt lat="45.20982" lon="5.72737">
        <ele>746.59997558594</ele>
        <time>2021-10-17T04:15:46.000Z</time>
      </trkpt>
      <trkpt lat="45.20982" lon="5.72738">
        <ele>747</ele>
        <time>2021-10-17T04:15:47.000Z</time>
      </trkpt>
      <trkpt lat="45.20983" lon="5.72738">
        <ele>747.40002441406</ele>
        <time>2021-10-17T04:15:49.000Z</time>
      </trkpt>
      <trkpt lat="45.20984" lon="5.7274">
        <ele>747.59997558594</ele>
        <time>2021-10-17T04:15:51.000Z</time>
      </trkpt>
      <trkpt lat="45.20984" lon="5.7274">
        <ele>748</ele>
        <time>2021-10-17T04:15:52.000Z</time>
      </trkpt>
      <trkpt lat="45.20984" lon="5.72741">
        <ele>748.40002441406</ele>
        <time>2021-10-17T04:15:53.000Z</time>
      </trkpt>
      <trkpt lat="45.20984" lon="5.72742">
        <ele>748.59997558594</ele>
        <time>2021-10-17T04:15:54.000Z</time>
      </trkpt>
      <trkpt lat="45.20985" lon="5.72743">
        <ele>748.79998779297</ele>
        <time>2021-10-17T04:15:55.000Z</time>
      </trkpt>
      <trkpt lat="45.20988" lon="5.72746">
        <ele>749.79998779297</ele>
        <time>2021-10-17T04:16:01.000Z</time>
      </trkpt>
      <trkpt lat="45.20988" lon="5.72747">
        <ele>750.59997558594</ele>
        <time>2021-10-17T04:16:03.000Z</time>
      </trkpt>
      <trkpt lat="45.20989" lon="5.72748">
        <ele>751</ele>
        <time>2021-10-17T04:16:04.000Z</time>
      </trkpt>
      <trkpt lat="45.20989" lon="5.72752">
        <ele>752.20001220703</ele>
        <time>2021-10-17T04:16:08.000Z</time>
      </trkpt>
      <trkpt lat="45.20989" lon="5.72752">
        <ele>752.40002441406</ele>
        <time>2021-10-17T04:16:09.000Z</time>
      </trkpt>
      <trkpt lat="45.2099" lon="5.72752">
        <ele>753.40002441406</ele>
        <time>2021-10-17T04:16:12.000Z</time>
      </trkpt>
      <trkpt lat="45.2099" lon="5.7275">
        <ele>754.40002441406</ele>
        <time>2021-10-17T04:16:16.000Z</time>
      </trkpt>
      <trkpt lat="45.20989" lon="5.7275">
        <ele>754.59997558594</ele>
        <time>2021-10-17T04:16:17.000Z</time>
      </trkpt>
      <trkpt lat="45.2099" lon="5.72749">
        <ele>755.20001220703</ele>
        <time>2021-10-17T04:16:19.000Z</time>
      </trkpt>
      <trkpt lat="45.20991" lon="5.72749">
        <ele>755.79998779297</ele>
        <time>2021-10-17T04:16:22.000Z</time>
      </trkpt>
      <trkpt lat="45.20992" lon="5.72749">
        <ele>756.20001220703</ele>
        <time>2021-10-17T04:16:23.000Z</time>
      </trkpt>
      <trkpt lat="45.20995" lon="5.72748">
        <ele>757</ele>
        <time>2021-10-17T04:16:27.000Z</time>
      </trkpt>
      <trkpt lat="45.20997" lon="5.72745">
        <ele>758</ele>
        <time>2021-10-17T04:16:31.000Z</time>
      </trkpt>
      <trkpt lat="45.20998" lon="5.72744">
        <ele>758.20001220703</ele>
        <time>2021-10-17T04:16:32.000Z</time>
      </trkpt>
      <trkpt lat="45.20999" lon="5.72742">
        <ele>759.59997558594</ele>
        <time>2021-10-17T04:16:35.000Z</time>
      </trkpt>
      <trkpt lat="45.20999" lon="5.72741">
        <ele>760</ele>
        <time>2021-10-17T04:16:37.000Z</time>
      </trkpt>
      <trkpt lat="45.21002" lon="5.72742">
        <ele>760.59997558594</ele>
        <time>2021-10-17T04:16:41.000Z</time>
      </trkpt>
      <trkpt lat="45.21003" lon="5.72741">
        <ele>761.20001220703</ele>
        <time>2021-10-17T04:16:43.000Z</time>
      </trkpt>
      <trkpt lat="45.21005" lon="5.7274">
        <ele>761.79998779297</ele>
        <time>2021-10-17T04:16:45.000Z</time>
      </trkpt>
      <trkpt lat="45.21007" lon="5.72738">
        <ele>763</ele>
        <time>2021-10-17T04:16:49.000Z</time>
      </trkpt>
      <trkpt lat="45.21008" lon="5.72738">
        <ele>763.40002441406</ele>
        <time>2021-10-17T04:16:51.000Z</time>
      </trkpt>
      <trkpt lat="45.21009" lon="5.72739">
        <ele>764.20001220703</ele>
        <time>2021-10-17T04:16:54.000Z</time>
      </trkpt>
      <trkpt lat="45.21011" lon="5.72738">
        <ele>764.79998779297</ele>
        <time>2021-10-17T04:16:57.000Z</time>
      </trkpt>
      <trkpt lat="45.21012" lon="5.72738">
        <ele>765.40002441406</ele>
        <time>2021-10-17T04:16:59.000Z</time>
      </trkpt>
      <trkpt lat="45.21015" lon="5.72738">
        <ele>766.40002441406</ele>
        <time>2021-10-17T04:17:04.000Z</time>
      </trkpt>
      <trkpt lat="45.21018" lon="5.72736">
        <ele>767.59997558594</ele>
        <time>2021-10-17T04:17:08.000Z</time>
      </trkpt>
      <trkpt lat="45.21019" lon="5.72736">
        <ele>767.79998779297</ele>
        <time>2021-10-17T04:17:09.000Z</time>
      </trkpt>
      <trkpt lat="45.21021" lon="5.72736">
        <ele>768</ele>
        <time>2021-10-17T04:17:10.000Z</time>
      </trkpt>
      <trkpt lat="45.21026" lon="5.72736">
        <ele>768.79998779297</ele>
        <time>2021-10-17T04:17:15.000Z</time>
      </trkpt>
      <trkpt lat="45.21027" lon="5.72736">
        <ele>769.20001220703</ele>
        <time>2021-10-17T04:17:16.000Z</time>
      </trkpt>
      <trkpt lat="45.21029" lon="5.72736">
        <ele>770</ele>
        <time>2021-10-17T04:17:18.000Z</time>
      </trkpt>
      <trkpt lat="45.21032" lon="5.72736">
        <ele>771.20001220703</ele>
        <time>2021-10-17T04:17:22.000Z</time>
      </trkpt>
      <trkpt lat="45.21032" lon="5.72736">
        <ele>771.40002441406</ele>
        <time>2021-10-17T04:17:23.000Z</time>
      </trkpt>
      <trkpt lat="45.21032" lon="5.72736">
        <ele>771.79998779297</ele>
        <time>2021-10-17T04:17:25.000Z</time>
      </trkpt>
      <trkpt lat="45.21034" lon="5.72735">
        <ele>772.20001220703</ele>
        <time>2021-10-17T04:17:27.000Z</time>
      </trkpt>
      <trkpt lat="45.21038" lon="5.72735">
        <ele>773</ele>
        <time>2021-10-17T04:17:31.000Z</time>
      </trkpt>
      <trkpt lat="45.21041" lon="5.72734">
        <ele>773.40002441406</ele>
        <time>2021-10-17T04:17:33.000Z</time>
      </trkpt>
      <trkpt lat="45.21042" lon="5.72734">
        <ele>774.59997558594</ele>
        <time>2021-10-17T04:17:36.000Z</time>
      </trkpt>
      <trkpt lat="45.21045" lon="5.72736">
        <ele>774.79998779297</ele>
        <time>2021-10-17T04:17:39.000Z</time>
      </trkpt>
      <trkpt lat="45.2105" lon="5.72746">
        <ele>775.59997558594</ele>
        <time>2021-10-17T04:17:45.000Z</time>
      </trkpt>
      <trkpt lat="45.21051" lon="5.72749">
        <ele>775.79998779297</ele>
        <time>2021-10-17T04:17:46.000Z</time>
      </trkpt>
      <trkpt lat="45.21055" lon="5.7276">
        <ele>776.40002441406</ele>
        <time>2021-10-17T04:17:52.000Z</time>
      </trkpt>
      <trkpt lat="45.21057" lon="5.72766">
        <ele>776.79998779297</ele>
        <time>2021-10-17T04:17:57.000Z</time>
      </trkpt>
      <trkpt lat="45.21058" lon="5.72769">
        <ele>776.79998779297</ele>
        <time>2021-10-17T04:17:59.000Z</time>
      </trkpt>
      <trkpt lat="45.21065" lon="5.72786">
        <ele>777.20001220703</ele>
        <time>2021-10-17T04:18:06.000Z</time>
      </trkpt>
      <trkpt lat="45.21066" lon="5.72788">
        <ele>777.20001220703</ele>
        <time>2021-10-17T04:18:07.000Z</time>
      </trkpt>
      <trkpt lat="45.21069" lon="5.72799">
        <ele>777.40002441406</ele>
        <time>2021-10-17T04:18:12.000Z</time>
      </trkpt>
      <trkpt lat="45.21072" lon="5.72803">
        <ele>777.59997558594</ele>
        <time>2021-10-17T04:18:14.000Z</time>
      </trkpt>
      <trkpt lat="45.21074" lon="5.7281">
        <ele>777.79998779297</ele>
        <time>2021-10-17T04:18:18.000Z</time>
      </trkpt>
      <trkpt lat="45.21078" lon="5.72817">
        <ele>778</ele>
        <time>2021-10-17T04:18:21.000Z</time>
      </trkpt>
      <trkpt lat="45.21081" lon="5.7283">
        <ele>778.79998779297</ele>
        <time>2021-10-17T04:18:27.000Z</time>
      </trkpt>
      <trkpt lat="45.21082" lon="5.72832">
        <ele>779</ele>
        <time>2021-10-17T04:18:28.000Z</time>
      </trkpt>
      <trkpt lat="45.21082" lon="5.72833">
        <ele>779</ele>
        <time>2021-10-17T04:18:29.000Z</time>
      </trkpt>
      <trkpt lat="45.21083" lon="5.72835">
        <ele>779.59997558594</ele>
        <time>2021-10-17T04:18:31.000Z</time>
      </trkpt>
      <trkpt lat="45.21084" lon="5.72836">
        <ele>779.59997558594</ele>
        <time>2021-10-17T04:18:32.000Z</time>
      </trkpt>
      <trkpt lat="45.21085" lon="5.72837">
        <ele>779.79998779297</ele>
        <time>2021-10-17T04:18:33.000Z</time>
      </trkpt>
      <trkpt lat="45.21093" lon="5.72845">
        <ele>781</ele>
        <time>2021-10-17T04:18:40.000Z</time>
      </trkpt>
      <trkpt lat="45.21094" lon="5.72846">
        <ele>781.20001220703</ele>
        <time>2021-10-17T04:18:41.000Z</time>
      </trkpt>
      <trkpt lat="45.21098" lon="5.72851">
        <ele>782</ele>
        <time>2021-10-17T04:18:45.000Z</time>
      </trkpt>
      <trkpt lat="45.21099" lon="5.72853">
        <ele>782.40002441406</ele>
        <time>2021-10-17T04:18:47.000Z</time>
      </trkpt>
      <trkpt lat="45.211" lon="5.72853">
        <ele>782.79998779297</ele>
        <time>2021-10-17T04:18:48.000Z</time>
      </trkpt>
      <trkpt lat="45.21101" lon="5.72853">
        <ele>783</ele>
        <time>2021-10-17T04:18:49.000Z</time>
      </trkpt>
      <trkpt lat="45.21102" lon="5.72854">
        <ele>783.20001220703</ele>
        <time>2021-10-17T04:18:50.000Z</time>
      </trkpt>
      <trkpt lat="45.21104" lon="5.72856">
        <ele>783.79998779297</ele>
        <time>2021-10-17T04:18:52.000Z</time>
      </trkpt>
      <trkpt lat="45.21106" lon="5.72858">
        <ele>784</ele>
        <time>2021-10-17T04:18:54.000Z</time>
      </trkpt>
      <trkpt lat="45.21107" lon="5.72859">
        <ele>784.20001220703</ele>
        <time>2021-10-17T04:18:55.000Z</time>
      </trkpt>
      <trkpt lat="45.2111" lon="5.72863">
        <ele>784.79998779297</ele>
        <time>2021-10-17T04:18:58.000Z</time>
      </trkpt>
      <trkpt lat="45.21112" lon="5.72864">
        <ele>785.40002441406</ele>
        <time>2021-10-17T04:19:00.000Z</time>
      </trkpt>
      <trkpt lat="45.21115" lon="5.72867">
        <ele>786</ele>
        <time>2021-10-17T04:19:03.000Z</time>
      </trkpt>
      <trkpt lat="45.21117" lon="5.72868">
        <ele>786.40002441406</ele>
        <time>2021-10-17T04:19:05.000Z</time>
      </trkpt>
      <trkpt lat="45.21123" lon="5.72871">
        <ele>786.79998779297</ele>
        <time>2021-10-17T04:19:07.000Z</time>
      </trkpt>
      <trkpt lat="45.21126" lon="5.72873">
        <ele>787.40002441406</ele>
        <time>2021-10-17T04:19:10.000Z</time>
      </trkpt>
      <trkpt lat="45.2113" lon="5.72874">
        <ele>788.20001220703</ele>
        <time>2021-10-17T04:19:13.000Z</time>
      </trkpt>
      <trkpt lat="45.21132" lon="5.72875">
        <ele>788.59997558594</ele>
        <time>2021-10-17T04:19:14.000Z</time>
      </trkpt>
      <trkpt lat="45.21137" lon="5.72882">
        <ele>789.79998779297</ele>
        <time>2021-10-17T04:19:19.000Z</time>
      </trkpt>
      <trkpt lat="45.21141" lon="5.72883">
        <ele>790.59997558594</ele>
        <time>2021-10-17T04:19:22.000Z</time>
      </trkpt>
      <trkpt lat="45.21143" lon="5.72883">
        <ele>791</ele>
        <time>2021-10-17T04:19:23.000Z</time>
      </trkpt>
      <trkpt lat="45.21145" lon="5.72884">
        <ele>791.40002441406</ele>
        <time>2021-10-17T04:19:25.000Z</time>
      </trkpt>
      <trkpt lat="45.21147" lon="5.72884">
        <ele>792.20001220703</ele>
        <time>2021-10-17T04:19:27.000Z</time>
      </trkpt>
      <trkpt lat="45.21149" lon="5.72885">
        <ele>792.40002441406</ele>
        <time>2021-10-17T04:19:28.000Z</time>
      </trkpt>
      <trkpt lat="45.21152" lon="5.72887">
        <ele>793.20001220703</ele>
        <time>2021-10-17T04:19:31.000Z</time>
      </trkpt>
      <trkpt lat="45.21161" lon="5.72891">
        <ele>794</ele>
        <time>2021-10-17T04:19:36.000Z</time>
      </trkpt>
      <trkpt lat="45.21162" lon="5.72892">
        <ele>794.20001220703</ele>
        <time>2021-10-17T04:19:37.000Z</time>
      </trkpt>
      <trkpt lat="45.21168" lon="5.72893">
        <ele>795</ele>
        <time>2021-10-17T04:19:42.000Z</time>
      </trkpt>
      <trkpt lat="45.2117" lon="5.72894">
        <ele>795.20001220703</ele>
        <time>2021-10-17T04:19:43.000Z</time>
      </trkpt>
      <trkpt lat="45.21172" lon="5.72895">
        <ele>795.40002441406</ele>
        <time>2021-10-17T04:19:44.000Z</time>
      </trkpt>
      <trkpt lat="45.21176" lon="5.72897">
        <ele>796.40002441406</ele>
        <time>2021-10-17T04:19:48.000Z</time>
      </trkpt>
      <trkpt lat="45.21179" lon="5.72899">
        <ele>797.40002441406</ele>
        <time>2021-10-17T04:19:51.000Z</time>
      </trkpt>
      <trkpt lat="45.2118" lon="5.72899">
        <ele>797.59997558594</ele>
        <time>2021-10-17T04:19:52.000Z</time>
      </trkpt>
      <trkpt lat="45.21182" lon="5.72903">
        <ele>798.59997558594</ele>
        <time>2021-10-17T04:19:56.000Z</time>
      </trkpt>
      <trkpt lat="45.21186" lon="5.72906">
        <ele>799.20001220703</ele>
        <time>2021-10-17T04:19:59.000Z</time>
      </trkpt>
      <trkpt lat="45.21187" lon="5.72908">
        <ele>799.79998779297</ele>
        <time>2021-10-17T04:20:01.000Z</time>
      </trkpt>
      <trkpt lat="45.21189" lon="5.72911">
        <ele>800.20001220703</ele>
        <time>2021-10-17T04:20:03.000Z</time>
      </trkpt>
      <trkpt lat="45.21192" lon="5.72914">
        <ele>800.79998779297</ele>
        <time>2021-10-17T04:20:06.000Z</time>
      </trkpt>
      <trkpt lat="45.21196" lon="5.72919">
        <ele>801.40002441406</ele>
        <time>2021-10-17T04:20:09.000Z</time>
      </trkpt>
      <trkpt lat="45.21198" lon="5.72922">
        <ele>802</ele>
        <time>2021-10-17T04:20:11.000Z</time>
      </trkpt>
      <trkpt lat="45.21199" lon="5.72923">
        <ele>802.20001220703</ele>
        <time>2021-10-17T04:20:12.000Z</time>
      </trkpt>
      <trkpt lat="45.212" lon="5.72925">
        <ele>802.40002441406</ele>
        <time>2021-10-17T04:20:13.000Z</time>
      </trkpt>
      <trkpt lat="45.21201" lon="5.72927">
        <ele>803</ele>
        <time>2021-10-17T04:20:15.000Z</time>
      </trkpt>
      <trkpt lat="45.21202" lon="5.72929">
        <ele>803.20001220703</ele>
        <time>2021-10-17T04:20:16.000Z</time>
      </trkpt>
      <trkpt lat="45.2121" lon="5.72938">
        <ele>804.40002441406</ele>
        <time>2021-10-17T04:20:22.000Z</time>
      </trkpt>
      <trkpt lat="45.21216" lon="5.7294">
        <ele>805.40002441406</ele>
        <time>2021-10-17T04:20:28.000Z</time>
      </trkpt>
      <trkpt lat="45.21215" lon="5.7294">
        <ele>805.59997558594</ele>
        <time>2021-10-17T04:20:29.000Z</time>
      </trkpt>
      <trkpt lat="45.21215" lon="5.72939">
        <ele>805.79998779297</ele>
        <time>2021-10-17T04:20:30.000Z</time>
      </trkpt>
      <trkpt lat="45.21215" lon="5.72939">
        <ele>806.20001220703</ele>
        <time>2021-10-17T04:20:32.000Z</time>
      </trkpt>
      <trkpt lat="45.21214" lon="5.72938">
        <ele>806.59997558594</ele>
        <time>2021-10-17T04:20:33.000Z</time>
      </trkpt>
      <trkpt lat="45.21213" lon="5.72938">
        <ele>806.79998779297</ele>
        <time>2021-10-17T04:20:34.000Z</time>
      </trkpt>
      <trkpt lat="45.21213" lon="5.72937">
        <ele>807.20001220703</ele>
        <time>2021-10-17T04:20:35.000Z</time>
      </trkpt>
      <trkpt lat="45.21212" lon="5.72935">
        <ele>807.59997558594</ele>
        <time>2021-10-17T04:20:37.000Z</time>
      </trkpt>
      <trkpt lat="45.21211" lon="5.72933">
        <ele>807.59997558594</ele>
        <time>2021-10-17T04:20:38.000Z</time>
      </trkpt>
      <trkpt lat="45.21211" lon="5.72932">
        <ele>808.20001220703</ele>
        <time>2021-10-17T04:20:39.000Z</time>
      </trkpt>
      <trkpt lat="45.2121" lon="5.72929">
        <ele>808.59997558594</ele>
        <time>2021-10-17T04:20:41.000Z</time>
      </trkpt>
      <trkpt lat="45.2121" lon="5.72922">
        <ele>809.59997558594</ele>
        <time>2021-10-17T04:20:46.000Z</time>
      </trkpt>
      <trkpt lat="45.21209" lon="5.7292">
        <ele>809.79998779297</ele>
        <time>2021-10-17T04:20:48.000Z</time>
      </trkpt>
      <trkpt lat="45.21211" lon="5.72915">
        <ele>810.79998779297</ele>
        <time>2021-10-17T04:20:51.000Z</time>
      </trkpt>
      <trkpt lat="45.21213" lon="5.72914">
        <ele>810.79998779297</ele>
        <time>2021-10-17T04:20:52.000Z</time>
      </trkpt>
      <trkpt lat="45.21218" lon="5.72914">
        <ele>812.20001220703</ele>
        <time>2021-10-17T04:20:57.000Z</time>
      </trkpt>
      <trkpt lat="45.21221" lon="5.72914">
        <ele>812.79998779297</ele>
        <time>2021-10-17T04:21:00.000Z</time>
      </trkpt>
      <trkpt lat="45.21224" lon="5.72915">
        <ele>813.20001220703</ele>
        <time>2021-10-17T04:21:03.000Z</time>
      </trkpt>
      <trkpt lat="45.21226" lon="5.72917">
        <ele>814.59997558594</ele>
        <time>2021-10-17T04:21:06.000Z</time>
      </trkpt>
      <trkpt lat="45.21227" lon="5.72919">
        <ele>814.79998779297</ele>
        <time>2021-10-17T04:21:07.000Z</time>
      </trkpt>
      <trkpt lat="45.21227" lon="5.72921">
        <ele>815</ele>
        <time>2021-10-17T04:21:08.000Z</time>
      </trkpt>
      <trkpt lat="45.2123" lon="5.72926">
        <ele>815.59997558594</ele>
        <time>2021-10-17T04:21:12.000Z</time>
      </trkpt>
      <trkpt lat="45.21232" lon="5.72928">
        <ele>815.79998779297</ele>
        <time>2021-10-17T04:21:14.000Z</time>
      </trkpt>
      <trkpt lat="45.21234" lon="5.72929">
        <ele>816.20001220703</ele>
        <time>2021-10-17T04:21:17.000Z</time>
      </trkpt>
      <trkpt lat="45.21239" lon="5.72932">
        <ele>816.79998779297</ele>
        <time>2021-10-17T04:21:20.000Z</time>
      </trkpt>
      <trkpt lat="45.21245" lon="5.72935">
        <ele>818</ele>
        <time>2021-10-17T04:21:26.000Z</time>
      </trkpt>
      <trkpt lat="45.21247" lon="5.72934">
        <ele>818.79998779297</ele>
        <time>2021-10-17T04:21:29.000Z</time>
      </trkpt>
      <trkpt lat="45.21248" lon="5.72934">
        <ele>819</ele>
        <time>2021-10-17T04:21:30.000Z</time>
      </trkpt>
      <trkpt lat="45.21249" lon="5.72934">
        <ele>819.20001220703</ele>
        <time>2021-10-17T04:21:31.000Z</time>
      </trkpt>
      <trkpt lat="45.21253" lon="5.72937">
        <ele>820</ele>
        <time>2021-10-17T04:21:35.000Z</time>
      </trkpt>
      <trkpt lat="45.21254" lon="5.72938">
        <ele>820.40002441406</ele>
        <time>2021-10-17T04:21:36.000Z</time>
      </trkpt>
      <trkpt lat="45.21257" lon="5.7294">
        <ele>821.20001220703</ele>
        <time>2021-10-17T04:21:40.000Z</time>
      </trkpt>
      <trkpt lat="45.21259" lon="5.72942">
        <ele>821.59997558594</ele>
        <time>2021-10-17T04:21:42.000Z</time>
      </trkpt>
      <trkpt lat="45.21262" lon="5.72945">
        <ele>822.40002441406</ele>
        <time>2021-10-17T04:21:45.000Z</time>
      </trkpt>
      <trkpt lat="45.21265" lon="5.72947">
        <ele>823.20001220703</ele>
        <time>2021-10-17T04:21:48.000Z</time>
      </trkpt>
      <trkpt lat="45.21266" lon="5.72948">
        <ele>823.40002441406</ele>
        <time>2021-10-17T04:21:49.000Z</time>
      </trkpt>
      <trkpt lat="45.21268" lon="5.72949">
        <ele>824.40002441406</ele>
        <time>2021-10-17T04:21:53.000Z</time>
      </trkpt>
      <trkpt lat="45.21269" lon="5.72949">
        <ele>824.79998779297</ele>
        <time>2021-10-17T04:21:54.000Z</time>
      </trkpt>
      <trkpt lat="45.21271" lon="5.72948">
        <ele>825.59997558594</ele>
        <time>2021-10-17T04:21:57.000Z</time>
      </trkpt>
      <trkpt lat="45.21273" lon="5.72948">
        <ele>826.20001220703</ele>
        <time>2021-10-17T04:22:00.000Z</time>
      </trkpt>
      <trkpt lat="45.21275" lon="5.72951">
        <ele>827</ele>
        <time>2021-10-17T04:22:02.000Z</time>
      </trkpt>
      <trkpt lat="45.21279" lon="5.72956">
        <ele>827.59997558594</ele>
        <time>2021-10-17T04:22:06.000Z</time>
      </trkpt>
      <trkpt lat="45.21282" lon="5.72958">
        <ele>828.20001220703</ele>
        <time>2021-10-17T04:22:09.000Z</time>
      </trkpt>
      <trkpt lat="45.21284" lon="5.72959">
        <ele>828.79998779297</ele>
        <time>2021-10-17T04:22:11.000Z</time>
      </trkpt>
      <trkpt lat="45.21286" lon="5.72962">
        <ele>829.20001220703</ele>
        <time>2021-10-17T04:22:14.000Z</time>
      </trkpt>
      <trkpt lat="45.2129" lon="5.72965">
        <ele>830.40002441406</ele>
        <time>2021-10-17T04:22:19.000Z</time>
      </trkpt>
      <trkpt lat="45.21292" lon="5.72967">
        <ele>830.79998779297</ele>
        <time>2021-10-17T04:22:21.000Z</time>
      </trkpt>
      <trkpt lat="45.21293" lon="5.72968">
        <ele>831</ele>
        <time>2021-10-17T04:22:22.000Z</time>
      </trkpt>
      <trkpt lat="45.21295" lon="5.72971">
        <ele>831.79998779297</ele>
        <time>2021-10-17T04:22:25.000Z</time>
      </trkpt>
      <trkpt lat="45.21297" lon="5.72974">
        <ele>832.59997558594</ele>
        <time>2021-10-17T04:22:28.000Z</time>
      </trkpt>
      <trkpt lat="45.21297" lon="5.72975">
        <ele>832.79998779297</ele>
        <time>2021-10-17T04:22:29.000Z</time>
      </trkpt>
      <trkpt lat="45.21299" lon="5.72976">
        <ele>833</ele>
        <time>2021-10-17T04:22:31.000Z</time>
      </trkpt>
      <trkpt lat="45.21302" lon="5.72978">
        <ele>833.79998779297</ele>
        <time>2021-10-17T04:22:34.000Z</time>
      </trkpt>
      <trkpt lat="45.21304" lon="5.72979">
        <ele>834</ele>
        <time>2021-10-17T04:22:35.000Z</time>
      </trkpt>
      <trkpt lat="45.21306" lon="5.72981">
        <ele>834.59997558594</ele>
        <time>2021-10-17T04:22:38.000Z</time>
      </trkpt>
      <trkpt lat="45.21308" lon="5.72983">
        <ele>835</ele>
        <time>2021-10-17T04:22:40.000Z</time>
      </trkpt>
      <trkpt lat="45.21309" lon="5.72985">
        <ele>835.20001220703</ele>
        <time>2021-10-17T04:22:41.000Z</time>
      </trkpt>
      <trkpt lat="45.2131" lon="5.72988">
        <ele>835.59997558594</ele>
        <time>2021-10-17T04:22:43.000Z</time>
      </trkpt>
      <trkpt lat="45.21312" lon="5.7299">
        <ele>836.20001220703</ele>
        <time>2021-10-17T04:22:45.000Z</time>
      </trkpt>
      <trkpt lat="45.21315" lon="5.72994">
        <ele>836.40002441406</ele>
        <time>2021-10-17T04:22:48.000Z</time>
      </trkpt>
      <trkpt lat="45.21315" lon="5.72996">
        <ele>836.79998779297</ele>
        <time>2021-10-17T04:22:49.000Z</time>
      </trkpt>
      <trkpt lat="45.21316" lon="5.72998">
        <ele>837.20001220703</ele>
        <time>2021-10-17T04:22:51.000Z</time>
      </trkpt>
      <trkpt lat="45.21318" lon="5.73002">
        <ele>837.79998779297</ele>
        <time>2021-10-17T04:22:54.000Z</time>
      </trkpt>
      <trkpt lat="45.21322" lon="5.73006">
        <ele>838.20001220703</ele>
        <time>2021-10-17T04:22:57.000Z</time>
      </trkpt>
      <trkpt lat="45.21323" lon="5.73007">
        <ele>838.79998779297</ele>
        <time>2021-10-17T04:22:59.000Z</time>
      </trkpt>
      <trkpt lat="45.21324" lon="5.73008">
        <ele>839</ele>
        <time>2021-10-17T04:23:00.000Z</time>
      </trkpt>
      <trkpt lat="45.21325" lon="5.7301">
        <ele>839.40002441406</ele>
        <time>2021-10-17T04:23:01.000Z</time>
      </trkpt>
      <trkpt lat="45.21325" lon="5.73011">
        <ele>839.59997558594</ele>
        <time>2021-10-17T04:23:02.000Z</time>
      </trkpt>
      <trkpt lat="45.21327" lon="5.73012">
        <ele>840</ele>
        <time>2021-10-17T04:23:04.000Z</time>
      </trkpt>
      <trkpt lat="45.21331" lon="5.73017">
        <ele>840.59997558594</ele>
        <time>2021-10-17T04:23:07.000Z</time>
      </trkpt>
      <trkpt lat="45.21332" lon="5.73019">
        <ele>841.59997558594</ele>
        <time>2021-10-17T04:23:09.000Z</time>
      </trkpt>
      <trkpt lat="45.21332" lon="5.7302">
        <ele>841.79998779297</ele>
        <time>2021-10-17T04:23:10.000Z</time>
      </trkpt>
      <trkpt lat="45.21333" lon="5.73021">
        <ele>842.20001220703</ele>
        <time>2021-10-17T04:23:11.000Z</time>
      </trkpt>
      <trkpt lat="45.21337" lon="5.73024">
        <ele>843</ele>
        <time>2021-10-17T04:23:16.000Z</time>
      </trkpt>
      <trkpt lat="45.21338" lon="5.73025">
        <ele>843.59997558594</ele>
        <time>2021-10-17T04:23:18.000Z</time>
      </trkpt>
      <trkpt lat="45.21339" lon="5.73027">
        <ele>844</ele>
        <time>2021-10-17T04:23:20.000Z</time>
      </trkpt>
      <trkpt lat="45.21341" lon="5.73029">
        <ele>844.59997558594</ele>
        <time>2021-10-17T04:23:23.000Z</time>
      </trkpt>
      <trkpt lat="45.21343" lon="5.7303">
        <ele>845.40002441406</ele>
        <time>2021-10-17T04:23:25.000Z</time>
      </trkpt>
      <trkpt lat="45.21346" lon="5.73035">
        <ele>846.59997558594</ele>
        <time>2021-10-17T04:23:30.000Z</time>
      </trkpt>
      <trkpt lat="45.21348" lon="5.73036">
        <ele>847.20001220703</ele>
        <time>2021-10-17T04:23:32.000Z</time>
      </trkpt>
      <trkpt lat="45.21348" lon="5.73037">
        <ele>847.40002441406</ele>
        <time>2021-10-17T04:23:33.000Z</time>
      </trkpt>
      <trkpt lat="45.21349" lon="5.73038">
        <ele>847.79998779297</ele>
        <time>2021-10-17T04:23:34.000Z</time>
      </trkpt>
      <trkpt lat="45.2135" lon="5.73043">
        <ele>848.59997558594</ele>
        <time>2021-10-17T04:23:37.000Z</time>
      </trkpt>
      <trkpt lat="45.21351" lon="5.73044">
        <ele>848.79998779297</ele>
        <time>2021-10-17T04:23:38.000Z</time>
      </trkpt>
      <trkpt lat="45.21357" lon="5.73049">
        <ele>850</ele>
        <time>2021-10-17T04:23:43.000Z</time>
      </trkpt>
      <trkpt lat="45.21359" lon="5.73051">
        <ele>850.59997558594</ele>
        <time>2021-10-17T04:23:45.000Z</time>
      </trkpt>
      <trkpt lat="45.2136" lon="5.73054">
        <ele>851</ele>
        <time>2021-10-17T04:23:47.000Z</time>
      </trkpt>
      <trkpt lat="45.21362" lon="5.73058">
        <ele>851.79998779297</ele>
        <time>2021-10-17T04:23:51.000Z</time>
      </trkpt>
      <trkpt lat="45.21364" lon="5.7306">
        <ele>852.20001220703</ele>
        <time>2021-10-17T04:23:53.000Z</time>
      </trkpt>
      <trkpt lat="45.21367" lon="5.73065">
        <ele>853.40002441406</ele>
        <time>2021-10-17T04:23:57.000Z</time>
      </trkpt>
      <trkpt lat="45.21368" lon="5.73067">
        <ele>853.59997558594</ele>
        <time>2021-10-17T04:23:58.000Z</time>
      </trkpt>
      <trkpt lat="45.2137" lon="5.73071">
        <ele>854</ele>
        <time>2021-10-17T04:24:01.000Z</time>
      </trkpt>
      <trkpt lat="45.21372" lon="5.73073">
        <ele>854.40002441406</ele>
        <time>2021-10-17T04:24:03.000Z</time>
      </trkpt>
      <trkpt lat="45.21373" lon="5.73074">
        <ele>854.40002441406</ele>
        <time>2021-10-17T04:24:04.000Z</time>
      </trkpt>
      <trkpt lat="45.21382" lon="5.73086">
        <ele>855</ele>
        <time>2021-10-17T04:24:10.000Z</time>
      </trkpt>
      <trkpt lat="45.2139" lon="5.73094">
        <ele>855.40002441406</ele>
        <time>2021-10-17T04:24:15.000Z</time>
      </trkpt>
      <trkpt lat="45.21394" lon="5.731">
        <ele>855.79998779297</ele>
        <time>2021-10-17T04:24:18.000Z</time>
      </trkpt>
      <trkpt lat="45.21397" lon="5.7311">
        <ele>856.40002441406</ele>
        <time>2021-10-17T04:24:23.000Z</time>
      </trkpt>
      <trkpt lat="45.21398" lon="5.73111">
        <ele>856.59997558594</ele>
        <time>2021-10-17T04:24:24.000Z</time>
      </trkpt>
      <trkpt lat="45.214" lon="5.73115">
        <ele>856.79998779297</ele>
        <time>2021-10-17T04:24:26.000Z</time>
      </trkpt>
      <trkpt lat="45.21404" lon="5.73122">
        <ele>857.40002441406</ele>
        <time>2021-10-17T04:24:30.000Z</time>
      </trkpt>
      <trkpt lat="45.21405" lon="5.73124">
        <ele>857.59997558594</ele>
        <time>2021-10-17T04:24:31.000Z</time>
      </trkpt>
      <trkpt lat="45.21407" lon="5.73125">
        <ele>857.59997558594</ele>
        <time>2021-10-17T04:24:32.000Z</time>
      </trkpt>
      <trkpt lat="45.21412" lon="5.73128">
        <ele>858.20001220703</ele>
        <time>2021-10-17T04:24:35.000Z</time>
      </trkpt>
      <trkpt lat="45.21415" lon="5.73133">
        <ele>858.79998779297</ele>
        <time>2021-10-17T04:24:38.000Z</time>
      </trkpt>
      <trkpt lat="45.21415" lon="5.73135">
        <ele>858.79998779297</ele>
        <time>2021-10-17T04:24:39.000Z</time>
      </trkpt>
      <trkpt lat="45.21417" lon="5.73138">
        <ele>859</ele>
        <time>2021-10-17T04:24:41.000Z</time>
      </trkpt>
      <trkpt lat="45.21418" lon="5.73141">
        <ele>859.59997558594</ele>
        <time>2021-10-17T04:24:43.000Z</time>
      </trkpt>
      <trkpt lat="45.21419" lon="5.73142">
        <ele>859.79998779297</ele>
        <time>2021-10-17T04:24:44.000Z</time>
      </trkpt>
      <trkpt lat="45.2142" lon="5.73143">
        <ele>860</ele>
        <time>2021-10-17T04:24:45.000Z</time>
      </trkpt>
      <trkpt lat="45.21421" lon="5.73145">
        <ele>860.40002441406</ele>
        <time>2021-10-17T04:24:47.000Z</time>
      </trkpt>
      <trkpt lat="45.21423" lon="5.73147">
        <ele>860.79998779297</ele>
        <time>2021-10-17T04:24:49.000Z</time>
      </trkpt>
      <trkpt lat="45.21426" lon="5.73152">
        <ele>862</ele>
        <time>2021-10-17T04:24:53.000Z</time>
      </trkpt>
      <trkpt lat="45.21428" lon="5.73153">
        <ele>862.20001220703</ele>
        <time>2021-10-17T04:24:54.000Z</time>
      </trkpt>
      <trkpt lat="45.21437" lon="5.73156">
        <ele>863</ele>
        <time>2021-10-17T04:24:59.000Z</time>
      </trkpt>
      <trkpt lat="45.21439" lon="5.73156">
        <ele>863.20001220703</ele>
        <time>2021-10-17T04:25:00.000Z</time>
      </trkpt>
      <trkpt lat="45.21441" lon="5.73156">
        <ele>863.40002441406</ele>
        <time>2021-10-17T04:25:01.000Z</time>
      </trkpt>
      <trkpt lat="45.21447" lon="5.73157">
        <ele>864.20001220703</ele>
        <time>2021-10-17T04:25:05.000Z</time>
      </trkpt>
      <trkpt lat="45.21453" lon="5.73158">
        <ele>865.20001220703</ele>
        <time>2021-10-17T04:25:09.000Z</time>
      </trkpt>
      <trkpt lat="45.21454" lon="5.73158">
        <ele>866</ele>
        <time>2021-10-17T04:25:11.000Z</time>
      </trkpt>
      <trkpt lat="45.21456" lon="5.73158">
        <ele>866.40002441406</ele>
        <time>2021-10-17T04:25:13.000Z</time>
      </trkpt>
      <trkpt lat="45.21457" lon="5.73161">
        <ele>866.79998779297</ele>
        <time>2021-10-17T04:25:15.000Z</time>
      </trkpt>
      <trkpt lat="45.21458" lon="5.73162">
        <ele>867</ele>
        <time>2021-10-17T04:25:16.000Z</time>
      </trkpt>
      <trkpt lat="45.21459" lon="5.73163">
        <ele>867.40002441406</ele>
        <time>2021-10-17T04:25:17.000Z</time>
      </trkpt>
      <trkpt lat="45.21459" lon="5.73164">
        <ele>867.59997558594</ele>
        <time>2021-10-17T04:25:18.000Z</time>
      </trkpt>
      <trkpt lat="45.2146" lon="5.73165">
        <ele>867.79998779297</ele>
        <time>2021-10-17T04:25:19.000Z</time>
      </trkpt>
      <trkpt lat="45.21461" lon="5.73168">
        <ele>868.20001220703</ele>
        <time>2021-10-17T04:25:21.000Z</time>
      </trkpt>
      <trkpt lat="45.21462" lon="5.73169">
        <ele>868.59997558594</ele>
        <time>2021-10-17T04:25:22.000Z</time>
      </trkpt>
      <trkpt lat="45.21463" lon="5.73172">
        <ele>869.40002441406</ele>
        <time>2021-10-17T04:25:24.000Z</time>
      </trkpt>
      <trkpt lat="45.21465" lon="5.73173">
        <ele>869.79998779297</ele>
        <time>2021-10-17T04:25:26.000Z</time>
      </trkpt>
      <trkpt lat="45.21466" lon="5.73176">
        <ele>870.59997558594</ele>
        <time>2021-10-17T04:25:28.000Z</time>
      </trkpt>
      <trkpt lat="45.21466" lon="5.73177">
        <ele>870.79998779297</ele>
        <time>2021-10-17T04:25:29.000Z</time>
      </trkpt>
      <trkpt lat="45.2147" lon="5.73179">
        <ele>871.79998779297</ele>
        <time>2021-10-17T04:25:33.000Z</time>
      </trkpt>
      <trkpt lat="45.21472" lon="5.7318">
        <ele>872.20001220703</ele>
        <time>2021-10-17T04:25:34.000Z</time>
      </trkpt>
      <trkpt lat="45.21473" lon="5.73181">
        <ele>872.59997558594</ele>
        <time>2021-10-17T04:25:35.000Z</time>
      </trkpt>
      <trkpt lat="45.21474" lon="5.73184">
        <ele>873.40002441406</ele>
        <time>2021-10-17T04:25:38.000Z</time>
      </trkpt>
      <trkpt lat="45.21475" lon="5.73185">
        <ele>874</ele>
        <time>2021-10-17T04:25:39.000Z</time>
      </trkpt>
      <trkpt lat="45.21475" lon="5.73189">
        <ele>874.59997558594</ele>
        <time>2021-10-17T04:25:41.000Z</time>
      </trkpt>
      <trkpt lat="45.21477" lon="5.73195">
        <ele>875.20001220703</ele>
        <time>2021-10-17T04:25:45.000Z</time>
      </trkpt>
      <trkpt lat="45.21476" lon="5.73201">
        <ele>875.59997558594</ele>
        <time>2021-10-17T04:25:48.000Z</time>
      </trkpt>
      <trkpt lat="45.21476" lon="5.73208">
        <ele>875.79998779297</ele>
        <time>2021-10-17T04:25:51.000Z</time>
      </trkpt>
      <trkpt lat="45.21476" lon="5.7321">
        <ele>875.79998779297</ele>
        <time>2021-10-17T04:25:52.000Z</time>
      </trkpt>
      <trkpt lat="45.21478" lon="5.73216">
        <ele>876.20001220703</ele>
        <time>2021-10-17T04:25:55.000Z</time>
      </trkpt>
      <trkpt lat="45.2148" lon="5.73219">
        <ele>876.40002441406</ele>
        <time>2021-10-17T04:25:57.000Z</time>
      </trkpt>
      <trkpt lat="45.21483" lon="5.73224">
        <ele>876.79998779297</ele>
        <time>2021-10-17T04:26:00.000Z</time>
      </trkpt>
      <trkpt lat="45.21486" lon="5.73228">
        <ele>877.59997558594</ele>
        <time>2021-10-17T04:26:03.000Z</time>
      </trkpt>
      <trkpt lat="45.21487" lon="5.73229">
        <ele>877.79998779297</ele>
        <time>2021-10-17T04:26:04.000Z</time>
      </trkpt>
      <trkpt lat="45.21488" lon="5.7323">
        <ele>878</ele>
        <time>2021-10-17T04:26:05.000Z</time>
      </trkpt>
      <trkpt lat="45.2149" lon="5.73233">
        <ele>878.79998779297</ele>
        <time>2021-10-17T04:26:07.000Z</time>
      </trkpt>
      <trkpt lat="45.21491" lon="5.73236">
        <ele>879.20001220703</ele>
        <time>2021-10-17T04:26:09.000Z</time>
      </trkpt>
      <trkpt lat="45.21494" lon="5.7324">
        <ele>880.40002441406</ele>
        <time>2021-10-17T04:26:13.000Z</time>
      </trkpt>
      <trkpt lat="45.21496" lon="5.73242">
        <ele>880.79998779297</ele>
        <time>2021-10-17T04:26:15.000Z</time>
      </trkpt>
      <trkpt lat="45.21497" lon="5.73243">
        <ele>881</ele>
        <time>2021-10-17T04:26:16.000Z</time>
      </trkpt>
      <trkpt lat="45.21498" lon="5.73246">
        <ele>881.40002441406</ele>
        <time>2021-10-17T04:26:18.000Z</time>
      </trkpt>
      <trkpt lat="45.21501" lon="5.73252">
        <ele>882.20001220703</ele>
        <time>2021-10-17T04:26:23.000Z</time>
      </trkpt>
      <trkpt lat="45.21502" lon="5.73254">
        <ele>882.59997558594</ele>
        <time>2021-10-17T04:26:24.000Z</time>
      </trkpt>
      <trkpt lat="45.21508" lon="5.73262">
        <ele>883.40002441406</ele>
        <time>2021-10-17T04:26:28.000Z</time>
      </trkpt>
      <trkpt lat="45.21509" lon="5.73264">
        <ele>883.59997558594</ele>
        <time>2021-10-17T04:26:29.000Z</time>
      </trkpt>
      <trkpt lat="45.2151" lon="5.73269">
        <ele>884</ele>
        <time>2021-10-17T04:26:32.000Z</time>
      </trkpt>
      <trkpt lat="45.2151" lon="5.73271">
        <ele>884.20001220703</ele>
        <time>2021-10-17T04:26:33.000Z</time>
      </trkpt>
      <trkpt lat="45.21513" lon="5.73286">
        <ele>883.59997558594</ele>
        <time>2021-10-17T04:26:39.000Z</time>
      </trkpt>
      <trkpt lat="45.21514" lon="5.73295">
        <ele>883.59997558594</ele>
        <time>2021-10-17T04:26:43.000Z</time>
      </trkpt>
      <trkpt lat="45.21516" lon="5.73302">
        <ele>884</ele>
        <time>2021-10-17T04:26:46.000Z</time>
      </trkpt>
      <trkpt lat="45.21517" lon="5.73306">
        <ele>884.20001220703</ele>
        <time>2021-10-17T04:26:48.000Z</time>
      </trkpt>
      <trkpt lat="45.21518" lon="5.73308">
        <ele>884.79998779297</ele>
        <time>2021-10-17T04:26:50.000Z</time>
      </trkpt>
      <trkpt lat="45.21518" lon="5.73309">
        <ele>885</ele>
        <time>2021-10-17T04:26:51.000Z</time>
      </trkpt>
      <trkpt lat="45.21519" lon="5.73311">
        <ele>885.59997558594</ele>
        <time>2021-10-17T04:26:54.000Z</time>
      </trkpt>
      <trkpt lat="45.21521" lon="5.73312">
        <ele>885.79998779297</ele>
        <time>2021-10-17T04:26:55.000Z</time>
      </trkpt>
      <trkpt lat="45.2153" lon="5.73317">
        <ele>886.40002441406</ele>
        <time>2021-10-17T04:27:01.000Z</time>
      </trkpt>
      <trkpt lat="45.21534" lon="5.73318">
        <ele>886.79998779297</ele>
        <time>2021-10-17T04:27:04.000Z</time>
      </trkpt>
      <trkpt lat="45.21536" lon="5.73317">
        <ele>887.20001220703</ele>
        <time>2021-10-17T04:27:06.000Z</time>
      </trkpt>
      <trkpt lat="45.21537" lon="5.73318">
        <ele>887.40002441406</ele>
        <time>2021-10-17T04:27:07.000Z</time>
      </trkpt>
      <trkpt lat="45.21541" lon="5.73318">
        <ele>888</ele>
        <time>2021-10-17T04:27:10.000Z</time>
      </trkpt>
      <trkpt lat="45.21541" lon="5.7332">
        <ele>888.20001220703</ele>
        <time>2021-10-17T04:27:11.000Z</time>
      </trkpt>
      <trkpt lat="45.21542" lon="5.73321">
        <ele>888.40002441406</ele>
        <time>2021-10-17T04:27:12.000Z</time>
      </trkpt>
      <trkpt lat="45.21545" lon="5.73322">
        <ele>888.79998779297</ele>
        <time>2021-10-17T04:27:15.000Z</time>
      </trkpt>
      <trkpt lat="45.21546" lon="5.73321">
        <ele>889.20001220703</ele>
        <time>2021-10-17T04:27:17.000Z</time>
      </trkpt>
      <trkpt lat="45.21548" lon="5.73321">
        <ele>889.79998779297</ele>
        <time>2021-10-17T04:27:19.000Z</time>
      </trkpt>
      <trkpt lat="45.2155" lon="5.73321">
        <ele>889.79998779297</ele>
        <time>2021-10-17T04:27:20.000Z</time>
      </trkpt>
      <trkpt lat="45.21551" lon="5.73322">
        <ele>890.40002441406</ele>
        <time>2021-10-17T04:27:22.000Z</time>
      </trkpt>
      <trkpt lat="45.21553" lon="5.73323">
        <ele>890.79998779297</ele>
        <time>2021-10-17T04:27:24.000Z</time>
      </trkpt>
      <trkpt lat="45.21555" lon="5.73324">
        <ele>891.20001220703</ele>
        <time>2021-10-17T04:27:26.000Z</time>
      </trkpt>
      <trkpt lat="45.21556" lon="5.73325">
        <ele>891.40002441406</ele>
        <time>2021-10-17T04:27:27.000Z</time>
      </trkpt>
      <trkpt lat="45.2156" lon="5.73326">
        <ele>892.20001220703</ele>
        <time>2021-10-17T04:27:30.000Z</time>
      </trkpt>
      <trkpt lat="45.21562" lon="5.73327">
        <ele>892.59997558594</ele>
        <time>2021-10-17T04:27:32.000Z</time>
      </trkpt>
      <trkpt lat="45.21565" lon="5.73329">
        <ele>893</ele>
        <time>2021-10-17T04:27:34.000Z</time>
      </trkpt>
      <trkpt lat="45.21568" lon="5.73331">
        <ele>893.20001220703</ele>
        <time>2021-10-17T04:27:36.000Z</time>
      </trkpt>
      <trkpt lat="45.2157" lon="5.73333">
        <ele>893.59997558594</ele>
        <time>2021-10-17T04:27:39.000Z</time>
      </trkpt>
      <trkpt lat="45.21571" lon="5.73335">
        <ele>893.59997558594</ele>
        <time>2021-10-17T04:27:40.000Z</time>
      </trkpt>
      <trkpt lat="45.21573" lon="5.73336">
        <ele>894</ele>
        <time>2021-10-17T04:27:42.000Z</time>
      </trkpt>
      <trkpt lat="45.21574" lon="5.73337">
        <ele>894</ele>
        <time>2021-10-17T04:27:43.000Z</time>
      </trkpt>
      <trkpt lat="45.21578" lon="5.73338">
        <ele>894.59997558594</ele>
        <time>2021-10-17T04:27:46.000Z</time>
      </trkpt>
      <trkpt lat="45.21582" lon="5.73337">
        <ele>895.40002441406</ele>
        <time>2021-10-17T04:27:49.000Z</time>
      </trkpt>
      <trkpt lat="45.21584" lon="5.7334">
        <ele>895.79998779297</ele>
        <time>2021-10-17T04:27:51.000Z</time>
      </trkpt>
      <trkpt lat="45.21588" lon="5.73343">
        <ele>896.79998779297</ele>
        <time>2021-10-17T04:27:55.000Z</time>
      </trkpt>
      <trkpt lat="45.21589" lon="5.73344">
        <ele>897</ele>
        <time>2021-10-17T04:27:56.000Z</time>
      </trkpt>
      <trkpt lat="45.21593" lon="5.73347">
        <ele>897.79998779297</ele>
        <time>2021-10-17T04:27:59.000Z</time>
      </trkpt>
      <trkpt lat="45.21594" lon="5.73349">
        <ele>898</ele>
        <time>2021-10-17T04:28:00.000Z</time>
      </trkpt>
      <trkpt lat="45.21596" lon="5.73352">
        <ele>898.40002441406</ele>
        <time>2021-10-17T04:28:02.000Z</time>
      </trkpt>
      <trkpt lat="45.21596" lon="5.73354">
        <ele>898.40002441406</ele>
        <time>2021-10-17T04:28:03.000Z</time>
      </trkpt>
      <trkpt lat="45.21598" lon="5.73357">
        <ele>898.79998779297</ele>
        <time>2021-10-17T04:28:05.000Z</time>
      </trkpt>
      <trkpt lat="45.21601" lon="5.7336">
        <ele>899</ele>
        <time>2021-10-17T04:28:07.000Z</time>
      </trkpt>
      <trkpt lat="45.21603" lon="5.73363">
        <ele>899.59997558594</ele>
        <time>2021-10-17T04:28:10.000Z</time>
      </trkpt>
      <trkpt lat="45.21605" lon="5.73366">
        <ele>900.20001220703</ele>
        <time>2021-10-17T04:28:13.000Z</time>
      </trkpt>
      <trkpt lat="45.21611" lon="5.73368">
        <ele>901.20001220703</ele>
        <time>2021-10-17T04:28:18.000Z</time>
      </trkpt>
      <trkpt lat="45.21616" lon="5.73372">
        <ele>902.40002441406</ele>
        <time>2021-10-17T04:28:23.000Z</time>
      </trkpt>
      <trkpt lat="45.21617" lon="5.73373">
        <ele>902.59997558594</ele>
        <time>2021-10-17T04:28:24.000Z</time>
      </trkpt>
      <trkpt lat="45.21623" lon="5.73376">
        <ele>903.40002441406</ele>
        <time>2021-10-17T04:28:28.000Z</time>
      </trkpt>
      <trkpt lat="45.21626" lon="5.73378">
        <ele>904.20001220703</ele>
        <time>2021-10-17T04:28:31.000Z</time>
      </trkpt>
      <trkpt lat="45.21629" lon="5.7338">
        <ele>904.59997558594</ele>
        <time>2021-10-17T04:28:33.000Z</time>
      </trkpt>
      <trkpt lat="45.21633" lon="5.73382">
        <ele>905.40002441406</ele>
        <time>2021-10-17T04:28:37.000Z</time>
      </trkpt>
      <trkpt lat="45.21635" lon="5.73384">
        <ele>905.59997558594</ele>
        <time>2021-10-17T04:28:39.000Z</time>
      </trkpt>
      <trkpt lat="45.21637" lon="5.73388">
        <ele>906</ele>
        <time>2021-10-17T04:28:41.000Z</time>
      </trkpt>
      <trkpt lat="45.21642" lon="5.73393">
        <ele>906.79998779297</ele>
        <time>2021-10-17T04:28:45.000Z</time>
      </trkpt>
      <trkpt lat="45.21645" lon="5.73397">
        <ele>907.20001220703</ele>
        <time>2021-10-17T04:28:47.000Z</time>
      </trkpt>
      <trkpt lat="45.21653" lon="5.73407">
        <ele>908</ele>
        <time>2021-10-17T04:28:52.000Z</time>
      </trkpt>
      <trkpt lat="45.21655" lon="5.73414">
        <ele>908.20001220703</ele>
        <time>2021-10-17T04:28:55.000Z</time>
      </trkpt>
      <trkpt lat="45.21662" lon="5.73429">
        <ele>908.79998779297</ele>
        <time>2021-10-17T04:29:01.000Z</time>
      </trkpt>
      <trkpt lat="45.21663" lon="5.73432">
        <ele>909</ele>
        <time>2021-10-17T04:29:02.000Z</time>
      </trkpt>
      <trkpt lat="45.21663" lon="5.73434">
        <ele>909.20001220703</ele>
        <time>2021-10-17T04:29:03.000Z</time>
      </trkpt>
      <trkpt lat="45.21666" lon="5.73441">
        <ele>909.59997558594</ele>
        <time>2021-10-17T04:29:06.000Z</time>
      </trkpt>
      <trkpt lat="45.21667" lon="5.73447">
        <ele>910</ele>
        <time>2021-10-17T04:29:09.000Z</time>
      </trkpt>
      <trkpt lat="45.21667" lon="5.73449">
        <ele>910</ele>
        <time>2021-10-17T04:29:10.000Z</time>
      </trkpt>
      <trkpt lat="45.21672" lon="5.73463">
        <ele>911.20001220703</ele>
        <time>2021-10-17T04:29:16.000Z</time>
      </trkpt>
      <trkpt lat="45.21673" lon="5.73468">
        <ele>911.79998779297</ele>
        <time>2021-10-17T04:29:18.000Z</time>
      </trkpt>
      <trkpt lat="45.21675" lon="5.73475">
        <ele>912.40002441406</ele>
        <time>2021-10-17T04:29:21.000Z</time>
      </trkpt>
      <trkpt lat="45.21677" lon="5.73481">
        <ele>913</ele>
        <time>2021-10-17T04:29:25.000Z</time>
      </trkpt>
      <trkpt lat="45.21678" lon="5.73481">
        <ele>913.40002441406</ele>
        <time>2021-10-17T04:29:26.000Z</time>
      </trkpt>
      <trkpt lat="45.21678" lon="5.7348">
        <ele>913.40002441406</ele>
        <time>2021-10-17T04:29:27.000Z</time>
      </trkpt>
      <trkpt lat="45.21677" lon="5.73477">
        <ele>914</ele>
        <time>2021-10-17T04:29:30.000Z</time>
      </trkpt>
      <trkpt lat="45.21676" lon="5.73477">
        <ele>914.40002441406</ele>
        <time>2021-10-17T04:29:31.000Z</time>
      </trkpt>
      <trkpt lat="45.21676" lon="5.73473">
        <ele>915.20001220703</ele>
        <time>2021-10-17T04:29:34.000Z</time>
      </trkpt>
      <trkpt lat="45.21675" lon="5.73469">
        <ele>915.59997558594</ele>
        <time>2021-10-17T04:29:36.000Z</time>
      </trkpt>
      <trkpt lat="45.21675" lon="5.73464">
        <ele>916</ele>
        <time>2021-10-17T04:29:42.000Z</time>
      </trkpt>
      <trkpt lat="45.21675" lon="5.73464">
        <ele>916</ele>
        <time>2021-10-17T04:29:43.000Z</time>
      </trkpt>
      <trkpt lat="45.21675" lon="5.73464">
        <ele>916</ele>
        <time>2021-10-17T04:29:46.000Z</time>
      </trkpt>
      <trkpt lat="45.21675" lon="5.73464">
        <ele>916</ele>
        <time>2021-10-17T04:29:49.000Z</time>
      </trkpt>
      <trkpt lat="45.21675" lon="5.73465">
        <ele>915.79998779297</ele>
        <time>2021-10-17T04:29:52.000Z</time>
      </trkpt>
      <trkpt lat="45.21675" lon="5.73467">
        <ele>915.79998779297</ele>
        <time>2021-10-17T04:29:55.000Z</time>
      </trkpt>
      <trkpt lat="45.21676" lon="5.73469">
        <ele>915.79998779297</ele>
        <time>2021-10-17T04:30:00.000Z</time>
      </trkpt>
      <trkpt lat="45.21676" lon="5.7347">
        <ele>915.79998779297</ele>
        <time>2021-10-17T04:30:06.000Z</time>
      </trkpt>
      <trkpt lat="45.21676" lon="5.7347">
        <ele>916</ele>
        <time>2021-10-17T04:30:14.000Z</time>
      </trkpt>
      <trkpt lat="45.21676" lon="5.7347">
        <ele>916</ele>
        <time>2021-10-17T04:30:18.000Z</time>
      </trkpt>
      <trkpt lat="45.21676" lon="5.7347">
        <ele>916</ele>
        <time>2021-10-17T04:30:20.000Z</time>
      </trkpt>
      <trkpt lat="45.21676" lon="5.7347">
        <ele>916</ele>
        <time>2021-10-17T04:30:22.000Z</time>
      </trkpt>
      <trkpt lat="45.21676" lon="5.7347">
        <ele>916</ele>
        <time>2021-10-17T04:30:24.000Z</time>
      </trkpt>
      <trkpt lat="45.21676" lon="5.7347">
        <ele>916.20001220703</ele>
        <time>2021-10-17T04:30:27.000Z</time>
      </trkpt>
      <trkpt lat="45.21676" lon="5.7347">
        <ele>916.20001220703</ele>
        <time>2021-10-17T04:30:28.000Z</time>
      </trkpt>
      <trkpt lat="45.21676" lon="5.7347">
        <ele>916.20001220703</ele>
        <time>2021-10-17T04:30:39.000Z</time>
      </trkpt>
      <trkpt lat="45.21676" lon="5.7347">
        <ele>916</ele>
        <time>2021-10-17T04:30:53.000Z</time>
      </trkpt>
      <trkpt lat="45.21676" lon="5.7347">
        <ele>916</ele>
        <time>2021-10-17T04:30:56.000Z</time>
      </trkpt>
      <trkpt lat="45.21676" lon="5.7347">
        <ele>916</ele>
        <time>2021-10-17T04:31:00.000Z</time>
      </trkpt>
      <trkpt lat="45.21676" lon="5.7347">
        <ele>916</ele>
        <time>2021-10-17T04:31:17.000Z</time>
      </trkpt>
      <trkpt lat="45.21676" lon="5.7347">
        <ele>916</ele>
        <time>2021-10-17T04:31:42.000Z</time>
      </trkpt>
      <trkpt lat="45.21676" lon="5.7347">
        <ele>916</ele>
        <time>2021-10-17T04:31:45.000Z</time>
      </trkpt>
      <trkpt lat="45.21676" lon="5.7347">
        <ele>916</ele>
        <time>2021-10-17T04:31:53.000Z</time>
      </trkpt>
      <trkpt lat="45.21676" lon="5.7347">
        <ele>916</ele>
        <time>2021-10-17T04:32:02.000Z</time>
      </trkpt>
      <trkpt lat="45.21676" lon="5.73471">
        <ele>916</ele>
        <time>2021-10-17T04:32:07.000Z</time>
      </trkpt>
      <trkpt lat="45.21675" lon="5.73464">
        <ele>916</ele>
        <time>2021-10-17T04:32:10.000Z</time>
      </trkpt>
      <trkpt lat="45.21675" lon="5.73439">
        <ele>916.40002441406</ele>
        <time>2021-10-17T04:32:21.000Z</time>
      </trkpt>
      <trkpt lat="45.21675" lon="5.73435">
        <ele>917</ele>
        <time>2021-10-17T04:32:23.000Z</time>
      </trkpt>
      <trkpt lat="45.21676" lon="5.7343">
        <ele>918</ele>
        <time>2021-10-17T04:32:26.000Z</time>
      </trkpt>
      <trkpt lat="45.21676" lon="5.73428">
        <ele>918.20001220703</ele>
        <time>2021-10-17T04:32:27.000Z</time>
      </trkpt>
      <trkpt lat="45.21676" lon="5.73426">
        <ele>919.20001220703</ele>
        <time>2021-10-17T04:32:29.000Z</time>
      </trkpt>
      <trkpt lat="45.21676" lon="5.73424">
        <ele>919.40002441406</ele>
        <time>2021-10-17T04:32:30.000Z</time>
      </trkpt>
      <trkpt lat="45.21677" lon="5.73422">
        <ele>919.79998779297</ele>
        <time>2021-10-17T04:32:32.000Z</time>
      </trkpt>
      <trkpt lat="45.21676" lon="5.73419">
        <ele>920.40002441406</ele>
        <time>2021-10-17T04:32:34.000Z</time>
      </trkpt>
      <trkpt lat="45.21676" lon="5.73418">
        <ele>920.59997558594</ele>
        <time>2021-10-17T04:32:35.000Z</time>
      </trkpt>
      <trkpt lat="45.21676" lon="5.73415">
        <ele>921.20001220703</ele>
        <time>2021-10-17T04:32:37.000Z</time>
      </trkpt>
      <trkpt lat="45.21675" lon="5.73413">
        <ele>921.40002441406</ele>
        <time>2021-10-17T04:32:38.000Z</time>
      </trkpt>
      <trkpt lat="45.21675" lon="5.73412">
        <ele>921.40002441406</ele>
        <time>2021-10-17T04:32:39.000Z</time>
      </trkpt>
      <trkpt lat="45.21674" lon="5.7341">
        <ele>921.79998779297</ele>
        <time>2021-10-17T04:32:40.000Z</time>
      </trkpt>
      <trkpt lat="45.21673" lon="5.73408">
        <ele>922.20001220703</ele>
        <time>2021-10-17T04:32:41.000Z</time>
      </trkpt>
      <trkpt lat="45.21673" lon="5.73403">
        <ele>922.79998779297</ele>
        <time>2021-10-17T04:32:44.000Z</time>
      </trkpt>
      <trkpt lat="45.21672" lon="5.73402">
        <ele>923.20001220703</ele>
        <time>2021-10-17T04:32:45.000Z</time>
      </trkpt>
      <trkpt lat="45.21671" lon="5.734">
        <ele>923.59997558594</ele>
        <time>2021-10-17T04:32:46.000Z</time>
      </trkpt>
      <trkpt lat="45.2167" lon="5.73399">
        <ele>923.79998779297</ele>
        <time>2021-10-17T04:32:47.000Z</time>
      </trkpt>
      <trkpt lat="45.2167" lon="5.73397">
        <ele>924</ele>
        <time>2021-10-17T04:32:48.000Z</time>
      </trkpt>
      <trkpt lat="45.2167" lon="5.73391">
        <ele>924.59997558594</ele>
        <time>2021-10-17T04:32:51.000Z</time>
      </trkpt>
      <trkpt lat="45.2167" lon="5.73389">
        <ele>925</ele>
        <time>2021-10-17T04:32:52.000Z</time>
      </trkpt>
      <trkpt lat="45.21668" lon="5.73384">
        <ele>925.79998779297</ele>
        <time>2021-10-17T04:32:55.000Z</time>
      </trkpt>
      <trkpt lat="45.21668" lon="5.73382">
        <ele>926.20001220703</ele>
        <time>2021-10-17T04:32:56.000Z</time>
      </trkpt>
      <trkpt lat="45.21668" lon="5.73381">
        <ele>926.40002441406</ele>
        <time>2021-10-17T04:32:57.000Z</time>
      </trkpt>
      <trkpt lat="45.21668" lon="5.73377">
        <ele>927.20001220703</ele>
        <time>2021-10-17T04:33:00.000Z</time>
      </trkpt>
      <trkpt lat="45.21667" lon="5.7337">
        <ele>928.40002441406</ele>
        <time>2021-10-17T04:33:04.000Z</time>
      </trkpt>
      <trkpt lat="45.21667" lon="5.73369">
        <ele>928.79998779297</ele>
        <time>2021-10-17T04:33:05.000Z</time>
      </trkpt>
      <trkpt lat="45.21666" lon="5.73368">
        <ele>929.20001220703</ele>
        <time>2021-10-17T04:33:07.000Z</time>
      </trkpt>
      <trkpt lat="45.21665" lon="5.73368">
        <ele>929.40002441406</ele>
        <time>2021-10-17T04:33:08.000Z</time>
      </trkpt>
      <trkpt lat="45.21664" lon="5.73367">
        <ele>929.59997558594</ele>
        <time>2021-10-17T04:33:09.000Z</time>
      </trkpt>
      <trkpt lat="45.21663" lon="5.73366">
        <ele>929.79998779297</ele>
        <time>2021-10-17T04:33:10.000Z</time>
      </trkpt>
      <trkpt lat="45.21661" lon="5.73364">
        <ele>930.59997558594</ele>
        <time>2021-10-17T04:33:13.000Z</time>
      </trkpt>
      <trkpt lat="45.21659" lon="5.7336">
        <ele>931.79998779297</ele>
        <time>2021-10-17T04:33:17.000Z</time>
      </trkpt>
      <trkpt lat="45.21659" lon="5.73358">
        <ele>931.79998779297</ele>
        <time>2021-10-17T04:33:18.000Z</time>
      </trkpt>
      <trkpt lat="45.21658" lon="5.73353">
        <ele>933.20001220703</ele>
        <time>2021-10-17T04:33:22.000Z</time>
      </trkpt>
      <trkpt lat="45.21657" lon="5.73349">
        <ele>933.79998779297</ele>
        <time>2021-10-17T04:33:25.000Z</time>
      </trkpt>
      <trkpt lat="45.21656" lon="5.73346">
        <ele>934.20001220703</ele>
        <time>2021-10-17T04:33:27.000Z</time>
      </trkpt>
      <trkpt lat="45.21652" lon="5.73346">
        <ele>935.40002441406</ele>
        <time>2021-10-17T04:33:30.000Z</time>
      </trkpt>
      <trkpt lat="45.21651" lon="5.73345">
        <ele>935.79998779297</ele>
        <time>2021-10-17T04:33:32.000Z</time>
      </trkpt>
      <trkpt lat="45.2165" lon="5.7334">
        <ele>936.59997558594</ele>
        <time>2021-10-17T04:33:35.000Z</time>
      </trkpt>
      <trkpt lat="45.21649" lon="5.73333">
        <ele>937.59997558594</ele>
        <time>2021-10-17T04:33:40.000Z</time>
      </trkpt>
      <trkpt lat="45.21649" lon="5.73331">
        <ele>938</ele>
        <time>2021-10-17T04:33:41.000Z</time>
      </trkpt>
      <trkpt lat="45.21649" lon="5.73329">
        <ele>938.59997558594</ele>
        <time>2021-10-17T04:33:43.000Z</time>
      </trkpt>
      <trkpt lat="45.21648" lon="5.73329">
        <ele>938.79998779297</ele>
        <time>2021-10-17T04:33:44.000Z</time>
      </trkpt>
      <trkpt lat="45.21647" lon="5.73328">
        <ele>939.20001220703</ele>
        <time>2021-10-17T04:33:46.000Z</time>
      </trkpt>
      <trkpt lat="45.21647" lon="5.73325">
        <ele>939.59997558594</ele>
        <time>2021-10-17T04:33:48.000Z</time>
      </trkpt>
      <trkpt lat="45.21646" lon="5.73321">
        <ele>940</ele>
        <time>2021-10-17T04:33:50.000Z</time>
      </trkpt>
      <trkpt lat="45.21646" lon="5.73317">
        <ele>940.59997558594</ele>
        <time>2021-10-17T04:33:53.000Z</time>
      </trkpt>
      <trkpt lat="45.21646" lon="5.73314">
        <ele>941.20001220703</ele>
        <time>2021-10-17T04:33:55.000Z</time>
      </trkpt>
      <trkpt lat="45.21645" lon="5.73305">
        <ele>942.20001220703</ele>
        <time>2021-10-17T04:34:00.000Z</time>
      </trkpt>
      <trkpt lat="45.21644" lon="5.73301">
        <ele>943</ele>
        <time>2021-10-17T04:34:03.000Z</time>
      </trkpt>
      <trkpt lat="45.21644" lon="5.733">
        <ele>943.20001220703</ele>
        <time>2021-10-17T04:34:04.000Z</time>
      </trkpt>
      <trkpt lat="45.21641" lon="5.73292">
        <ele>944.40002441406</ele>
        <time>2021-10-17T04:34:10.000Z</time>
      </trkpt>
      <trkpt lat="45.21639" lon="5.73288">
        <ele>944.59997558594</ele>
        <time>2021-10-17T04:34:12.000Z</time>
      </trkpt>
      <trkpt lat="45.21637" lon="5.73283">
        <ele>945.40002441406</ele>
        <time>2021-10-17T04:34:16.000Z</time>
      </trkpt>
      <trkpt lat="45.21636" lon="5.73278">
        <ele>945.79998779297</ele>
        <time>2021-10-17T04:34:19.000Z</time>
      </trkpt>
      <trkpt lat="45.21636" lon="5.73276">
        <ele>946</ele>
        <time>2021-10-17T04:34:20.000Z</time>
      </trkpt>
      <trkpt lat="45.21634" lon="5.73274">
        <ele>946.40002441406</ele>
        <time>2021-10-17T04:34:22.000Z</time>
      </trkpt>
      <trkpt lat="45.21628" lon="5.73264">
        <ele>947.59997558594</ele>
        <time>2021-10-17T04:34:30.000Z</time>
      </trkpt>
      <trkpt lat="45.21626" lon="5.73262">
        <ele>948</ele>
        <time>2021-10-17T04:34:32.000Z</time>
      </trkpt>
      <trkpt lat="45.21624" lon="5.73257">
        <ele>948.79998779297</ele>
        <time>2021-10-17T04:34:36.000Z</time>
      </trkpt>
      <trkpt lat="45.21624" lon="5.73256">
        <ele>949</ele>
        <time>2021-10-17T04:34:37.000Z</time>
      </trkpt>
      <trkpt lat="45.21621" lon="5.73251">
        <ele>949.59997558594</ele>
        <time>2021-10-17T04:34:41.000Z</time>
      </trkpt>
      <trkpt lat="45.2162" lon="5.73248">
        <ele>950.20001220703</ele>
        <time>2021-10-17T04:34:43.000Z</time>
      </trkpt>
      <trkpt lat="45.21617" lon="5.73243">
        <ele>951.20001220703</ele>
        <time>2021-10-17T04:34:48.000Z</time>
      </trkpt>
      <trkpt lat="45.21615" lon="5.73241">
        <ele>952.20001220703</ele>
        <time>2021-10-17T04:34:51.000Z</time>
      </trkpt>
      <trkpt lat="45.21615" lon="5.73241">
        <ele>952.40002441406</ele>
        <time>2021-10-17T04:34:52.000Z</time>
      </trkpt>
      <trkpt lat="45.21612" lon="5.73236">
        <ele>953.20001220703</ele>
        <time>2021-10-17T04:34:56.000Z</time>
      </trkpt>
      <trkpt lat="45.21612" lon="5.73235">
        <ele>953.59997558594</ele>
        <time>2021-10-17T04:34:57.000Z</time>
      </trkpt>
      <trkpt lat="45.2161" lon="5.73232">
        <ele>954.79998779297</ele>
        <time>2021-10-17T04:35:01.000Z</time>
      </trkpt>
      <trkpt lat="45.21608" lon="5.73229">
        <ele>955.59997558594</ele>
        <time>2021-10-17T04:35:04.000Z</time>
      </trkpt>
      <trkpt lat="45.21607" lon="5.73228">
        <ele>955.59997558594</ele>
        <time>2021-10-17T04:35:06.000Z</time>
      </trkpt>
      <trkpt lat="45.21607" lon="5.73227">
        <ele>956.40002441406</ele>
        <time>2021-10-17T04:35:07.000Z</time>
      </trkpt>
      <trkpt lat="45.21605" lon="5.73224">
        <ele>957.40002441406</ele>
        <time>2021-10-17T04:35:10.000Z</time>
      </trkpt>
      <trkpt lat="45.21604" lon="5.73223">
        <ele>957.59997558594</ele>
        <time>2021-10-17T04:35:11.000Z</time>
      </trkpt>
      <trkpt lat="45.21602" lon="5.73221">
        <ele>958.20001220703</ele>
        <time>2021-10-17T04:35:15.000Z</time>
      </trkpt>
      <trkpt lat="45.21599" lon="5.73219">
        <ele>958.40002441406</ele>
        <time>2021-10-17T04:35:17.000Z</time>
      </trkpt>
      <trkpt lat="45.21599" lon="5.73218">
        <ele>958.59997558594</ele>
        <time>2021-10-17T04:35:18.000Z</time>
      </trkpt>
      <trkpt lat="45.21598" lon="5.73218">
        <ele>958.59997558594</ele>
        <time>2021-10-17T04:35:19.000Z</time>
      </trkpt>
      <trkpt lat="45.21595" lon="5.73216">
        <ele>959.20001220703</ele>
        <time>2021-10-17T04:35:22.000Z</time>
      </trkpt>
      <trkpt lat="45.21595" lon="5.73214">
        <ele>959.40002441406</ele>
        <time>2021-10-17T04:35:23.000Z</time>
      </trkpt>
      <trkpt lat="45.21593" lon="5.73211">
        <ele>959.59997558594</ele>
        <time>2021-10-17T04:35:26.000Z</time>
      </trkpt>
      <trkpt lat="45.21592" lon="5.73209">
        <ele>959.79998779297</ele>
        <time>2021-10-17T04:35:27.000Z</time>
      </trkpt>
      <trkpt lat="45.2159" lon="5.73208">
        <ele>960.40002441406</ele>
        <time>2021-10-17T04:35:29.000Z</time>
      </trkpt>
      <trkpt lat="45.21586" lon="5.73204">
        <ele>960.79998779297</ele>
        <time>2021-10-17T04:35:33.000Z</time>
      </trkpt>
      <trkpt lat="45.21584" lon="5.732">
        <ele>961.20001220703</ele>
        <time>2021-10-17T04:35:35.000Z</time>
      </trkpt>
      <trkpt lat="45.21583" lon="5.73199">
        <ele>961.40002441406</ele>
        <time>2021-10-17T04:35:36.000Z</time>
      </trkpt>
      <trkpt lat="45.21578" lon="5.73196">
        <ele>962.20001220703</ele>
        <time>2021-10-17T04:35:40.000Z</time>
      </trkpt>
      <trkpt lat="45.21576" lon="5.73193">
        <ele>962.59997558594</ele>
        <time>2021-10-17T04:35:43.000Z</time>
      </trkpt>
      <trkpt lat="45.21572" lon="5.73189">
        <ele>963.40002441406</ele>
        <time>2021-10-17T04:35:47.000Z</time>
      </trkpt>
      <trkpt lat="45.21571" lon="5.73187">
        <ele>964</ele>
        <time>2021-10-17T04:35:49.000Z</time>
      </trkpt>
      <trkpt lat="45.2157" lon="5.73185">
        <ele>964.59997558594</ele>
        <time>2021-10-17T04:35:51.000Z</time>
      </trkpt>
      <trkpt lat="45.2157" lon="5.73184">
        <ele>964.79998779297</ele>
        <time>2021-10-17T04:35:52.000Z</time>
      </trkpt>
      <trkpt lat="45.21569" lon="5.73177">
        <ele>965.79998779297</ele>
        <time>2021-10-17T04:35:56.000Z</time>
      </trkpt>
      <trkpt lat="45.21569" lon="5.73174">
        <ele>966.79998779297</ele>
        <time>2021-10-17T04:35:59.000Z</time>
      </trkpt>
      <trkpt lat="45.21568" lon="5.73173">
        <ele>967</ele>
        <time>2021-10-17T04:36:00.000Z</time>
      </trkpt>
      <trkpt lat="45.21567" lon="5.73166">
        <ele>968.40002441406</ele>
        <time>2021-10-17T04:36:05.000Z</time>
      </trkpt>
      <trkpt lat="45.21568" lon="5.73162">
        <ele>969.20001220703</ele>
        <time>2021-10-17T04:36:08.000Z</time>
      </trkpt>
      <trkpt lat="45.21568" lon="5.73161">
        <ele>969.59997558594</ele>
        <time>2021-10-17T04:36:09.000Z</time>
      </trkpt>
      <trkpt lat="45.21571" lon="5.73157">
        <ele>970.20001220703</ele>
        <time>2021-10-17T04:36:12.000Z</time>
      </trkpt>
      <trkpt lat="45.21572" lon="5.73157">
        <ele>970.59997558594</ele>
        <time>2021-10-17T04:36:13.000Z</time>
      </trkpt>
      <trkpt lat="45.21572" lon="5.73156">
        <ele>971</ele>
        <time>2021-10-17T04:36:14.000Z</time>
      </trkpt>
      <trkpt lat="45.21573" lon="5.73156">
        <ele>971.79998779297</ele>
        <time>2021-10-17T04:36:16.000Z</time>
      </trkpt>
      <trkpt lat="45.21573" lon="5.73155">
        <ele>972.20001220703</ele>
        <time>2021-10-17T04:36:18.000Z</time>
      </trkpt>
      <trkpt lat="45.21573" lon="5.73154">
        <ele>972.59997558594</ele>
        <time>2021-10-17T04:36:19.000Z</time>
      </trkpt>
      <trkpt lat="45.21572" lon="5.73153">
        <ele>973</ele>
        <time>2021-10-17T04:36:20.000Z</time>
      </trkpt>
      <trkpt lat="45.21572" lon="5.73152">
        <ele>973.40002441406</ele>
        <time>2021-10-17T04:36:21.000Z</time>
      </trkpt>
      <trkpt lat="45.21574" lon="5.73148">
        <ele>974.20001220703</ele>
        <time>2021-10-17T04:36:26.000Z</time>
      </trkpt>
      <trkpt lat="45.21574" lon="5.73145">
        <ele>975.20001220703</ele>
        <time>2021-10-17T04:36:30.000Z</time>
      </trkpt>
      <trkpt lat="45.21576" lon="5.73142">
        <ele>976.59997558594</ele>
        <time>2021-10-17T04:36:33.000Z</time>
      </trkpt>
      <trkpt lat="45.21577" lon="5.7314">
        <ele>977</ele>
        <time>2021-10-17T04:36:35.000Z</time>
      </trkpt>
      <trkpt lat="45.21578" lon="5.73139">
        <ele>977.59997558594</ele>
        <time>2021-10-17T04:36:37.000Z</time>
      </trkpt>
      <trkpt lat="45.2158" lon="5.73138">
        <ele>978.40002441406</ele>
        <time>2021-10-17T04:36:39.000Z</time>
      </trkpt>
      <trkpt lat="45.2158" lon="5.73138">
        <ele>978.59997558594</ele>
        <time>2021-10-17T04:36:40.000Z</time>
      </trkpt>
      <trkpt lat="45.2158" lon="5.73136">
        <ele>979.79998779297</ele>
        <time>2021-10-17T04:36:44.000Z</time>
      </trkpt>
      <trkpt lat="45.2158" lon="5.73134">
        <ele>980.40002441406</ele>
        <time>2021-10-17T04:36:46.000Z</time>
      </trkpt>
      <trkpt lat="45.2158" lon="5.73133">
        <ele>980.79998779297</ele>
        <time>2021-10-17T04:36:47.000Z</time>
      </trkpt>
      <trkpt lat="45.2158" lon="5.73128">
        <ele>982</ele>
        <time>2021-10-17T04:36:52.000Z</time>
      </trkpt>
      <trkpt lat="45.21581" lon="5.73126">
        <ele>982.20001220703</ele>
        <time>2021-10-17T04:36:54.000Z</time>
      </trkpt>
      <trkpt lat="45.21581" lon="5.73124">
        <ele>983.20001220703</ele>
        <time>2021-10-17T04:36:56.000Z</time>
      </trkpt>
      <trkpt lat="45.21584" lon="5.73122">
        <ele>984.20001220703</ele>
        <time>2021-10-17T04:36:59.000Z</time>
      </trkpt>
      <trkpt lat="45.21586" lon="5.73121">
        <ele>984.59997558594</ele>
        <time>2021-10-17T04:37:01.000Z</time>
      </trkpt>
      <trkpt lat="45.2159" lon="5.73116">
        <ele>985.40002441406</ele>
        <time>2021-10-17T04:37:05.000Z</time>
      </trkpt>
      <trkpt lat="45.21592" lon="5.73115">
        <ele>986</ele>
        <time>2021-10-17T04:37:07.000Z</time>
      </trkpt>
      <trkpt lat="45.21595" lon="5.73116">
        <ele>986.40002441406</ele>
        <time>2021-10-17T04:37:10.000Z</time>
      </trkpt>
      <trkpt lat="45.21596" lon="5.73117">
        <ele>986.40002441406</ele>
        <time>2021-10-17T04:37:11.000Z</time>
      </trkpt>
      <trkpt lat="45.21599" lon="5.7312">
        <ele>986.79998779297</ele>
        <time>2021-10-17T04:37:14.000Z</time>
      </trkpt>
      <trkpt lat="45.21602" lon="5.73123">
        <ele>987.59997558594</ele>
        <time>2021-10-17T04:37:17.000Z</time>
      </trkpt>
      <trkpt lat="45.21606" lon="5.73123">
        <ele>988</ele>
        <time>2021-10-17T04:37:21.000Z</time>
      </trkpt>
      <trkpt lat="45.21608" lon="5.73123">
        <ele>988.79998779297</ele>
        <time>2021-10-17T04:37:23.000Z</time>
      </trkpt>
      <trkpt lat="45.21615" lon="5.73126">
        <ele>990</ele>
        <time>2021-10-17T04:37:29.000Z</time>
      </trkpt>
      <trkpt lat="45.21616" lon="5.73126">
        <ele>990</ele>
        <time>2021-10-17T04:37:30.000Z</time>
      </trkpt>
      <trkpt lat="45.21621" lon="5.73129">
        <ele>991.20001220703</ele>
        <time>2021-10-17T04:37:34.000Z</time>
      </trkpt>
      <trkpt lat="45.21625" lon="5.73133">
        <ele>992.20001220703</ele>
        <time>2021-10-17T04:37:38.000Z</time>
      </trkpt>
      <trkpt lat="45.21629" lon="5.73137">
        <ele>993.20001220703</ele>
        <time>2021-10-17T04:37:42.000Z</time>
      </trkpt>
      <trkpt lat="45.21633" lon="5.73137">
        <ele>993.79998779297</ele>
        <time>2021-10-17T04:37:45.000Z</time>
      </trkpt>
      <trkpt lat="45.21635" lon="5.73137">
        <ele>994.20001220703</ele>
        <time>2021-10-17T04:37:47.000Z</time>
      </trkpt>
      <trkpt lat="45.21636" lon="5.73137">
        <ele>994.79998779297</ele>
        <time>2021-10-17T04:37:48.000Z</time>
      </trkpt>
      <trkpt lat="45.21637" lon="5.73135">
        <ele>995.40002441406</ele>
        <time>2021-10-17T04:37:50.000Z</time>
      </trkpt>
      <trkpt lat="45.21639" lon="5.73134">
        <ele>996</ele>
        <time>2021-10-17T04:37:52.000Z</time>
      </trkpt>
      <trkpt lat="45.2164" lon="5.73133">
        <ele>996.40002441406</ele>
        <time>2021-10-17T04:37:54.000Z</time>
      </trkpt>
      <trkpt lat="45.21641" lon="5.73133">
        <ele>996.59997558594</ele>
        <time>2021-10-17T04:37:55.000Z</time>
      </trkpt>
      <trkpt lat="45.21643" lon="5.73131">
        <ele>997.40002441406</ele>
        <time>2021-10-17T04:37:58.000Z</time>
      </trkpt>
      <trkpt lat="45.21647" lon="5.73131">
        <ele>998.59997558594</ele>
        <time>2021-10-17T04:38:03.000Z</time>
      </trkpt>
      <trkpt lat="45.21649" lon="5.73131">
        <ele>999</ele>
        <time>2021-10-17T04:38:05.000Z</time>
      </trkpt>
      <trkpt lat="45.21653" lon="5.73132">
        <ele>999.79998779297</ele>
        <time>2021-10-17T04:38:09.000Z</time>
      </trkpt>
      <trkpt lat="45.21654" lon="5.73133">
        <ele>1000</ele>
        <time>2021-10-17T04:38:10.000Z</time>
      </trkpt>
      <trkpt lat="45.21656" lon="5.73132">
        <ele>1001</ele>
        <time>2021-10-17T04:38:13.000Z</time>
      </trkpt>
      <trkpt lat="45.21657" lon="5.73132">
        <ele>1001.200012207</ele>
        <time>2021-10-17T04:38:14.000Z</time>
      </trkpt>
      <trkpt lat="45.21658" lon="5.73132">
        <ele>1001.4000244141</ele>
        <time>2021-10-17T04:38:16.000Z</time>
      </trkpt>
      <trkpt lat="45.2166" lon="5.73132">
        <ele>1002.4000244141</ele>
        <time>2021-10-17T04:38:19.000Z</time>
      </trkpt>
      <trkpt lat="45.21661" lon="5.73133">
        <ele>1003</ele>
        <time>2021-10-17T04:38:20.000Z</time>
      </trkpt>
      <trkpt lat="45.21664" lon="5.73135">
        <ele>1003.5999755859</ele>
        <time>2021-10-17T04:38:23.000Z</time>
      </trkpt>
      <trkpt lat="45.21666" lon="5.73135">
        <ele>1004</ele>
        <time>2021-10-17T04:38:25.000Z</time>
      </trkpt>
      <trkpt lat="45.21667" lon="5.73135">
        <ele>1004.200012207</ele>
        <time>2021-10-17T04:38:26.000Z</time>
      </trkpt>
      <trkpt lat="45.21667" lon="5.73136">
        <ele>1004.4000244141</ele>
        <time>2021-10-17T04:38:27.000Z</time>
      </trkpt>
      <trkpt lat="45.21668" lon="5.73136">
        <ele>1004.5999755859</ele>
        <time>2021-10-17T04:38:28.000Z</time>
      </trkpt>
      <trkpt lat="45.2167" lon="5.73135">
        <ele>1004.799987793</ele>
        <time>2021-10-17T04:38:30.000Z</time>
      </trkpt>
      <trkpt lat="45.21671" lon="5.73135">
        <ele>1005</ele>
        <time>2021-10-17T04:38:31.000Z</time>
      </trkpt>
      <trkpt lat="45.21673" lon="5.73136">
        <ele>1005.5999755859</ele>
        <time>2021-10-17T04:38:33.000Z</time>
      </trkpt>
      <trkpt lat="45.21675" lon="5.7314">
        <ele>1007</ele>
        <time>2021-10-17T04:38:36.000Z</time>
      </trkpt>
      <trkpt lat="45.21675" lon="5.73142">
        <ele>1007.200012207</ele>
        <time>2021-10-17T04:38:37.000Z</time>
      </trkpt>
      <trkpt lat="45.21676" lon="5.73147">
        <ele>1008.200012207</ele>
        <time>2021-10-17T04:38:41.000Z</time>
      </trkpt>
      <trkpt lat="45.21676" lon="5.7315">
        <ele>1008.799987793</ele>
        <time>2021-10-17T04:38:44.000Z</time>
      </trkpt>
      <trkpt lat="45.21677" lon="5.73152">
        <ele>1009.4000244141</ele>
        <time>2021-10-17T04:38:46.000Z</time>
      </trkpt>
      <trkpt lat="45.21678" lon="5.73155">
        <ele>1010.200012207</ele>
        <time>2021-10-17T04:38:49.000Z</time>
      </trkpt>
      <trkpt lat="45.21679" lon="5.73157">
        <ele>1010.799987793</ele>
        <time>2021-10-17T04:38:51.000Z</time>
      </trkpt>
      <trkpt lat="45.21681" lon="5.73161">
        <ele>1011.799987793</ele>
        <time>2021-10-17T04:38:55.000Z</time>
      </trkpt>
      <trkpt lat="45.21683" lon="5.73163">
        <ele>1012.4000244141</ele>
        <time>2021-10-17T04:38:58.000Z</time>
      </trkpt>
      <trkpt lat="45.21685" lon="5.73165">
        <ele>1013</ele>
        <time>2021-10-17T04:39:01.000Z</time>
      </trkpt>
      <trkpt lat="45.21687" lon="5.73168">
        <ele>1013.5999755859</ele>
        <time>2021-10-17T04:39:04.000Z</time>
      </trkpt>
      <trkpt lat="45.21688" lon="5.73169">
        <ele>1014.4000244141</ele>
        <time>2021-10-17T04:39:06.000Z</time>
      </trkpt>
      <trkpt lat="45.21689" lon="5.7317">
        <ele>1014.5999755859</ele>
        <time>2021-10-17T04:39:07.000Z</time>
      </trkpt>
      <trkpt lat="45.21691" lon="5.73174">
        <ele>1015.4000244141</ele>
        <time>2021-10-17T04:39:10.000Z</time>
      </trkpt>
      <trkpt lat="45.21692" lon="5.73175">
        <ele>1015.4000244141</ele>
        <time>2021-10-17T04:39:11.000Z</time>
      </trkpt>
      <trkpt lat="45.21694" lon="5.73179">
        <ele>1016.5999755859</ele>
        <time>2021-10-17T04:39:16.000Z</time>
      </trkpt>
      <trkpt lat="45.21694" lon="5.7318">
        <ele>1016.799987793</ele>
        <time>2021-10-17T04:39:17.000Z</time>
      </trkpt>
      <trkpt lat="45.21697" lon="5.73184">
        <ele>1017.200012207</ele>
        <time>2021-10-17T04:39:21.000Z</time>
      </trkpt>
      <trkpt lat="45.21699" lon="5.73187">
        <ele>1017.4000244141</ele>
        <time>2021-10-17T04:39:23.000Z</time>
      </trkpt>
      <trkpt lat="45.21703" lon="5.73192">
        <ele>1017.5999755859</ele>
        <time>2021-10-17T04:39:27.000Z</time>
      </trkpt>
      <trkpt lat="45.21703" lon="5.73194">
        <ele>1017.799987793</ele>
        <time>2021-10-17T04:39:28.000Z</time>
      </trkpt>
      <trkpt lat="45.21704" lon="5.73196">
        <ele>1017.799987793</ele>
        <time>2021-10-17T04:39:29.000Z</time>
      </trkpt>
      <trkpt lat="45.21708" lon="5.73206">
        <ele>1018.4000244141</ele>
        <time>2021-10-17T04:39:36.000Z</time>
      </trkpt>
      <trkpt lat="45.21716" lon="5.73214">
        <ele>1018.799987793</ele>
        <time>2021-10-17T04:39:43.000Z</time>
      </trkpt>
      <trkpt lat="45.21717" lon="5.73214">
        <ele>1019</ele>
        <time>2021-10-17T04:39:44.000Z</time>
      </trkpt>
      <trkpt lat="45.2172" lon="5.73218">
        <ele>1019.4000244141</ele>
        <time>2021-10-17T04:39:47.000Z</time>
      </trkpt>
      <trkpt lat="45.21721" lon="5.73219">
        <ele>1019.799987793</ele>
        <time>2021-10-17T04:39:48.000Z</time>
      </trkpt>
      <trkpt lat="45.21721" lon="5.73219">
        <ele>1020</ele>
        <time>2021-10-17T04:39:49.000Z</time>
      </trkpt>
      <trkpt lat="45.21722" lon="5.73219">
        <ele>1020.200012207</ele>
        <time>2021-10-17T04:39:50.000Z</time>
      </trkpt>
      <trkpt lat="45.21725" lon="5.73217">
        <ele>1021</ele>
        <time>2021-10-17T04:39:54.000Z</time>
      </trkpt>
      <trkpt lat="45.21725" lon="5.73217">
        <ele>1021.4000244141</ele>
        <time>2021-10-17T04:39:55.000Z</time>
      </trkpt>
      <trkpt lat="45.21726" lon="5.73215">
        <ele>1022</ele>
        <time>2021-10-17T04:39:57.000Z</time>
      </trkpt>
      <trkpt lat="45.21726" lon="5.73214">
        <ele>1022.200012207</ele>
        <time>2021-10-17T04:39:58.000Z</time>
      </trkpt>
      <trkpt lat="45.21727" lon="5.73213">
        <ele>1022.4000244141</ele>
        <time>2021-10-17T04:39:59.000Z</time>
      </trkpt>
      <trkpt lat="45.21728" lon="5.73211">
        <ele>1022.799987793</ele>
        <time>2021-10-17T04:40:02.000Z</time>
      </trkpt>
      <trkpt lat="45.21729" lon="5.7321">
        <ele>1023.200012207</ele>
        <time>2021-10-17T04:40:03.000Z</time>
      </trkpt>
      <trkpt lat="45.2173" lon="5.7321">
        <ele>1023.5999755859</ele>
        <time>2021-10-17T04:40:04.000Z</time>
      </trkpt>
      <trkpt lat="45.21731" lon="5.73204">
        <ele>1024.1999511719</ele>
        <time>2021-10-17T04:40:08.000Z</time>
      </trkpt>
      <trkpt lat="45.21733" lon="5.73203">
        <ele>1024.4000244141</ele>
        <time>2021-10-17T04:40:09.000Z</time>
      </trkpt>
      <trkpt lat="45.21735" lon="5.73202">
        <ele>1024.4000244141</ele>
        <time>2021-10-17T04:40:10.000Z</time>
      </trkpt>
      <trkpt lat="45.2174" lon="5.73202">
        <ele>1024.4000244141</ele>
        <time>2021-10-17T04:40:14.000Z</time>
      </trkpt>
      <trkpt lat="45.21741" lon="5.73201">
        <ele>1024.5999755859</ele>
        <time>2021-10-17T04:40:15.000Z</time>
      </trkpt>
      <trkpt lat="45.21747" lon="5.73199">
        <ele>1023.799987793</ele>
        <time>2021-10-17T04:40:23.000Z</time>
      </trkpt>
      <trkpt lat="45.21748" lon="5.73199">
        <ele>1023.5999755859</ele>
        <time>2021-10-17T04:40:24.000Z</time>
      </trkpt>
      <trkpt lat="45.21756" lon="5.73205">
        <ele>1023.4000244141</ele>
        <time>2021-10-17T04:40:28.000Z</time>
      </trkpt>
      <trkpt lat="45.21757" lon="5.73206">
        <ele>1023.4000244141</ele>
        <time>2021-10-17T04:40:29.000Z</time>
      </trkpt>
      <trkpt lat="45.21758" lon="5.73207">
        <ele>1023.4000244141</ele>
        <time>2021-10-17T04:40:30.000Z</time>
      </trkpt>
      <trkpt lat="45.21758" lon="5.73211">
        <ele>1023.799987793</ele>
        <time>2021-10-17T04:40:33.000Z</time>
      </trkpt>
      <trkpt lat="45.21759" lon="5.73212">
        <ele>1024</ele>
        <time>2021-10-17T04:40:34.000Z</time>
      </trkpt>
      <trkpt lat="45.2176" lon="5.73215">
        <ele>1024.4000244141</ele>
        <time>2021-10-17T04:40:36.000Z</time>
      </trkpt>
      <trkpt lat="45.21761" lon="5.73217">
        <ele>1025</ele>
        <time>2021-10-17T04:40:38.000Z</time>
      </trkpt>
      <trkpt lat="45.21761" lon="5.73218">
        <ele>1025.4000244141</ele>
        <time>2021-10-17T04:40:39.000Z</time>
      </trkpt>
      <trkpt lat="45.21763" lon="5.7322">
        <ele>1026.5999755859</ele>
        <time>2021-10-17T04:40:43.000Z</time>
      </trkpt>
      <trkpt lat="45.21764" lon="5.73222">
        <ele>1026.8000488281</ele>
        <time>2021-10-17T04:40:45.000Z</time>
      </trkpt>
      <trkpt lat="45.21765" lon="5.73222">
        <ele>1026.8000488281</ele>
        <time>2021-10-17T04:40:47.000Z</time>
      </trkpt>
      <trkpt lat="45.21766" lon="5.73224">
        <ele>1027</ele>
        <time>2021-10-17T04:40:49.000Z</time>
      </trkpt>
      <trkpt lat="45.21768" lon="5.73228">
        <ele>1027.1999511719</ele>
        <time>2021-10-17T04:40:53.000Z</time>
      </trkpt>
      <trkpt lat="45.2177" lon="5.73229">
        <ele>1027.1999511719</ele>
        <time>2021-10-17T04:40:55.000Z</time>
      </trkpt>
      <trkpt lat="45.21775" lon="5.73232">
        <ele>1027</ele>
        <time>2021-10-17T04:41:01.000Z</time>
      </trkpt>
      <trkpt lat="45.21776" lon="5.73234">
        <ele>1027</ele>
        <time>2021-10-17T04:41:02.000Z</time>
      </trkpt>
      <trkpt lat="45.21778" lon="5.73236">
        <ele>1026.8000488281</ele>
        <time>2021-10-17T04:41:04.000Z</time>
      </trkpt>
      <trkpt lat="45.21778" lon="5.73239">
        <ele>1027.1999511719</ele>
        <time>2021-10-17T04:41:06.000Z</time>
      </trkpt>
      <trkpt lat="45.21778" lon="5.7324">
        <ele>1027.5999755859</ele>
        <time>2021-10-17T04:41:07.000Z</time>
      </trkpt>
      <trkpt lat="45.21778" lon="5.73242">
        <ele>1028</ele>
        <time>2021-10-17T04:41:09.000Z</time>
      </trkpt>
      <trkpt lat="45.21782" lon="5.73247">
        <ele>1028.5999755859</ele>
        <time>2021-10-17T04:41:13.000Z</time>
      </trkpt>
      <trkpt lat="45.21782" lon="5.73248">
        <ele>1028.8000488281</ele>
        <time>2021-10-17T04:41:14.000Z</time>
      </trkpt>
      <trkpt lat="45.21784" lon="5.73252">
        <ele>1029.8000488281</ele>
        <time>2021-10-17T04:41:18.000Z</time>
      </trkpt>
      <trkpt lat="45.21784" lon="5.73254">
        <ele>1030</ele>
        <time>2021-10-17T04:41:19.000Z</time>
      </trkpt>
      <trkpt lat="45.21781" lon="5.73263">
        <ele>1030.8000488281</ele>
        <time>2021-10-17T04:41:24.000Z</time>
      </trkpt>
      <trkpt lat="45.21779" lon="5.73265">
        <ele>1031.5999755859</ele>
        <time>2021-10-17T04:41:26.000Z</time>
      </trkpt>
      <trkpt lat="45.21779" lon="5.73266">
        <ele>1031.8000488281</ele>
        <time>2021-10-17T04:41:27.000Z</time>
      </trkpt>
      <trkpt lat="45.2178" lon="5.73267">
        <ele>1031.8000488281</ele>
        <time>2021-10-17T04:41:28.000Z</time>
      </trkpt>
      <trkpt lat="45.21782" lon="5.73272">
        <ele>1032.1999511719</ele>
        <time>2021-10-17T04:41:31.000Z</time>
      </trkpt>
      <trkpt lat="45.21783" lon="5.73273">
        <ele>1032.1999511719</ele>
        <time>2021-10-17T04:41:32.000Z</time>
      </trkpt>
      <trkpt lat="45.21784" lon="5.73273">
        <ele>1032.1999511719</ele>
        <time>2021-10-17T04:41:34.000Z</time>
      </trkpt>
      <trkpt lat="45.21786" lon="5.73273">
        <ele>1032.8000488281</ele>
        <time>2021-10-17T04:41:36.000Z</time>
      </trkpt>
      <trkpt lat="45.21787" lon="5.73274">
        <ele>1033.1999511719</ele>
        <time>2021-10-17T04:41:37.000Z</time>
      </trkpt>
      <trkpt lat="45.2179" lon="5.73278">
        <ele>1034.1999511719</ele>
        <time>2021-10-17T04:41:42.000Z</time>
      </trkpt>
      <trkpt lat="45.21791" lon="5.73279">
        <ele>1034.1999511719</ele>
        <time>2021-10-17T04:41:43.000Z</time>
      </trkpt>
      <trkpt lat="45.21792" lon="5.7328">
        <ele>1034.4000244141</ele>
        <time>2021-10-17T04:41:44.000Z</time>
      </trkpt>
      <trkpt lat="45.21795" lon="5.73282">
        <ele>1035</ele>
        <time>2021-10-17T04:41:47.000Z</time>
      </trkpt>
      <trkpt lat="45.21795" lon="5.73283">
        <ele>1035.1999511719</ele>
        <time>2021-10-17T04:41:48.000Z</time>
      </trkpt>
      <trkpt lat="45.21801" lon="5.73292">
        <ele>1036.4000244141</ele>
        <time>2021-10-17T04:41:55.000Z</time>
      </trkpt>
      <trkpt lat="45.21803" lon="5.73293">
        <ele>1036.4000244141</ele>
        <time>2021-10-17T04:41:56.000Z</time>
      </trkpt>
      <trkpt lat="45.2181" lon="5.73305">
        <ele>1037.4000244141</ele>
        <time>2021-10-17T04:42:04.000Z</time>
      </trkpt>
      <trkpt lat="45.21811" lon="5.73306">
        <ele>1037.8000488281</ele>
        <time>2021-10-17T04:42:05.000Z</time>
      </trkpt>
      <trkpt lat="45.21815" lon="5.73307">
        <ele>1038.4000244141</ele>
        <time>2021-10-17T04:42:08.000Z</time>
      </trkpt>
      <trkpt lat="45.21817" lon="5.73308">
        <ele>1038.4000244141</ele>
        <time>2021-10-17T04:42:09.000Z</time>
      </trkpt>
      <trkpt lat="45.21823" lon="5.73314">
        <ele>1039.5999755859</ele>
        <time>2021-10-17T04:42:14.000Z</time>
      </trkpt>
      <trkpt lat="45.21824" lon="5.73315">
        <ele>1039.8000488281</ele>
        <time>2021-10-17T04:42:15.000Z</time>
      </trkpt>
      <trkpt lat="45.21826" lon="5.73316">
        <ele>1040.4000244141</ele>
        <time>2021-10-17T04:42:17.000Z</time>
      </trkpt>
      <trkpt lat="45.21827" lon="5.73317">
        <ele>1040.5999755859</ele>
        <time>2021-10-17T04:42:18.000Z</time>
      </trkpt>
      <trkpt lat="45.21828" lon="5.73318">
        <ele>1040.5999755859</ele>
        <time>2021-10-17T04:42:19.000Z</time>
      </trkpt>
      <trkpt lat="45.21829" lon="5.73319">
        <ele>1040.8000488281</ele>
        <time>2021-10-17T04:42:20.000Z</time>
      </trkpt>
      <trkpt lat="45.21831" lon="5.73321">
        <ele>1041.8000488281</ele>
        <time>2021-10-17T04:42:23.000Z</time>
      </trkpt>
      <trkpt lat="45.21832" lon="5.73322">
        <ele>1042</ele>
        <time>2021-10-17T04:42:24.000Z</time>
      </trkpt>
      <trkpt lat="45.21834" lon="5.73325">
        <ele>1042.1999511719</ele>
        <time>2021-10-17T04:42:26.000Z</time>
      </trkpt>
      <trkpt lat="45.21837" lon="5.7333">
        <ele>1042.8000488281</ele>
        <time>2021-10-17T04:42:29.000Z</time>
      </trkpt>
      <trkpt lat="45.2184" lon="5.73333">
        <ele>1043</ele>
        <time>2021-10-17T04:42:31.000Z</time>
      </trkpt>
      <trkpt lat="45.21843" lon="5.73335">
        <ele>1043.1999511719</ele>
        <time>2021-10-17T04:42:33.000Z</time>
      </trkpt>
      <trkpt lat="45.21848" lon="5.73344">
        <ele>1043.4000244141</ele>
        <time>2021-10-17T04:42:38.000Z</time>
      </trkpt>
      <trkpt lat="45.21848" lon="5.73347">
        <ele>1043.4000244141</ele>
        <time>2021-10-17T04:42:40.000Z</time>
      </trkpt>
      <trkpt lat="45.21847" lon="5.73349">
        <ele>1043.4000244141</ele>
        <time>2021-10-17T04:42:42.000Z</time>
      </trkpt>
      <trkpt lat="45.21846" lon="5.73351">
        <ele>1043.4000244141</ele>
        <time>2021-10-17T04:42:44.000Z</time>
      </trkpt>
      <trkpt lat="45.21846" lon="5.73352">
        <ele>1043.4000244141</ele>
        <time>2021-10-17T04:42:45.000Z</time>
      </trkpt>
      <trkpt lat="45.21846" lon="5.73353">
        <ele>1043.4000244141</ele>
        <time>2021-10-17T04:42:46.000Z</time>
      </trkpt>
      <trkpt lat="45.21846" lon="5.73354">
        <ele>1043.1999511719</ele>
        <time>2021-10-17T04:42:49.000Z</time>
      </trkpt>
      <trkpt lat="45.21846" lon="5.73355">
        <ele>1043.4000244141</ele>
        <time>2021-10-17T04:42:52.000Z</time>
      </trkpt>
      <trkpt lat="45.21847" lon="5.73357">
        <ele>1043.4000244141</ele>
        <time>2021-10-17T04:42:57.000Z</time>
      </trkpt>
      <trkpt lat="45.21847" lon="5.73357">
        <ele>1043.1999511719</ele>
        <time>2021-10-17T04:43:06.000Z</time>
      </trkpt>
      <trkpt lat="45.21847" lon="5.73357">
        <ele>1043.1999511719</ele>
        <time>2021-10-17T04:43:11.000Z</time>
      </trkpt>
      <trkpt lat="45.21846" lon="5.73358">
        <ele>1043</ele>
        <time>2021-10-17T04:43:15.000Z</time>
      </trkpt>
      <trkpt lat="45.21846" lon="5.73358">
        <ele>1043.4000244141</ele>
        <time>2021-10-17T04:43:34.000Z</time>
      </trkpt>
      <trkpt lat="45.21846" lon="5.73359">
        <ele>1043.4000244141</ele>
        <time>2021-10-17T04:43:38.000Z</time>
      </trkpt>
      <trkpt lat="45.21846" lon="5.73359">
        <ele>1043.4000244141</ele>
        <time>2021-10-17T04:43:40.000Z</time>
      </trkpt>
      <trkpt lat="45.21846" lon="5.73359">
        <ele>1043.4000244141</ele>
        <time>2021-10-17T04:43:43.000Z</time>
      </trkpt>
      <trkpt lat="45.21846" lon="5.73359">
        <ele>1043.4000244141</ele>
        <time>2021-10-17T04:43:45.000Z</time>
      </trkpt>
      <trkpt lat="45.21846" lon="5.73359">
        <ele>1043.4000244141</ele>
        <time>2021-10-17T04:43:46.000Z</time>
      </trkpt>
      <trkpt lat="45.21846" lon="5.73359">
        <ele>1043.4000244141</ele>
        <time>2021-10-17T04:43:48.000Z</time>
      </trkpt>
      <trkpt lat="45.21846" lon="5.73359">
        <ele>1043.4000244141</ele>
        <time>2021-10-17T04:43:51.000Z</time>
      </trkpt>
      <trkpt lat="45.21846" lon="5.73359">
        <ele>1043.4000244141</ele>
        <time>2021-10-17T04:43:57.000Z</time>
      </trkpt>
      <trkpt lat="45.21846" lon="5.73359">
        <ele>1043.4000244141</ele>
        <time>2021-10-17T04:43:59.000Z</time>
      </trkpt>
      <trkpt lat="45.21846" lon="5.73359">
        <ele>1043.4000244141</ele>
        <time>2021-10-17T04:44:08.000Z</time>
      </trkpt>
      <trkpt lat="45.21845" lon="5.73358">
        <ele>1043.4000244141</ele>
        <time>2021-10-17T04:44:29.000Z</time>
      </trkpt>
      <trkpt lat="45.21845" lon="5.73358">
        <ele>1043.4000244141</ele>
        <time>2021-10-17T04:44:39.000Z</time>
      </trkpt>
      <trkpt lat="45.21846" lon="5.73358">
        <ele>1043.4000244141</ele>
        <time>2021-10-17T04:44:59.000Z</time>
      </trkpt>
      <trkpt lat="45.21846" lon="5.73358">
        <ele>1043.4000244141</ele>
        <time>2021-10-17T04:45:03.000Z</time>
      </trkpt>
      <trkpt lat="45.21846" lon="5.73358">
        <ele>1043.4000244141</ele>
        <time>2021-10-17T04:45:23.000Z</time>
      </trkpt>
      <trkpt lat="45.21846" lon="5.73357">
        <ele>1043.4000244141</ele>
        <time>2021-10-17T04:45:36.000Z</time>
      </trkpt>
      <trkpt lat="45.21846" lon="5.73357">
        <ele>1043.4000244141</ele>
        <time>2021-10-17T04:45:39.000Z</time>
      </trkpt>
      <trkpt lat="45.21846" lon="5.73357">
        <ele>1043.4000244141</ele>
        <time>2021-10-17T04:45:46.000Z</time>
      </trkpt>
      <trkpt lat="45.21848" lon="5.73349">
        <ele>1043.4000244141</ele>
        <time>2021-10-17T04:45:53.000Z</time>
      </trkpt>
      <trkpt lat="45.21852" lon="5.73347">
        <ele>1043.4000244141</ele>
        <time>2021-10-17T04:45:59.000Z</time>
      </trkpt>
      <trkpt lat="45.21852" lon="5.73348">
        <ele>1043.4000244141</ele>
        <time>2021-10-17T04:46:00.000Z</time>
      </trkpt>
      <trkpt lat="45.21853" lon="5.73348">
        <ele>1043.4000244141</ele>
        <time>2021-10-17T04:46:01.000Z</time>
      </trkpt>
      <trkpt lat="45.21854" lon="5.73349">
        <ele>1043.4000244141</ele>
        <time>2021-10-17T04:46:02.000Z</time>
      </trkpt>
      <trkpt lat="45.21855" lon="5.73349">
        <ele>1043.4000244141</ele>
        <time>2021-10-17T04:46:03.000Z</time>
      </trkpt>
      <trkpt lat="45.21856" lon="5.73351">
        <ele>1043.4000244141</ele>
        <time>2021-10-17T04:46:06.000Z</time>
      </trkpt>
      <trkpt lat="45.21857" lon="5.73353">
        <ele>1043.4000244141</ele>
        <time>2021-10-17T04:46:08.000Z</time>
      </trkpt>
      <trkpt lat="45.21863" lon="5.73355">
        <ele>1043.4000244141</ele>
        <time>2021-10-17T04:46:13.000Z</time>
      </trkpt>
      <trkpt lat="45.21864" lon="5.73354">
        <ele>1043.4000244141</ele>
        <time>2021-10-17T04:46:16.000Z</time>
      </trkpt>
      <trkpt lat="45.21866" lon="5.73355">
        <ele>1043.4000244141</ele>
        <time>2021-10-17T04:46:19.000Z</time>
      </trkpt>
      <trkpt lat="45.21867" lon="5.73356">
        <ele>1043.4000244141</ele>
        <time>2021-10-17T04:46:20.000Z</time>
      </trkpt>
      <trkpt lat="45.21869" lon="5.73358">
        <ele>1043.4000244141</ele>
        <time>2021-10-17T04:46:23.000Z</time>
      </trkpt>
      <trkpt lat="45.21874" lon="5.73361">
        <ele>1043</ele>
        <time>2021-10-17T04:46:27.000Z</time>
      </trkpt>
      <trkpt lat="45.21884" lon="5.73366">
        <ele>1041.8000488281</ele>
        <time>2021-10-17T04:46:33.000Z</time>
      </trkpt>
      <trkpt lat="45.21888" lon="5.73367">
        <ele>1041.4000244141</ele>
        <time>2021-10-17T04:46:35.000Z</time>
      </trkpt>
      <trkpt lat="45.2189" lon="5.73369">
        <ele>1041.1999511719</ele>
        <time>2021-10-17T04:46:37.000Z</time>
      </trkpt>
      <trkpt lat="45.21894" lon="5.73372">
        <ele>1041.4000244141</ele>
        <time>2021-10-17T04:46:40.000Z</time>
      </trkpt>
      <trkpt lat="45.21896" lon="5.73374">
        <ele>1041.5999755859</ele>
        <time>2021-10-17T04:46:42.000Z</time>
      </trkpt>
      <trkpt lat="45.21898" lon="5.73377">
        <ele>1042</ele>
        <time>2021-10-17T04:46:45.000Z</time>
      </trkpt>
      <trkpt lat="45.21906" lon="5.73376">
        <ele>1042.4000244141</ele>
        <time>2021-10-17T04:46:51.000Z</time>
      </trkpt>
      <trkpt lat="45.21907" lon="5.73376">
        <ele>1042.4000244141</ele>
        <time>2021-10-17T04:46:52.000Z</time>
      </trkpt>
      <trkpt lat="45.21913" lon="5.73381">
        <ele>1042.5999755859</ele>
        <time>2021-10-17T04:46:56.000Z</time>
      </trkpt>
      <trkpt lat="45.21916" lon="5.73384">
        <ele>1042.1999511719</ele>
        <time>2021-10-17T04:46:59.000Z</time>
      </trkpt>
      <trkpt lat="45.21918" lon="5.73385">
        <ele>1042</ele>
        <time>2021-10-17T04:47:01.000Z</time>
      </trkpt>
      <trkpt lat="45.21919" lon="5.73385">
        <ele>1041.8000488281</ele>
        <time>2021-10-17T04:47:02.000Z</time>
      </trkpt>
      <trkpt lat="45.21922" lon="5.73387">
        <ele>1041.5999755859</ele>
        <time>2021-10-17T04:47:04.000Z</time>
      </trkpt>
      <trkpt lat="45.21923" lon="5.73391">
        <ele>1041.4000244141</ele>
        <time>2021-10-17T04:47:06.000Z</time>
      </trkpt>
      <trkpt lat="45.21923" lon="5.73392">
        <ele>1041.1999511719</ele>
        <time>2021-10-17T04:47:07.000Z</time>
      </trkpt>
      <trkpt lat="45.21926" lon="5.73396">
        <ele>1040.8000488281</ele>
        <time>2021-10-17T04:47:10.000Z</time>
      </trkpt>
      <trkpt lat="45.21936" lon="5.73406">
        <ele>1041</ele>
        <time>2021-10-17T04:47:15.000Z</time>
      </trkpt>
      <trkpt lat="45.21937" lon="5.73409">
        <ele>1041.4000244141</ele>
        <time>2021-10-17T04:47:17.000Z</time>
      </trkpt>
      <trkpt lat="45.21937" lon="5.73412">
        <ele>1041.8000488281</ele>
        <time>2021-10-17T04:47:19.000Z</time>
      </trkpt>
      <trkpt lat="45.21937" lon="5.73417">
        <ele>1042</ele>
        <time>2021-10-17T04:47:21.000Z</time>
      </trkpt>
      <trkpt lat="45.21937" lon="5.73418">
        <ele>1042.4000244141</ele>
        <time>2021-10-17T04:47:23.000Z</time>
      </trkpt>
      <trkpt lat="45.21941" lon="5.73421">
        <ele>1042.8000488281</ele>
        <time>2021-10-17T04:47:26.000Z</time>
      </trkpt>
      <trkpt lat="45.21942" lon="5.73422">
        <ele>1043</ele>
        <time>2021-10-17T04:47:27.000Z</time>
      </trkpt>
      <trkpt lat="45.21943" lon="5.73425">
        <ele>1043.1999511719</ele>
        <time>2021-10-17T04:47:30.000Z</time>
      </trkpt>
      <trkpt lat="45.21945" lon="5.73426">
        <ele>1043.4000244141</ele>
        <time>2021-10-17T04:47:31.000Z</time>
      </trkpt>
      <trkpt lat="45.21952" lon="5.73428">
        <ele>1044</ele>
        <time>2021-10-17T04:47:35.000Z</time>
      </trkpt>
      <trkpt lat="45.21964" lon="5.73424">
        <ele>1044.5999755859</ele>
        <time>2021-10-17T04:47:41.000Z</time>
      </trkpt>
      <trkpt lat="45.21965" lon="5.73424">
        <ele>1044.8000488281</ele>
        <time>2021-10-17T04:47:42.000Z</time>
      </trkpt>
      <trkpt lat="45.2197" lon="5.73426">
        <ele>1045.1999511719</ele>
        <time>2021-10-17T04:47:45.000Z</time>
      </trkpt>
      <trkpt lat="45.21973" lon="5.73427">
        <ele>1045.4000244141</ele>
        <time>2021-10-17T04:47:47.000Z</time>
      </trkpt>
      <trkpt lat="45.21976" lon="5.73429">
        <ele>1045.4000244141</ele>
        <time>2021-10-17T04:47:49.000Z</time>
      </trkpt>
      <trkpt lat="45.21982" lon="5.73431">
        <ele>1046</ele>
        <time>2021-10-17T04:47:53.000Z</time>
      </trkpt>
      <trkpt lat="45.21983" lon="5.73432">
        <ele>1046.1999511719</ele>
        <time>2021-10-17T04:47:54.000Z</time>
      </trkpt>
      <trkpt lat="45.21985" lon="5.73433">
        <ele>1046.5999755859</ele>
        <time>2021-10-17T04:47:56.000Z</time>
      </trkpt>
      <trkpt lat="45.21989" lon="5.73436">
        <ele>1047.4000244141</ele>
        <time>2021-10-17T04:47:59.000Z</time>
      </trkpt>
      <trkpt lat="45.21991" lon="5.73438">
        <ele>1047.5999755859</ele>
        <time>2021-10-17T04:48:01.000Z</time>
      </trkpt>
      <trkpt lat="45.21992" lon="5.73437">
        <ele>1048</ele>
        <time>2021-10-17T04:48:02.000Z</time>
      </trkpt>
      <trkpt lat="45.21997" lon="5.73436">
        <ele>1048.4000244141</ele>
        <time>2021-10-17T04:48:05.000Z</time>
      </trkpt>
      <trkpt lat="45.22008" lon="5.73437">
        <ele>1049</ele>
        <time>2021-10-17T04:48:11.000Z</time>
      </trkpt>
      <trkpt lat="45.22017" lon="5.73441">
        <ele>1048.5999755859</ele>
        <time>2021-10-17T04:48:16.000Z</time>
      </trkpt>
      <trkpt lat="45.2202" lon="5.73445">
        <ele>1048.1999511719</ele>
        <time>2021-10-17T04:48:18.000Z</time>
      </trkpt>
      <trkpt lat="45.22027" lon="5.73452">
        <ele>1047.1999511719</ele>
        <time>2021-10-17T04:48:23.000Z</time>
      </trkpt>
      <trkpt lat="45.2203" lon="5.73455">
        <ele>1046.4000244141</ele>
        <time>2021-10-17T04:48:26.000Z</time>
      </trkpt>
      <trkpt lat="45.22033" lon="5.73458">
        <ele>1046.1999511719</ele>
        <time>2021-10-17T04:48:29.000Z</time>
      </trkpt>
      <trkpt lat="45.22034" lon="5.73459">
        <ele>1045.5999755859</ele>
        <time>2021-10-17T04:48:31.000Z</time>
      </trkpt>
      <trkpt lat="45.22035" lon="5.73459">
        <ele>1045.1999511719</ele>
        <time>2021-10-17T04:48:32.000Z</time>
      </trkpt>
      <trkpt lat="45.22036" lon="5.73459">
        <ele>1045</ele>
        <time>2021-10-17T04:48:33.000Z</time>
      </trkpt>
      <trkpt lat="45.22041" lon="5.73461">
        <ele>1044.1999511719</ele>
        <time>2021-10-17T04:48:36.000Z</time>
      </trkpt>
      <trkpt lat="45.22042" lon="5.73462">
        <ele>1043.8000488281</ele>
        <time>2021-10-17T04:48:37.000Z</time>
      </trkpt>
      <trkpt lat="45.22044" lon="5.73465">
        <ele>1043.1999511719</ele>
        <time>2021-10-17T04:48:39.000Z</time>
      </trkpt>
      <trkpt lat="45.22045" lon="5.73465">
        <ele>1043.1999511719</ele>
        <time>2021-10-17T04:48:40.000Z</time>
      </trkpt>
      <trkpt lat="45.22047" lon="5.73466">
        <ele>1042.4000244141</ele>
        <time>2021-10-17T04:48:42.000Z</time>
      </trkpt>
      <trkpt lat="45.22048" lon="5.73467">
        <ele>1042</ele>
        <time>2021-10-17T04:48:43.000Z</time>
      </trkpt>
      <trkpt lat="45.2205" lon="5.73471">
        <ele>1041.8000488281</ele>
        <time>2021-10-17T04:48:45.000Z</time>
      </trkpt>
      <trkpt lat="45.22051" lon="5.73472">
        <ele>1041.4000244141</ele>
        <time>2021-10-17T04:48:46.000Z</time>
      </trkpt>
      <trkpt lat="45.22058" lon="5.73477">
        <ele>1040.1999511719</ele>
        <time>2021-10-17T04:48:51.000Z</time>
      </trkpt>
      <trkpt lat="45.2206" lon="5.73478">
        <ele>1040</ele>
        <time>2021-10-17T04:48:52.000Z</time>
      </trkpt>
      <trkpt lat="45.22064" lon="5.73483">
        <ele>1039.5999755859</ele>
        <time>2021-10-17T04:48:55.000Z</time>
      </trkpt>
      <trkpt lat="45.22066" lon="5.73486">
        <ele>1039.1999511719</ele>
        <time>2021-10-17T04:48:57.000Z</time>
      </trkpt>
      <trkpt lat="45.22066" lon="5.73487">
        <ele>1039</ele>
        <time>2021-10-17T04:48:58.000Z</time>
      </trkpt>
      <trkpt lat="45.22075" lon="5.73493">
        <ele>1037.8000488281</ele>
        <time>2021-10-17T04:49:03.000Z</time>
      </trkpt>
      <trkpt lat="45.22077" lon="5.73494">
        <ele>1037.5999755859</ele>
        <time>2021-10-17T04:49:04.000Z</time>
      </trkpt>
      <trkpt lat="45.2208" lon="5.73495">
        <ele>1037.4000244141</ele>
        <time>2021-10-17T04:49:06.000Z</time>
      </trkpt>
      <trkpt lat="45.22083" lon="5.73497">
        <ele>1036.8000488281</ele>
        <time>2021-10-17T04:49:09.000Z</time>
      </trkpt>
      <trkpt lat="45.22084" lon="5.73498">
        <ele>1036.4000244141</ele>
        <time>2021-10-17T04:49:10.000Z</time>
      </trkpt>
      <trkpt lat="45.22088" lon="5.73501">
        <ele>1035.4000244141</ele>
        <time>2021-10-17T04:49:13.000Z</time>
      </trkpt>
      <trkpt lat="45.22094" lon="5.73505">
        <ele>1034.5999755859</ele>
        <time>2021-10-17T04:49:17.000Z</time>
      </trkpt>
      <trkpt lat="45.22095" lon="5.73505">
        <ele>1034.4000244141</ele>
        <time>2021-10-17T04:49:18.000Z</time>
      </trkpt>
      <trkpt lat="45.22098" lon="5.73506">
        <ele>1033.8000488281</ele>
        <time>2021-10-17T04:49:20.000Z</time>
      </trkpt>
      <trkpt lat="45.221" lon="5.73509">
        <ele>1033</ele>
        <time>2021-10-17T04:49:22.000Z</time>
      </trkpt>
      <trkpt lat="45.22103" lon="5.7351">
        <ele>1032.5999755859</ele>
        <time>2021-10-17T04:49:24.000Z</time>
      </trkpt>
      <trkpt lat="45.22106" lon="5.73511">
        <ele>1032</ele>
        <time>2021-10-17T04:49:26.000Z</time>
      </trkpt>
      <trkpt lat="45.22109" lon="5.73511">
        <ele>1031.4000244141</ele>
        <time>2021-10-17T04:49:28.000Z</time>
      </trkpt>
      <trkpt lat="45.22109" lon="5.73512">
        <ele>1031</ele>
        <time>2021-10-17T04:49:30.000Z</time>
      </trkpt>
      <trkpt lat="45.22111" lon="5.73513">
        <ele>1029.8000488281</ele>
        <time>2021-10-17T04:49:33.000Z</time>
      </trkpt>
      <trkpt lat="45.22111" lon="5.73513">
        <ele>1029.1999511719</ele>
        <time>2021-10-17T04:49:35.000Z</time>
      </trkpt>
      <trkpt lat="45.22111" lon="5.73514">
        <ele>1028.8000488281</ele>
        <time>2021-10-17T04:49:36.000Z</time>
      </trkpt>
      <trkpt lat="45.22113" lon="5.73513">
        <ele>1028.4000244141</ele>
        <time>2021-10-17T04:49:37.000Z</time>
      </trkpt>
      <trkpt lat="45.22116" lon="5.73514">
        <ele>1027.5999755859</ele>
        <time>2021-10-17T04:49:40.000Z</time>
      </trkpt>
      <trkpt lat="45.22116" lon="5.73515">
        <ele>1027.4000244141</ele>
        <time>2021-10-17T04:49:41.000Z</time>
      </trkpt>
      <trkpt lat="45.22116" lon="5.73517">
        <ele>1027</ele>
        <time>2021-10-17T04:49:42.000Z</time>
      </trkpt>
      <trkpt lat="45.22116" lon="5.7352">
        <ele>1026.5999755859</ele>
        <time>2021-10-17T04:49:43.000Z</time>
      </trkpt>
      <trkpt lat="45.22117" lon="5.73522">
        <ele>1026.4000244141</ele>
        <time>2021-10-17T04:49:44.000Z</time>
      </trkpt>
      <trkpt lat="45.22117" lon="5.73524">
        <ele>1026.4000244141</ele>
        <time>2021-10-17T04:49:45.000Z</time>
      </trkpt>
      <trkpt lat="45.22117" lon="5.7353">
        <ele>1025.4000244141</ele>
        <time>2021-10-17T04:49:47.000Z</time>
      </trkpt>
      <trkpt lat="45.22118" lon="5.73532">
        <ele>1025.1999511719</ele>
        <time>2021-10-17T04:49:48.000Z</time>
      </trkpt>
      <trkpt lat="45.22119" lon="5.73534">
        <ele>1024.8000488281</ele>
        <time>2021-10-17T04:49:49.000Z</time>
      </trkpt>
      <trkpt lat="45.22119" lon="5.73535">
        <ele>1024.4000244141</ele>
        <time>2021-10-17T04:49:50.000Z</time>
      </trkpt>
      <trkpt lat="45.2212" lon="5.73536">
        <ele>1024.1999511719</ele>
        <time>2021-10-17T04:49:51.000Z</time>
      </trkpt>
      <trkpt lat="45.22123" lon="5.73538">
        <ele>1023.4000244141</ele>
        <time>2021-10-17T04:49:53.000Z</time>
      </trkpt>
      <trkpt lat="45.22124" lon="5.73538">
        <ele>1023</ele>
        <time>2021-10-17T04:49:54.000Z</time>
      </trkpt>
      <trkpt lat="45.22129" lon="5.7354">
        <ele>1022</ele>
        <time>2021-10-17T04:49:57.000Z</time>
      </trkpt>
      <trkpt lat="45.2213" lon="5.7354">
        <ele>1021.799987793</ele>
        <time>2021-10-17T04:49:58.000Z</time>
      </trkpt>
      <trkpt lat="45.22133" lon="5.7354">
        <ele>1021</ele>
        <time>2021-10-17T04:50:00.000Z</time>
      </trkpt>
      <trkpt lat="45.22134" lon="5.7354">
        <ele>1020.799987793</ele>
        <time>2021-10-17T04:50:01.000Z</time>
      </trkpt>
      <trkpt lat="45.2214" lon="5.73542">
        <ele>1019.799987793</ele>
        <time>2021-10-17T04:50:04.000Z</time>
      </trkpt>
      <trkpt lat="45.22141" lon="5.73543">
        <ele>1019.5999755859</ele>
        <time>2021-10-17T04:50:05.000Z</time>
      </trkpt>
      <trkpt lat="45.22143" lon="5.73544">
        <ele>1019</ele>
        <time>2021-10-17T04:50:07.000Z</time>
      </trkpt>
      <trkpt lat="45.22144" lon="5.73545">
        <ele>1018.200012207</ele>
        <time>2021-10-17T04:50:09.000Z</time>
      </trkpt>
      <trkpt lat="45.22148" lon="5.73549">
        <ele>1017</ele>
        <time>2021-10-17T04:50:13.000Z</time>
      </trkpt>
      <trkpt lat="45.22148" lon="5.73549">
        <ele>1016.799987793</ele>
        <time>2021-10-17T04:50:14.000Z</time>
      </trkpt>
      <trkpt lat="45.22153" lon="5.7355">
        <ele>1015.799987793</ele>
        <time>2021-10-17T04:50:17.000Z</time>
      </trkpt>
      <trkpt lat="45.22155" lon="5.73551">
        <ele>1015.4000244141</ele>
        <time>2021-10-17T04:50:19.000Z</time>
      </trkpt>
      <trkpt lat="45.22156" lon="5.73552">
        <ele>1015.200012207</ele>
        <time>2021-10-17T04:50:20.000Z</time>
      </trkpt>
      <trkpt lat="45.22158" lon="5.73551">
        <ele>1014.5999755859</ele>
        <time>2021-10-17T04:50:23.000Z</time>
      </trkpt>
      <trkpt lat="45.22159" lon="5.73552">
        <ele>1014.4000244141</ele>
        <time>2021-10-17T04:50:24.000Z</time>
      </trkpt>
      <trkpt lat="45.22162" lon="5.73554">
        <ele>1013.4000244141</ele>
        <time>2021-10-17T04:50:27.000Z</time>
      </trkpt>
      <trkpt lat="45.22167" lon="5.73559">
        <ele>1012.4000244141</ele>
        <time>2021-10-17T04:50:30.000Z</time>
      </trkpt>
      <trkpt lat="45.22169" lon="5.73559">
        <ele>1012.200012207</ele>
        <time>2021-10-17T04:50:31.000Z</time>
      </trkpt>
      <trkpt lat="45.2217" lon="5.73561">
        <ele>1012.200012207</ele>
        <time>2021-10-17T04:50:32.000Z</time>
      </trkpt>
      <trkpt lat="45.22171" lon="5.73563">
        <ele>1012</ele>
        <time>2021-10-17T04:50:33.000Z</time>
      </trkpt>
      <trkpt lat="45.22175" lon="5.73568">
        <ele>1011.5999755859</ele>
        <time>2021-10-17T04:50:36.000Z</time>
      </trkpt>
      <trkpt lat="45.22178" lon="5.7357">
        <ele>1011</ele>
        <time>2021-10-17T04:50:38.000Z</time>
      </trkpt>
      <trkpt lat="45.22182" lon="5.73574">
        <ele>1009.799987793</ele>
        <time>2021-10-17T04:50:42.000Z</time>
      </trkpt>
      <trkpt lat="45.22184" lon="5.73577">
        <ele>1009.200012207</ele>
        <time>2021-10-17T04:50:44.000Z</time>
      </trkpt>
      <trkpt lat="45.22186" lon="5.7358">
        <ele>1008.799987793</ele>
        <time>2021-10-17T04:50:46.000Z</time>
      </trkpt>
      <trkpt lat="45.2219" lon="5.73585">
        <ele>1008</ele>
        <time>2021-10-17T04:50:49.000Z</time>
      </trkpt>
      <trkpt lat="45.2219" lon="5.73587">
        <ele>1007.799987793</ele>
        <time>2021-10-17T04:50:50.000Z</time>
      </trkpt>
      <trkpt lat="45.22191" lon="5.73589">
        <ele>1007.5999755859</ele>
        <time>2021-10-17T04:50:51.000Z</time>
      </trkpt>
      <trkpt lat="45.22191" lon="5.7359">
        <ele>1007.4000244141</ele>
        <time>2021-10-17T04:50:52.000Z</time>
      </trkpt>
      <trkpt lat="45.22193" lon="5.73592">
        <ele>1007.200012207</ele>
        <time>2021-10-17T04:50:54.000Z</time>
      </trkpt>
      <trkpt lat="45.22196" lon="5.73594">
        <ele>1006.5999755859</ele>
        <time>2021-10-17T04:50:56.000Z</time>
      </trkpt>
      <trkpt lat="45.22198" lon="5.73598">
        <ele>1006.200012207</ele>
        <time>2021-10-17T04:50:58.000Z</time>
      </trkpt>
      <trkpt lat="45.22199" lon="5.736">
        <ele>1006.200012207</ele>
        <time>2021-10-17T04:50:59.000Z</time>
      </trkpt>
      <trkpt lat="45.22204" lon="5.73605">
        <ele>1005.5999755859</ele>
        <time>2021-10-17T04:51:03.000Z</time>
      </trkpt>
      <trkpt lat="45.2221" lon="5.7361">
        <ele>1005</ele>
        <time>2021-10-17T04:51:06.000Z</time>
      </trkpt>
      <trkpt lat="45.2222" lon="5.73616">
        <ele>1004.4000244141</ele>
        <time>2021-10-17T04:51:10.000Z</time>
      </trkpt>
      <trkpt lat="45.22223" lon="5.73617">
        <ele>1004.4000244141</ele>
        <time>2021-10-17T04:51:12.000Z</time>
      </trkpt>
      <trkpt lat="45.22231" lon="5.73621">
        <ele>1003.799987793</ele>
        <time>2021-10-17T04:51:16.000Z</time>
      </trkpt>
      <trkpt lat="45.22234" lon="5.73625">
        <ele>1003.4000244141</ele>
        <time>2021-10-17T04:51:18.000Z</time>
      </trkpt>
      <trkpt lat="45.22235" lon="5.73626">
        <ele>1003.200012207</ele>
        <time>2021-10-17T04:51:19.000Z</time>
      </trkpt>
      <trkpt lat="45.22237" lon="5.73629">
        <ele>1003</ele>
        <time>2021-10-17T04:51:21.000Z</time>
      </trkpt>
      <trkpt lat="45.22239" lon="5.7363">
        <ele>1002.799987793</ele>
        <time>2021-10-17T04:51:22.000Z</time>
      </trkpt>
      <trkpt lat="45.22244" lon="5.73634">
        <ele>1002.4000244141</ele>
        <time>2021-10-17T04:51:25.000Z</time>
      </trkpt>
      <trkpt lat="45.22246" lon="5.73635">
        <ele>1002.200012207</ele>
        <time>2021-10-17T04:51:26.000Z</time>
      </trkpt>
      <trkpt lat="45.22253" lon="5.73641">
        <ele>1001.200012207</ele>
        <time>2021-10-17T04:51:30.000Z</time>
      </trkpt>
      <trkpt lat="45.22258" lon="5.73643">
        <ele>1000.799987793</ele>
        <time>2021-10-17T04:51:32.000Z</time>
      </trkpt>
      <trkpt lat="45.22262" lon="5.73644">
        <ele>1000.4000244141</ele>
        <time>2021-10-17T04:51:34.000Z</time>
      </trkpt>
      <trkpt lat="45.22264" lon="5.73646">
        <ele>1000</ele>
        <time>2021-10-17T04:51:35.000Z</time>
      </trkpt>
      <trkpt lat="45.22268" lon="5.73649">
        <ele>999</ele>
        <time>2021-10-17T04:51:38.000Z</time>
      </trkpt>
      <trkpt lat="45.22268" lon="5.73651">
        <ele>998.79998779297</ele>
        <time>2021-10-17T04:51:39.000Z</time>
      </trkpt>
      <trkpt lat="45.22273" lon="5.73649">
        <ele>997.59997558594</ele>
        <time>2021-10-17T04:51:43.000Z</time>
      </trkpt>
      <trkpt lat="45.22275" lon="5.73649">
        <ele>997.40002441406</ele>
        <time>2021-10-17T04:51:44.000Z</time>
      </trkpt>
      <trkpt lat="45.22277" lon="5.73649">
        <ele>997.20001220703</ele>
        <time>2021-10-17T04:51:45.000Z</time>
      </trkpt>
      <trkpt lat="45.2228" lon="5.7365">
        <ele>996.40002441406</ele>
        <time>2021-10-17T04:51:47.000Z</time>
      </trkpt>
      <trkpt lat="45.22284" lon="5.7365">
        <ele>995.40002441406</ele>
        <time>2021-10-17T04:51:50.000Z</time>
      </trkpt>
      <trkpt lat="45.22287" lon="5.7365">
        <ele>994.79998779297</ele>
        <time>2021-10-17T04:51:52.000Z</time>
      </trkpt>
      <trkpt lat="45.22287" lon="5.73651">
        <ele>994</ele>
        <time>2021-10-17T04:51:53.000Z</time>
      </trkpt>
      <trkpt lat="45.22288" lon="5.7365">
        <ele>993.59997558594</ele>
        <time>2021-10-17T04:51:54.000Z</time>
      </trkpt>
      <trkpt lat="45.22291" lon="5.7365">
        <ele>993.20001220703</ele>
        <time>2021-10-17T04:51:56.000Z</time>
      </trkpt>
      <trkpt lat="45.22292" lon="5.7365">
        <ele>992.79998779297</ele>
        <time>2021-10-17T04:51:57.000Z</time>
      </trkpt>
      <trkpt lat="45.22294" lon="5.7365">
        <ele>992.40002441406</ele>
        <time>2021-10-17T04:51:58.000Z</time>
      </trkpt>
      <trkpt lat="45.22296" lon="5.7365">
        <ele>992.20001220703</ele>
        <time>2021-10-17T04:51:59.000Z</time>
      </trkpt>
      <trkpt lat="45.22299" lon="5.73651">
        <ele>991.40002441406</ele>
        <time>2021-10-17T04:52:01.000Z</time>
      </trkpt>
      <trkpt lat="45.22303" lon="5.73653">
        <ele>990.40002441406</ele>
        <time>2021-10-17T04:52:04.000Z</time>
      </trkpt>
      <trkpt lat="45.22304" lon="5.73653">
        <ele>990</ele>
        <time>2021-10-17T04:52:05.000Z</time>
      </trkpt>
      <trkpt lat="45.22305" lon="5.73653">
        <ele>989.79998779297</ele>
        <time>2021-10-17T04:52:06.000Z</time>
      </trkpt>
      <trkpt lat="45.22307" lon="5.73652">
        <ele>988.79998779297</ele>
        <time>2021-10-17T04:52:09.000Z</time>
      </trkpt>
      <trkpt lat="45.22308" lon="5.73654">
        <ele>988.40002441406</ele>
        <time>2021-10-17T04:52:10.000Z</time>
      </trkpt>
      <trkpt lat="45.22312" lon="5.73656">
        <ele>987.79998779297</ele>
        <time>2021-10-17T04:52:12.000Z</time>
      </trkpt>
      <trkpt lat="45.22317" lon="5.73658">
        <ele>987.20001220703</ele>
        <time>2021-10-17T04:52:15.000Z</time>
      </trkpt>
      <trkpt lat="45.22318" lon="5.73659">
        <ele>987</ele>
        <time>2021-10-17T04:52:16.000Z</time>
      </trkpt>
      <trkpt lat="45.2232" lon="5.7366">
        <ele>986.59997558594</ele>
        <time>2021-10-17T04:52:18.000Z</time>
      </trkpt>
      <trkpt lat="45.22323" lon="5.7366">
        <ele>985.59997558594</ele>
        <time>2021-10-17T04:52:22.000Z</time>
      </trkpt>
      <trkpt lat="45.22325" lon="5.73661">
        <ele>985.40002441406</ele>
        <time>2021-10-17T04:52:23.000Z</time>
      </trkpt>
      <trkpt lat="45.22326" lon="5.73661">
        <ele>985</ele>
        <time>2021-10-17T04:52:24.000Z</time>
      </trkpt>
      <trkpt lat="45.22327" lon="5.73661">
        <ele>984.59997558594</ele>
        <time>2021-10-17T04:52:25.000Z</time>
      </trkpt>
      <trkpt lat="45.22329" lon="5.73661">
        <ele>984.20001220703</ele>
        <time>2021-10-17T04:52:26.000Z</time>
      </trkpt>
      <trkpt lat="45.22334" lon="5.7366">
        <ele>983.59997558594</ele>
        <time>2021-10-17T04:52:28.000Z</time>
      </trkpt>
      <trkpt lat="45.22343" lon="5.73661">
        <ele>983.20001220703</ele>
        <time>2021-10-17T04:52:31.000Z</time>
      </trkpt>
      <trkpt lat="45.22345" lon="5.73662">
        <ele>983</ele>
        <time>2021-10-17T04:52:32.000Z</time>
      </trkpt>
      <trkpt lat="45.22348" lon="5.73663">
        <ele>983</ele>
        <time>2021-10-17T04:52:33.000Z</time>
      </trkpt>
      <trkpt lat="45.2236" lon="5.73668">
        <ele>982.79998779297</ele>
        <time>2021-10-17T04:52:38.000Z</time>
      </trkpt>
      <trkpt lat="45.22363" lon="5.73671">
        <ele>982.59997558594</ele>
        <time>2021-10-17T04:52:40.000Z</time>
      </trkpt>
      <trkpt lat="45.22366" lon="5.73673">
        <ele>982</ele>
        <time>2021-10-17T04:52:42.000Z</time>
      </trkpt>
      <trkpt lat="45.22367" lon="5.73674">
        <ele>981.59997558594</ele>
        <time>2021-10-17T04:52:43.000Z</time>
      </trkpt>
      <trkpt lat="45.22371" lon="5.73677">
        <ele>980.79998779297</ele>
        <time>2021-10-17T04:52:47.000Z</time>
      </trkpt>
      <trkpt lat="45.22372" lon="5.73678">
        <ele>981</ele>
        <time>2021-10-17T04:52:48.000Z</time>
      </trkpt>
      <trkpt lat="45.22378" lon="5.7368">
        <ele>981</ele>
        <time>2021-10-17T04:52:51.000Z</time>
      </trkpt>
      <trkpt lat="45.22382" lon="5.73681">
        <ele>981.20001220703</ele>
        <time>2021-10-17T04:52:53.000Z</time>
      </trkpt>
      <trkpt lat="45.22389" lon="5.73683">
        <ele>981.59997558594</ele>
        <time>2021-10-17T04:52:56.000Z</time>
      </trkpt>
      <trkpt lat="45.22391" lon="5.73685">
        <ele>982</ele>
        <time>2021-10-17T04:52:58.000Z</time>
      </trkpt>
      <trkpt lat="45.22392" lon="5.73685">
        <ele>982</ele>
        <time>2021-10-17T04:52:59.000Z</time>
      </trkpt>
      <trkpt lat="45.22394" lon="5.73685">
        <ele>982.20001220703</ele>
        <time>2021-10-17T04:53:00.000Z</time>
      </trkpt>
      <trkpt lat="45.22396" lon="5.73686">
        <ele>982.79998779297</ele>
        <time>2021-10-17T04:53:02.000Z</time>
      </trkpt>
      <trkpt lat="45.22402" lon="5.73689">
        <ele>983.20001220703</ele>
        <time>2021-10-17T04:53:05.000Z</time>
      </trkpt>
      <trkpt lat="45.22406" lon="5.73689">
        <ele>984.40002441406</ele>
        <time>2021-10-17T04:53:09.000Z</time>
      </trkpt>
      <trkpt lat="45.22408" lon="5.73688">
        <ele>984.79998779297</ele>
        <time>2021-10-17T04:53:11.000Z</time>
      </trkpt>
      <trkpt lat="45.2241" lon="5.73687">
        <ele>985.40002441406</ele>
        <time>2021-10-17T04:53:13.000Z</time>
      </trkpt>
      <trkpt lat="45.22413" lon="5.73686">
        <ele>986.59997558594</ele>
        <time>2021-10-17T04:53:16.000Z</time>
      </trkpt>
      <trkpt lat="45.22414" lon="5.73686">
        <ele>986.79998779297</ele>
        <time>2021-10-17T04:53:17.000Z</time>
      </trkpt>
      <trkpt lat="45.22415" lon="5.73686">
        <ele>987.40002441406</ele>
        <time>2021-10-17T04:53:19.000Z</time>
      </trkpt>
      <trkpt lat="45.22416" lon="5.73686">
        <ele>987.79998779297</ele>
        <time>2021-10-17T04:53:20.000Z</time>
      </trkpt>
      <trkpt lat="45.22418" lon="5.73687">
        <ele>988</ele>
        <time>2021-10-17T04:53:21.000Z</time>
      </trkpt>
      <trkpt lat="45.22419" lon="5.73688">
        <ele>988.59997558594</ele>
        <time>2021-10-17T04:53:23.000Z</time>
      </trkpt>
      <trkpt lat="45.2242" lon="5.73689">
        <ele>989</ele>
        <time>2021-10-17T04:53:24.000Z</time>
      </trkpt>
      <trkpt lat="45.2242" lon="5.7369">
        <ele>989.40002441406</ele>
        <time>2021-10-17T04:53:25.000Z</time>
      </trkpt>
      <trkpt lat="45.22422" lon="5.73691">
        <ele>989.79998779297</ele>
        <time>2021-10-17T04:53:27.000Z</time>
      </trkpt>
      <trkpt lat="45.22422" lon="5.7369">
        <ele>990</ele>
        <time>2021-10-17T04:53:28.000Z</time>
      </trkpt>
      <trkpt lat="45.22423" lon="5.73689">
        <ele>990.40002441406</ele>
        <time>2021-10-17T04:53:29.000Z</time>
      </trkpt>
      <trkpt lat="45.22424" lon="5.73689">
        <ele>990.59997558594</ele>
        <time>2021-10-17T04:53:30.000Z</time>
      </trkpt>
      <trkpt lat="45.22426" lon="5.73689">
        <ele>991.20001220703</ele>
        <time>2021-10-17T04:53:33.000Z</time>
      </trkpt>
      <trkpt lat="45.22429" lon="5.7369">
        <ele>991.79998779297</ele>
        <time>2021-10-17T04:53:35.000Z</time>
      </trkpt>
      <trkpt lat="45.2243" lon="5.7369">
        <ele>992</ele>
        <time>2021-10-17T04:53:36.000Z</time>
      </trkpt>
      <trkpt lat="45.22432" lon="5.73689">
        <ele>992.40002441406</ele>
        <time>2021-10-17T04:53:38.000Z</time>
      </trkpt>
      <trkpt lat="45.22436" lon="5.73691">
        <ele>993.79998779297</ele>
        <time>2021-10-17T04:53:44.000Z</time>
      </trkpt>
      <trkpt lat="45.22438" lon="5.73691">
        <ele>993.79998779297</ele>
        <time>2021-10-17T04:53:45.000Z</time>
      </trkpt>
      <trkpt lat="45.22446" lon="5.73695">
        <ele>994.79998779297</ele>
        <time>2021-10-17T04:53:50.000Z</time>
      </trkpt>
      <trkpt lat="45.22449" lon="5.73696">
        <ele>995</ele>
        <time>2021-10-17T04:53:52.000Z</time>
      </trkpt>
      <trkpt lat="45.22458" lon="5.73694">
        <ele>994.59997558594</ele>
        <time>2021-10-17T04:53:58.000Z</time>
      </trkpt>
      <trkpt lat="45.22463" lon="5.73694">
        <ele>994.20001220703</ele>
        <time>2021-10-17T04:54:01.000Z</time>
      </trkpt>
      <trkpt lat="45.22472" lon="5.73695">
        <ele>995.40002441406</ele>
        <time>2021-10-17T04:54:07.000Z</time>
      </trkpt>
      <trkpt lat="45.22474" lon="5.73696">
        <ele>995.79998779297</ele>
        <time>2021-10-17T04:54:09.000Z</time>
      </trkpt>
      <trkpt lat="45.22476" lon="5.73697">
        <ele>997</ele>
        <time>2021-10-17T04:54:12.000Z</time>
      </trkpt>
      <trkpt lat="45.22478" lon="5.73697">
        <ele>997.59997558594</ele>
        <time>2021-10-17T04:54:14.000Z</time>
      </trkpt>
      <trkpt lat="45.22479" lon="5.73697">
        <ele>998</ele>
        <time>2021-10-17T04:54:16.000Z</time>
      </trkpt>
      <trkpt lat="45.22483" lon="5.73698">
        <ele>999.20001220703</ele>
        <time>2021-10-17T04:54:21.000Z</time>
      </trkpt>
      <trkpt lat="45.22485" lon="5.73693">
        <ele>1000.4000244141</ele>
        <time>2021-10-17T04:54:26.000Z</time>
      </trkpt>
      <trkpt lat="45.22487" lon="5.73692">
        <ele>1001.4000244141</ele>
        <time>2021-10-17T04:54:29.000Z</time>
      </trkpt>
      <trkpt lat="45.22488" lon="5.73692">
        <ele>1001.5999755859</ele>
        <time>2021-10-17T04:54:30.000Z</time>
      </trkpt>
      <trkpt lat="45.22489" lon="5.73692">
        <ele>1001.799987793</ele>
        <time>2021-10-17T04:54:31.000Z</time>
      </trkpt>
      <trkpt lat="45.2249" lon="5.73692">
        <ele>1002</ele>
        <time>2021-10-17T04:54:32.000Z</time>
      </trkpt>
      <trkpt lat="45.22491" lon="5.73691">
        <ele>1002</ele>
        <time>2021-10-17T04:54:33.000Z</time>
      </trkpt>
      <trkpt lat="45.22492" lon="5.73689">
        <ele>1002.5999755859</ele>
        <time>2021-10-17T04:54:35.000Z</time>
      </trkpt>
      <trkpt lat="45.22494" lon="5.73687">
        <ele>1003.200012207</ele>
        <time>2021-10-17T04:54:37.000Z</time>
      </trkpt>
      <trkpt lat="45.22497" lon="5.73686">
        <ele>1003.5999755859</ele>
        <time>2021-10-17T04:54:40.000Z</time>
      </trkpt>
      <trkpt lat="45.22502" lon="5.73682">
        <ele>1004.4000244141</ele>
        <time>2021-10-17T04:54:44.000Z</time>
      </trkpt>
      <trkpt lat="45.22505" lon="5.73682">
        <ele>1004.799987793</ele>
        <time>2021-10-17T04:54:46.000Z</time>
      </trkpt>
      <trkpt lat="45.22509" lon="5.73686">
        <ele>1005.5999755859</ele>
        <time>2021-10-17T04:54:49.000Z</time>
      </trkpt>
      <trkpt lat="45.2251" lon="5.73686">
        <ele>1005.799987793</ele>
        <time>2021-10-17T04:54:50.000Z</time>
      </trkpt>
      <trkpt lat="45.22515" lon="5.73685">
        <ele>1007.200012207</ele>
        <time>2021-10-17T04:54:55.000Z</time>
      </trkpt>
      <trkpt lat="45.22516" lon="5.73686">
        <ele>1007.5999755859</ele>
        <time>2021-10-17T04:54:56.000Z</time>
      </trkpt>
      <trkpt lat="45.22519" lon="5.73687">
        <ele>1008.200012207</ele>
        <time>2021-10-17T04:54:59.000Z</time>
      </trkpt>
      <trkpt lat="45.22521" lon="5.73687">
        <ele>1008.4000244141</ele>
        <time>2021-10-17T04:55:00.000Z</time>
      </trkpt>
      <trkpt lat="45.22522" lon="5.73687">
        <ele>1008.4000244141</ele>
        <time>2021-10-17T04:55:01.000Z</time>
      </trkpt>
      <trkpt lat="45.22525" lon="5.73688">
        <ele>1009.200012207</ele>
        <time>2021-10-17T04:55:03.000Z</time>
      </trkpt>
      <trkpt lat="45.22527" lon="5.73689">
        <ele>1009.5999755859</ele>
        <time>2021-10-17T04:55:05.000Z</time>
      </trkpt>
      <trkpt lat="45.2253" lon="5.7369">
        <ele>1010.4000244141</ele>
        <time>2021-10-17T04:55:09.000Z</time>
      </trkpt>
      <trkpt lat="45.22532" lon="5.7369">
        <ele>1011.200012207</ele>
        <time>2021-10-17T04:55:12.000Z</time>
      </trkpt>
      <trkpt lat="45.22533" lon="5.7369">
        <ele>1011.4000244141</ele>
        <time>2021-10-17T04:55:13.000Z</time>
      </trkpt>
      <trkpt lat="45.22534" lon="5.73691">
        <ele>1011.5999755859</ele>
        <time>2021-10-17T04:55:14.000Z</time>
      </trkpt>
      <trkpt lat="45.22538" lon="5.73693">
        <ele>1012.5999755859</ele>
        <time>2021-10-17T04:55:17.000Z</time>
      </trkpt>
      <trkpt lat="45.2254" lon="5.73694">
        <ele>1012.799987793</ele>
        <time>2021-10-17T04:55:18.000Z</time>
      </trkpt>
      <trkpt lat="45.22541" lon="5.73694">
        <ele>1012.799987793</ele>
        <time>2021-10-17T04:55:19.000Z</time>
      </trkpt>
      <trkpt lat="45.22544" lon="5.73695">
        <ele>1013.799987793</ele>
        <time>2021-10-17T04:55:22.000Z</time>
      </trkpt>
      <trkpt lat="45.22549" lon="5.73696">
        <ele>1015</ele>
        <time>2021-10-17T04:55:27.000Z</time>
      </trkpt>
      <trkpt lat="45.2255" lon="5.73696">
        <ele>1015.4000244141</ele>
        <time>2021-10-17T04:55:28.000Z</time>
      </trkpt>
      <trkpt lat="45.22554" lon="5.73698">
        <ele>1016.200012207</ele>
        <time>2021-10-17T04:55:32.000Z</time>
      </trkpt>
      <trkpt lat="45.22555" lon="5.73698">
        <ele>1016.200012207</ele>
        <time>2021-10-17T04:55:33.000Z</time>
      </trkpt>
      <trkpt lat="45.22557" lon="5.737">
        <ele>1016.799987793</ele>
        <time>2021-10-17T04:55:35.000Z</time>
      </trkpt>
      <trkpt lat="45.2256" lon="5.73702">
        <ele>1017.4000244141</ele>
        <time>2021-10-17T04:55:37.000Z</time>
      </trkpt>
      <trkpt lat="45.22561" lon="5.73703">
        <ele>1017.5999755859</ele>
        <time>2021-10-17T04:55:38.000Z</time>
      </trkpt>
      <trkpt lat="45.22564" lon="5.73707">
        <ele>1018.200012207</ele>
        <time>2021-10-17T04:55:41.000Z</time>
      </trkpt>
      <trkpt lat="45.22567" lon="5.7371">
        <ele>1018.5999755859</ele>
        <time>2021-10-17T04:55:43.000Z</time>
      </trkpt>
      <trkpt lat="45.22568" lon="5.73711">
        <ele>1018.5999755859</ele>
        <time>2021-10-17T04:55:44.000Z</time>
      </trkpt>
      <trkpt lat="45.22574" lon="5.73713">
        <ele>1018.5999755859</ele>
        <time>2021-10-17T04:55:47.000Z</time>
      </trkpt>
      <trkpt lat="45.22581" lon="5.73713">
        <ele>1019</ele>
        <time>2021-10-17T04:55:51.000Z</time>
      </trkpt>
      <trkpt lat="45.22586" lon="5.73715">
        <ele>1019.4000244141</ele>
        <time>2021-10-17T04:55:54.000Z</time>
      </trkpt>
      <trkpt lat="45.22587" lon="5.73716">
        <ele>1019.5999755859</ele>
        <time>2021-10-17T04:55:55.000Z</time>
      </trkpt>
      <trkpt lat="45.22592" lon="5.73721">
        <ele>1020.4000244141</ele>
        <time>2021-10-17T04:56:00.000Z</time>
      </trkpt>
      <trkpt lat="45.22594" lon="5.73723">
        <ele>1021</ele>
        <time>2021-10-17T04:56:01.000Z</time>
      </trkpt>
      <trkpt lat="45.22597" lon="5.73725">
        <ele>1022.200012207</ele>
        <time>2021-10-17T04:56:04.000Z</time>
      </trkpt>
      <trkpt lat="45.22601" lon="5.73727">
        <ele>1023.200012207</ele>
        <time>2021-10-17T04:56:08.000Z</time>
      </trkpt>
      <trkpt lat="45.22605" lon="5.7373">
        <ele>1024.1999511719</ele>
        <time>2021-10-17T04:56:12.000Z</time>
      </trkpt>
      <trkpt lat="45.22606" lon="5.73731">
        <ele>1024.4000244141</ele>
        <time>2021-10-17T04:56:13.000Z</time>
      </trkpt>
      <trkpt lat="45.2261" lon="5.73732">
        <ele>1024.8000488281</ele>
        <time>2021-10-17T04:56:16.000Z</time>
      </trkpt>
      <trkpt lat="45.22613" lon="5.73734">
        <ele>1025.4000244141</ele>
        <time>2021-10-17T04:56:19.000Z</time>
      </trkpt>
      <trkpt lat="45.22615" lon="5.73736">
        <ele>1026</ele>
        <time>2021-10-17T04:56:22.000Z</time>
      </trkpt>
      <trkpt lat="45.22619" lon="5.73738">
        <ele>1026.4000244141</ele>
        <time>2021-10-17T04:56:25.000Z</time>
      </trkpt>
      <trkpt lat="45.22625" lon="5.73743">
        <ele>1026.5999755859</ele>
        <time>2021-10-17T04:56:29.000Z</time>
      </trkpt>
      <trkpt lat="45.22631" lon="5.73751">
        <ele>1026.4000244141</ele>
        <time>2021-10-17T04:56:34.000Z</time>
      </trkpt>
      <trkpt lat="45.2264" lon="5.73757">
        <ele>1026.1999511719</ele>
        <time>2021-10-17T04:56:40.000Z</time>
      </trkpt>
      <trkpt lat="45.22652" lon="5.73769">
        <ele>1026.1999511719</ele>
        <time>2021-10-17T04:56:47.000Z</time>
      </trkpt>
      <trkpt lat="45.22654" lon="5.73772">
        <ele>1026.4000244141</ele>
        <time>2021-10-17T04:56:49.000Z</time>
      </trkpt>
      <trkpt lat="45.22657" lon="5.73774">
        <ele>1026.8000488281</ele>
        <time>2021-10-17T04:56:51.000Z</time>
      </trkpt>
      <trkpt lat="45.22658" lon="5.73774">
        <ele>1027</ele>
        <time>2021-10-17T04:56:52.000Z</time>
      </trkpt>
      <trkpt lat="45.22661" lon="5.73774">
        <ele>1027.5999755859</ele>
        <time>2021-10-17T04:56:54.000Z</time>
      </trkpt>
      <trkpt lat="45.22664" lon="5.73776">
        <ele>1028.5999755859</ele>
        <time>2021-10-17T04:56:58.000Z</time>
      </trkpt>
      <trkpt lat="45.22667" lon="5.73778">
        <ele>1029.1999511719</ele>
        <time>2021-10-17T04:57:00.000Z</time>
      </trkpt>
      <trkpt lat="45.22668" lon="5.73779">
        <ele>1029.4000244141</ele>
        <time>2021-10-17T04:57:01.000Z</time>
      </trkpt>
      <trkpt lat="45.22669" lon="5.7378">
        <ele>1029.8000488281</ele>
        <time>2021-10-17T04:57:02.000Z</time>
      </trkpt>
      <trkpt lat="45.22672" lon="5.73782">
        <ele>1030.1999511719</ele>
        <time>2021-10-17T04:57:04.000Z</time>
      </trkpt>
      <trkpt lat="45.22674" lon="5.73784">
        <ele>1030.5999755859</ele>
        <time>2021-10-17T04:57:06.000Z</time>
      </trkpt>
      <trkpt lat="45.2268" lon="5.73791">
        <ele>1030.8000488281</ele>
        <time>2021-10-17T04:57:09.000Z</time>
      </trkpt>
      <trkpt lat="45.22688" lon="5.73797">
        <ele>1031.1999511719</ele>
        <time>2021-10-17T04:57:14.000Z</time>
      </trkpt>
      <trkpt lat="45.2269" lon="5.73799">
        <ele>1031.1999511719</ele>
        <time>2021-10-17T04:57:15.000Z</time>
      </trkpt>
      <trkpt lat="45.227" lon="5.73803">
        <ele>1031.8000488281</ele>
        <time>2021-10-17T04:57:23.000Z</time>
      </trkpt>
      <trkpt lat="45.22702" lon="5.73803">
        <ele>1032</ele>
        <time>2021-10-17T04:57:24.000Z</time>
      </trkpt>
      <trkpt lat="45.22714" lon="5.73807">
        <ele>1032.5999755859</ele>
        <time>2021-10-17T04:57:31.000Z</time>
      </trkpt>
      <trkpt lat="45.2272" lon="5.73814">
        <ele>1032.1999511719</ele>
        <time>2021-10-17T04:57:37.000Z</time>
      </trkpt>
      <trkpt lat="45.22724" lon="5.73815">
        <ele>1032</ele>
        <time>2021-10-17T04:57:39.000Z</time>
      </trkpt>
      <trkpt lat="45.22735" lon="5.73817">
        <ele>1031.8000488281</ele>
        <time>2021-10-17T04:57:45.000Z</time>
      </trkpt>
      <trkpt lat="45.22748" lon="5.73821">
        <ele>1031.4000244141</ele>
        <time>2021-10-17T04:57:50.000Z</time>
      </trkpt>
      <trkpt lat="45.22751" lon="5.73824">
        <ele>1031.4000244141</ele>
        <time>2021-10-17T04:57:52.000Z</time>
      </trkpt>
      <trkpt lat="45.22764" lon="5.73835">
        <ele>1031.4000244141</ele>
        <time>2021-10-17T04:57:59.000Z</time>
      </trkpt>
      <trkpt lat="45.22766" lon="5.73836">
        <ele>1031.4000244141</ele>
        <time>2021-10-17T04:58:00.000Z</time>
      </trkpt>
      <trkpt lat="45.2277" lon="5.7384">
        <ele>1031.4000244141</ele>
        <time>2021-10-17T04:58:02.000Z</time>
      </trkpt>
      <trkpt lat="45.22771" lon="5.73842">
        <ele>1031.4000244141</ele>
        <time>2021-10-17T04:58:03.000Z</time>
      </trkpt>
      <trkpt lat="45.22772" lon="5.73843">
        <ele>1031.4000244141</ele>
        <time>2021-10-17T04:58:04.000Z</time>
      </trkpt>
      <trkpt lat="45.22775" lon="5.73845">
        <ele>1031.4000244141</ele>
        <time>2021-10-17T04:58:06.000Z</time>
      </trkpt>
      <trkpt lat="45.22777" lon="5.73845">
        <ele>1031.4000244141</ele>
        <time>2021-10-17T04:58:07.000Z</time>
      </trkpt>
      <trkpt lat="45.2278" lon="5.73846">
        <ele>1031</ele>
        <time>2021-10-17T04:58:10.000Z</time>
      </trkpt>
      <trkpt lat="45.22781" lon="5.73846">
        <ele>1030.8000488281</ele>
        <time>2021-10-17T04:58:11.000Z</time>
      </trkpt>
      <trkpt lat="45.22791" lon="5.7385">
        <ele>1030.4000244141</ele>
        <time>2021-10-17T04:58:14.000Z</time>
      </trkpt>
      <trkpt lat="45.22798" lon="5.73853">
        <ele>1030.1999511719</ele>
        <time>2021-10-17T04:58:17.000Z</time>
      </trkpt>
      <trkpt lat="45.228" lon="5.73855">
        <ele>1029.8000488281</ele>
        <time>2021-10-17T04:58:19.000Z</time>
      </trkpt>
      <trkpt lat="45.22807" lon="5.73859">
        <ele>1028.8000488281</ele>
        <time>2021-10-17T04:58:24.000Z</time>
      </trkpt>
      <trkpt lat="45.22808" lon="5.7386">
        <ele>1028.5999755859</ele>
        <time>2021-10-17T04:58:25.000Z</time>
      </trkpt>
      <trkpt lat="45.22815" lon="5.73861">
        <ele>1027.5999755859</ele>
        <time>2021-10-17T04:58:29.000Z</time>
      </trkpt>
      <trkpt lat="45.22821" lon="5.73862">
        <ele>1027</ele>
        <time>2021-10-17T04:58:33.000Z</time>
      </trkpt>
      <trkpt lat="45.22825" lon="5.73864">
        <ele>1026.5999755859</ele>
        <time>2021-10-17T04:58:35.000Z</time>
      </trkpt>
      <trkpt lat="45.22835" lon="5.73869">
        <ele>1025.5999755859</ele>
        <time>2021-10-17T04:58:40.000Z</time>
      </trkpt>
      <trkpt lat="45.2284" lon="5.7387">
        <ele>1025.4000244141</ele>
        <time>2021-10-17T04:58:42.000Z</time>
      </trkpt>
      <trkpt lat="45.22858" lon="5.73875">
        <ele>1025</ele>
        <time>2021-10-17T04:58:49.000Z</time>
      </trkpt>
      <trkpt lat="45.22862" lon="5.73876">
        <ele>1024.4000244141</ele>
        <time>2021-10-17T04:58:51.000Z</time>
      </trkpt>
      <trkpt lat="45.22873" lon="5.73875">
        <ele>1023.5999755859</ele>
        <time>2021-10-17T04:58:55.000Z</time>
      </trkpt>
      <trkpt lat="45.22876" lon="5.73875">
        <ele>1023.4000244141</ele>
        <time>2021-10-17T04:58:56.000Z</time>
      </trkpt>
      <trkpt lat="45.22887" lon="5.73866">
        <ele>1023.5999755859</ele>
        <time>2021-10-17T04:59:02.000Z</time>
      </trkpt>
      <trkpt lat="45.22894" lon="5.73866">
        <ele>1023.200012207</ele>
        <time>2021-10-17T04:59:07.000Z</time>
      </trkpt>
      <trkpt lat="45.22902" lon="5.73862">
        <ele>1022.799987793</ele>
        <time>2021-10-17T04:59:12.000Z</time>
      </trkpt>
      <trkpt lat="45.22915" lon="5.73861">
        <ele>1022.4000244141</ele>
        <time>2021-10-17T04:59:18.000Z</time>
      </trkpt>
      <trkpt lat="45.22929" lon="5.7386">
        <ele>1021.5999755859</ele>
        <time>2021-10-17T04:59:25.000Z</time>
      </trkpt>
      <trkpt lat="45.22931" lon="5.7386">
        <ele>1021.5999755859</ele>
        <time>2021-10-17T04:59:26.000Z</time>
      </trkpt>
      <trkpt lat="45.22934" lon="5.7386">
        <ele>1021.4000244141</ele>
        <time>2021-10-17T04:59:27.000Z</time>
      </trkpt>
      <trkpt lat="45.22936" lon="5.7386">
        <ele>1021.200012207</ele>
        <time>2021-10-17T04:59:28.000Z</time>
      </trkpt>
      <trkpt lat="45.22942" lon="5.73862">
        <ele>1020.5999755859</ele>
        <time>2021-10-17T04:59:31.000Z</time>
      </trkpt>
      <trkpt lat="45.22944" lon="5.73867">
        <ele>1020.200012207</ele>
        <time>2021-10-17T04:59:33.000Z</time>
      </trkpt>
      <trkpt lat="45.22944" lon="5.73869">
        <ele>1020</ele>
        <time>2021-10-17T04:59:34.000Z</time>
      </trkpt>
      <trkpt lat="45.22946" lon="5.73875">
        <ele>1019.200012207</ele>
        <time>2021-10-17T04:59:38.000Z</time>
      </trkpt>
      <trkpt lat="45.2295" lon="5.73878">
        <ele>1019</ele>
        <time>2021-10-17T04:59:40.000Z</time>
      </trkpt>
      <trkpt lat="45.22952" lon="5.73885">
        <ele>1018</ele>
        <time>2021-10-17T04:59:43.000Z</time>
      </trkpt>
      <trkpt lat="45.22952" lon="5.73888">
        <ele>1017.5999755859</ele>
        <time>2021-10-17T04:59:44.000Z</time>
      </trkpt>
      <trkpt lat="45.22952" lon="5.73895">
        <ele>1016.4000244141</ele>
        <time>2021-10-17T04:59:46.000Z</time>
      </trkpt>
      <trkpt lat="45.22953" lon="5.73908">
        <ele>1015.200012207</ele>
        <time>2021-10-17T04:59:50.000Z</time>
      </trkpt>
      <trkpt lat="45.22955" lon="5.73925">
        <ele>1014.200012207</ele>
        <time>2021-10-17T04:59:55.000Z</time>
      </trkpt>
      <trkpt lat="45.22957" lon="5.73934">
        <ele>1014.200012207</ele>
        <time>2021-10-17T04:59:58.000Z</time>
      </trkpt>
      <trkpt lat="45.22963" lon="5.73948">
        <ele>1014.4000244141</ele>
        <time>2021-10-17T05:00:03.000Z</time>
      </trkpt>
      <trkpt lat="45.22974" lon="5.7396">
        <ele>1014.5999755859</ele>
        <time>2021-10-17T05:00:09.000Z</time>
      </trkpt>
      <trkpt lat="45.22986" lon="5.73966">
        <ele>1015</ele>
        <time>2021-10-17T05:00:15.000Z</time>
      </trkpt>
      <trkpt lat="45.22988" lon="5.73967">
        <ele>1015.200012207</ele>
        <time>2021-10-17T05:00:16.000Z</time>
      </trkpt>
      <trkpt lat="45.23" lon="5.73969">
        <ele>1015.5999755859</ele>
        <time>2021-10-17T05:00:22.000Z</time>
      </trkpt>
      <trkpt lat="45.23007" lon="5.7397">
        <ele>1015.799987793</ele>
        <time>2021-10-17T05:00:25.000Z</time>
      </trkpt>
      <trkpt lat="45.23016" lon="5.73971">
        <ele>1016.200012207</ele>
        <time>2021-10-17T05:00:30.000Z</time>
      </trkpt>
      <trkpt lat="45.23024" lon="5.73972">
        <ele>1016.200012207</ele>
        <time>2021-10-17T05:00:34.000Z</time>
      </trkpt>
      <trkpt lat="45.23029" lon="5.73974">
        <ele>1016.200012207</ele>
        <time>2021-10-17T05:00:37.000Z</time>
      </trkpt>
      <trkpt lat="45.23039" lon="5.73971">
        <ele>1016.4000244141</ele>
        <time>2021-10-17T05:00:42.000Z</time>
      </trkpt>
      <trkpt lat="45.23054" lon="5.73958">
        <ele>1017.200012207</ele>
        <time>2021-10-17T05:00:51.000Z</time>
      </trkpt>
      <trkpt lat="45.23062" lon="5.73956">
        <ele>1018.4000244141</ele>
        <time>2021-10-17T05:00:56.000Z</time>
      </trkpt>
      <trkpt lat="45.23066" lon="5.73956">
        <ele>1019</ele>
        <time>2021-10-17T05:00:59.000Z</time>
      </trkpt>
      <trkpt lat="45.23071" lon="5.7396">
        <ele>1019.4000244141</ele>
        <time>2021-10-17T05:01:01.000Z</time>
      </trkpt>
      <trkpt lat="45.23072" lon="5.7396">
        <ele>1019.4000244141</ele>
        <time>2021-10-17T05:01:02.000Z</time>
      </trkpt>
      <trkpt lat="45.23077" lon="5.73963">
        <ele>1020.4000244141</ele>
        <time>2021-10-17T05:01:05.000Z</time>
      </trkpt>
      <trkpt lat="45.2308" lon="5.73967">
        <ele>1021.200012207</ele>
        <time>2021-10-17T05:01:08.000Z</time>
      </trkpt>
      <trkpt lat="45.23081" lon="5.73969">
        <ele>1021.4000244141</ele>
        <time>2021-10-17T05:01:09.000Z</time>
      </trkpt>
      <trkpt lat="45.23083" lon="5.7397">
        <ele>1021.5999755859</ele>
        <time>2021-10-17T05:01:10.000Z</time>
      </trkpt>
      <trkpt lat="45.23088" lon="5.73977">
        <ele>1022.5999755859</ele>
        <time>2021-10-17T05:01:15.000Z</time>
      </trkpt>
      <trkpt lat="45.23089" lon="5.73977">
        <ele>1022.5999755859</ele>
        <time>2021-10-17T05:01:16.000Z</time>
      </trkpt>
      <trkpt lat="45.23091" lon="5.73977">
        <ele>1022.5999755859</ele>
        <time>2021-10-17T05:01:17.000Z</time>
      </trkpt>
      <trkpt lat="45.23103" lon="5.73977">
        <ele>1022.799987793</ele>
        <time>2021-10-17T05:01:23.000Z</time>
      </trkpt>
      <trkpt lat="45.23117" lon="5.73976">
        <ele>1023.200012207</ele>
        <time>2021-10-17T05:01:30.000Z</time>
      </trkpt>
      <trkpt lat="45.23128" lon="5.73977">
        <ele>1023.799987793</ele>
        <time>2021-10-17T05:01:36.000Z</time>
      </trkpt>
      <trkpt lat="45.23129" lon="5.73978">
        <ele>1024</ele>
        <time>2021-10-17T05:01:37.000Z</time>
      </trkpt>
      <trkpt lat="45.23135" lon="5.7398">
        <ele>1024.1999511719</ele>
        <time>2021-10-17T05:01:40.000Z</time>
      </trkpt>
      <trkpt lat="45.23141" lon="5.7398">
        <ele>1024.4000244141</ele>
        <time>2021-10-17T05:01:42.000Z</time>
      </trkpt>
      <trkpt lat="45.23145" lon="5.73982">
        <ele>1024.5999755859</ele>
        <time>2021-10-17T05:01:44.000Z</time>
      </trkpt>
      <trkpt lat="45.2315" lon="5.73984">
        <ele>1024.5999755859</ele>
        <time>2021-10-17T05:01:46.000Z</time>
      </trkpt>
      <trkpt lat="45.23152" lon="5.73984">
        <ele>1024.5999755859</ele>
        <time>2021-10-17T05:01:47.000Z</time>
      </trkpt>
      <trkpt lat="45.23157" lon="5.73985">
        <ele>1024.4000244141</ele>
        <time>2021-10-17T05:01:49.000Z</time>
      </trkpt>
      <trkpt lat="45.23162" lon="5.73987">
        <ele>1024</ele>
        <time>2021-10-17T05:01:52.000Z</time>
      </trkpt>
      <trkpt lat="45.23172" lon="5.73992">
        <ele>1022.5999755859</ele>
        <time>2021-10-17T05:01:59.000Z</time>
      </trkpt>
      <trkpt lat="45.23173" lon="5.73993">
        <ele>1022.4000244141</ele>
        <time>2021-10-17T05:02:00.000Z</time>
      </trkpt>
      <trkpt lat="45.23174" lon="5.73995">
        <ele>1022.200012207</ele>
        <time>2021-10-17T05:02:01.000Z</time>
      </trkpt>
      <trkpt lat="45.23182" lon="5.73999">
        <ele>1021.4000244141</ele>
        <time>2021-10-17T05:02:05.000Z</time>
      </trkpt>
      <trkpt lat="45.23184" lon="5.74">
        <ele>1021.4000244141</ele>
        <time>2021-10-17T05:02:06.000Z</time>
      </trkpt>
      <trkpt lat="45.23188" lon="5.74002">
        <ele>1021</ele>
        <time>2021-10-17T05:02:09.000Z</time>
      </trkpt>
      <trkpt lat="45.23196" lon="5.74008">
        <ele>1020.4000244141</ele>
        <time>2021-10-17T05:02:13.000Z</time>
      </trkpt>
      <trkpt lat="45.23201" lon="5.74012">
        <ele>1020</ele>
        <time>2021-10-17T05:02:15.000Z</time>
      </trkpt>
      <trkpt lat="45.23207" lon="5.74017">
        <ele>1019.799987793</ele>
        <time>2021-10-17T05:02:18.000Z</time>
      </trkpt>
      <trkpt lat="45.23221" lon="5.74029">
        <ele>1020</ele>
        <time>2021-10-17T05:02:25.000Z</time>
      </trkpt>
      <trkpt lat="45.23223" lon="5.74032">
        <ele>1020</ele>
        <time>2021-10-17T05:02:26.000Z</time>
      </trkpt>
      <trkpt lat="45.23226" lon="5.74046">
        <ele>1020.799987793</ele>
        <time>2021-10-17T05:02:30.000Z</time>
      </trkpt>
      <trkpt lat="45.23227" lon="5.74057">
        <ele>1021.4000244141</ele>
        <time>2021-10-17T05:02:34.000Z</time>
      </trkpt>
      <trkpt lat="45.23227" lon="5.74064">
        <ele>1022.5999755859</ele>
        <time>2021-10-17T05:02:38.000Z</time>
      </trkpt>
      <trkpt lat="45.23227" lon="5.74065">
        <ele>1022.799987793</ele>
        <time>2021-10-17T05:02:39.000Z</time>
      </trkpt>
      <trkpt lat="45.23226" lon="5.74075">
        <ele>1023.4000244141</ele>
        <time>2021-10-17T05:02:43.000Z</time>
      </trkpt>
      <trkpt lat="45.23225" lon="5.74083">
        <ele>1023.4000244141</ele>
        <time>2021-10-17T05:02:46.000Z</time>
      </trkpt>
      <trkpt lat="45.23225" lon="5.74085">
        <ele>1023.4000244141</ele>
        <time>2021-10-17T05:02:47.000Z</time>
      </trkpt>
      <trkpt lat="45.23222" lon="5.74098">
        <ele>1023.5999755859</ele>
        <time>2021-10-17T05:02:52.000Z</time>
      </trkpt>
      <trkpt lat="45.23223" lon="5.74103">
        <ele>1023.5999755859</ele>
        <time>2021-10-17T05:02:54.000Z</time>
      </trkpt>
      <trkpt lat="45.23224" lon="5.74107">
        <ele>1023.5999755859</ele>
        <time>2021-10-17T05:02:56.000Z</time>
      </trkpt>
      <trkpt lat="45.23225" lon="5.74109">
        <ele>1023.5999755859</ele>
        <time>2021-10-17T05:02:57.000Z</time>
      </trkpt>
      <trkpt lat="45.23227" lon="5.74113">
        <ele>1023.200012207</ele>
        <time>2021-10-17T05:02:59.000Z</time>
      </trkpt>
      <trkpt lat="45.23229" lon="5.74117">
        <ele>1022.799987793</ele>
        <time>2021-10-17T05:03:01.000Z</time>
      </trkpt>
      <trkpt lat="45.2323" lon="5.74118">
        <ele>1022.5999755859</ele>
        <time>2021-10-17T05:03:02.000Z</time>
      </trkpt>
      <trkpt lat="45.23234" lon="5.74123">
        <ele>1022.4000244141</ele>
        <time>2021-10-17T05:03:06.000Z</time>
      </trkpt>
      <trkpt lat="45.23238" lon="5.74126">
        <ele>1022.4000244141</ele>
        <time>2021-10-17T05:03:08.000Z</time>
      </trkpt>
      <trkpt lat="45.23245" lon="5.74129">
        <ele>1022.4000244141</ele>
        <time>2021-10-17T05:03:11.000Z</time>
      </trkpt>
      <trkpt lat="45.23248" lon="5.74133">
        <ele>1023</ele>
        <time>2021-10-17T05:03:14.000Z</time>
      </trkpt>
      <trkpt lat="45.23249" lon="5.74135">
        <ele>1023</ele>
        <time>2021-10-17T05:03:15.000Z</time>
      </trkpt>
      <trkpt lat="45.23257" lon="5.74141">
        <ele>1023.5999755859</ele>
        <time>2021-10-17T05:03:18.000Z</time>
      </trkpt>
      <trkpt lat="45.23259" lon="5.74142">
        <ele>1023.799987793</ele>
        <time>2021-10-17T05:03:19.000Z</time>
      </trkpt>
      <trkpt lat="45.23261" lon="5.74144">
        <ele>1023.799987793</ele>
        <time>2021-10-17T05:03:20.000Z</time>
      </trkpt>
      <trkpt lat="45.23273" lon="5.74159">
        <ele>1023.200012207</ele>
        <time>2021-10-17T05:03:28.000Z</time>
      </trkpt>
      <trkpt lat="45.23277" lon="5.74169">
        <ele>1022.799987793</ele>
        <time>2021-10-17T05:03:32.000Z</time>
      </trkpt>
      <trkpt lat="45.2328" lon="5.74171">
        <ele>1022.5999755859</ele>
        <time>2021-10-17T05:03:33.000Z</time>
      </trkpt>
      <trkpt lat="45.23281" lon="5.74173">
        <ele>1022.5999755859</ele>
        <time>2021-10-17T05:03:34.000Z</time>
      </trkpt>
      <trkpt lat="45.23284" lon="5.74176">
        <ele>1022.4000244141</ele>
        <time>2021-10-17T05:03:36.000Z</time>
      </trkpt>
      <trkpt lat="45.23286" lon="5.74177">
        <ele>1022.200012207</ele>
        <time>2021-10-17T05:03:37.000Z</time>
      </trkpt>
      <trkpt lat="45.23287" lon="5.74179">
        <ele>1022</ele>
        <time>2021-10-17T05:03:38.000Z</time>
      </trkpt>
      <trkpt lat="45.23294" lon="5.74183">
        <ele>1021.5999755859</ele>
        <time>2021-10-17T05:03:42.000Z</time>
      </trkpt>
      <trkpt lat="45.23298" lon="5.74185">
        <ele>1021.4000244141</ele>
        <time>2021-10-17T05:03:44.000Z</time>
      </trkpt>
      <trkpt lat="45.23306" lon="5.74185">
        <ele>1021.200012207</ele>
        <time>2021-10-17T05:03:47.000Z</time>
      </trkpt>
      <trkpt lat="45.23309" lon="5.74187">
        <ele>1021.200012207</ele>
        <time>2021-10-17T05:03:49.000Z</time>
      </trkpt>
      <trkpt lat="45.23315" lon="5.74191">
        <ele>1021.200012207</ele>
        <time>2021-10-17T05:03:52.000Z</time>
      </trkpt>
      <trkpt lat="45.23321" lon="5.74194">
        <ele>1021.200012207</ele>
        <time>2021-10-17T05:03:55.000Z</time>
      </trkpt>
      <trkpt lat="45.23323" lon="5.74194">
        <ele>1021.200012207</ele>
        <time>2021-10-17T05:03:56.000Z</time>
      </trkpt>
      <trkpt lat="45.23325" lon="5.74194">
        <ele>1021.200012207</ele>
        <time>2021-10-17T05:03:57.000Z</time>
      </trkpt>
      <trkpt lat="45.23328" lon="5.74197">
        <ele>1021.200012207</ele>
        <time>2021-10-17T05:03:59.000Z</time>
      </trkpt>
      <trkpt lat="45.23333" lon="5.74203">
        <ele>1021.200012207</ele>
        <time>2021-10-17T05:04:02.000Z</time>
      </trkpt>
      <trkpt lat="45.23337" lon="5.74205">
        <ele>1021.200012207</ele>
        <time>2021-10-17T05:04:04.000Z</time>
      </trkpt>
      <trkpt lat="45.2334" lon="5.74207">
        <ele>1021.200012207</ele>
        <time>2021-10-17T05:04:05.000Z</time>
      </trkpt>
      <trkpt lat="45.23355" lon="5.74218">
        <ele>1021</ele>
        <time>2021-10-17T05:04:12.000Z</time>
      </trkpt>
      <trkpt lat="45.23356" lon="5.74219">
        <ele>1021</ele>
        <time>2021-10-17T05:04:13.000Z</time>
      </trkpt>
      <trkpt lat="45.23365" lon="5.74228">
        <ele>1020.5999755859</ele>
        <time>2021-10-17T05:04:19.000Z</time>
      </trkpt>
      <trkpt lat="45.23368" lon="5.7423">
        <ele>1020.5999755859</ele>
        <time>2021-10-17T05:04:20.000Z</time>
      </trkpt>
      <trkpt lat="45.23374" lon="5.74236">
        <ele>1020.4000244141</ele>
        <time>2021-10-17T05:04:22.000Z</time>
      </trkpt>
      <trkpt lat="45.23385" lon="5.74244">
        <ele>1020</ele>
        <time>2021-10-17T05:04:26.000Z</time>
      </trkpt>
      <trkpt lat="45.23387" lon="5.74247">
        <ele>1020</ele>
        <time>2021-10-17T05:04:27.000Z</time>
      </trkpt>
      <trkpt lat="45.23387" lon="5.74257">
        <ele>1019.5999755859</ele>
        <time>2021-10-17T05:04:30.000Z</time>
      </trkpt>
      <trkpt lat="45.23386" lon="5.7426">
        <ele>1019.5999755859</ele>
        <time>2021-10-17T05:04:31.000Z</time>
      </trkpt>
      <trkpt lat="45.23388" lon="5.74269">
        <ele>1019</ele>
        <time>2021-10-17T05:04:35.000Z</time>
      </trkpt>
      <trkpt lat="45.23389" lon="5.74272">
        <ele>1018.4000244141</ele>
        <time>2021-10-17T05:04:36.000Z</time>
      </trkpt>
      <trkpt lat="45.2339" lon="5.74274">
        <ele>1018</ele>
        <time>2021-10-17T05:04:37.000Z</time>
      </trkpt>
      <trkpt lat="45.2339" lon="5.74278">
        <ele>1017.200012207</ele>
        <time>2021-10-17T05:04:39.000Z</time>
      </trkpt>
      <trkpt lat="45.23389" lon="5.74283">
        <ele>1016.4000244141</ele>
        <time>2021-10-17T05:04:41.000Z</time>
      </trkpt>
      <trkpt lat="45.23389" lon="5.74287">
        <ele>1016</ele>
        <time>2021-10-17T05:04:42.000Z</time>
      </trkpt>
      <trkpt lat="45.23388" lon="5.74295">
        <ele>1014.799987793</ele>
        <time>2021-10-17T05:04:45.000Z</time>
      </trkpt>
      <trkpt lat="45.23385" lon="5.74301">
        <ele>1014.4000244141</ele>
        <time>2021-10-17T05:04:47.000Z</time>
      </trkpt>
      <trkpt lat="45.23384" lon="5.74307">
        <ele>1013.799987793</ele>
        <time>2021-10-17T05:04:49.000Z</time>
      </trkpt>
      <trkpt lat="45.23383" lon="5.74313">
        <ele>1013</ele>
        <time>2021-10-17T05:04:52.000Z</time>
      </trkpt>
      <trkpt lat="45.23382" lon="5.74318">
        <ele>1012.5999755859</ele>
        <time>2021-10-17T05:04:54.000Z</time>
      </trkpt>
      <trkpt lat="45.23382" lon="5.7432">
        <ele>1012.4000244141</ele>
        <time>2021-10-17T05:04:55.000Z</time>
      </trkpt>
      <trkpt lat="45.23379" lon="5.74338">
        <ele>1011.5999755859</ele>
        <time>2021-10-17T05:05:01.000Z</time>
      </trkpt>
      <trkpt lat="45.2338" lon="5.74341">
        <ele>1011.4000244141</ele>
        <time>2021-10-17T05:05:02.000Z</time>
      </trkpt>
      <trkpt lat="45.2338" lon="5.74344">
        <ele>1011.200012207</ele>
        <time>2021-10-17T05:05:04.000Z</time>
      </trkpt>
      <trkpt lat="45.2338" lon="5.74345">
        <ele>1011.200012207</ele>
        <time>2021-10-17T05:05:05.000Z</time>
      </trkpt>
      <trkpt lat="45.23381" lon="5.74346">
        <ele>1011</ele>
        <time>2021-10-17T05:05:06.000Z</time>
      </trkpt>
      <trkpt lat="45.23382" lon="5.74349">
        <ele>1010.5999755859</ele>
        <time>2021-10-17T05:05:09.000Z</time>
      </trkpt>
      <trkpt lat="45.23385" lon="5.74352">
        <ele>1010.4000244141</ele>
        <time>2021-10-17T05:05:11.000Z</time>
      </trkpt>
      <trkpt lat="45.23385" lon="5.74355">
        <ele>1010.200012207</ele>
        <time>2021-10-17T05:05:12.000Z</time>
      </trkpt>
      <trkpt lat="45.23388" lon="5.74363">
        <ele>1009.200012207</ele>
        <time>2021-10-17T05:05:16.000Z</time>
      </trkpt>
      <trkpt lat="45.23393" lon="5.74366">
        <ele>1009</ele>
        <time>2021-10-17T05:05:19.000Z</time>
      </trkpt>
      <trkpt lat="45.2341" lon="5.74366">
        <ele>1010</ele>
        <time>2021-10-17T05:05:27.000Z</time>
      </trkpt>
      <trkpt lat="45.23413" lon="5.74368">
        <ele>1010.200012207</ele>
        <time>2021-10-17T05:05:29.000Z</time>
      </trkpt>
      <trkpt lat="45.2342" lon="5.74371">
        <ele>1010.799987793</ele>
        <time>2021-10-17T05:05:32.000Z</time>
      </trkpt>
      <trkpt lat="45.23428" lon="5.74378">
        <ele>1011.200012207</ele>
        <time>2021-10-17T05:05:36.000Z</time>
      </trkpt>
      <trkpt lat="45.2343" lon="5.74379">
        <ele>1011.4000244141</ele>
        <time>2021-10-17T05:05:37.000Z</time>
      </trkpt>
      <trkpt lat="45.23438" lon="5.74389">
        <ele>1012</ele>
        <time>2021-10-17T05:05:42.000Z</time>
      </trkpt>
      <trkpt lat="45.23445" lon="5.74396">
        <ele>1012.4000244141</ele>
        <time>2021-10-17T05:05:46.000Z</time>
      </trkpt>
      <trkpt lat="45.23462" lon="5.74413">
        <ele>1013.4000244141</ele>
        <time>2021-10-17T05:05:55.000Z</time>
      </trkpt>
      <trkpt lat="45.23464" lon="5.74415">
        <ele>1013.5999755859</ele>
        <time>2021-10-17T05:05:56.000Z</time>
      </trkpt>
      <trkpt lat="45.23466" lon="5.74417">
        <ele>1013.5999755859</ele>
        <time>2021-10-17T05:05:57.000Z</time>
      </trkpt>
      <trkpt lat="45.23478" lon="5.74426">
        <ele>1014</ele>
        <time>2021-10-17T05:06:04.000Z</time>
      </trkpt>
      <trkpt lat="45.23491" lon="5.74434">
        <ele>1013.5999755859</ele>
        <time>2021-10-17T05:06:08.000Z</time>
      </trkpt>
      <trkpt lat="45.23496" lon="5.74443">
        <ele>1013.4000244141</ele>
        <time>2021-10-17T05:06:12.000Z</time>
      </trkpt>
      <trkpt lat="45.23504" lon="5.74452">
        <ele>1012.4000244141</ele>
        <time>2021-10-17T05:06:17.000Z</time>
      </trkpt>
      <trkpt lat="45.23507" lon="5.74455">
        <ele>1011.799987793</ele>
        <time>2021-10-17T05:06:19.000Z</time>
      </trkpt>
      <trkpt lat="45.23513" lon="5.74461">
        <ele>1011</ele>
        <time>2021-10-17T05:06:22.000Z</time>
      </trkpt>
      <trkpt lat="45.23523" lon="5.74471">
        <ele>1010</ele>
        <time>2021-10-17T05:06:26.000Z</time>
      </trkpt>
      <trkpt lat="45.23524" lon="5.74474">
        <ele>1009.799987793</ele>
        <time>2021-10-17T05:06:27.000Z</time>
      </trkpt>
      <trkpt lat="45.23525" lon="5.74483">
        <ele>1009.4000244141</ele>
        <time>2021-10-17T05:06:30.000Z</time>
      </trkpt>
      <trkpt lat="45.23525" lon="5.74493">
        <ele>1008.799987793</ele>
        <time>2021-10-17T05:06:33.000Z</time>
      </trkpt>
      <trkpt lat="45.23524" lon="5.74505">
        <ele>1007.799987793</ele>
        <time>2021-10-17T05:06:37.000Z</time>
      </trkpt>
      <trkpt lat="45.23522" lon="5.74523">
        <ele>1007.4000244141</ele>
        <time>2021-10-17T05:06:42.000Z</time>
      </trkpt>
      <trkpt lat="45.23518" lon="5.7454">
        <ele>1007</ele>
        <time>2021-10-17T05:06:48.000Z</time>
      </trkpt>
      <trkpt lat="45.23515" lon="5.74543">
        <ele>1006.799987793</ele>
        <time>2021-10-17T05:06:49.000Z</time>
      </trkpt>
      <trkpt lat="45.23511" lon="5.74557">
        <ele>1005.799987793</ele>
        <time>2021-10-17T05:06:54.000Z</time>
      </trkpt>
      <trkpt lat="45.23511" lon="5.7456">
        <ele>1005.799987793</ele>
        <time>2021-10-17T05:06:55.000Z</time>
      </trkpt>
      <trkpt lat="45.23511" lon="5.74565">
        <ele>1005.200012207</ele>
        <time>2021-10-17T05:06:57.000Z</time>
      </trkpt>
      <trkpt lat="45.23511" lon="5.74568">
        <ele>1005</ele>
        <time>2021-10-17T05:06:58.000Z</time>
      </trkpt>
      <trkpt lat="45.2351" lon="5.74574">
        <ele>1004.5999755859</ele>
        <time>2021-10-17T05:07:00.000Z</time>
      </trkpt>
      <trkpt lat="45.23506" lon="5.74583">
        <ele>1004.200012207</ele>
        <time>2021-10-17T05:07:04.000Z</time>
      </trkpt>
      <trkpt lat="45.23498" lon="5.74594">
        <ele>1003.5999755859</ele>
        <time>2021-10-17T05:07:10.000Z</time>
      </trkpt>
      <trkpt lat="45.23497" lon="5.74596">
        <ele>1003.5999755859</ele>
        <time>2021-10-17T05:07:11.000Z</time>
      </trkpt>
      <trkpt lat="45.23494" lon="5.74602">
        <ele>1002.4000244141</ele>
        <time>2021-10-17T05:07:15.000Z</time>
      </trkpt>
      <trkpt lat="45.23493" lon="5.74604">
        <ele>1002.200012207</ele>
        <time>2021-10-17T05:07:16.000Z</time>
      </trkpt>
      <trkpt lat="45.23492" lon="5.74606">
        <ele>1001.200012207</ele>
        <time>2021-10-17T05:07:18.000Z</time>
      </trkpt>
      <trkpt lat="45.23491" lon="5.74607">
        <ele>1000.799987793</ele>
        <time>2021-10-17T05:07:19.000Z</time>
      </trkpt>
      <trkpt lat="45.23486" lon="5.7461">
        <ele>999.79998779297</ele>
        <time>2021-10-17T05:07:22.000Z</time>
      </trkpt>
      <trkpt lat="45.23483" lon="5.7461">
        <ele>999.40002441406</ele>
        <time>2021-10-17T05:07:23.000Z</time>
      </trkpt>
      <trkpt lat="45.23478" lon="5.74609">
        <ele>998.79998779297</ele>
        <time>2021-10-17T05:07:25.000Z</time>
      </trkpt>
      <trkpt lat="45.23474" lon="5.74606">
        <ele>998.40002441406</ele>
        <time>2021-10-17T05:07:28.000Z</time>
      </trkpt>
      <trkpt lat="45.23468" lon="5.746">
        <ele>997.79998779297</ele>
        <time>2021-10-17T05:07:34.000Z</time>
      </trkpt>
      <trkpt lat="45.23467" lon="5.74599">
        <ele>997.59997558594</ele>
        <time>2021-10-17T05:07:35.000Z</time>
      </trkpt>
      <trkpt lat="45.23462" lon="5.74596">
        <ele>996.59997558594</ele>
        <time>2021-10-17T05:07:38.000Z</time>
      </trkpt>
      <trkpt lat="45.2346" lon="5.74594">
        <ele>996</ele>
        <time>2021-10-17T05:07:40.000Z</time>
      </trkpt>
      <trkpt lat="45.23458" lon="5.74594">
        <ele>995.59997558594</ele>
        <time>2021-10-17T05:07:41.000Z</time>
      </trkpt>
      <trkpt lat="45.23457" lon="5.74592">
        <ele>995.40002441406</ele>
        <time>2021-10-17T05:07:42.000Z</time>
      </trkpt>
      <trkpt lat="45.23454" lon="5.74588">
        <ele>994.40002441406</ele>
        <time>2021-10-17T05:07:45.000Z</time>
      </trkpt>
      <trkpt lat="45.23453" lon="5.74587">
        <ele>994</ele>
        <time>2021-10-17T05:07:46.000Z</time>
      </trkpt>
      <trkpt lat="45.23452" lon="5.74587">
        <ele>993.79998779297</ele>
        <time>2021-10-17T05:07:47.000Z</time>
      </trkpt>
      <trkpt lat="45.2345" lon="5.74586">
        <ele>992.79998779297</ele>
        <time>2021-10-17T05:07:49.000Z</time>
      </trkpt>
      <trkpt lat="45.23446" lon="5.74584">
        <ele>991.79998779297</ele>
        <time>2021-10-17T05:07:52.000Z</time>
      </trkpt>
      <trkpt lat="45.23443" lon="5.74582">
        <ele>991.20001220703</ele>
        <time>2021-10-17T05:07:54.000Z</time>
      </trkpt>
      <trkpt lat="45.23441" lon="5.74581">
        <ele>990.59997558594</ele>
        <time>2021-10-17T05:07:56.000Z</time>
      </trkpt>
      <trkpt lat="45.2344" lon="5.7458">
        <ele>990.40002441406</ele>
        <time>2021-10-17T05:07:57.000Z</time>
      </trkpt>
      <trkpt lat="45.23439" lon="5.7458">
        <ele>989.59997558594</ele>
        <time>2021-10-17T05:07:59.000Z</time>
      </trkpt>
      <trkpt lat="45.23438" lon="5.7458">
        <ele>989.40002441406</ele>
        <time>2021-10-17T05:08:00.000Z</time>
      </trkpt>
      <trkpt lat="45.23436" lon="5.74581">
        <ele>989</ele>
        <time>2021-10-17T05:08:02.000Z</time>
      </trkpt>
      <trkpt lat="45.23435" lon="5.74581">
        <ele>988.59997558594</ele>
        <time>2021-10-17T05:08:03.000Z</time>
      </trkpt>
      <trkpt lat="45.23428" lon="5.74587">
        <ele>987</ele>
        <time>2021-10-17T05:08:07.000Z</time>
      </trkpt>
      <trkpt lat="45.23423" lon="5.74588">
        <ele>986.40002441406</ele>
        <time>2021-10-17T05:08:09.000Z</time>
      </trkpt>
      <trkpt lat="45.23421" lon="5.74588">
        <ele>986</ele>
        <time>2021-10-17T05:08:10.000Z</time>
      </trkpt>
      <trkpt lat="45.23417" lon="5.74589">
        <ele>984.79998779297</ele>
        <time>2021-10-17T05:08:13.000Z</time>
      </trkpt>
      <trkpt lat="45.23416" lon="5.74589">
        <ele>984.59997558594</ele>
        <time>2021-10-17T05:08:14.000Z</time>
      </trkpt>
      <trkpt lat="45.23414" lon="5.74588">
        <ele>984.40002441406</ele>
        <time>2021-10-17T05:08:15.000Z</time>
      </trkpt>
      <trkpt lat="45.23408" lon="5.74583">
        <ele>984.40002441406</ele>
        <time>2021-10-17T05:08:19.000Z</time>
      </trkpt>
      <trkpt lat="45.234" lon="5.7458">
        <ele>984</ele>
        <time>2021-10-17T05:08:24.000Z</time>
      </trkpt>
      <trkpt lat="45.23396" lon="5.74578">
        <ele>983.59997558594</ele>
        <time>2021-10-17T05:08:26.000Z</time>
      </trkpt>
      <trkpt lat="45.23387" lon="5.74576">
        <ele>982.59997558594</ele>
        <time>2021-10-17T05:08:31.000Z</time>
      </trkpt>
      <trkpt lat="45.23386" lon="5.74575">
        <ele>982.40002441406</ele>
        <time>2021-10-17T05:08:32.000Z</time>
      </trkpt>
      <trkpt lat="45.23378" lon="5.74572">
        <ele>981.59997558594</ele>
        <time>2021-10-17T05:08:36.000Z</time>
      </trkpt>
      <trkpt lat="45.2337" lon="5.74567">
        <ele>980.79998779297</ele>
        <time>2021-10-17T05:08:41.000Z</time>
      </trkpt>
      <trkpt lat="45.23367" lon="5.74565">
        <ele>980.40002441406</ele>
        <time>2021-10-17T05:08:43.000Z</time>
      </trkpt>
      <trkpt lat="45.23356" lon="5.74556">
        <ele>979.79998779297</ele>
        <time>2021-10-17T05:08:49.000Z</time>
      </trkpt>
      <trkpt lat="45.23351" lon="5.74553">
        <ele>979.40002441406</ele>
        <time>2021-10-17T05:08:52.000Z</time>
      </trkpt>
      <trkpt lat="45.23345" lon="5.74551">
        <ele>979</ele>
        <time>2021-10-17T05:08:55.000Z</time>
      </trkpt>
      <trkpt lat="45.2334" lon="5.74547">
        <ele>978.40002441406</ele>
        <time>2021-10-17T05:08:58.000Z</time>
      </trkpt>
      <trkpt lat="45.23338" lon="5.74546">
        <ele>978.40002441406</ele>
        <time>2021-10-17T05:08:59.000Z</time>
      </trkpt>
      <trkpt lat="45.23333" lon="5.74541">
        <ele>978</ele>
        <time>2021-10-17T05:09:02.000Z</time>
      </trkpt>
      <trkpt lat="45.2333" lon="5.7454">
        <ele>977.40002441406</ele>
        <time>2021-10-17T05:09:04.000Z</time>
      </trkpt>
      <trkpt lat="45.23328" lon="5.7454">
        <ele>977.40002441406</ele>
        <time>2021-10-17T05:09:05.000Z</time>
      </trkpt>
      <trkpt lat="45.23322" lon="5.74537">
        <ele>976.59997558594</ele>
        <time>2021-10-17T05:09:09.000Z</time>
      </trkpt>
      <trkpt lat="45.2332" lon="5.74536">
        <ele>976.40002441406</ele>
        <time>2021-10-17T05:09:10.000Z</time>
      </trkpt>
      <trkpt lat="45.23319" lon="5.74535">
        <ele>975.79998779297</ele>
        <time>2021-10-17T05:09:11.000Z</time>
      </trkpt>
      <trkpt lat="45.23318" lon="5.74534">
        <ele>975.20001220703</ele>
        <time>2021-10-17T05:09:13.000Z</time>
      </trkpt>
      <trkpt lat="45.23318" lon="5.74534">
        <ele>975</ele>
        <time>2021-10-17T05:09:14.000Z</time>
      </trkpt>
      <trkpt lat="45.23317" lon="5.74533">
        <ele>974.59997558594</ele>
        <time>2021-10-17T05:09:16.000Z</time>
      </trkpt>
      <trkpt lat="45.23315" lon="5.74532">
        <ele>974</ele>
        <time>2021-10-17T05:09:18.000Z</time>
      </trkpt>
      <trkpt lat="45.23314" lon="5.74532">
        <ele>973.79998779297</ele>
        <time>2021-10-17T05:09:19.000Z</time>
      </trkpt>
      <trkpt lat="45.23312" lon="5.74531">
        <ele>972.79998779297</ele>
        <time>2021-10-17T05:09:21.000Z</time>
      </trkpt>
      <trkpt lat="45.23311" lon="5.74531">
        <ele>972.40002441406</ele>
        <time>2021-10-17T05:09:22.000Z</time>
      </trkpt>
      <trkpt lat="45.2331" lon="5.74531">
        <ele>972.20001220703</ele>
        <time>2021-10-17T05:09:23.000Z</time>
      </trkpt>
      <trkpt lat="45.23308" lon="5.74531">
        <ele>971.59997558594</ele>
        <time>2021-10-17T05:09:25.000Z</time>
      </trkpt>
      <trkpt lat="45.23303" lon="5.74528">
        <ele>970.20001220703</ele>
        <time>2021-10-17T05:09:29.000Z</time>
      </trkpt>
      <trkpt lat="45.23302" lon="5.74528">
        <ele>970</ele>
        <time>2021-10-17T05:09:30.000Z</time>
      </trkpt>
      <trkpt lat="45.233" lon="5.74528">
        <ele>968.79998779297</ele>
        <time>2021-10-17T05:09:32.000Z</time>
      </trkpt>
      <trkpt lat="45.23298" lon="5.74527">
        <ele>968.40002441406</ele>
        <time>2021-10-17T05:09:34.000Z</time>
      </trkpt>
      <trkpt lat="45.23296" lon="5.74527">
        <ele>967.59997558594</ele>
        <time>2021-10-17T05:09:36.000Z</time>
      </trkpt>
      <trkpt lat="45.23293" lon="5.74527">
        <ele>967.20001220703</ele>
        <time>2021-10-17T05:09:38.000Z</time>
      </trkpt>
      <trkpt lat="45.23291" lon="5.74527">
        <ele>966.40002441406</ele>
        <time>2021-10-17T05:09:40.000Z</time>
      </trkpt>
      <trkpt lat="45.23287" lon="5.74528">
        <ele>965.20001220703</ele>
        <time>2021-10-17T05:09:42.000Z</time>
      </trkpt>
      <trkpt lat="45.23286" lon="5.74527">
        <ele>964.59997558594</ele>
        <time>2021-10-17T05:09:44.000Z</time>
      </trkpt>
      <trkpt lat="45.23284" lon="5.74526">
        <ele>964</ele>
        <time>2021-10-17T05:09:46.000Z</time>
      </trkpt>
      <trkpt lat="45.2328" lon="5.74525">
        <ele>962.79998779297</ele>
        <time>2021-10-17T05:09:49.000Z</time>
      </trkpt>
      <trkpt lat="45.23278" lon="5.74524">
        <ele>962.40002441406</ele>
        <time>2021-10-17T05:09:50.000Z</time>
      </trkpt>
      <trkpt lat="45.23275" lon="5.74521">
        <ele>962</ele>
        <time>2021-10-17T05:09:52.000Z</time>
      </trkpt>
      <trkpt lat="45.23274" lon="5.7452">
        <ele>961.79998779297</ele>
        <time>2021-10-17T05:09:53.000Z</time>
      </trkpt>
      <trkpt lat="45.23272" lon="5.74519">
        <ele>961</ele>
        <time>2021-10-17T05:09:55.000Z</time>
      </trkpt>
      <trkpt lat="45.23271" lon="5.74518">
        <ele>960.59997558594</ele>
        <time>2021-10-17T05:09:56.000Z</time>
      </trkpt>
      <trkpt lat="45.2327" lon="5.74517">
        <ele>960.20001220703</ele>
        <time>2021-10-17T05:09:57.000Z</time>
      </trkpt>
      <trkpt lat="45.23268" lon="5.74516">
        <ele>959.20001220703</ele>
        <time>2021-10-17T05:10:00.000Z</time>
      </trkpt>
      <trkpt lat="45.23267" lon="5.74515">
        <ele>959</ele>
        <time>2021-10-17T05:10:01.000Z</time>
      </trkpt>
      <trkpt lat="45.23265" lon="5.74513">
        <ele>958.20001220703</ele>
        <time>2021-10-17T05:10:03.000Z</time>
      </trkpt>
      <trkpt lat="45.23263" lon="5.74512">
        <ele>957</ele>
        <time>2021-10-17T05:10:06.000Z</time>
      </trkpt>
      <trkpt lat="45.23263" lon="5.74511">
        <ele>956.59997558594</ele>
        <time>2021-10-17T05:10:07.000Z</time>
      </trkpt>
      <trkpt lat="45.2326" lon="5.74509">
        <ele>956</ele>
        <time>2021-10-17T05:10:10.000Z</time>
      </trkpt>
      <trkpt lat="45.23258" lon="5.74508">
        <ele>955.20001220703</ele>
        <time>2021-10-17T05:10:12.000Z</time>
      </trkpt>
      <trkpt lat="45.23256" lon="5.74507">
        <ele>954.79998779297</ele>
        <time>2021-10-17T05:10:13.000Z</time>
      </trkpt>
      <trkpt lat="45.23253" lon="5.74505">
        <ele>953.59997558594</ele>
        <time>2021-10-17T05:10:17.000Z</time>
      </trkpt>
      <trkpt lat="45.2325" lon="5.74505">
        <ele>953</ele>
        <time>2021-10-17T05:10:19.000Z</time>
      </trkpt>
      <trkpt lat="45.23247" lon="5.74504">
        <ele>952</ele>
        <time>2021-10-17T05:10:21.000Z</time>
      </trkpt>
      <trkpt lat="45.23244" lon="5.74504">
        <ele>950.79998779297</ele>
        <time>2021-10-17T05:10:24.000Z</time>
      </trkpt>
      <trkpt lat="45.23243" lon="5.74504">
        <ele>950.59997558594</ele>
        <time>2021-10-17T05:10:25.000Z</time>
      </trkpt>
      <trkpt lat="45.23242" lon="5.74503">
        <ele>950.20001220703</ele>
        <time>2021-10-17T05:10:26.000Z</time>
      </trkpt>
      <trkpt lat="45.2324" lon="5.74502">
        <ele>949.79998779297</ele>
        <time>2021-10-17T05:10:27.000Z</time>
      </trkpt>
      <trkpt lat="45.23233" lon="5.74499">
        <ele>948.59997558594</ele>
        <time>2021-10-17T05:10:31.000Z</time>
      </trkpt>
      <trkpt lat="45.23228" lon="5.74497">
        <ele>947.59997558594</ele>
        <time>2021-10-17T05:10:33.000Z</time>
      </trkpt>
      <trkpt lat="45.23222" lon="5.74494">
        <ele>946.20001220703</ele>
        <time>2021-10-17T05:10:37.000Z</time>
      </trkpt>
      <trkpt lat="45.2322" lon="5.74493">
        <ele>946</ele>
        <time>2021-10-17T05:10:38.000Z</time>
      </trkpt>
      <trkpt lat="45.23219" lon="5.74494">
        <ele>945.59997558594</ele>
        <time>2021-10-17T05:10:39.000Z</time>
      </trkpt>
      <trkpt lat="45.23216" lon="5.74495">
        <ele>945.20001220703</ele>
        <time>2021-10-17T05:10:41.000Z</time>
      </trkpt>
      <trkpt lat="45.23212" lon="5.74493">
        <ele>944.40002441406</ele>
        <time>2021-10-17T05:10:43.000Z</time>
      </trkpt>
      <trkpt lat="45.23211" lon="5.74492">
        <ele>944.20001220703</ele>
        <time>2021-10-17T05:10:44.000Z</time>
      </trkpt>
      <trkpt lat="45.2321" lon="5.74492">
        <ele>943.59997558594</ele>
        <time>2021-10-17T05:10:46.000Z</time>
      </trkpt>
      <trkpt lat="45.23209" lon="5.74491">
        <ele>943</ele>
        <time>2021-10-17T05:10:48.000Z</time>
      </trkpt>
      <trkpt lat="45.23207" lon="5.74489">
        <ele>942.59997558594</ele>
        <time>2021-10-17T05:10:50.000Z</time>
      </trkpt>
      <trkpt lat="45.23206" lon="5.74489">
        <ele>942.59997558594</ele>
        <time>2021-10-17T05:10:51.000Z</time>
      </trkpt>
      <trkpt lat="45.23203" lon="5.74488">
        <ele>942</ele>
        <time>2021-10-17T05:10:53.000Z</time>
      </trkpt>
      <trkpt lat="45.23202" lon="5.74487">
        <ele>941.59997558594</ele>
        <time>2021-10-17T05:10:54.000Z</time>
      </trkpt>
      <trkpt lat="45.23199" lon="5.74484">
        <ele>941</ele>
        <time>2021-10-17T05:10:56.000Z</time>
      </trkpt>
      <trkpt lat="45.23198" lon="5.74483">
        <ele>940.79998779297</ele>
        <time>2021-10-17T05:10:57.000Z</time>
      </trkpt>
      <trkpt lat="45.23193" lon="5.74481">
        <ele>939.40002441406</ele>
        <time>2021-10-17T05:11:01.000Z</time>
      </trkpt>
      <trkpt lat="45.23188" lon="5.74477">
        <ele>938</ele>
        <time>2021-10-17T05:11:05.000Z</time>
      </trkpt>
      <trkpt lat="45.23185" lon="5.74476">
        <ele>937.59997558594</ele>
        <time>2021-10-17T05:11:07.000Z</time>
      </trkpt>
      <trkpt lat="45.23183" lon="5.74475">
        <ele>936.79998779297</ele>
        <time>2021-10-17T05:11:09.000Z</time>
      </trkpt>
      <trkpt lat="45.23179" lon="5.74473">
        <ele>936</ele>
        <time>2021-10-17T05:11:12.000Z</time>
      </trkpt>
      <trkpt lat="45.23178" lon="5.74472">
        <ele>935.59997558594</ele>
        <time>2021-10-17T05:11:13.000Z</time>
      </trkpt>
      <trkpt lat="45.23177" lon="5.74472">
        <ele>935.40002441406</ele>
        <time>2021-10-17T05:11:14.000Z</time>
      </trkpt>
      <trkpt lat="45.23176" lon="5.74471">
        <ele>935.20001220703</ele>
        <time>2021-10-17T05:11:15.000Z</time>
      </trkpt>
      <trkpt lat="45.23172" lon="5.74469">
        <ele>934.20001220703</ele>
        <time>2021-10-17T05:11:18.000Z</time>
      </trkpt>
      <trkpt lat="45.23171" lon="5.74468">
        <ele>933.79998779297</ele>
        <time>2021-10-17T05:11:19.000Z</time>
      </trkpt>
      <trkpt lat="45.23168" lon="5.74467">
        <ele>933.20001220703</ele>
        <time>2021-10-17T05:11:21.000Z</time>
      </trkpt>
      <trkpt lat="45.23165" lon="5.74466">
        <ele>932</ele>
        <time>2021-10-17T05:11:24.000Z</time>
      </trkpt>
      <trkpt lat="45.23164" lon="5.74467">
        <ele>932</ele>
        <time>2021-10-17T05:11:25.000Z</time>
      </trkpt>
      <trkpt lat="45.23163" lon="5.74467">
        <ele>931.59997558594</ele>
        <time>2021-10-17T05:11:26.000Z</time>
      </trkpt>
      <trkpt lat="45.23161" lon="5.74466">
        <ele>930.79998779297</ele>
        <time>2021-10-17T05:11:28.000Z</time>
      </trkpt>
      <trkpt lat="45.23157" lon="5.74464">
        <ele>929.79998779297</ele>
        <time>2021-10-17T05:11:31.000Z</time>
      </trkpt>
      <trkpt lat="45.23156" lon="5.74464">
        <ele>929.40002441406</ele>
        <time>2021-10-17T05:11:32.000Z</time>
      </trkpt>
      <trkpt lat="45.23155" lon="5.74464">
        <ele>929.20001220703</ele>
        <time>2021-10-17T05:11:33.000Z</time>
      </trkpt>
      <trkpt lat="45.23151" lon="5.74465">
        <ele>928.40002441406</ele>
        <time>2021-10-17T05:11:35.000Z</time>
      </trkpt>
      <trkpt lat="45.23148" lon="5.74466">
        <ele>927.20001220703</ele>
        <time>2021-10-17T05:11:37.000Z</time>
      </trkpt>
      <trkpt lat="45.23145" lon="5.74466">
        <ele>926.59997558594</ele>
        <time>2021-10-17T05:11:39.000Z</time>
      </trkpt>
      <trkpt lat="45.23141" lon="5.74467">
        <ele>925.59997558594</ele>
        <time>2021-10-17T05:11:41.000Z</time>
      </trkpt>
      <trkpt lat="45.23139" lon="5.74466">
        <ele>925.20001220703</ele>
        <time>2021-10-17T05:11:42.000Z</time>
      </trkpt>
      <trkpt lat="45.23136" lon="5.74465">
        <ele>924.40002441406</ele>
        <time>2021-10-17T05:11:44.000Z</time>
      </trkpt>
      <trkpt lat="45.23132" lon="5.74464">
        <ele>924.20001220703</ele>
        <time>2021-10-17T05:11:45.000Z</time>
      </trkpt>
      <trkpt lat="45.23131" lon="5.74462">
        <ele>923.79998779297</ele>
        <time>2021-10-17T05:11:46.000Z</time>
      </trkpt>
      <trkpt lat="45.2313" lon="5.74461">
        <ele>923.40002441406</ele>
        <time>2021-10-17T05:11:47.000Z</time>
      </trkpt>
      <trkpt lat="45.23129" lon="5.74461">
        <ele>923</ele>
        <time>2021-10-17T05:11:48.000Z</time>
      </trkpt>
      <trkpt lat="45.23128" lon="5.7446">
        <ele>922.40002441406</ele>
        <time>2021-10-17T05:11:49.000Z</time>
      </trkpt>
      <trkpt lat="45.23126" lon="5.7446">
        <ele>921.79998779297</ele>
        <time>2021-10-17T05:11:50.000Z</time>
      </trkpt>
      <trkpt lat="45.23123" lon="5.74459">
        <ele>921</ele>
        <time>2021-10-17T05:11:52.000Z</time>
      </trkpt>
      <trkpt lat="45.23122" lon="5.74459">
        <ele>920.59997558594</ele>
        <time>2021-10-17T05:11:53.000Z</time>
      </trkpt>
      <trkpt lat="45.23119" lon="5.74459">
        <ele>919.79998779297</ele>
        <time>2021-10-17T05:11:55.000Z</time>
      </trkpt>
      <trkpt lat="45.23117" lon="5.74459">
        <ele>919.40002441406</ele>
        <time>2021-10-17T05:11:56.000Z</time>
      </trkpt>
      <trkpt lat="45.23116" lon="5.74459">
        <ele>918.79998779297</ele>
        <time>2021-10-17T05:11:57.000Z</time>
      </trkpt>
      <trkpt lat="45.23112" lon="5.74457">
        <ele>918</ele>
        <time>2021-10-17T05:11:59.000Z</time>
      </trkpt>
      <trkpt lat="45.23107" lon="5.74455">
        <ele>916.59997558594</ele>
        <time>2021-10-17T05:12:02.000Z</time>
      </trkpt>
      <trkpt lat="45.23103" lon="5.74456">
        <ele>915.79998779297</ele>
        <time>2021-10-17T05:12:05.000Z</time>
      </trkpt>
      <trkpt lat="45.23101" lon="5.74454">
        <ele>915.40002441406</ele>
        <time>2021-10-17T05:12:06.000Z</time>
      </trkpt>
      <trkpt lat="45.23098" lon="5.74452">
        <ele>914.79998779297</ele>
        <time>2021-10-17T05:12:08.000Z</time>
      </trkpt>
      <trkpt lat="45.23095" lon="5.74451">
        <ele>914.20001220703</ele>
        <time>2021-10-17T05:12:10.000Z</time>
      </trkpt>
      <trkpt lat="45.23091" lon="5.74451">
        <ele>913</ele>
        <time>2021-10-17T05:12:12.000Z</time>
      </trkpt>
      <trkpt lat="45.23087" lon="5.74451">
        <ele>912.20001220703</ele>
        <time>2021-10-17T05:12:14.000Z</time>
      </trkpt>
      <trkpt lat="45.23086" lon="5.74451">
        <ele>911.79998779297</ele>
        <time>2021-10-17T05:12:15.000Z</time>
      </trkpt>
      <trkpt lat="45.23082" lon="5.74451">
        <ele>910.79998779297</ele>
        <time>2021-10-17T05:12:17.000Z</time>
      </trkpt>
      <trkpt lat="45.23076" lon="5.74449">
        <ele>909.20001220703</ele>
        <time>2021-10-17T05:12:21.000Z</time>
      </trkpt>
      <trkpt lat="45.23073" lon="5.74448">
        <ele>908.20001220703</ele>
        <time>2021-10-17T05:12:23.000Z</time>
      </trkpt>
      <trkpt lat="45.2307" lon="5.74447">
        <ele>906.79998779297</ele>
        <time>2021-10-17T05:12:26.000Z</time>
      </trkpt>
      <trkpt lat="45.23065" lon="5.74445">
        <ele>905.79998779297</ele>
        <time>2021-10-17T05:12:29.000Z</time>
      </trkpt>
      <trkpt lat="45.23063" lon="5.74445">
        <ele>905.20001220703</ele>
        <time>2021-10-17T05:12:30.000Z</time>
      </trkpt>
      <trkpt lat="45.23059" lon="5.74443">
        <ele>904</ele>
        <time>2021-10-17T05:12:32.000Z</time>
      </trkpt>
      <trkpt lat="45.23055" lon="5.74441">
        <ele>903.40002441406</ele>
        <time>2021-10-17T05:12:34.000Z</time>
      </trkpt>
      <trkpt lat="45.23052" lon="5.7444">
        <ele>903</ele>
        <time>2021-10-17T05:12:35.000Z</time>
      </trkpt>
      <trkpt lat="45.23049" lon="5.7444">
        <ele>902.59997558594</ele>
        <time>2021-10-17T05:12:37.000Z</time>
      </trkpt>
      <trkpt lat="45.23045" lon="5.74439">
        <ele>901.79998779297</ele>
        <time>2021-10-17T05:12:39.000Z</time>
      </trkpt>
      <trkpt lat="45.23044" lon="5.74438">
        <ele>901.59997558594</ele>
        <time>2021-10-17T05:12:40.000Z</time>
      </trkpt>
      <trkpt lat="45.2304" lon="5.74436">
        <ele>900.79998779297</ele>
        <time>2021-10-17T05:12:42.000Z</time>
      </trkpt>
      <trkpt lat="45.23038" lon="5.74435">
        <ele>900.20001220703</ele>
        <time>2021-10-17T05:12:44.000Z</time>
      </trkpt>
      <trkpt lat="45.23037" lon="5.74434">
        <ele>899.79998779297</ele>
        <time>2021-10-17T05:12:45.000Z</time>
      </trkpt>
      <trkpt lat="45.23035" lon="5.74434">
        <ele>899.40002441406</ele>
        <time>2021-10-17T05:12:46.000Z</time>
      </trkpt>
      <trkpt lat="45.23031" lon="5.74432">
        <ele>898.20001220703</ele>
        <time>2021-10-17T05:12:49.000Z</time>
      </trkpt>
      <trkpt lat="45.23029" lon="5.74432">
        <ele>897.79998779297</ele>
        <time>2021-10-17T05:12:50.000Z</time>
      </trkpt>
      <trkpt lat="45.23028" lon="5.74431">
        <ele>897.40002441406</ele>
        <time>2021-10-17T05:12:51.000Z</time>
      </trkpt>
      <trkpt lat="45.23026" lon="5.74431">
        <ele>897</ele>
        <time>2021-10-17T05:12:52.000Z</time>
      </trkpt>
      <trkpt lat="45.23022" lon="5.74429">
        <ele>895.79998779297</ele>
        <time>2021-10-17T05:12:55.000Z</time>
      </trkpt>
      <trkpt lat="45.23016" lon="5.74428">
        <ele>894.40002441406</ele>
        <time>2021-10-17T05:12:58.000Z</time>
      </trkpt>
      <trkpt lat="45.23015" lon="5.74427">
        <ele>894</ele>
        <time>2021-10-17T05:12:59.000Z</time>
      </trkpt>
      <trkpt lat="45.2301" lon="5.74427">
        <ele>893.20001220703</ele>
        <time>2021-10-17T05:13:01.000Z</time>
      </trkpt>
      <trkpt lat="45.23002" lon="5.74425">
        <ele>891.79998779297</ele>
        <time>2021-10-17T05:13:04.000Z</time>
      </trkpt>
      <trkpt lat="45.22996" lon="5.74422">
        <ele>891.20001220703</ele>
        <time>2021-10-17T05:13:06.000Z</time>
      </trkpt>
      <trkpt lat="45.22992" lon="5.7442">
        <ele>890.20001220703</ele>
        <time>2021-10-17T05:13:08.000Z</time>
      </trkpt>
      <trkpt lat="45.22988" lon="5.74419">
        <ele>889.20001220703</ele>
        <time>2021-10-17T05:13:11.000Z</time>
      </trkpt>
      <trkpt lat="45.22983" lon="5.74418">
        <ele>888</ele>
        <time>2021-10-17T05:13:14.000Z</time>
      </trkpt>
      <trkpt lat="45.22978" lon="5.74418">
        <ele>887</ele>
        <time>2021-10-17T05:13:17.000Z</time>
      </trkpt>
      <trkpt lat="45.22973" lon="5.74415">
        <ele>885.79998779297</ele>
        <time>2021-10-17T05:13:20.000Z</time>
      </trkpt>
      <trkpt lat="45.22972" lon="5.74415">
        <ele>885.40002441406</ele>
        <time>2021-10-17T05:13:21.000Z</time>
      </trkpt>
      <trkpt lat="45.22969" lon="5.74413">
        <ele>884.59997558594</ele>
        <time>2021-10-17T05:13:24.000Z</time>
      </trkpt>
      <trkpt lat="45.22967" lon="5.74412">
        <ele>883.20001220703</ele>
        <time>2021-10-17T05:13:27.000Z</time>
      </trkpt>
      <trkpt lat="45.22966" lon="5.74413">
        <ele>882</ele>
        <time>2021-10-17T05:13:29.000Z</time>
      </trkpt>
      <trkpt lat="45.22964" lon="5.74412">
        <ele>880.79998779297</ele>
        <time>2021-10-17T05:13:32.000Z</time>
      </trkpt>
      <trkpt lat="45.22963" lon="5.74412">
        <ele>880.20001220703</ele>
        <time>2021-10-17T05:13:34.000Z</time>
      </trkpt>
      <trkpt lat="45.22962" lon="5.74411">
        <ele>879.59997558594</ele>
        <time>2021-10-17T05:13:35.000Z</time>
      </trkpt>
      <trkpt lat="45.22959" lon="5.74412">
        <ele>878.40002441406</ele>
        <time>2021-10-17T05:13:38.000Z</time>
      </trkpt>
      <trkpt lat="45.22956" lon="5.74412">
        <ele>878.20001220703</ele>
        <time>2021-10-17T05:13:39.000Z</time>
      </trkpt>
      <trkpt lat="45.22952" lon="5.74411">
        <ele>877.20001220703</ele>
        <time>2021-10-17T05:13:41.000Z</time>
      </trkpt>
      <trkpt lat="45.22951" lon="5.7441">
        <ele>876.79998779297</ele>
        <time>2021-10-17T05:13:42.000Z</time>
      </trkpt>
      <trkpt lat="45.22949" lon="5.7441">
        <ele>876.59997558594</ele>
        <time>2021-10-17T05:13:43.000Z</time>
      </trkpt>
      <trkpt lat="45.22947" lon="5.74409">
        <ele>876</ele>
        <time>2021-10-17T05:13:45.000Z</time>
      </trkpt>
      <trkpt lat="45.22945" lon="5.74408">
        <ele>875.20001220703</ele>
        <time>2021-10-17T05:13:47.000Z</time>
      </trkpt>
      <trkpt lat="45.22944" lon="5.74409">
        <ele>874.79998779297</ele>
        <time>2021-10-17T05:13:48.000Z</time>
      </trkpt>
      <trkpt lat="45.22942" lon="5.74409">
        <ele>873.79998779297</ele>
        <time>2021-10-17T05:13:50.000Z</time>
      </trkpt>
      <trkpt lat="45.2294" lon="5.7441">
        <ele>872.79998779297</ele>
        <time>2021-10-17T05:13:52.000Z</time>
      </trkpt>
      <trkpt lat="45.22938" lon="5.7441">
        <ele>871.79998779297</ele>
        <time>2021-10-17T05:13:54.000Z</time>
      </trkpt>
      <trkpt lat="45.22937" lon="5.74411">
        <ele>871.59997558594</ele>
        <time>2021-10-17T05:13:55.000Z</time>
      </trkpt>
      <trkpt lat="45.22937" lon="5.74411">
        <ele>870.79998779297</ele>
        <time>2021-10-17T05:13:57.000Z</time>
      </trkpt>
      <trkpt lat="45.22937" lon="5.74412">
        <ele>870.40002441406</ele>
        <time>2021-10-17T05:13:58.000Z</time>
      </trkpt>
      <trkpt lat="45.22936" lon="5.74412">
        <ele>870</ele>
        <time>2021-10-17T05:13:59.000Z</time>
      </trkpt>
      <trkpt lat="45.22932" lon="5.74413">
        <ele>869.20001220703</ele>
        <time>2021-10-17T05:14:02.000Z</time>
      </trkpt>
      <trkpt lat="45.22931" lon="5.74413">
        <ele>868.40002441406</ele>
        <time>2021-10-17T05:14:04.000Z</time>
      </trkpt>
      <trkpt lat="45.2293" lon="5.74414">
        <ele>868</ele>
        <time>2021-10-17T05:14:05.000Z</time>
      </trkpt>
      <trkpt lat="45.22927" lon="5.74414">
        <ele>866.79998779297</ele>
        <time>2021-10-17T05:14:08.000Z</time>
      </trkpt>
      <trkpt lat="45.22927" lon="5.74414">
        <ele>866.20001220703</ele>
        <time>2021-10-17T05:14:10.000Z</time>
      </trkpt>
      <trkpt lat="45.22925" lon="5.74414">
        <ele>865.59997558594</ele>
        <time>2021-10-17T05:14:11.000Z</time>
      </trkpt>
      <trkpt lat="45.22924" lon="5.74414">
        <ele>865</ele>
        <time>2021-10-17T05:14:13.000Z</time>
      </trkpt>
      <trkpt lat="45.22923" lon="5.74415">
        <ele>864.40002441406</ele>
        <time>2021-10-17T05:14:15.000Z</time>
      </trkpt>
      <trkpt lat="45.22922" lon="5.74416">
        <ele>863.59997558594</ele>
        <time>2021-10-17T05:14:17.000Z</time>
      </trkpt>
      <trkpt lat="45.22921" lon="5.74415">
        <ele>863.20001220703</ele>
        <time>2021-10-17T05:14:18.000Z</time>
      </trkpt>
      <trkpt lat="45.22918" lon="5.74416">
        <ele>862.20001220703</ele>
        <time>2021-10-17T05:14:20.000Z</time>
      </trkpt>
      <trkpt lat="45.22918" lon="5.74417">
        <ele>861.79998779297</ele>
        <time>2021-10-17T05:14:21.000Z</time>
      </trkpt>
      <trkpt lat="45.22917" lon="5.74417">
        <ele>861.40002441406</ele>
        <time>2021-10-17T05:14:22.000Z</time>
      </trkpt>
      <trkpt lat="45.22916" lon="5.74418">
        <ele>861</ele>
        <time>2021-10-17T05:14:24.000Z</time>
      </trkpt>
      <trkpt lat="45.22915" lon="5.74418">
        <ele>860.59997558594</ele>
        <time>2021-10-17T05:14:25.000Z</time>
      </trkpt>
      <trkpt lat="45.22913" lon="5.74418">
        <ele>859.79998779297</ele>
        <time>2021-10-17T05:14:28.000Z</time>
      </trkpt>
      <trkpt lat="45.22913" lon="5.74418">
        <ele>859.59997558594</ele>
        <time>2021-10-17T05:14:29.000Z</time>
      </trkpt>
      <trkpt lat="45.22912" lon="5.74419">
        <ele>859.20001220703</ele>
        <time>2021-10-17T05:14:30.000Z</time>
      </trkpt>
      <trkpt lat="45.2291" lon="5.74421">
        <ele>858.40002441406</ele>
        <time>2021-10-17T05:14:32.000Z</time>
      </trkpt>
      <trkpt lat="45.2291" lon="5.74421">
        <ele>858.20001220703</ele>
        <time>2021-10-17T05:14:33.000Z</time>
      </trkpt>
      <trkpt lat="45.2291" lon="5.74422">
        <ele>857.40002441406</ele>
        <time>2021-10-17T05:14:36.000Z</time>
      </trkpt>
      <trkpt lat="45.22909" lon="5.74423">
        <ele>857.20001220703</ele>
        <time>2021-10-17T05:14:37.000Z</time>
      </trkpt>
      <trkpt lat="45.22905" lon="5.74423">
        <ele>856.40002441406</ele>
        <time>2021-10-17T05:14:40.000Z</time>
      </trkpt>
      <trkpt lat="45.22903" lon="5.74423">
        <ele>856.20001220703</ele>
        <time>2021-10-17T05:14:41.000Z</time>
      </trkpt>
      <trkpt lat="45.22902" lon="5.74424">
        <ele>855</ele>
        <time>2021-10-17T05:14:44.000Z</time>
      </trkpt>
      <trkpt lat="45.22903" lon="5.74426">
        <ele>853.79998779297</ele>
        <time>2021-10-17T05:14:47.000Z</time>
      </trkpt>
      <trkpt lat="45.22902" lon="5.7443">
        <ele>853.20001220703</ele>
        <time>2021-10-17T05:14:49.000Z</time>
      </trkpt>
      <trkpt lat="45.22902" lon="5.74431">
        <ele>852.79998779297</ele>
        <time>2021-10-17T05:14:50.000Z</time>
      </trkpt>
      <trkpt lat="45.229" lon="5.74432">
        <ele>852.40002441406</ele>
        <time>2021-10-17T05:14:51.000Z</time>
      </trkpt>
      <trkpt lat="45.229" lon="5.74432">
        <ele>851.79998779297</ele>
        <time>2021-10-17T05:14:52.000Z</time>
      </trkpt>
      <trkpt lat="45.22896" lon="5.74433">
        <ele>850.20001220703</ele>
        <time>2021-10-17T05:14:55.000Z</time>
      </trkpt>
      <trkpt lat="45.22891" lon="5.74435">
        <ele>848.59997558594</ele>
        <time>2021-10-17T05:14:59.000Z</time>
      </trkpt>
      <trkpt lat="45.22888" lon="5.74434">
        <ele>847.40002441406</ele>
        <time>2021-10-17T05:15:02.000Z</time>
      </trkpt>
      <trkpt lat="45.22884" lon="5.74434">
        <ele>846.20001220703</ele>
        <time>2021-10-17T05:15:05.000Z</time>
      </trkpt>
      <trkpt lat="45.22883" lon="5.74434">
        <ele>845.79998779297</ele>
        <time>2021-10-17T05:15:06.000Z</time>
      </trkpt>
      <trkpt lat="45.2288" lon="5.74435">
        <ele>845.20001220703</ele>
        <time>2021-10-17T05:15:08.000Z</time>
      </trkpt>
      <trkpt lat="45.22876" lon="5.74434">
        <ele>844.40002441406</ele>
        <time>2021-10-17T05:15:11.000Z</time>
      </trkpt>
      <trkpt lat="45.22874" lon="5.74434">
        <ele>844</ele>
        <time>2021-10-17T05:15:12.000Z</time>
      </trkpt>
      <trkpt lat="45.22872" lon="5.74434">
        <ele>843.20001220703</ele>
        <time>2021-10-17T05:15:13.000Z</time>
      </trkpt>
      <trkpt lat="45.2287" lon="5.74433">
        <ele>842.79998779297</ele>
        <time>2021-10-17T05:15:14.000Z</time>
      </trkpt>
      <trkpt lat="45.22868" lon="5.74433">
        <ele>842.40002441406</ele>
        <time>2021-10-17T05:15:15.000Z</time>
      </trkpt>
      <trkpt lat="45.22865" lon="5.74432">
        <ele>842.20001220703</ele>
        <time>2021-10-17T05:15:16.000Z</time>
      </trkpt>
      <trkpt lat="45.22861" lon="5.7443">
        <ele>842.20001220703</ele>
        <time>2021-10-17T05:15:18.000Z</time>
      </trkpt>
      <trkpt lat="45.22855" lon="5.74425">
        <ele>842.59997558594</ele>
        <time>2021-10-17T05:15:21.000Z</time>
      </trkpt>
      <trkpt lat="45.22852" lon="5.74422">
        <ele>842.79998779297</ele>
        <time>2021-10-17T05:15:23.000Z</time>
      </trkpt>
      <trkpt lat="45.22845" lon="5.74419">
        <ele>843.40002441406</ele>
        <time>2021-10-17T05:15:27.000Z</time>
      </trkpt>
      <trkpt lat="45.22841" lon="5.74417">
        <ele>843.79998779297</ele>
        <time>2021-10-17T05:15:29.000Z</time>
      </trkpt>
      <trkpt lat="45.22839" lon="5.74416">
        <ele>844</ele>
        <time>2021-10-17T05:15:30.000Z</time>
      </trkpt>
      <trkpt lat="45.22836" lon="5.74416">
        <ele>844.40002441406</ele>
        <time>2021-10-17T05:15:32.000Z</time>
      </trkpt>
      <trkpt lat="45.22833" lon="5.74415">
        <ele>844.79998779297</ele>
        <time>2021-10-17T05:15:34.000Z</time>
      </trkpt>
      <trkpt lat="45.22831" lon="5.74414">
        <ele>845</ele>
        <time>2021-10-17T05:15:35.000Z</time>
      </trkpt>
      <trkpt lat="45.22827" lon="5.74411">
        <ele>845.59997558594</ele>
        <time>2021-10-17T05:15:38.000Z</time>
      </trkpt>
      <trkpt lat="45.22826" lon="5.7441">
        <ele>845.59997558594</ele>
        <time>2021-10-17T05:15:39.000Z</time>
      </trkpt>
      <trkpt lat="45.22825" lon="5.74409">
        <ele>845.79998779297</ele>
        <time>2021-10-17T05:15:40.000Z</time>
      </trkpt>
      <trkpt lat="45.22823" lon="5.74408">
        <ele>846</ele>
        <time>2021-10-17T05:15:41.000Z</time>
      </trkpt>
      <trkpt lat="45.22817" lon="5.74406">
        <ele>846.79998779297</ele>
        <time>2021-10-17T05:15:45.000Z</time>
      </trkpt>
      <trkpt lat="45.22815" lon="5.74405">
        <ele>847</ele>
        <time>2021-10-17T05:15:47.000Z</time>
      </trkpt>
      <trkpt lat="45.2281" lon="5.74403">
        <ele>847.59997558594</ele>
        <time>2021-10-17T05:15:50.000Z</time>
      </trkpt>
      <trkpt lat="45.22805" lon="5.74399">
        <ele>848.20001220703</ele>
        <time>2021-10-17T05:15:53.000Z</time>
      </trkpt>
      <trkpt lat="45.228" lon="5.74396">
        <ele>848.59997558594</ele>
        <time>2021-10-17T05:15:56.000Z</time>
      </trkpt>
      <trkpt lat="45.22794" lon="5.74392">
        <ele>849.20001220703</ele>
        <time>2021-10-17T05:16:00.000Z</time>
      </trkpt>
      <trkpt lat="45.22792" lon="5.74391">
        <ele>849.40002441406</ele>
        <time>2021-10-17T05:16:01.000Z</time>
      </trkpt>
      <trkpt lat="45.22787" lon="5.74388">
        <ele>849.79998779297</ele>
        <time>2021-10-17T05:16:04.000Z</time>
      </trkpt>
      <trkpt lat="45.22783" lon="5.74386">
        <ele>850.40002441406</ele>
        <time>2021-10-17T05:16:07.000Z</time>
      </trkpt>
      <trkpt lat="45.22777" lon="5.74378">
        <ele>851.40002441406</ele>
        <time>2021-10-17T05:16:12.000Z</time>
      </trkpt>
      <trkpt lat="45.22773" lon="5.74375">
        <ele>851.79998779297</ele>
        <time>2021-10-17T05:16:15.000Z</time>
      </trkpt>
      <trkpt lat="45.22768" lon="5.74372">
        <ele>852.40002441406</ele>
        <time>2021-10-17T05:16:19.000Z</time>
      </trkpt>
      <trkpt lat="45.22764" lon="5.74368">
        <ele>852.79998779297</ele>
        <time>2021-10-17T05:16:22.000Z</time>
      </trkpt>
      <trkpt lat="45.22763" lon="5.74367">
        <ele>853</ele>
        <time>2021-10-17T05:16:23.000Z</time>
      </trkpt>
      <trkpt lat="45.2276" lon="5.74366">
        <ele>853.59997558594</ele>
        <time>2021-10-17T05:16:26.000Z</time>
      </trkpt>
      <trkpt lat="45.22758" lon="5.74365">
        <ele>853.79998779297</ele>
        <time>2021-10-17T05:16:27.000Z</time>
      </trkpt>
      <trkpt lat="45.22756" lon="5.74365">
        <ele>854</ele>
        <time>2021-10-17T05:16:28.000Z</time>
      </trkpt>
      <trkpt lat="45.22753" lon="5.74359">
        <ele>854.40002441406</ele>
        <time>2021-10-17T05:16:31.000Z</time>
      </trkpt>
      <trkpt lat="45.22751" lon="5.74359">
        <ele>854.59997558594</ele>
        <time>2021-10-17T05:16:32.000Z</time>
      </trkpt>
      <trkpt lat="45.22742" lon="5.74353">
        <ele>855.59997558594</ele>
        <time>2021-10-17T05:16:37.000Z</time>
      </trkpt>
      <trkpt lat="45.22741" lon="5.74352">
        <ele>855.79998779297</ele>
        <time>2021-10-17T05:16:38.000Z</time>
      </trkpt>
      <trkpt lat="45.22737" lon="5.7435">
        <ele>856.20001220703</ele>
        <time>2021-10-17T05:16:40.000Z</time>
      </trkpt>
      <trkpt lat="45.22733" lon="5.74344">
        <ele>856.59997558594</ele>
        <time>2021-10-17T05:16:43.000Z</time>
      </trkpt>
      <trkpt lat="45.2273" lon="5.74343">
        <ele>857</ele>
        <time>2021-10-17T05:16:45.000Z</time>
      </trkpt>
      <trkpt lat="45.22722" lon="5.74341">
        <ele>858</ele>
        <time>2021-10-17T05:16:50.000Z</time>
      </trkpt>
      <trkpt lat="45.22721" lon="5.7434">
        <ele>858.20001220703</ele>
        <time>2021-10-17T05:16:51.000Z</time>
      </trkpt>
      <trkpt lat="45.22714" lon="5.74335">
        <ele>859</ele>
        <time>2021-10-17T05:16:55.000Z</time>
      </trkpt>
      <trkpt lat="45.22711" lon="5.74333">
        <ele>859.59997558594</ele>
        <time>2021-10-17T05:16:58.000Z</time>
      </trkpt>
      <trkpt lat="45.22707" lon="5.7433">
        <ele>860</ele>
        <time>2021-10-17T05:17:01.000Z</time>
      </trkpt>
      <trkpt lat="45.22698" lon="5.74324">
        <ele>861</ele>
        <time>2021-10-17T05:17:06.000Z</time>
      </trkpt>
      <trkpt lat="45.22696" lon="5.74321">
        <ele>861.40002441406</ele>
        <time>2021-10-17T05:17:08.000Z</time>
      </trkpt>
      <trkpt lat="45.22691" lon="5.74314">
        <ele>862.40002441406</ele>
        <time>2021-10-17T05:17:12.000Z</time>
      </trkpt>
      <trkpt lat="45.22688" lon="5.7431">
        <ele>862.59997558594</ele>
        <time>2021-10-17T05:17:14.000Z</time>
      </trkpt>
      <trkpt lat="45.22687" lon="5.74309">
        <ele>862.79998779297</ele>
        <time>2021-10-17T05:17:15.000Z</time>
      </trkpt>
      <trkpt lat="45.22685" lon="5.74306">
        <ele>863.20001220703</ele>
        <time>2021-10-17T05:17:17.000Z</time>
      </trkpt>
      <trkpt lat="45.22684" lon="5.74303">
        <ele>863.40002441406</ele>
        <time>2021-10-17T05:17:19.000Z</time>
      </trkpt>
      <trkpt lat="45.22682" lon="5.74301">
        <ele>863.59997558594</ele>
        <time>2021-10-17T05:17:20.000Z</time>
      </trkpt>
      <trkpt lat="45.22681" lon="5.74301">
        <ele>863.59997558594</ele>
        <time>2021-10-17T05:17:21.000Z</time>
      </trkpt>
      <trkpt lat="45.22675" lon="5.74296">
        <ele>864.20001220703</ele>
        <time>2021-10-17T05:17:25.000Z</time>
      </trkpt>
      <trkpt lat="45.22674" lon="5.74295">
        <ele>864.40002441406</ele>
        <time>2021-10-17T05:17:26.000Z</time>
      </trkpt>
      <trkpt lat="45.22672" lon="5.74295">
        <ele>864.59997558594</ele>
        <time>2021-10-17T05:17:27.000Z</time>
      </trkpt>
      <trkpt lat="45.22659" lon="5.7429">
        <ele>865.79998779297</ele>
        <time>2021-10-17T05:17:34.000Z</time>
      </trkpt>
      <trkpt lat="45.22656" lon="5.74289">
        <ele>866.20001220703</ele>
        <time>2021-10-17T05:17:36.000Z</time>
      </trkpt>
      <trkpt lat="45.22654" lon="5.74288">
        <ele>866.59997558594</ele>
        <time>2021-10-17T05:17:37.000Z</time>
      </trkpt>
      <trkpt lat="45.22649" lon="5.74287">
        <ele>866.79998779297</ele>
        <time>2021-10-17T05:17:40.000Z</time>
      </trkpt>
      <trkpt lat="45.22647" lon="5.74286">
        <ele>867.20001220703</ele>
        <time>2021-10-17T05:17:41.000Z</time>
      </trkpt>
      <trkpt lat="45.22638" lon="5.74285">
        <ele>868.40002441406</ele>
        <time>2021-10-17T05:17:47.000Z</time>
      </trkpt>
      <trkpt lat="45.22633" lon="5.74282">
        <ele>869</ele>
        <time>2021-10-17T05:17:51.000Z</time>
      </trkpt>
      <trkpt lat="45.22629" lon="5.74281">
        <ele>869.40002441406</ele>
        <time>2021-10-17T05:17:53.000Z</time>
      </trkpt>
      <trkpt lat="45.22619" lon="5.74277">
        <ele>870.59997558594</ele>
        <time>2021-10-17T05:17:59.000Z</time>
      </trkpt>
      <trkpt lat="45.22611" lon="5.74275">
        <ele>871.59997558594</ele>
        <time>2021-10-17T05:18:04.000Z</time>
      </trkpt>
      <trkpt lat="45.22609" lon="5.74274">
        <ele>871.79998779297</ele>
        <time>2021-10-17T05:18:05.000Z</time>
      </trkpt>
      <trkpt lat="45.22608" lon="5.74273">
        <ele>872</ele>
        <time>2021-10-17T05:18:06.000Z</time>
      </trkpt>
      <trkpt lat="45.22602" lon="5.74268">
        <ele>872.79998779297</ele>
        <time>2021-10-17T05:18:10.000Z</time>
      </trkpt>
      <trkpt lat="45.22598" lon="5.74267">
        <ele>873.59997558594</ele>
        <time>2021-10-17T05:18:13.000Z</time>
      </trkpt>
      <trkpt lat="45.22592" lon="5.74264">
        <ele>874</ele>
        <time>2021-10-17T05:18:16.000Z</time>
      </trkpt>
      <trkpt lat="45.22585" lon="5.74263">
        <ele>875</ele>
        <time>2021-10-17T05:18:20.000Z</time>
      </trkpt>
      <trkpt lat="45.22583" lon="5.74263">
        <ele>875.20001220703</ele>
        <time>2021-10-17T05:18:21.000Z</time>
      </trkpt>
      <trkpt lat="45.22578" lon="5.7426">
        <ele>876</ele>
        <time>2021-10-17T05:18:25.000Z</time>
      </trkpt>
      <trkpt lat="45.22575" lon="5.74258">
        <ele>876.20001220703</ele>
        <time>2021-10-17T05:18:27.000Z</time>
      </trkpt>
      <trkpt lat="45.22567" lon="5.74253">
        <ele>877.20001220703</ele>
        <time>2021-10-17T05:18:32.000Z</time>
      </trkpt>
      <trkpt lat="45.22564" lon="5.74252">
        <ele>877.59997558594</ele>
        <time>2021-10-17T05:18:34.000Z</time>
      </trkpt>
      <trkpt lat="45.22562" lon="5.74251">
        <ele>877.79998779297</ele>
        <time>2021-10-17T05:18:35.000Z</time>
      </trkpt>
      <trkpt lat="45.22558" lon="5.74251">
        <ele>878.20001220703</ele>
        <time>2021-10-17T05:18:37.000Z</time>
      </trkpt>
      <trkpt lat="45.22549" lon="5.7425">
        <ele>878.79998779297</ele>
        <time>2021-10-17T05:18:41.000Z</time>
      </trkpt>
      <trkpt lat="45.22545" lon="5.74247">
        <ele>879.59997558594</ele>
        <time>2021-10-17T05:18:44.000Z</time>
      </trkpt>
      <trkpt lat="45.22544" lon="5.74246">
        <ele>879.79998779297</ele>
        <time>2021-10-17T05:18:45.000Z</time>
      </trkpt>
      <trkpt lat="45.22542" lon="5.74245">
        <ele>880</ele>
        <time>2021-10-17T05:18:46.000Z</time>
      </trkpt>
      <trkpt lat="45.22538" lon="5.74244">
        <ele>880</ele>
        <time>2021-10-17T05:18:48.000Z</time>
      </trkpt>
      <trkpt lat="45.22534" lon="5.74242">
        <ele>880.79998779297</ele>
        <time>2021-10-17T05:18:50.000Z</time>
      </trkpt>
      <trkpt lat="45.22527" lon="5.74238">
        <ele>881.79998779297</ele>
        <time>2021-10-17T05:18:55.000Z</time>
      </trkpt>
      <trkpt lat="45.22525" lon="5.74237">
        <ele>882</ele>
        <time>2021-10-17T05:18:56.000Z</time>
      </trkpt>
      <trkpt lat="45.22519" lon="5.74233">
        <ele>882.79998779297</ele>
        <time>2021-10-17T05:19:00.000Z</time>
      </trkpt>
      <trkpt lat="45.22518" lon="5.74232">
        <ele>883</ele>
        <time>2021-10-17T05:19:01.000Z</time>
      </trkpt>
      <trkpt lat="45.22512" lon="5.74228">
        <ele>883.59997558594</ele>
        <time>2021-10-17T05:19:04.000Z</time>
      </trkpt>
      <trkpt lat="45.22508" lon="5.74225">
        <ele>884</ele>
        <time>2021-10-17T05:19:07.000Z</time>
      </trkpt>
      <trkpt lat="45.225" lon="5.74219">
        <ele>885</ele>
        <time>2021-10-17T05:19:12.000Z</time>
      </trkpt>
      <trkpt lat="45.22498" lon="5.74217">
        <ele>885.40002441406</ele>
        <time>2021-10-17T05:19:14.000Z</time>
      </trkpt>
      <trkpt lat="45.22494" lon="5.74213">
        <ele>886.20001220703</ele>
        <time>2021-10-17T05:19:17.000Z</time>
      </trkpt>
      <trkpt lat="45.2249" lon="5.7421">
        <ele>887</ele>
        <time>2021-10-17T05:19:20.000Z</time>
      </trkpt>
      <trkpt lat="45.22487" lon="5.74208">
        <ele>887.20001220703</ele>
        <time>2021-10-17T05:19:22.000Z</time>
      </trkpt>
      <trkpt lat="45.22477" lon="5.74199">
        <ele>888.20001220703</ele>
        <time>2021-10-17T05:19:28.000Z</time>
      </trkpt>
      <trkpt lat="45.22476" lon="5.74195">
        <ele>888.59997558594</ele>
        <time>2021-10-17T05:19:29.000Z</time>
      </trkpt>
      <trkpt lat="45.22468" lon="5.74183">
        <ele>889.59997558594</ele>
        <time>2021-10-17T05:19:34.000Z</time>
      </trkpt>
      <trkpt lat="45.22465" lon="5.7418">
        <ele>890</ele>
        <time>2021-10-17T05:19:36.000Z</time>
      </trkpt>
      <trkpt lat="45.2246" lon="5.74177">
        <ele>890.59997558594</ele>
        <time>2021-10-17T05:19:39.000Z</time>
      </trkpt>
      <trkpt lat="45.22453" lon="5.74169">
        <ele>891.40002441406</ele>
        <time>2021-10-17T05:19:43.000Z</time>
      </trkpt>
      <trkpt lat="45.22452" lon="5.74168">
        <ele>891.40002441406</ele>
        <time>2021-10-17T05:19:44.000Z</time>
      </trkpt>
      <trkpt lat="45.22449" lon="5.74165">
        <ele>891.79998779297</ele>
        <time>2021-10-17T05:19:46.000Z</time>
      </trkpt>
      <trkpt lat="45.22445" lon="5.74159">
        <ele>892.40002441406</ele>
        <time>2021-10-17T05:19:49.000Z</time>
      </trkpt>
      <trkpt lat="45.22443" lon="5.74158">
        <ele>892.59997558594</ele>
        <time>2021-10-17T05:19:50.000Z</time>
      </trkpt>
      <trkpt lat="45.22442" lon="5.74155">
        <ele>892.79998779297</ele>
        <time>2021-10-17T05:19:51.000Z</time>
      </trkpt>
      <trkpt lat="45.22433" lon="5.74141">
        <ele>894</ele>
        <time>2021-10-17T05:19:58.000Z</time>
      </trkpt>
      <trkpt lat="45.22423" lon="5.74128">
        <ele>895.40002441406</ele>
        <time>2021-10-17T05:20:04.000Z</time>
      </trkpt>
      <trkpt lat="45.22421" lon="5.74125">
        <ele>895.79998779297</ele>
        <time>2021-10-17T05:20:06.000Z</time>
      </trkpt>
      <trkpt lat="45.22418" lon="5.74122">
        <ele>896.40002441406</ele>
        <time>2021-10-17T05:20:08.000Z</time>
      </trkpt>
      <trkpt lat="45.22414" lon="5.74114">
        <ele>897.40002441406</ele>
        <time>2021-10-17T05:20:12.000Z</time>
      </trkpt>
      <trkpt lat="45.22414" lon="5.74111">
        <ele>897.59997558594</ele>
        <time>2021-10-17T05:20:13.000Z</time>
      </trkpt>
      <trkpt lat="45.2241" lon="5.74105">
        <ele>898</ele>
        <time>2021-10-17T05:20:15.000Z</time>
      </trkpt>
      <trkpt lat="45.22406" lon="5.741">
        <ele>898.59997558594</ele>
        <time>2021-10-17T05:20:18.000Z</time>
      </trkpt>
      <trkpt lat="45.22402" lon="5.74094">
        <ele>899.59997558594</ele>
        <time>2021-10-17T05:20:21.000Z</time>
      </trkpt>
      <trkpt lat="45.22399" lon="5.74091">
        <ele>900.20001220703</ele>
        <time>2021-10-17T05:20:23.000Z</time>
      </trkpt>
      <trkpt lat="45.22392" lon="5.74086">
        <ele>901.20001220703</ele>
        <time>2021-10-17T05:20:27.000Z</time>
      </trkpt>
      <trkpt lat="45.2239" lon="5.74084">
        <ele>901.40002441406</ele>
        <time>2021-10-17T05:20:29.000Z</time>
      </trkpt>
      <trkpt lat="45.22384" lon="5.74072">
        <ele>902.20001220703</ele>
        <time>2021-10-17T05:20:34.000Z</time>
      </trkpt>
      <trkpt lat="45.22369" lon="5.74058">
        <ele>903</ele>
        <time>2021-10-17T05:20:43.000Z</time>
      </trkpt>
      <trkpt lat="45.2236" lon="5.74045">
        <ele>903</ele>
        <time>2021-10-17T05:20:50.000Z</time>
      </trkpt>
      <trkpt lat="45.22355" lon="5.74042">
        <ele>902.79998779297</ele>
        <time>2021-10-17T05:20:53.000Z</time>
      </trkpt>
      <trkpt lat="45.22343" lon="5.74035">
        <ele>901.59997558594</ele>
        <time>2021-10-17T05:20:58.000Z</time>
      </trkpt>
      <trkpt lat="45.22337" lon="5.74031">
        <ele>901</ele>
        <time>2021-10-17T05:21:01.000Z</time>
      </trkpt>
      <trkpt lat="45.22328" lon="5.74025">
        <ele>900.20001220703</ele>
        <time>2021-10-17T05:21:05.000Z</time>
      </trkpt>
      <trkpt lat="45.22325" lon="5.74025">
        <ele>900</ele>
        <time>2021-10-17T05:21:06.000Z</time>
      </trkpt>
      <trkpt lat="45.22314" lon="5.74021">
        <ele>899.20001220703</ele>
        <time>2021-10-17T05:21:11.000Z</time>
      </trkpt>
      <trkpt lat="45.22311" lon="5.7402">
        <ele>898.79998779297</ele>
        <time>2021-10-17T05:21:12.000Z</time>
      </trkpt>
      <trkpt lat="45.22301" lon="5.74017">
        <ele>897.79998779297</ele>
        <time>2021-10-17T05:21:16.000Z</time>
      </trkpt>
      <trkpt lat="45.22296" lon="5.74015">
        <ele>897.20001220703</ele>
        <time>2021-10-17T05:21:18.000Z</time>
      </trkpt>
      <trkpt lat="45.22289" lon="5.74012">
        <ele>896.59997558594</ele>
        <time>2021-10-17T05:21:21.000Z</time>
      </trkpt>
      <trkpt lat="45.22281" lon="5.74008">
        <ele>895.59997558594</ele>
        <time>2021-10-17T05:21:25.000Z</time>
      </trkpt>
      <trkpt lat="45.22279" lon="5.74006">
        <ele>895.40002441406</ele>
        <time>2021-10-17T05:21:26.000Z</time>
      </trkpt>
      <trkpt lat="45.22268" lon="5.74002">
        <ele>894.40002441406</ele>
        <time>2021-10-17T05:21:31.000Z</time>
      </trkpt>
      <trkpt lat="45.22266" lon="5.74002">
        <ele>894.20001220703</ele>
        <time>2021-10-17T05:21:32.000Z</time>
      </trkpt>
      <trkpt lat="45.22259" lon="5.73998">
        <ele>893.20001220703</ele>
        <time>2021-10-17T05:21:35.000Z</time>
      </trkpt>
      <trkpt lat="45.22253" lon="5.73991">
        <ele>892.20001220703</ele>
        <time>2021-10-17T05:21:39.000Z</time>
      </trkpt>
      <trkpt lat="45.22251" lon="5.7399">
        <ele>892</ele>
        <time>2021-10-17T05:21:40.000Z</time>
      </trkpt>
      <trkpt lat="45.22244" lon="5.73986">
        <ele>891.40002441406</ele>
        <time>2021-10-17T05:21:44.000Z</time>
      </trkpt>
      <trkpt lat="45.22243" lon="5.73985">
        <ele>891.20001220703</ele>
        <time>2021-10-17T05:21:45.000Z</time>
      </trkpt>
      <trkpt lat="45.22241" lon="5.73983">
        <ele>891.20001220703</ele>
        <time>2021-10-17T05:21:46.000Z</time>
      </trkpt>
      <trkpt lat="45.22234" lon="5.73976">
        <ele>891</ele>
        <time>2021-10-17T05:21:50.000Z</time>
      </trkpt>
      <trkpt lat="45.22232" lon="5.73975">
        <ele>890.79998779297</ele>
        <time>2021-10-17T05:21:51.000Z</time>
      </trkpt>
      <trkpt lat="45.22224" lon="5.7397">
        <ele>889.79998779297</ele>
        <time>2021-10-17T05:21:55.000Z</time>
      </trkpt>
      <trkpt lat="45.22216" lon="5.73959">
        <ele>889.20001220703</ele>
        <time>2021-10-17T05:21:59.000Z</time>
      </trkpt>
      <trkpt lat="45.22212" lon="5.73954">
        <ele>888.59997558594</ele>
        <time>2021-10-17T05:22:01.000Z</time>
      </trkpt>
      <trkpt lat="45.22205" lon="5.73942">
        <ele>887.79998779297</ele>
        <time>2021-10-17T05:22:06.000Z</time>
      </trkpt>
      <trkpt lat="45.22203" lon="5.7394">
        <ele>887.20001220703</ele>
        <time>2021-10-17T05:22:07.000Z</time>
      </trkpt>
      <trkpt lat="45.22193" lon="5.73934">
        <ele>886.20001220703</ele>
        <time>2021-10-17T05:22:11.000Z</time>
      </trkpt>
      <trkpt lat="45.22183" lon="5.73929">
        <ele>885.40002441406</ele>
        <time>2021-10-17T05:22:15.000Z</time>
      </trkpt>
      <trkpt lat="45.22181" lon="5.73927">
        <ele>885</ele>
        <time>2021-10-17T05:22:16.000Z</time>
      </trkpt>
      <trkpt lat="45.22172" lon="5.73922">
        <ele>884</ele>
        <time>2021-10-17T05:22:20.000Z</time>
      </trkpt>
      <trkpt lat="45.22169" lon="5.73921">
        <ele>883.79998779297</ele>
        <time>2021-10-17T05:22:21.000Z</time>
      </trkpt>
      <trkpt lat="45.22159" lon="5.73918">
        <ele>882.79998779297</ele>
        <time>2021-10-17T05:22:25.000Z</time>
      </trkpt>
      <trkpt lat="45.22156" lon="5.73915">
        <ele>882.40002441406</ele>
        <time>2021-10-17T05:22:27.000Z</time>
      </trkpt>
      <trkpt lat="45.22149" lon="5.73911">
        <ele>881.59997558594</ele>
        <time>2021-10-17T05:22:30.000Z</time>
      </trkpt>
      <trkpt lat="45.22139" lon="5.73907">
        <ele>880.59997558594</ele>
        <time>2021-10-17T05:22:34.000Z</time>
      </trkpt>
      <trkpt lat="45.22136" lon="5.73906">
        <ele>880.20001220703</ele>
        <time>2021-10-17T05:22:35.000Z</time>
      </trkpt>
      <trkpt lat="45.22125" lon="5.73901">
        <ele>879.40002441406</ele>
        <time>2021-10-17T05:22:39.000Z</time>
      </trkpt>
      <trkpt lat="45.22122" lon="5.739">
        <ele>879</ele>
        <time>2021-10-17T05:22:40.000Z</time>
      </trkpt>
      <trkpt lat="45.22121" lon="5.73899">
        <ele>878.59997558594</ele>
        <time>2021-10-17T05:22:41.000Z</time>
      </trkpt>
      <trkpt lat="45.22113" lon="5.73896">
        <ele>877.79998779297</ele>
        <time>2021-10-17T05:22:45.000Z</time>
      </trkpt>
      <trkpt lat="45.22112" lon="5.73895">
        <ele>877.59997558594</ele>
        <time>2021-10-17T05:22:46.000Z</time>
      </trkpt>
      <trkpt lat="45.22105" lon="5.73892">
        <ele>876.79998779297</ele>
        <time>2021-10-17T05:22:49.000Z</time>
      </trkpt>
      <trkpt lat="45.22103" lon="5.73891">
        <ele>876.59997558594</ele>
        <time>2021-10-17T05:22:50.000Z</time>
      </trkpt>
      <trkpt lat="45.22094" lon="5.73887">
        <ele>875.79998779297</ele>
        <time>2021-10-17T05:22:54.000Z</time>
      </trkpt>
      <trkpt lat="45.22091" lon="5.73887">
        <ele>875.59997558594</ele>
        <time>2021-10-17T05:22:55.000Z</time>
      </trkpt>
      <trkpt lat="45.22081" lon="5.73883">
        <ele>874.79998779297</ele>
        <time>2021-10-17T05:22:59.000Z</time>
      </trkpt>
      <trkpt lat="45.22076" lon="5.73881">
        <ele>874.59997558594</ele>
        <time>2021-10-17T05:23:01.000Z</time>
      </trkpt>
      <trkpt lat="45.22066" lon="5.73875">
        <ele>874</ele>
        <time>2021-10-17T05:23:06.000Z</time>
      </trkpt>
      <trkpt lat="45.22052" lon="5.73865">
        <ele>874.59997558594</ele>
        <time>2021-10-17T05:23:13.000Z</time>
      </trkpt>
      <trkpt lat="45.22042" lon="5.73858">
        <ele>875.20001220703</ele>
        <time>2021-10-17T05:23:18.000Z</time>
      </trkpt>
      <trkpt lat="45.22037" lon="5.73856">
        <ele>875.59997558594</ele>
        <time>2021-10-17T05:23:21.000Z</time>
      </trkpt>
      <trkpt lat="45.22029" lon="5.73847">
        <ele>876.79998779297</ele>
        <time>2021-10-17T05:23:27.000Z</time>
      </trkpt>
      <trkpt lat="45.22027" lon="5.73846">
        <ele>877</ele>
        <time>2021-10-17T05:23:28.000Z</time>
      </trkpt>
      <trkpt lat="45.22017" lon="5.73839">
        <ele>877.79998779297</ele>
        <time>2021-10-17T05:23:34.000Z</time>
      </trkpt>
      <trkpt lat="45.22016" lon="5.73838">
        <ele>878</ele>
        <time>2021-10-17T05:23:35.000Z</time>
      </trkpt>
      <trkpt lat="45.22009" lon="5.73834">
        <ele>878.79998779297</ele>
        <time>2021-10-17T05:23:39.000Z</time>
      </trkpt>
      <trkpt lat="45.22007" lon="5.73833">
        <ele>879</ele>
        <time>2021-10-17T05:23:40.000Z</time>
      </trkpt>
      <trkpt lat="45.21999" lon="5.73831">
        <ele>879.79998779297</ele>
        <time>2021-10-17T05:23:44.000Z</time>
      </trkpt>
      <trkpt lat="45.21995" lon="5.73829">
        <ele>880.20001220703</ele>
        <time>2021-10-17T05:23:46.000Z</time>
      </trkpt>
      <trkpt lat="45.21987" lon="5.73826">
        <ele>881.40002441406</ele>
        <time>2021-10-17T05:23:50.000Z</time>
      </trkpt>
      <trkpt lat="45.21984" lon="5.73823">
        <ele>882.20001220703</ele>
        <time>2021-10-17T05:23:53.000Z</time>
      </trkpt>
      <trkpt lat="45.21982" lon="5.73822">
        <ele>882.40002441406</ele>
        <time>2021-10-17T05:23:54.000Z</time>
      </trkpt>
      <trkpt lat="45.21981" lon="5.7382">
        <ele>883</ele>
        <time>2021-10-17T05:23:55.000Z</time>
      </trkpt>
      <trkpt lat="45.21979" lon="5.73818">
        <ele>883.40002441406</ele>
        <time>2021-10-17T05:23:57.000Z</time>
      </trkpt>
      <trkpt lat="45.21975" lon="5.73813">
        <ele>884</ele>
        <time>2021-10-17T05:23:59.000Z</time>
      </trkpt>
      <trkpt lat="45.21973" lon="5.73809">
        <ele>884.59997558594</ele>
        <time>2021-10-17T05:24:01.000Z</time>
      </trkpt>
      <trkpt lat="45.21969" lon="5.73801">
        <ele>885.59997558594</ele>
        <time>2021-10-17T05:24:05.000Z</time>
      </trkpt>
      <trkpt lat="45.21966" lon="5.73795">
        <ele>886.20001220703</ele>
        <time>2021-10-17T05:24:08.000Z</time>
      </trkpt>
      <trkpt lat="45.21963" lon="5.73792">
        <ele>886.59997558594</ele>
        <time>2021-10-17T05:24:12.000Z</time>
      </trkpt>
      <trkpt lat="45.21963" lon="5.7379">
        <ele>886.79998779297</ele>
        <time>2021-10-17T05:24:13.000Z</time>
      </trkpt>
      <trkpt lat="45.21958" lon="5.73775">
        <ele>887.59997558594</ele>
        <time>2021-10-17T05:24:19.000Z</time>
      </trkpt>
      <trkpt lat="45.21956" lon="5.73771">
        <ele>887.79998779297</ele>
        <time>2021-10-17T05:24:21.000Z</time>
      </trkpt>
      <trkpt lat="45.21949" lon="5.73757">
        <ele>888.79998779297</ele>
        <time>2021-10-17T05:24:27.000Z</time>
      </trkpt>
      <trkpt lat="45.21947" lon="5.73752">
        <ele>889.20001220703</ele>
        <time>2021-10-17T05:24:30.000Z</time>
      </trkpt>
      <trkpt lat="45.21946" lon="5.7375">
        <ele>889.59997558594</ele>
        <time>2021-10-17T05:24:31.000Z</time>
      </trkpt>
      <trkpt lat="45.21944" lon="5.73747">
        <ele>889.79998779297</ele>
        <time>2021-10-17T05:24:33.000Z</time>
      </trkpt>
      <trkpt lat="45.21939" lon="5.73738">
        <ele>891</ele>
        <time>2021-10-17T05:24:38.000Z</time>
      </trkpt>
      <trkpt lat="45.21937" lon="5.73735">
        <ele>891.59997558594</ele>
        <time>2021-10-17T05:24:40.000Z</time>
      </trkpt>
      <trkpt lat="45.21933" lon="5.73732">
        <ele>892.20001220703</ele>
        <time>2021-10-17T05:24:43.000Z</time>
      </trkpt>
      <trkpt lat="45.21927" lon="5.73727">
        <ele>893.20001220703</ele>
        <time>2021-10-17T05:24:47.000Z</time>
      </trkpt>
      <trkpt lat="45.21926" lon="5.73726">
        <ele>893.40002441406</ele>
        <time>2021-10-17T05:24:48.000Z</time>
      </trkpt>
      <trkpt lat="45.21922" lon="5.73721">
        <ele>894.40002441406</ele>
        <time>2021-10-17T05:24:51.000Z</time>
      </trkpt>
      <trkpt lat="45.21918" lon="5.73718">
        <ele>895.20001220703</ele>
        <time>2021-10-17T05:24:54.000Z</time>
      </trkpt>
      <trkpt lat="45.21917" lon="5.73717">
        <ele>895.59997558594</ele>
        <time>2021-10-17T05:24:55.000Z</time>
      </trkpt>
      <trkpt lat="45.21911" lon="5.73716">
        <ele>896.79998779297</ele>
        <time>2021-10-17T05:24:59.000Z</time>
      </trkpt>
      <trkpt lat="45.21907" lon="5.73715">
        <ele>897.59997558594</ele>
        <time>2021-10-17T05:25:02.000Z</time>
      </trkpt>
      <trkpt lat="45.21905" lon="5.73714">
        <ele>898</ele>
        <time>2021-10-17T05:25:03.000Z</time>
      </trkpt>
      <trkpt lat="45.21902" lon="5.73712">
        <ele>899.20001220703</ele>
        <time>2021-10-17T05:25:06.000Z</time>
      </trkpt>
      <trkpt lat="45.219" lon="5.73712">
        <ele>899.59997558594</ele>
        <time>2021-10-17T05:25:08.000Z</time>
      </trkpt>
      <trkpt lat="45.21898" lon="5.73711">
        <ele>900.20001220703</ele>
        <time>2021-10-17T05:25:10.000Z</time>
      </trkpt>
      <trkpt lat="45.21896" lon="5.73711">
        <ele>900.59997558594</ele>
        <time>2021-10-17T05:25:11.000Z</time>
      </trkpt>
      <trkpt lat="45.21893" lon="5.7371">
        <ele>901</ele>
        <time>2021-10-17T05:25:13.000Z</time>
      </trkpt>
      <trkpt lat="45.21891" lon="5.7371">
        <ele>901.20001220703</ele>
        <time>2021-10-17T05:25:14.000Z</time>
      </trkpt>
      <trkpt lat="45.2189" lon="5.73709">
        <ele>901.59997558594</ele>
        <time>2021-10-17T05:25:15.000Z</time>
      </trkpt>
      <trkpt lat="45.21884" lon="5.73701">
        <ele>902.59997558594</ele>
        <time>2021-10-17T05:25:20.000Z</time>
      </trkpt>
      <trkpt lat="45.21877" lon="5.73692">
        <ele>903.40002441406</ele>
        <time>2021-10-17T05:25:24.000Z</time>
      </trkpt>
      <trkpt lat="45.21873" lon="5.73689">
        <ele>903.40002441406</ele>
        <time>2021-10-17T05:25:26.000Z</time>
      </trkpt>
      <trkpt lat="45.2187" lon="5.73686">
        <ele>903.40002441406</ele>
        <time>2021-10-17T05:25:28.000Z</time>
      </trkpt>
      <trkpt lat="45.21867" lon="5.73684">
        <ele>903.20001220703</ele>
        <time>2021-10-17T05:25:30.000Z</time>
      </trkpt>
      <trkpt lat="45.21853" lon="5.73672">
        <ele>902.40002441406</ele>
        <time>2021-10-17T05:25:37.000Z</time>
      </trkpt>
      <trkpt lat="45.21843" lon="5.73665">
        <ele>902.59997558594</ele>
        <time>2021-10-17T05:25:42.000Z</time>
      </trkpt>
      <trkpt lat="45.2184" lon="5.73659">
        <ele>902.59997558594</ele>
        <time>2021-10-17T05:25:44.000Z</time>
      </trkpt>
      <trkpt lat="45.21838" lon="5.73656">
        <ele>902.59997558594</ele>
        <time>2021-10-17T05:25:45.000Z</time>
      </trkpt>
      <trkpt lat="45.21831" lon="5.73639">
        <ele>903.59997558594</ele>
        <time>2021-10-17T05:25:51.000Z</time>
      </trkpt>
      <trkpt lat="45.21829" lon="5.73634">
        <ele>904</ele>
        <time>2021-10-17T05:25:53.000Z</time>
      </trkpt>
      <trkpt lat="45.21825" lon="5.73624">
        <ele>904.79998779297</ele>
        <time>2021-10-17T05:25:57.000Z</time>
      </trkpt>
      <trkpt lat="45.21824" lon="5.73621">
        <ele>904.79998779297</ele>
        <time>2021-10-17T05:25:58.000Z</time>
      </trkpt>
      <trkpt lat="45.21817" lon="5.73605">
        <ele>906</ele>
        <time>2021-10-17T05:26:05.000Z</time>
      </trkpt>
      <trkpt lat="45.21814" lon="5.73602">
        <ele>906.20001220703</ele>
        <time>2021-10-17T05:26:07.000Z</time>
      </trkpt>
      <trkpt lat="45.21808" lon="5.73593">
        <ele>907.40002441406</ele>
        <time>2021-10-17T05:26:12.000Z</time>
      </trkpt>
      <trkpt lat="45.21807" lon="5.73591">
        <ele>907.59997558594</ele>
        <time>2021-10-17T05:26:13.000Z</time>
      </trkpt>
      <trkpt lat="45.21806" lon="5.73589">
        <ele>907.79998779297</ele>
        <time>2021-10-17T05:26:14.000Z</time>
      </trkpt>
      <trkpt lat="45.21804" lon="5.73585">
        <ele>908.59997558594</ele>
        <time>2021-10-17T05:26:16.000Z</time>
      </trkpt>
      <trkpt lat="45.218" lon="5.73579">
        <ele>909.40002441406</ele>
        <time>2021-10-17T05:26:19.000Z</time>
      </trkpt>
      <trkpt lat="45.21798" lon="5.73577">
        <ele>909.59997558594</ele>
        <time>2021-10-17T05:26:20.000Z</time>
      </trkpt>
      <trkpt lat="45.21795" lon="5.7357">
        <ele>910.79998779297</ele>
        <time>2021-10-17T05:26:24.000Z</time>
      </trkpt>
      <trkpt lat="45.21791" lon="5.73565">
        <ele>911.79998779297</ele>
        <time>2021-10-17T05:26:28.000Z</time>
      </trkpt>
      <trkpt lat="45.2179" lon="5.73563">
        <ele>912</ele>
        <time>2021-10-17T05:26:29.000Z</time>
      </trkpt>
      <trkpt lat="45.21789" lon="5.73558">
        <ele>913</ele>
        <time>2021-10-17T05:26:32.000Z</time>
      </trkpt>
      <trkpt lat="45.21788" lon="5.73555">
        <ele>913.40002441406</ele>
        <time>2021-10-17T05:26:34.000Z</time>
      </trkpt>
      <trkpt lat="45.21788" lon="5.73552">
        <ele>914.20001220703</ele>
        <time>2021-10-17T05:26:36.000Z</time>
      </trkpt>
      <trkpt lat="45.21787" lon="5.73549">
        <ele>914.59997558594</ele>
        <time>2021-10-17T05:26:38.000Z</time>
      </trkpt>
      <trkpt lat="45.21785" lon="5.73546">
        <ele>915.20001220703</ele>
        <time>2021-10-17T05:26:40.000Z</time>
      </trkpt>
      <trkpt lat="45.21782" lon="5.73542">
        <ele>916</ele>
        <time>2021-10-17T05:26:43.000Z</time>
      </trkpt>
      <trkpt lat="45.21781" lon="5.7354">
        <ele>916.40002441406</ele>
        <time>2021-10-17T05:26:44.000Z</time>
      </trkpt>
      <trkpt lat="45.21776" lon="5.73537">
        <ele>917.59997558594</ele>
        <time>2021-10-17T05:26:48.000Z</time>
      </trkpt>
      <trkpt lat="45.21771" lon="5.73533">
        <ele>918.40002441406</ele>
        <time>2021-10-17T05:26:52.000Z</time>
      </trkpt>
      <trkpt lat="45.2177" lon="5.73531">
        <ele>918.79998779297</ele>
        <time>2021-10-17T05:26:53.000Z</time>
      </trkpt>
      <trkpt lat="45.2176" lon="5.73525">
        <ele>919.40002441406</ele>
        <time>2021-10-17T05:26:59.000Z</time>
      </trkpt>
      <trkpt lat="45.21741" lon="5.73522">
        <ele>918.40002441406</ele>
        <time>2021-10-17T05:27:07.000Z</time>
      </trkpt>
      <trkpt lat="45.21725" lon="5.73514">
        <ele>918.79998779297</ele>
        <time>2021-10-17T05:27:15.000Z</time>
      </trkpt>
      <trkpt lat="45.21709" lon="5.73504">
        <ele>918</ele>
        <time>2021-10-17T05:27:23.000Z</time>
      </trkpt>
      <trkpt lat="45.21702" lon="5.735">
        <ele>917.59997558594</ele>
        <time>2021-10-17T05:27:26.000Z</time>
      </trkpt>
      <trkpt lat="45.21693" lon="5.73496">
        <ele>917.20001220703</ele>
        <time>2021-10-17T05:27:30.000Z</time>
      </trkpt>
      <trkpt lat="45.21681" lon="5.73495">
        <ele>916.40002441406</ele>
        <time>2021-10-17T05:27:35.000Z</time>
      </trkpt>
      <trkpt lat="45.21679" lon="5.73493">
        <ele>916.20001220703</ele>
        <time>2021-10-17T05:27:36.000Z</time>
      </trkpt>
      <trkpt lat="45.21674" lon="5.73487">
        <ele>915.79998779297</ele>
        <time>2021-10-17T05:27:39.000Z</time>
      </trkpt>
      <trkpt lat="45.21673" lon="5.73482">
        <ele>915.59997558594</ele>
        <time>2021-10-17T05:27:41.000Z</time>
      </trkpt>
      <trkpt lat="45.21673" lon="5.73477">
        <ele>916.79998779297</ele>
        <time>2021-10-17T05:27:45.000Z</time>
      </trkpt>
      <trkpt lat="45.21672" lon="5.73475">
        <ele>917</ele>
        <time>2021-10-17T05:27:46.000Z</time>
      </trkpt>
      <trkpt lat="45.21672" lon="5.73469">
        <ele>917.40002441406</ele>
        <time>2021-10-17T05:27:49.000Z</time>
      </trkpt>
      <trkpt lat="45.21672" lon="5.73468">
        <ele>917.59997558594</ele>
        <time>2021-10-17T05:27:50.000Z</time>
      </trkpt>
      <trkpt lat="45.21673" lon="5.73467">
        <ele>918</ele>
        <time>2021-10-17T05:27:52.000Z</time>
      </trkpt>
      <trkpt lat="45.21673" lon="5.73467">
        <ele>918</ele>
        <time>2021-10-17T05:27:53.000Z</time>
      </trkpt>
      <trkpt lat="45.21672" lon="5.73464">
        <ele>918.20001220703</ele>
        <time>2021-10-17T05:27:57.000Z</time>
      </trkpt>
      <trkpt lat="45.21672" lon="5.7346">
        <ele>918.20001220703</ele>
        <time>2021-10-17T05:28:00.000Z</time>
      </trkpt>
      <trkpt lat="45.21671" lon="5.73457">
        <ele>918.59997558594</ele>
        <time>2021-10-17T05:28:03.000Z</time>
      </trkpt>
      <trkpt lat="45.21672" lon="5.73457">
        <ele>918.79998779297</ele>
        <time>2021-10-17T05:28:07.000Z</time>
      </trkpt>
      <trkpt lat="45.21671" lon="5.73457">
        <ele>919</ele>
        <time>2021-10-17T05:28:14.000Z</time>
      </trkpt>
      <trkpt lat="45.21671" lon="5.73457">
        <ele>919.20001220703</ele>
        <time>2021-10-17T05:28:17.000Z</time>
      </trkpt>
      <trkpt lat="45.21672" lon="5.73458">
        <ele>919.20001220703</ele>
        <time>2021-10-17T05:28:51.000Z</time>
      </trkpt>
      <trkpt lat="45.21671" lon="5.73457">
        <ele>919.20001220703</ele>
        <time>2021-10-17T05:28:56.000Z</time>
      </trkpt>
      <trkpt lat="45.21671" lon="5.73456">
        <ele>919</ele>
        <time>2021-10-17T05:29:00.000Z</time>
      </trkpt>
      <trkpt lat="45.21671" lon="5.73456">
        <ele>919</ele>
        <time>2021-10-17T05:29:02.000Z</time>
      </trkpt>
      <trkpt lat="45.21671" lon="5.73456">
        <ele>919.20001220703</ele>
        <time>2021-10-17T05:29:03.000Z</time>
      </trkpt>
      <trkpt lat="45.21671" lon="5.73456">
        <ele>919</ele>
        <time>2021-10-17T05:29:05.000Z</time>
      </trkpt>
      <trkpt lat="45.21671" lon="5.73456">
        <ele>919</ele>
        <time>2021-10-17T05:29:08.000Z</time>
      </trkpt>
      <trkpt lat="45.21671" lon="5.73457">
        <ele>918.79998779297</ele>
        <time>2021-10-17T05:29:12.000Z</time>
      </trkpt>
      <trkpt lat="45.2167" lon="5.73466">
        <ele>918</ele>
        <time>2021-10-17T05:29:27.000Z</time>
      </trkpt>
      <trkpt lat="45.2167" lon="5.73473">
        <ele>917.20001220703</ele>
        <time>2021-10-17T05:29:30.000Z</time>
      </trkpt>
      <trkpt lat="45.21671" lon="5.73477">
        <ele>916.79998779297</ele>
        <time>2021-10-17T05:29:32.000Z</time>
      </trkpt>
      <trkpt lat="45.21672" lon="5.73478">
        <ele>916.59997558594</ele>
        <time>2021-10-17T05:29:33.000Z</time>
      </trkpt>
      <trkpt lat="45.21672" lon="5.73479">
        <ele>916.59997558594</ele>
        <time>2021-10-17T05:29:34.000Z</time>
      </trkpt>
      <trkpt lat="45.21671" lon="5.73481">
        <ele>916</ele>
        <time>2021-10-17T05:29:36.000Z</time>
      </trkpt>
      <trkpt lat="45.21671" lon="5.73481">
        <ele>915.79998779297</ele>
        <time>2021-10-17T05:29:37.000Z</time>
      </trkpt>
      <trkpt lat="45.21671" lon="5.73482">
        <ele>915.20001220703</ele>
        <time>2021-10-17T05:29:39.000Z</time>
      </trkpt>
      <trkpt lat="45.21672" lon="5.73484">
        <ele>915</ele>
        <time>2021-10-17T05:29:41.000Z</time>
      </trkpt>
      <trkpt lat="45.21673" lon="5.73484">
        <ele>915</ele>
        <time>2021-10-17T05:29:42.000Z</time>
      </trkpt>
      <trkpt lat="45.21674" lon="5.73485">
        <ele>915</ele>
        <time>2021-10-17T05:29:43.000Z</time>
      </trkpt>
      <trkpt lat="45.21674" lon="5.73485">
        <ele>915.20001220703</ele>
        <time>2021-10-17T05:29:45.000Z</time>
      </trkpt>
      <trkpt lat="45.21675" lon="5.73485">
        <ele>915.40002441406</ele>
        <time>2021-10-17T05:29:47.000Z</time>
      </trkpt>
      <trkpt lat="45.21675" lon="5.73485">
        <ele>915.40002441406</ele>
        <time>2021-10-17T05:29:48.000Z</time>
      </trkpt>
      <trkpt lat="45.21676" lon="5.73485">
        <ele>916</ele>
        <time>2021-10-17T05:29:54.000Z</time>
      </trkpt>
      <trkpt lat="45.21677" lon="5.73485">
        <ele>916.59997558594</ele>
        <time>2021-10-17T05:29:58.000Z</time>
      </trkpt>
      <trkpt lat="45.21677" lon="5.73485">
        <ele>917</ele>
        <time>2021-10-17T05:30:04.000Z</time>
      </trkpt>
      <trkpt lat="45.21677" lon="5.73485">
        <ele>917</ele>
        <time>2021-10-17T05:30:17.000Z</time>
      </trkpt>
      <trkpt lat="45.21678" lon="5.73484">
        <ele>916.79998779297</ele>
        <time>2021-10-17T05:30:34.000Z</time>
      </trkpt>
      <trkpt lat="45.21678" lon="5.73484">
        <ele>916.40002441406</ele>
        <time>2021-10-17T05:30:43.000Z</time>
      </trkpt>
      <trkpt lat="45.21678" lon="5.73484">
        <ele>916.59997558594</ele>
        <time>2021-10-17T05:30:55.000Z</time>
      </trkpt>
      <trkpt lat="45.21678" lon="5.73484">
        <ele>916.59997558594</ele>
        <time>2021-10-17T05:31:03.000Z</time>
      </trkpt>
      <trkpt lat="45.21678" lon="5.73484">
        <ele>916.59997558594</ele>
        <time>2021-10-17T05:31:15.000Z</time>
      </trkpt>
      <trkpt lat="45.21678" lon="5.73484">
        <ele>916.59997558594</ele>
        <time>2021-10-17T05:31:26.000Z</time>
      </trkpt>
      <trkpt lat="45.21677" lon="5.73486">
        <ele>916.59997558594</ele>
        <time>2021-10-17T05:32:01.000Z</time>
      </trkpt>
      <trkpt lat="45.21677" lon="5.73486">
        <ele>916.59997558594</ele>
        <time>2021-10-17T05:32:03.000Z</time>
      </trkpt>
      <trkpt lat="45.21677" lon="5.7349">
        <ele>916.59997558594</ele>
        <time>2021-10-17T05:32:28.000Z</time>
      </trkpt>
      <trkpt lat="45.21677" lon="5.7349">
        <ele>916.59997558594</ele>
        <time>2021-10-17T05:32:37.000Z</time>
      </trkpt>
      <trkpt lat="45.21676" lon="5.73494">
        <ele>916.59997558594</ele>
        <time>2021-10-17T05:32:49.000Z</time>
      </trkpt>
      <trkpt lat="45.21677" lon="5.73499">
        <ele>916.59997558594</ele>
        <time>2021-10-17T05:32:54.000Z</time>
      </trkpt>
      <trkpt lat="45.21678" lon="5.735">
        <ele>916.59997558594</ele>
        <time>2021-10-17T05:32:55.000Z</time>
      </trkpt>
      <trkpt lat="45.21678" lon="5.73501">
        <ele>916.59997558594</ele>
        <time>2021-10-17T05:32:56.000Z</time>
      </trkpt>
      <trkpt lat="45.21682" lon="5.73504">
        <ele>909.79998779297</ele>
        <time>2021-10-17T05:33:01.000Z</time>
      </trkpt>
      <trkpt lat="45.21684" lon="5.73505">
        <ele>909.79998779297</ele>
        <time>2021-10-17T05:33:04.000Z</time>
      </trkpt>
      <trkpt lat="45.21688" lon="5.73505">
        <ele>909</ele>
        <time>2021-10-17T05:33:08.000Z</time>
      </trkpt>
      <trkpt lat="45.2169" lon="5.73506">
        <ele>908.59997558594</ele>
        <time>2021-10-17T05:33:09.000Z</time>
      </trkpt>
      <trkpt lat="45.2169" lon="5.73508">
        <ele>908</ele>
        <time>2021-10-17T05:33:11.000Z</time>
      </trkpt>
      <trkpt lat="45.21691" lon="5.7351">
        <ele>907.59997558594</ele>
        <time>2021-10-17T05:33:12.000Z</time>
      </trkpt>
      <trkpt lat="45.21691" lon="5.73511">
        <ele>907.40002441406</ele>
        <time>2021-10-17T05:33:13.000Z</time>
      </trkpt>
      <trkpt lat="45.21692" lon="5.73512">
        <ele>907.20001220703</ele>
        <time>2021-10-17T05:33:14.000Z</time>
      </trkpt>
      <trkpt lat="45.21695" lon="5.73514">
        <ele>906</ele>
        <time>2021-10-17T05:33:16.000Z</time>
      </trkpt>
      <trkpt lat="45.21697" lon="5.73514">
        <ele>905.59997558594</ele>
        <time>2021-10-17T05:33:17.000Z</time>
      </trkpt>
      <trkpt lat="45.217" lon="5.73515">
        <ele>905.20001220703</ele>
        <time>2021-10-17T05:33:18.000Z</time>
      </trkpt>
      <trkpt lat="45.21701" lon="5.73516">
        <ele>904.79998779297</ele>
        <time>2021-10-17T05:33:19.000Z</time>
      </trkpt>
      <trkpt lat="45.21707" lon="5.73521">
        <ele>903.79998779297</ele>
        <time>2021-10-17T05:33:23.000Z</time>
      </trkpt>
      <trkpt lat="45.21711" lon="5.73525">
        <ele>903.20001220703</ele>
        <time>2021-10-17T05:33:26.000Z</time>
      </trkpt>
      <trkpt lat="45.21712" lon="5.73526">
        <ele>903.20001220703</ele>
        <time>2021-10-17T05:33:27.000Z</time>
      </trkpt>
      <trkpt lat="45.21712" lon="5.73527">
        <ele>903</ele>
        <time>2021-10-17T05:33:28.000Z</time>
      </trkpt>
      <trkpt lat="45.21711" lon="5.73527">
        <ele>902.79998779297</ele>
        <time>2021-10-17T05:33:29.000Z</time>
      </trkpt>
      <trkpt lat="45.2171" lon="5.73527">
        <ele>902.20001220703</ele>
        <time>2021-10-17T05:33:30.000Z</time>
      </trkpt>
      <trkpt lat="45.21707" lon="5.73527">
        <ele>901.59997558594</ele>
        <time>2021-10-17T05:33:32.000Z</time>
      </trkpt>
      <trkpt lat="45.21704" lon="5.73528">
        <ele>900.79998779297</ele>
        <time>2021-10-17T05:33:34.000Z</time>
      </trkpt>
      <trkpt lat="45.21703" lon="5.73527">
        <ele>900.59997558594</ele>
        <time>2021-10-17T05:33:35.000Z</time>
      </trkpt>
      <trkpt lat="45.21702" lon="5.73528">
        <ele>900.40002441406</ele>
        <time>2021-10-17T05:33:36.000Z</time>
      </trkpt>
      <trkpt lat="45.217" lon="5.73528">
        <ele>899.59997558594</ele>
        <time>2021-10-17T05:33:38.000Z</time>
      </trkpt>
      <trkpt lat="45.21696" lon="5.73529">
        <ele>898.59997558594</ele>
        <time>2021-10-17T05:33:41.000Z</time>
      </trkpt>
      <trkpt lat="45.21694" lon="5.73529">
        <ele>898.20001220703</ele>
        <time>2021-10-17T05:33:42.000Z</time>
      </trkpt>
      <trkpt lat="45.2169" lon="5.73529">
        <ele>897.20001220703</ele>
        <time>2021-10-17T05:33:44.000Z</time>
      </trkpt>
      <trkpt lat="45.21684" lon="5.73531">
        <ele>896</ele>
        <time>2021-10-17T05:33:48.000Z</time>
      </trkpt>
      <trkpt lat="45.21679" lon="5.73531">
        <ele>895.20001220703</ele>
        <time>2021-10-17T05:33:52.000Z</time>
      </trkpt>
      <trkpt lat="45.21678" lon="5.73531">
        <ele>894.79998779297</ele>
        <time>2021-10-17T05:33:53.000Z</time>
      </trkpt>
      <trkpt lat="45.21676" lon="5.73531">
        <ele>894.59997558594</ele>
        <time>2021-10-17T05:33:54.000Z</time>
      </trkpt>
      <trkpt lat="45.2167" lon="5.73532">
        <ele>893.59997558594</ele>
        <time>2021-10-17T05:33:57.000Z</time>
      </trkpt>
      <trkpt lat="45.21669" lon="5.73532">
        <ele>893.40002441406</ele>
        <time>2021-10-17T05:33:58.000Z</time>
      </trkpt>
      <trkpt lat="45.21667" lon="5.73532">
        <ele>892.59997558594</ele>
        <time>2021-10-17T05:34:00.000Z</time>
      </trkpt>
      <trkpt lat="45.21666" lon="5.73531">
        <ele>892</ele>
        <time>2021-10-17T05:34:02.000Z</time>
      </trkpt>
      <trkpt lat="45.21666" lon="5.73531">
        <ele>891.59997558594</ele>
        <time>2021-10-17T05:34:03.000Z</time>
      </trkpt>
      <trkpt lat="45.21668" lon="5.73532">
        <ele>890.59997558594</ele>
        <time>2021-10-17T05:34:06.000Z</time>
      </trkpt>
      <trkpt lat="45.21669" lon="5.73534">
        <ele>890.59997558594</ele>
        <time>2021-10-17T05:34:07.000Z</time>
      </trkpt>
      <trkpt lat="45.2167" lon="5.73534">
        <ele>889.79998779297</ele>
        <time>2021-10-17T05:34:08.000Z</time>
      </trkpt>
      <trkpt lat="45.21671" lon="5.73535">
        <ele>889.40002441406</ele>
        <time>2021-10-17T05:34:09.000Z</time>
      </trkpt>
      <trkpt lat="45.21677" lon="5.73538">
        <ele>888</ele>
        <time>2021-10-17T05:34:13.000Z</time>
      </trkpt>
      <trkpt lat="45.21681" lon="5.73541">
        <ele>886.79998779297</ele>
        <time>2021-10-17T05:34:16.000Z</time>
      </trkpt>
      <trkpt lat="45.21685" lon="5.73543">
        <ele>885.79998779297</ele>
        <time>2021-10-17T05:34:19.000Z</time>
      </trkpt>
      <trkpt lat="45.2169" lon="5.73549">
        <ele>884.79998779297</ele>
        <time>2021-10-17T05:34:22.000Z</time>
      </trkpt>
      <trkpt lat="45.21691" lon="5.7355">
        <ele>884.59997558594</ele>
        <time>2021-10-17T05:34:23.000Z</time>
      </trkpt>
      <trkpt lat="45.21695" lon="5.73555">
        <ele>883.40002441406</ele>
        <time>2021-10-17T05:34:27.000Z</time>
      </trkpt>
      <trkpt lat="45.21697" lon="5.73557">
        <ele>882.59997558594</ele>
        <time>2021-10-17T05:34:29.000Z</time>
      </trkpt>
      <trkpt lat="45.21699" lon="5.73557">
        <ele>882.20001220703</ele>
        <time>2021-10-17T05:34:30.000Z</time>
      </trkpt>
      <trkpt lat="45.21702" lon="5.73559">
        <ele>881.79998779297</ele>
        <time>2021-10-17T05:34:32.000Z</time>
      </trkpt>
      <trkpt lat="45.21702" lon="5.73559">
        <ele>881.59997558594</ele>
        <time>2021-10-17T05:34:33.000Z</time>
      </trkpt>
      <trkpt lat="45.217" lon="5.73558">
        <ele>881.20001220703</ele>
        <time>2021-10-17T05:34:35.000Z</time>
      </trkpt>
      <trkpt lat="45.21697" lon="5.73559">
        <ele>880.20001220703</ele>
        <time>2021-10-17T05:34:37.000Z</time>
      </trkpt>
      <trkpt lat="45.21693" lon="5.73558">
        <ele>878.79998779297</ele>
        <time>2021-10-17T05:34:40.000Z</time>
      </trkpt>
      <trkpt lat="45.21687" lon="5.73556">
        <ele>877.79998779297</ele>
        <time>2021-10-17T05:34:43.000Z</time>
      </trkpt>
      <trkpt lat="45.21683" lon="5.73556">
        <ele>876.79998779297</ele>
        <time>2021-10-17T05:34:45.000Z</time>
      </trkpt>
      <trkpt lat="45.2168" lon="5.73554">
        <ele>876.59997558594</ele>
        <time>2021-10-17T05:34:46.000Z</time>
      </trkpt>
      <trkpt lat="45.21674" lon="5.73554">
        <ele>875.79998779297</ele>
        <time>2021-10-17T05:34:50.000Z</time>
      </trkpt>
      <trkpt lat="45.2167" lon="5.73555">
        <ele>875.20001220703</ele>
        <time>2021-10-17T05:34:52.000Z</time>
      </trkpt>
      <trkpt lat="45.21667" lon="5.73557">
        <ele>874.79998779297</ele>
        <time>2021-10-17T05:34:54.000Z</time>
      </trkpt>
      <trkpt lat="45.21664" lon="5.73559">
        <ele>874</ele>
        <time>2021-10-17T05:34:56.000Z</time>
      </trkpt>
      <trkpt lat="45.21659" lon="5.73562">
        <ele>872.79998779297</ele>
        <time>2021-10-17T05:34:59.000Z</time>
      </trkpt>
      <trkpt lat="45.21655" lon="5.73563">
        <ele>871.79998779297</ele>
        <time>2021-10-17T05:35:01.000Z</time>
      </trkpt>
      <trkpt lat="45.21652" lon="5.73564">
        <ele>870.79998779297</ele>
        <time>2021-10-17T05:35:04.000Z</time>
      </trkpt>
      <trkpt lat="45.2165" lon="5.73563">
        <ele>870.79998779297</ele>
        <time>2021-10-17T05:35:05.000Z</time>
      </trkpt>
      <trkpt lat="45.21646" lon="5.73562">
        <ele>869.59997558594</ele>
        <time>2021-10-17T05:35:08.000Z</time>
      </trkpt>
      <trkpt lat="45.21645" lon="5.7356">
        <ele>869.20001220703</ele>
        <time>2021-10-17T05:35:10.000Z</time>
      </trkpt>
      <trkpt lat="45.21644" lon="5.7356">
        <ele>868.79998779297</ele>
        <time>2021-10-17T05:35:11.000Z</time>
      </trkpt>
      <trkpt lat="45.21642" lon="5.73559">
        <ele>868.59997558594</ele>
        <time>2021-10-17T05:35:13.000Z</time>
      </trkpt>
      <trkpt lat="45.21637" lon="5.73556">
        <ele>867.59997558594</ele>
        <time>2021-10-17T05:35:17.000Z</time>
      </trkpt>
      <trkpt lat="45.21636" lon="5.73555">
        <ele>867.40002441406</ele>
        <time>2021-10-17T05:35:18.000Z</time>
      </trkpt>
      <trkpt lat="45.21633" lon="5.73553">
        <ele>866.59997558594</ele>
        <time>2021-10-17T05:35:20.000Z</time>
      </trkpt>
      <trkpt lat="45.21632" lon="5.7355">
        <ele>866.20001220703</ele>
        <time>2021-10-17T05:35:21.000Z</time>
      </trkpt>
      <trkpt lat="45.2163" lon="5.7355">
        <ele>866</ele>
        <time>2021-10-17T05:35:22.000Z</time>
      </trkpt>
      <trkpt lat="45.21627" lon="5.73546">
        <ele>865</ele>
        <time>2021-10-17T05:35:24.000Z</time>
      </trkpt>
      <trkpt lat="45.21623" lon="5.7354">
        <ele>864</ele>
        <time>2021-10-17T05:35:27.000Z</time>
      </trkpt>
      <trkpt lat="45.21619" lon="5.73533">
        <ele>862.79998779297</ele>
        <time>2021-10-17T05:35:31.000Z</time>
      </trkpt>
      <trkpt lat="45.21618" lon="5.73532">
        <ele>861.59997558594</ele>
        <time>2021-10-17T05:35:35.000Z</time>
      </trkpt>
      <trkpt lat="45.21618" lon="5.73534">
        <ele>861</ele>
        <time>2021-10-17T05:35:36.000Z</time>
      </trkpt>
      <trkpt lat="45.2162" lon="5.73539">
        <ele>860.40002441406</ele>
        <time>2021-10-17T05:35:38.000Z</time>
      </trkpt>
      <trkpt lat="45.21621" lon="5.73545">
        <ele>859.40002441406</ele>
        <time>2021-10-17T05:35:41.000Z</time>
      </trkpt>
      <trkpt lat="45.21621" lon="5.73547">
        <ele>859</ele>
        <time>2021-10-17T05:35:42.000Z</time>
      </trkpt>
      <trkpt lat="45.21621" lon="5.7355">
        <ele>858.79998779297</ele>
        <time>2021-10-17T05:35:43.000Z</time>
      </trkpt>
      <trkpt lat="45.21622" lon="5.73556">
        <ele>857.79998779297</ele>
        <time>2021-10-17T05:35:46.000Z</time>
      </trkpt>
      <trkpt lat="45.21623" lon="5.73563">
        <ele>856.59997558594</ele>
        <time>2021-10-17T05:35:49.000Z</time>
      </trkpt>
      <trkpt lat="45.21626" lon="5.7357">
        <ele>855.40002441406</ele>
        <time>2021-10-17T05:35:53.000Z</time>
      </trkpt>
      <trkpt lat="45.21628" lon="5.73575">
        <ele>854.20001220703</ele>
        <time>2021-10-17T05:35:57.000Z</time>
      </trkpt>
      <trkpt lat="45.21627" lon="5.73577">
        <ele>853.79998779297</ele>
        <time>2021-10-17T05:35:58.000Z</time>
      </trkpt>
      <trkpt lat="45.21625" lon="5.73577">
        <ele>853.20001220703</ele>
        <time>2021-10-17T05:36:00.000Z</time>
      </trkpt>
      <trkpt lat="45.21622" lon="5.73575">
        <ele>852.20001220703</ele>
        <time>2021-10-17T05:36:02.000Z</time>
      </trkpt>
      <trkpt lat="45.2162" lon="5.73574">
        <ele>852</ele>
        <time>2021-10-17T05:36:03.000Z</time>
      </trkpt>
      <trkpt lat="45.21612" lon="5.73569">
        <ele>850.59997558594</ele>
        <time>2021-10-17T05:36:07.000Z</time>
      </trkpt>
      <trkpt lat="45.21611" lon="5.73568">
        <ele>850.20001220703</ele>
        <time>2021-10-17T05:36:08.000Z</time>
      </trkpt>
      <trkpt lat="45.21608" lon="5.73565">
        <ele>849.59997558594</ele>
        <time>2021-10-17T05:36:10.000Z</time>
      </trkpt>
      <trkpt lat="45.21605" lon="5.73562">
        <ele>848.59997558594</ele>
        <time>2021-10-17T05:36:12.000Z</time>
      </trkpt>
      <trkpt lat="45.21601" lon="5.73555">
        <ele>847.20001220703</ele>
        <time>2021-10-17T05:36:15.000Z</time>
      </trkpt>
      <trkpt lat="45.21598" lon="5.73551">
        <ele>846.79998779297</ele>
        <time>2021-10-17T05:36:17.000Z</time>
      </trkpt>
      <trkpt lat="45.21595" lon="5.73548">
        <ele>845.79998779297</ele>
        <time>2021-10-17T05:36:19.000Z</time>
      </trkpt>
      <trkpt lat="45.21591" lon="5.73542">
        <ele>844.59997558594</ele>
        <time>2021-10-17T05:36:22.000Z</time>
      </trkpt>
      <trkpt lat="45.2159" lon="5.73539">
        <ele>843.79998779297</ele>
        <time>2021-10-17T05:36:23.000Z</time>
      </trkpt>
      <trkpt lat="45.21589" lon="5.73537">
        <ele>843.40002441406</ele>
        <time>2021-10-17T05:36:24.000Z</time>
      </trkpt>
      <trkpt lat="45.21586" lon="5.73531">
        <ele>842.40002441406</ele>
        <time>2021-10-17T05:36:27.000Z</time>
      </trkpt>
      <trkpt lat="45.21583" lon="5.73527">
        <ele>841.59997558594</ele>
        <time>2021-10-17T05:36:29.000Z</time>
      </trkpt>
      <trkpt lat="45.21582" lon="5.73525">
        <ele>841.40002441406</ele>
        <time>2021-10-17T05:36:30.000Z</time>
      </trkpt>
      <trkpt lat="45.21579" lon="5.73518">
        <ele>840.20001220703</ele>
        <time>2021-10-17T05:36:33.000Z</time>
      </trkpt>
      <trkpt lat="45.21576" lon="5.73511">
        <ele>839.40002441406</ele>
        <time>2021-10-17T05:36:36.000Z</time>
      </trkpt>
      <trkpt lat="45.21575" lon="5.73509">
        <ele>839</ele>
        <time>2021-10-17T05:36:37.000Z</time>
      </trkpt>
      <trkpt lat="45.21572" lon="5.73503">
        <ele>837.79998779297</ele>
        <time>2021-10-17T05:36:40.000Z</time>
      </trkpt>
      <trkpt lat="45.2157" lon="5.73494">
        <ele>836.40002441406</ele>
        <time>2021-10-17T05:36:44.000Z</time>
      </trkpt>
      <trkpt lat="45.21565" lon="5.73487">
        <ele>835.20001220703</ele>
        <time>2021-10-17T05:36:48.000Z</time>
      </trkpt>
      <trkpt lat="45.21561" lon="5.73484">
        <ele>834.40002441406</ele>
        <time>2021-10-17T05:36:51.000Z</time>
      </trkpt>
      <trkpt lat="45.2156" lon="5.73483">
        <ele>834.20001220703</ele>
        <time>2021-10-17T05:36:52.000Z</time>
      </trkpt>
      <trkpt lat="45.21556" lon="5.73482">
        <ele>833.40002441406</ele>
        <time>2021-10-17T05:36:55.000Z</time>
      </trkpt>
      <trkpt lat="45.21553" lon="5.73481">
        <ele>832.79998779297</ele>
        <time>2021-10-17T05:36:57.000Z</time>
      </trkpt>
      <trkpt lat="45.21548" lon="5.7348">
        <ele>831.59997558594</ele>
        <time>2021-10-17T05:37:00.000Z</time>
      </trkpt>
      <trkpt lat="45.21547" lon="5.7348">
        <ele>831.40002441406</ele>
        <time>2021-10-17T05:37:01.000Z</time>
      </trkpt>
      <trkpt lat="45.21543" lon="5.73478">
        <ele>830.40002441406</ele>
        <time>2021-10-17T05:37:04.000Z</time>
      </trkpt>
      <trkpt lat="45.21541" lon="5.73476">
        <ele>829.20001220703</ele>
        <time>2021-10-17T05:37:07.000Z</time>
      </trkpt>
      <trkpt lat="45.2154" lon="5.73475">
        <ele>829</ele>
        <time>2021-10-17T05:37:08.000Z</time>
      </trkpt>
      <trkpt lat="45.21539" lon="5.73476">
        <ele>828.59997558594</ele>
        <time>2021-10-17T05:37:10.000Z</time>
      </trkpt>
      <trkpt lat="45.21539" lon="5.73477">
        <ele>828.20001220703</ele>
        <time>2021-10-17T05:37:11.000Z</time>
      </trkpt>
      <trkpt lat="45.21539" lon="5.73478">
        <ele>827.79998779297</ele>
        <time>2021-10-17T05:37:12.000Z</time>
      </trkpt>
      <trkpt lat="45.2154" lon="5.73479">
        <ele>827.59997558594</ele>
        <time>2021-10-17T05:37:13.000Z</time>
      </trkpt>
      <trkpt lat="45.21542" lon="5.73482">
        <ele>827</ele>
        <time>2021-10-17T05:37:15.000Z</time>
      </trkpt>
      <trkpt lat="45.21543" lon="5.73483">
        <ele>826.79998779297</ele>
        <time>2021-10-17T05:37:16.000Z</time>
      </trkpt>
      <trkpt lat="45.21546" lon="5.73485">
        <ele>826</ele>
        <time>2021-10-17T05:37:18.000Z</time>
      </trkpt>
      <trkpt lat="45.21546" lon="5.73486">
        <ele>825.59997558594</ele>
        <time>2021-10-17T05:37:19.000Z</time>
      </trkpt>
      <trkpt lat="45.21547" lon="5.73487">
        <ele>825.40002441406</ele>
        <time>2021-10-17T05:37:20.000Z</time>
      </trkpt>
      <trkpt lat="45.21548" lon="5.7349">
        <ele>824.79998779297</ele>
        <time>2021-10-17T05:37:23.000Z</time>
      </trkpt>
      <trkpt lat="45.21549" lon="5.73491">
        <ele>824.59997558594</ele>
        <time>2021-10-17T05:37:24.000Z</time>
      </trkpt>
      <trkpt lat="45.21549" lon="5.73493">
        <ele>824.59997558594</ele>
        <time>2021-10-17T05:37:25.000Z</time>
      </trkpt>
      <trkpt lat="45.21551" lon="5.73498">
        <ele>824</ele>
        <time>2021-10-17T05:37:28.000Z</time>
      </trkpt>
      <trkpt lat="45.21551" lon="5.73502">
        <ele>823.40002441406</ele>
        <time>2021-10-17T05:37:30.000Z</time>
      </trkpt>
      <trkpt lat="45.21552" lon="5.73507">
        <ele>822.20001220703</ele>
        <time>2021-10-17T05:37:34.000Z</time>
      </trkpt>
      <trkpt lat="45.21553" lon="5.73509">
        <ele>822</ele>
        <time>2021-10-17T05:37:35.000Z</time>
      </trkpt>
      <trkpt lat="45.21554" lon="5.73512">
        <ele>821.59997558594</ele>
        <time>2021-10-17T05:37:37.000Z</time>
      </trkpt>
      <trkpt lat="45.21554" lon="5.73516">
        <ele>821</ele>
        <time>2021-10-17T05:37:39.000Z</time>
      </trkpt>
      <trkpt lat="45.21554" lon="5.7352">
        <ele>820.79998779297</ele>
        <time>2021-10-17T05:37:41.000Z</time>
      </trkpt>
      <trkpt lat="45.21554" lon="5.73525">
        <ele>819.79998779297</ele>
        <time>2021-10-17T05:37:43.000Z</time>
      </trkpt>
      <trkpt lat="45.21553" lon="5.73536">
        <ele>818.59997558594</ele>
        <time>2021-10-17T05:37:47.000Z</time>
      </trkpt>
      <trkpt lat="45.21554" lon="5.73541">
        <ele>817.79998779297</ele>
        <time>2021-10-17T05:37:49.000Z</time>
      </trkpt>
      <trkpt lat="45.21554" lon="5.73544">
        <ele>817.59997558594</ele>
        <time>2021-10-17T05:37:50.000Z</time>
      </trkpt>
      <trkpt lat="45.21557" lon="5.73552">
        <ele>816.40002441406</ele>
        <time>2021-10-17T05:37:53.000Z</time>
      </trkpt>
      <trkpt lat="45.21558" lon="5.73557">
        <ele>816</ele>
        <time>2021-10-17T05:37:55.000Z</time>
      </trkpt>
      <trkpt lat="45.21558" lon="5.7356">
        <ele>815.40002441406</ele>
        <time>2021-10-17T05:37:56.000Z</time>
      </trkpt>
      <trkpt lat="45.21559" lon="5.73568">
        <ele>814.20001220703</ele>
        <time>2021-10-17T05:37:59.000Z</time>
      </trkpt>
      <trkpt lat="45.21562" lon="5.73576">
        <ele>813.40002441406</ele>
        <time>2021-10-17T05:38:02.000Z</time>
      </trkpt>
      <trkpt lat="45.21562" lon="5.73578">
        <ele>813</ele>
        <time>2021-10-17T05:38:03.000Z</time>
      </trkpt>
      <trkpt lat="45.21563" lon="5.73582">
        <ele>812</ele>
        <time>2021-10-17T05:38:05.000Z</time>
      </trkpt>
      <trkpt lat="45.21563" lon="5.73587">
        <ele>811</ele>
        <time>2021-10-17T05:38:08.000Z</time>
      </trkpt>
      <trkpt lat="45.21563" lon="5.73588">
        <ele>810.59997558594</ele>
        <time>2021-10-17T05:38:09.000Z</time>
      </trkpt>
      <trkpt lat="45.21558" lon="5.73583">
        <ele>809.79998779297</ele>
        <time>2021-10-17T05:38:13.000Z</time>
      </trkpt>
      <trkpt lat="45.21553" lon="5.73578">
        <ele>808.59997558594</ele>
        <time>2021-10-17T05:38:16.000Z</time>
      </trkpt>
      <trkpt lat="45.21549" lon="5.73574">
        <ele>807.59997558594</ele>
        <time>2021-10-17T05:38:19.000Z</time>
      </trkpt>
      <trkpt lat="45.21547" lon="5.73572">
        <ele>806.79998779297</ele>
        <time>2021-10-17T05:38:21.000Z</time>
      </trkpt>
      <trkpt lat="45.21545" lon="5.7357">
        <ele>806.40002441406</ele>
        <time>2021-10-17T05:38:22.000Z</time>
      </trkpt>
      <trkpt lat="45.21543" lon="5.73568">
        <ele>806</ele>
        <time>2021-10-17T05:38:23.000Z</time>
      </trkpt>
      <trkpt lat="45.21539" lon="5.73562">
        <ele>804.79998779297</ele>
        <time>2021-10-17T05:38:26.000Z</time>
      </trkpt>
      <trkpt lat="45.21536" lon="5.73558">
        <ele>803.59997558594</ele>
        <time>2021-10-17T05:38:29.000Z</time>
      </trkpt>
      <trkpt lat="45.21534" lon="5.73552">
        <ele>802.20001220703</ele>
        <time>2021-10-17T05:38:33.000Z</time>
      </trkpt>
      <trkpt lat="45.21533" lon="5.73549">
        <ele>801.40002441406</ele>
        <time>2021-10-17T05:38:36.000Z</time>
      </trkpt>
      <trkpt lat="45.21533" lon="5.7355">
        <ele>801</ele>
        <time>2021-10-17T05:38:37.000Z</time>
      </trkpt>
      <trkpt lat="45.21533" lon="5.73553">
        <ele>800.20001220703</ele>
        <time>2021-10-17T05:38:39.000Z</time>
      </trkpt>
      <trkpt lat="45.21532" lon="5.73555">
        <ele>800</ele>
        <time>2021-10-17T05:38:40.000Z</time>
      </trkpt>
      <trkpt lat="45.21533" lon="5.73564">
        <ele>798.79998779297</ele>
        <time>2021-10-17T05:38:44.000Z</time>
      </trkpt>
      <trkpt lat="45.21534" lon="5.73568">
        <ele>798.20001220703</ele>
        <time>2021-10-17T05:38:46.000Z</time>
      </trkpt>
      <trkpt lat="45.21535" lon="5.73571">
        <ele>797.40002441406</ele>
        <time>2021-10-17T05:38:48.000Z</time>
      </trkpt>
      <trkpt lat="45.21536" lon="5.73576">
        <ele>796.40002441406</ele>
        <time>2021-10-17T05:38:50.000Z</time>
      </trkpt>
      <trkpt lat="45.21537" lon="5.7358">
        <ele>795.40002441406</ele>
        <time>2021-10-17T05:38:52.000Z</time>
      </trkpt>
      <trkpt lat="45.21538" lon="5.73582">
        <ele>795.20001220703</ele>
        <time>2021-10-17T05:38:53.000Z</time>
      </trkpt>
      <trkpt lat="45.21539" lon="5.73586">
        <ele>794.59997558594</ele>
        <time>2021-10-17T05:38:55.000Z</time>
      </trkpt>
      <trkpt lat="45.2154" lon="5.73589">
        <ele>794.20001220703</ele>
        <time>2021-10-17T05:38:57.000Z</time>
      </trkpt>
      <trkpt lat="45.21541" lon="5.73593">
        <ele>793.59997558594</ele>
        <time>2021-10-17T05:38:59.000Z</time>
      </trkpt>
      <trkpt lat="45.21542" lon="5.73594">
        <ele>793.20001220703</ele>
        <time>2021-10-17T05:39:00.000Z</time>
      </trkpt>
      <trkpt lat="45.21542" lon="5.73596">
        <ele>792.59997558594</ele>
        <time>2021-10-17T05:39:01.000Z</time>
      </trkpt>
      <trkpt lat="45.21544" lon="5.73604">
        <ele>791.59997558594</ele>
        <time>2021-10-17T05:39:05.000Z</time>
      </trkpt>
      <trkpt lat="45.21543" lon="5.73606">
        <ele>791.40002441406</ele>
        <time>2021-10-17T05:39:06.000Z</time>
      </trkpt>
      <trkpt lat="45.21541" lon="5.73602">
        <ele>790.40002441406</ele>
        <time>2021-10-17T05:39:09.000Z</time>
      </trkpt>
      <trkpt lat="45.21537" lon="5.73595">
        <ele>789.20001220703</ele>
        <time>2021-10-17T05:39:13.000Z</time>
      </trkpt>
      <trkpt lat="45.21535" lon="5.73593">
        <ele>788.59997558594</ele>
        <time>2021-10-17T05:39:15.000Z</time>
      </trkpt>
      <trkpt lat="45.21534" lon="5.73592">
        <ele>788.40002441406</ele>
        <time>2021-10-17T05:39:16.000Z</time>
      </trkpt>
      <trkpt lat="45.21534" lon="5.73593">
        <ele>788.20001220703</ele>
        <time>2021-10-17T05:39:17.000Z</time>
      </trkpt>
      <trkpt lat="45.21535" lon="5.73595">
        <ele>787.59997558594</ele>
        <time>2021-10-17T05:39:19.000Z</time>
      </trkpt>
      <trkpt lat="45.21536" lon="5.73598">
        <ele>787</ele>
        <time>2021-10-17T05:39:21.000Z</time>
      </trkpt>
      <trkpt lat="45.21538" lon="5.73602">
        <ele>786.59997558594</ele>
        <time>2021-10-17T05:39:23.000Z</time>
      </trkpt>
      <trkpt lat="45.21539" lon="5.73607">
        <ele>786</ele>
        <time>2021-10-17T05:39:25.000Z</time>
      </trkpt>
      <trkpt lat="45.2154" lon="5.73609">
        <ele>785.79998779297</ele>
        <time>2021-10-17T05:39:26.000Z</time>
      </trkpt>
      <trkpt lat="45.2154" lon="5.73615">
        <ele>784.79998779297</ele>
        <time>2021-10-17T05:39:29.000Z</time>
      </trkpt>
      <trkpt lat="45.2154" lon="5.73618">
        <ele>784</ele>
        <time>2021-10-17T05:39:32.000Z</time>
      </trkpt>
      <trkpt lat="45.21538" lon="5.73618">
        <ele>783.40002441406</ele>
        <time>2021-10-17T05:39:34.000Z</time>
      </trkpt>
      <trkpt lat="45.21537" lon="5.73618">
        <ele>782.79998779297</ele>
        <time>2021-10-17T05:39:36.000Z</time>
      </trkpt>
      <trkpt lat="45.21536" lon="5.73613">
        <ele>782.40002441406</ele>
        <time>2021-10-17T05:39:40.000Z</time>
      </trkpt>
      <trkpt lat="45.21536" lon="5.73612">
        <ele>782.20001220703</ele>
        <time>2021-10-17T05:39:41.000Z</time>
      </trkpt>
      <trkpt lat="45.21535" lon="5.7361">
        <ele>782.20001220703</ele>
        <time>2021-10-17T05:39:42.000Z</time>
      </trkpt>
      <trkpt lat="45.21531" lon="5.73603">
        <ele>781.20001220703</ele>
        <time>2021-10-17T05:39:46.000Z</time>
      </trkpt>
      <trkpt lat="45.21529" lon="5.73603">
        <ele>780.59997558594</ele>
        <time>2021-10-17T05:39:47.000Z</time>
      </trkpt>
      <trkpt lat="45.21525" lon="5.73598">
        <ele>780</ele>
        <time>2021-10-17T05:39:50.000Z</time>
      </trkpt>
      <trkpt lat="45.2152" lon="5.73592">
        <ele>778.79998779297</ele>
        <time>2021-10-17T05:39:54.000Z</time>
      </trkpt>
      <trkpt lat="45.21519" lon="5.73591">
        <ele>778.59997558594</ele>
        <time>2021-10-17T05:39:55.000Z</time>
      </trkpt>
      <trkpt lat="45.21518" lon="5.73586">
        <ele>777.59997558594</ele>
        <time>2021-10-17T05:39:57.000Z</time>
      </trkpt>
      <trkpt lat="45.21516" lon="5.73578">
        <ele>776.59997558594</ele>
        <time>2021-10-17T05:40:02.000Z</time>
      </trkpt>
      <trkpt lat="45.21515" lon="5.73576">
        <ele>776</ele>
        <time>2021-10-17T05:40:04.000Z</time>
      </trkpt>
      <trkpt lat="45.21515" lon="5.73577">
        <ele>775.20001220703</ele>
        <time>2021-10-17T05:40:06.000Z</time>
      </trkpt>
      <trkpt lat="45.21515" lon="5.7358">
        <ele>774.79998779297</ele>
        <time>2021-10-17T05:40:08.000Z</time>
      </trkpt>
      <trkpt lat="45.21513" lon="5.73585">
        <ele>774.20001220703</ele>
        <time>2021-10-17T05:40:10.000Z</time>
      </trkpt>
      <trkpt lat="45.21512" lon="5.7359">
        <ele>773.20001220703</ele>
        <time>2021-10-17T05:40:13.000Z</time>
      </trkpt>
      <trkpt lat="45.21512" lon="5.73592">
        <ele>772.79998779297</ele>
        <time>2021-10-17T05:40:14.000Z</time>
      </trkpt>
      <trkpt lat="45.21512" lon="5.73594">
        <ele>772.59997558594</ele>
        <time>2021-10-17T05:40:15.000Z</time>
      </trkpt>
      <trkpt lat="45.21513" lon="5.73596">
        <ele>772</ele>
        <time>2021-10-17T05:40:17.000Z</time>
      </trkpt>
      <trkpt lat="45.21511" lon="5.73597">
        <ele>771.40002441406</ele>
        <time>2021-10-17T05:40:19.000Z</time>
      </trkpt>
      <trkpt lat="45.21509" lon="5.73594">
        <ele>770.59997558594</ele>
        <time>2021-10-17T05:40:21.000Z</time>
      </trkpt>
      <trkpt lat="45.21508" lon="5.73591">
        <ele>770</ele>
        <time>2021-10-17T05:40:23.000Z</time>
      </trkpt>
      <trkpt lat="45.21508" lon="5.73589">
        <ele>769.79998779297</ele>
        <time>2021-10-17T05:40:24.000Z</time>
      </trkpt>
      <trkpt lat="45.21508" lon="5.73588">
        <ele>769.40002441406</ele>
        <time>2021-10-17T05:40:25.000Z</time>
      </trkpt>
      <trkpt lat="45.21508" lon="5.73583">
        <ele>768.59997558594</ele>
        <time>2021-10-17T05:40:28.000Z</time>
      </trkpt>
      <trkpt lat="45.21508" lon="5.73579">
        <ele>768.40002441406</ele>
        <time>2021-10-17T05:40:30.000Z</time>
      </trkpt>
      <trkpt lat="45.21507" lon="5.73574">
        <ele>767.79998779297</ele>
        <time>2021-10-17T05:40:32.000Z</time>
      </trkpt>
      <trkpt lat="45.21507" lon="5.73571">
        <ele>767.40002441406</ele>
        <time>2021-10-17T05:40:33.000Z</time>
      </trkpt>
      <trkpt lat="45.21505" lon="5.73564">
        <ele>766.20001220703</ele>
        <time>2021-10-17T05:40:37.000Z</time>
      </trkpt>
      <trkpt lat="45.21502" lon="5.73561">
        <ele>765.40002441406</ele>
        <time>2021-10-17T05:40:39.000Z</time>
      </trkpt>
      <trkpt lat="45.21499" lon="5.73559">
        <ele>764.79998779297</ele>
        <time>2021-10-17T05:40:41.000Z</time>
      </trkpt>
      <trkpt lat="45.21495" lon="5.73557">
        <ele>763.79998779297</ele>
        <time>2021-10-17T05:40:44.000Z</time>
      </trkpt>
      <trkpt lat="45.21493" lon="5.73556">
        <ele>763.40002441406</ele>
        <time>2021-10-17T05:40:45.000Z</time>
      </trkpt>
      <trkpt lat="45.21489" lon="5.73554">
        <ele>762.79998779297</ele>
        <time>2021-10-17T05:40:47.000Z</time>
      </trkpt>
      <trkpt lat="45.21485" lon="5.73551">
        <ele>761.79998779297</ele>
        <time>2021-10-17T05:40:50.000Z</time>
      </trkpt>
      <trkpt lat="45.21483" lon="5.7355">
        <ele>761.40002441406</ele>
        <time>2021-10-17T05:40:51.000Z</time>
      </trkpt>
      <trkpt lat="45.2148" lon="5.73548">
        <ele>760.79998779297</ele>
        <time>2021-10-17T05:40:54.000Z</time>
      </trkpt>
      <trkpt lat="45.21478" lon="5.73544">
        <ele>760.40002441406</ele>
        <time>2021-10-17T05:40:57.000Z</time>
      </trkpt>
      <trkpt lat="45.21477" lon="5.73542">
        <ele>760.40002441406</ele>
        <time>2021-10-17T05:40:58.000Z</time>
      </trkpt>
      <trkpt lat="45.21476" lon="5.73539">
        <ele>759.40002441406</ele>
        <time>2021-10-17T05:41:00.000Z</time>
      </trkpt>
      <trkpt lat="45.21475" lon="5.73538">
        <ele>759</ele>
        <time>2021-10-17T05:41:01.000Z</time>
      </trkpt>
      <trkpt lat="45.2147" lon="5.73529">
        <ele>758</ele>
        <time>2021-10-17T05:41:05.000Z</time>
      </trkpt>
      <trkpt lat="45.21468" lon="5.73522">
        <ele>756.79998779297</ele>
        <time>2021-10-17T05:41:09.000Z</time>
      </trkpt>
      <trkpt lat="45.21468" lon="5.73521">
        <ele>756.40002441406</ele>
        <time>2021-10-17T05:41:10.000Z</time>
      </trkpt>
      <trkpt lat="45.21468" lon="5.73519">
        <ele>756</ele>
        <time>2021-10-17T05:41:12.000Z</time>
      </trkpt>
      <trkpt lat="45.21467" lon="5.73516">
        <ele>755.79998779297</ele>
        <time>2021-10-17T05:41:14.000Z</time>
      </trkpt>
      <trkpt lat="45.21467" lon="5.73512">
        <ele>755.20001220703</ele>
        <time>2021-10-17T05:41:16.000Z</time>
      </trkpt>
      <trkpt lat="45.21464" lon="5.73504">
        <ele>754.40002441406</ele>
        <time>2021-10-17T05:41:19.000Z</time>
      </trkpt>
      <trkpt lat="45.21462" lon="5.73496">
        <ele>753.20001220703</ele>
        <time>2021-10-17T05:41:22.000Z</time>
      </trkpt>
      <trkpt lat="45.21459" lon="5.7349">
        <ele>751.79998779297</ele>
        <time>2021-10-17T05:41:25.000Z</time>
      </trkpt>
      <trkpt lat="45.21455" lon="5.73488">
        <ele>751.40002441406</ele>
        <time>2021-10-17T05:41:27.000Z</time>
      </trkpt>
      <trkpt lat="45.21454" lon="5.73487">
        <ele>750.79998779297</ele>
        <time>2021-10-17T05:41:28.000Z</time>
      </trkpt>
      <trkpt lat="45.21451" lon="5.73486">
        <ele>749.59997558594</ele>
        <time>2021-10-17T05:41:30.000Z</time>
      </trkpt>
      <trkpt lat="45.2145" lon="5.73485">
        <ele>749.40002441406</ele>
        <time>2021-10-17T05:41:31.000Z</time>
      </trkpt>
      <trkpt lat="45.21448" lon="5.73481">
        <ele>748.79998779297</ele>
        <time>2021-10-17T05:41:34.000Z</time>
      </trkpt>
      <trkpt lat="45.21447" lon="5.73479">
        <ele>748.59997558594</ele>
        <time>2021-10-17T05:41:35.000Z</time>
      </trkpt>
      <trkpt lat="45.21443" lon="5.73469">
        <ele>747</ele>
        <time>2021-10-17T05:41:40.000Z</time>
      </trkpt>
      <trkpt lat="45.2144" lon="5.73463">
        <ele>745.59997558594</ele>
        <time>2021-10-17T05:41:43.000Z</time>
      </trkpt>
      <trkpt lat="45.21438" lon="5.73454">
        <ele>744.79998779297</ele>
        <time>2021-10-17T05:41:46.000Z</time>
      </trkpt>
      <trkpt lat="45.21438" lon="5.73452">
        <ele>744.59997558594</ele>
        <time>2021-10-17T05:41:47.000Z</time>
      </trkpt>
      <trkpt lat="45.21437" lon="5.7345">
        <ele>744.40002441406</ele>
        <time>2021-10-17T05:41:48.000Z</time>
      </trkpt>
      <trkpt lat="45.21433" lon="5.73445">
        <ele>743</ele>
        <time>2021-10-17T05:41:52.000Z</time>
      </trkpt>
      <trkpt lat="45.21432" lon="5.73443">
        <ele>742.79998779297</ele>
        <time>2021-10-17T05:41:53.000Z</time>
      </trkpt>
      <trkpt lat="45.21429" lon="5.73439">
        <ele>741.79998779297</ele>
        <time>2021-10-17T05:41:56.000Z</time>
      </trkpt>
      <trkpt lat="45.21428" lon="5.73438">
        <ele>741.20001220703</ele>
        <time>2021-10-17T05:41:57.000Z</time>
      </trkpt>
      <trkpt lat="45.21425" lon="5.73436">
        <ele>740.79998779297</ele>
        <time>2021-10-17T05:41:58.000Z</time>
      </trkpt>
      <trkpt lat="45.2142" lon="5.73433">
        <ele>740</ele>
        <time>2021-10-17T05:42:00.000Z</time>
      </trkpt>
      <trkpt lat="45.21418" lon="5.73429">
        <ele>739.59997558594</ele>
        <time>2021-10-17T05:42:02.000Z</time>
      </trkpt>
      <trkpt lat="45.21416" lon="5.73424">
        <ele>738.40002441406</ele>
        <time>2021-10-17T05:42:05.000Z</time>
      </trkpt>
      <trkpt lat="45.21416" lon="5.73422">
        <ele>738</ele>
        <time>2021-10-17T05:42:06.000Z</time>
      </trkpt>
      <trkpt lat="45.21414" lon="5.73418">
        <ele>737.59997558594</ele>
        <time>2021-10-17T05:42:08.000Z</time>
      </trkpt>
      <trkpt lat="45.21414" lon="5.73416">
        <ele>737.20001220703</ele>
        <time>2021-10-17T05:42:09.000Z</time>
      </trkpt>
      <trkpt lat="45.2141" lon="5.73409">
        <ele>736.20001220703</ele>
        <time>2021-10-17T05:42:13.000Z</time>
      </trkpt>
      <trkpt lat="45.21409" lon="5.73408">
        <ele>735.79998779297</ele>
        <time>2021-10-17T05:42:14.000Z</time>
      </trkpt>
      <trkpt lat="45.21407" lon="5.73404">
        <ele>735.20001220703</ele>
        <time>2021-10-17T05:42:16.000Z</time>
      </trkpt>
      <trkpt lat="45.21405" lon="5.73393">
        <ele>734</ele>
        <time>2021-10-17T05:42:20.000Z</time>
      </trkpt>
      <trkpt lat="45.21405" lon="5.7339">
        <ele>733.79998779297</ele>
        <time>2021-10-17T05:42:21.000Z</time>
      </trkpt>
      <trkpt lat="45.21403" lon="5.73384">
        <ele>732.79998779297</ele>
        <time>2021-10-17T05:42:24.000Z</time>
      </trkpt>
      <trkpt lat="45.214" lon="5.73382">
        <ele>732.40002441406</ele>
        <time>2021-10-17T05:42:26.000Z</time>
      </trkpt>
      <trkpt lat="45.21396" lon="5.73381">
        <ele>731.59997558594</ele>
        <time>2021-10-17T05:42:28.000Z</time>
      </trkpt>
      <trkpt lat="45.21391" lon="5.73378">
        <ele>730.40002441406</ele>
        <time>2021-10-17T05:42:31.000Z</time>
      </trkpt>
      <trkpt lat="45.21389" lon="5.73373">
        <ele>729.79998779297</ele>
        <time>2021-10-17T05:42:33.000Z</time>
      </trkpt>
      <trkpt lat="45.21387" lon="5.73369">
        <ele>729.40002441406</ele>
        <time>2021-10-17T05:42:35.000Z</time>
      </trkpt>
      <trkpt lat="45.21383" lon="5.73364">
        <ele>728.40002441406</ele>
        <time>2021-10-17T05:42:38.000Z</time>
      </trkpt>
      <trkpt lat="45.21381" lon="5.73363">
        <ele>728</ele>
        <time>2021-10-17T05:42:39.000Z</time>
      </trkpt>
      <trkpt lat="45.2138" lon="5.73361">
        <ele>727.79998779297</ele>
        <time>2021-10-17T05:42:40.000Z</time>
      </trkpt>
      <trkpt lat="45.21377" lon="5.73358">
        <ele>726.79998779297</ele>
        <time>2021-10-17T05:42:42.000Z</time>
      </trkpt>
      <trkpt lat="45.21373" lon="5.73351">
        <ele>725.40002441406</ele>
        <time>2021-10-17T05:42:45.000Z</time>
      </trkpt>
      <trkpt lat="45.21372" lon="5.73349">
        <ele>725.20001220703</ele>
        <time>2021-10-17T05:42:46.000Z</time>
      </trkpt>
      <trkpt lat="45.21371" lon="5.73343">
        <ele>724.59997558594</ele>
        <time>2021-10-17T05:42:49.000Z</time>
      </trkpt>
      <trkpt lat="45.21371" lon="5.73341">
        <ele>724.40002441406</ele>
        <time>2021-10-17T05:42:50.000Z</time>
      </trkpt>
      <trkpt lat="45.2137" lon="5.7334">
        <ele>724.40002441406</ele>
        <time>2021-10-17T05:42:51.000Z</time>
      </trkpt>
      <trkpt lat="45.21365" lon="5.73336">
        <ele>723.20001220703</ele>
        <time>2021-10-17T05:42:55.000Z</time>
      </trkpt>
      <trkpt lat="45.21362" lon="5.73332">
        <ele>722.20001220703</ele>
        <time>2021-10-17T05:42:58.000Z</time>
      </trkpt>
      <trkpt lat="45.2136" lon="5.7333">
        <ele>722</ele>
        <time>2021-10-17T05:42:59.000Z</time>
      </trkpt>
      <trkpt lat="45.21356" lon="5.73326">
        <ele>720.79998779297</ele>
        <time>2021-10-17T05:43:02.000Z</time>
      </trkpt>
      <trkpt lat="45.21352" lon="5.7332">
        <ele>719.79998779297</ele>
        <time>2021-10-17T05:43:05.000Z</time>
      </trkpt>
      <trkpt lat="45.2135" lon="5.73319">
        <ele>719.59997558594</ele>
        <time>2021-10-17T05:43:06.000Z</time>
      </trkpt>
      <trkpt lat="45.21345" lon="5.73316">
        <ele>718.59997558594</ele>
        <time>2021-10-17T05:43:09.000Z</time>
      </trkpt>
      <trkpt lat="45.21343" lon="5.73314">
        <ele>717.59997558594</ele>
        <time>2021-10-17T05:43:11.000Z</time>
      </trkpt>
      <trkpt lat="45.21342" lon="5.73313">
        <ele>717.20001220703</ele>
        <time>2021-10-17T05:43:12.000Z</time>
      </trkpt>
      <trkpt lat="45.21338" lon="5.7331">
        <ele>716.20001220703</ele>
        <time>2021-10-17T05:43:15.000Z</time>
      </trkpt>
      <trkpt lat="45.21336" lon="5.73306">
        <ele>715.59997558594</ele>
        <time>2021-10-17T05:43:17.000Z</time>
      </trkpt>
      <trkpt lat="45.21336" lon="5.73303">
        <ele>715.20001220703</ele>
        <time>2021-10-17T05:43:18.000Z</time>
      </trkpt>
      <trkpt lat="45.21336" lon="5.733">
        <ele>715.20001220703</ele>
        <time>2021-10-17T05:43:19.000Z</time>
      </trkpt>
      <trkpt lat="45.21335" lon="5.73298">
        <ele>715</ele>
        <time>2021-10-17T05:43:20.000Z</time>
      </trkpt>
      <trkpt lat="45.21333" lon="5.73295">
        <ele>714.79998779297</ele>
        <time>2021-10-17T05:43:22.000Z</time>
      </trkpt>
      <trkpt lat="45.2133" lon="5.73293">
        <ele>714.59997558594</ele>
        <time>2021-10-17T05:43:25.000Z</time>
      </trkpt>
      <trkpt lat="45.21327" lon="5.73293">
        <ele>714</ele>
        <time>2021-10-17T05:43:27.000Z</time>
      </trkpt>
      <trkpt lat="45.21322" lon="5.73295">
        <ele>712.59997558594</ele>
        <time>2021-10-17T05:43:31.000Z</time>
      </trkpt>
      <trkpt lat="45.21315" lon="5.73297">
        <ele>711.40002441406</ele>
        <time>2021-10-17T05:43:35.000Z</time>
      </trkpt>
      <trkpt lat="45.21313" lon="5.73297">
        <ele>711</ele>
        <time>2021-10-17T05:43:36.000Z</time>
      </trkpt>
      <trkpt lat="45.21311" lon="5.73298">
        <ele>710.59997558594</ele>
        <time>2021-10-17T05:43:37.000Z</time>
      </trkpt>
      <trkpt lat="45.21311" lon="5.733">
        <ele>710.20001220703</ele>
        <time>2021-10-17T05:43:38.000Z</time>
      </trkpt>
      <trkpt lat="45.21306" lon="5.73303">
        <ele>709.20001220703</ele>
        <time>2021-10-17T05:43:41.000Z</time>
      </trkpt>
      <trkpt lat="45.21303" lon="5.73303">
        <ele>708.40002441406</ele>
        <time>2021-10-17T05:43:43.000Z</time>
      </trkpt>
      <trkpt lat="45.21302" lon="5.73302">
        <ele>708</ele>
        <time>2021-10-17T05:43:44.000Z</time>
      </trkpt>
      <trkpt lat="45.21301" lon="5.733">
        <ele>707.79998779297</ele>
        <time>2021-10-17T05:43:45.000Z</time>
      </trkpt>
      <trkpt lat="45.21299" lon="5.73297">
        <ele>707.40002441406</ele>
        <time>2021-10-17T05:43:46.000Z</time>
      </trkpt>
      <trkpt lat="45.213" lon="5.73294">
        <ele>707</ele>
        <time>2021-10-17T05:43:47.000Z</time>
      </trkpt>
      <trkpt lat="45.21299" lon="5.73286">
        <ele>705.79998779297</ele>
        <time>2021-10-17T05:43:50.000Z</time>
      </trkpt>
      <trkpt lat="45.21297" lon="5.73282">
        <ele>705.40002441406</ele>
        <time>2021-10-17T05:43:52.000Z</time>
      </trkpt>
      <trkpt lat="45.21295" lon="5.73281">
        <ele>704.79998779297</ele>
        <time>2021-10-17T05:43:54.000Z</time>
      </trkpt>
      <trkpt lat="45.2129" lon="5.73281">
        <ele>703.79998779297</ele>
        <time>2021-10-17T05:43:57.000Z</time>
      </trkpt>
      <trkpt lat="45.21288" lon="5.7328">
        <ele>703.40002441406</ele>
        <time>2021-10-17T05:43:58.000Z</time>
      </trkpt>
      <trkpt lat="45.2128" lon="5.73275">
        <ele>702.20001220703</ele>
        <time>2021-10-17T05:44:02.000Z</time>
      </trkpt>
      <trkpt lat="45.21279" lon="5.73275">
        <ele>701.79998779297</ele>
        <time>2021-10-17T05:44:03.000Z</time>
      </trkpt>
      <trkpt lat="45.21272" lon="5.73272">
        <ele>701</ele>
        <time>2021-10-17T05:44:07.000Z</time>
      </trkpt>
      <trkpt lat="45.21268" lon="5.7327">
        <ele>700</ele>
        <time>2021-10-17T05:44:10.000Z</time>
      </trkpt>
      <trkpt lat="45.21266" lon="5.73269">
        <ele>699.40002441406</ele>
        <time>2021-10-17T05:44:11.000Z</time>
      </trkpt>
      <trkpt lat="45.21262" lon="5.73266">
        <ele>698.79998779297</ele>
        <time>2021-10-17T05:44:13.000Z</time>
      </trkpt>
      <trkpt lat="45.21262" lon="5.73264">
        <ele>698.59997558594</ele>
        <time>2021-10-17T05:44:14.000Z</time>
      </trkpt>
      <trkpt lat="45.21258" lon="5.73256">
        <ele>697.40002441406</ele>
        <time>2021-10-17T05:44:17.000Z</time>
      </trkpt>
      <trkpt lat="45.21253" lon="5.73246">
        <ele>696.40002441406</ele>
        <time>2021-10-17T05:44:21.000Z</time>
      </trkpt>
      <trkpt lat="45.21252" lon="5.73241">
        <ele>695.59997558594</ele>
        <time>2021-10-17T05:44:23.000Z</time>
      </trkpt>
      <trkpt lat="45.21251" lon="5.7324">
        <ele>695.20001220703</ele>
        <time>2021-10-17T05:44:24.000Z</time>
      </trkpt>
      <trkpt lat="45.21247" lon="5.73234">
        <ele>693.79998779297</ele>
        <time>2021-10-17T05:44:27.000Z</time>
      </trkpt>
      <trkpt lat="45.21244" lon="5.73231">
        <ele>692.40002441406</ele>
        <time>2021-10-17T05:44:30.000Z</time>
      </trkpt>
      <trkpt lat="45.2124" lon="5.73231">
        <ele>691.59997558594</ele>
        <time>2021-10-17T05:44:33.000Z</time>
      </trkpt>
      <trkpt lat="45.21239" lon="5.7323">
        <ele>691.20001220703</ele>
        <time>2021-10-17T05:44:34.000Z</time>
      </trkpt>
      <trkpt lat="45.21238" lon="5.73228">
        <ele>690.79998779297</ele>
        <time>2021-10-17T05:44:35.000Z</time>
      </trkpt>
      <trkpt lat="45.21237" lon="5.73227">
        <ele>690.40002441406</ele>
        <time>2021-10-17T05:44:36.000Z</time>
      </trkpt>
      <trkpt lat="45.21233" lon="5.73225">
        <ele>689.79998779297</ele>
        <time>2021-10-17T05:44:38.000Z</time>
      </trkpt>
      <trkpt lat="45.21227" lon="5.73219">
        <ele>688.79998779297</ele>
        <time>2021-10-17T05:44:41.000Z</time>
      </trkpt>
      <trkpt lat="45.21223" lon="5.73214">
        <ele>687.40002441406</ele>
        <time>2021-10-17T05:44:44.000Z</time>
      </trkpt>
      <trkpt lat="45.21222" lon="5.73212">
        <ele>687</ele>
        <time>2021-10-17T05:44:45.000Z</time>
      </trkpt>
      <trkpt lat="45.21221" lon="5.73208">
        <ele>686.40002441406</ele>
        <time>2021-10-17T05:44:47.000Z</time>
      </trkpt>
      <trkpt lat="45.2122" lon="5.73206">
        <ele>685.79998779297</ele>
        <time>2021-10-17T05:44:49.000Z</time>
      </trkpt>
      <trkpt lat="45.21218" lon="5.73203">
        <ele>685.20001220703</ele>
        <time>2021-10-17T05:44:51.000Z</time>
      </trkpt>
      <trkpt lat="45.21216" lon="5.73202">
        <ele>684.79998779297</ele>
        <time>2021-10-17T05:44:52.000Z</time>
      </trkpt>
      <trkpt lat="45.21215" lon="5.73201">
        <ele>684.40002441406</ele>
        <time>2021-10-17T05:44:53.000Z</time>
      </trkpt>
      <trkpt lat="45.21213" lon="5.732">
        <ele>684.20001220703</ele>
        <time>2021-10-17T05:44:54.000Z</time>
      </trkpt>
      <trkpt lat="45.21208" lon="5.73196">
        <ele>682.79998779297</ele>
        <time>2021-10-17T05:44:57.000Z</time>
      </trkpt>
      <trkpt lat="45.21206" lon="5.73194">
        <ele>682.59997558594</ele>
        <time>2021-10-17T05:44:58.000Z</time>
      </trkpt>
      <trkpt lat="45.21203" lon="5.7319">
        <ele>681.79998779297</ele>
        <time>2021-10-17T05:45:00.000Z</time>
      </trkpt>
      <trkpt lat="45.21199" lon="5.73183">
        <ele>680.59997558594</ele>
        <time>2021-10-17T05:45:03.000Z</time>
      </trkpt>
      <trkpt lat="45.21196" lon="5.7318">
        <ele>680</ele>
        <time>2021-10-17T05:45:05.000Z</time>
      </trkpt>
      <trkpt lat="45.21193" lon="5.73177">
        <ele>679.59997558594</ele>
        <time>2021-10-17T05:45:07.000Z</time>
      </trkpt>
      <trkpt lat="45.21188" lon="5.73171">
        <ele>678</ele>
        <time>2021-10-17T05:45:10.000Z</time>
      </trkpt>
      <trkpt lat="45.21184" lon="5.73166">
        <ele>677</ele>
        <time>2021-10-17T05:45:13.000Z</time>
      </trkpt>
      <trkpt lat="45.2118" lon="5.73159">
        <ele>675.59997558594</ele>
        <time>2021-10-17T05:45:17.000Z</time>
      </trkpt>
      <trkpt lat="45.21175" lon="5.73154">
        <ele>674.59997558594</ele>
        <time>2021-10-17T05:45:20.000Z</time>
      </trkpt>
      <trkpt lat="45.21173" lon="5.73153">
        <ele>674.40002441406</ele>
        <time>2021-10-17T05:45:21.000Z</time>
      </trkpt>
      <trkpt lat="45.2117" lon="5.73151">
        <ele>673.59997558594</ele>
        <time>2021-10-17T05:45:23.000Z</time>
      </trkpt>
      <trkpt lat="45.21167" lon="5.73147">
        <ele>673</ele>
        <time>2021-10-17T05:45:25.000Z</time>
      </trkpt>
      <trkpt lat="45.21165" lon="5.73143">
        <ele>672.40002441406</ele>
        <time>2021-10-17T05:45:27.000Z</time>
      </trkpt>
      <trkpt lat="45.21164" lon="5.73141">
        <ele>672</ele>
        <time>2021-10-17T05:45:28.000Z</time>
      </trkpt>
      <trkpt lat="45.21161" lon="5.7314">
        <ele>671.40002441406</ele>
        <time>2021-10-17T05:45:30.000Z</time>
      </trkpt>
      <trkpt lat="45.21159" lon="5.73139">
        <ele>671</ele>
        <time>2021-10-17T05:45:31.000Z</time>
      </trkpt>
      <trkpt lat="45.21157" lon="5.73137">
        <ele>670.40002441406</ele>
        <time>2021-10-17T05:45:33.000Z</time>
      </trkpt>
      <trkpt lat="45.21155" lon="5.73131">
        <ele>669.79998779297</ele>
        <time>2021-10-17T05:45:35.000Z</time>
      </trkpt>
      <trkpt lat="45.21152" lon="5.73125">
        <ele>668.79998779297</ele>
        <time>2021-10-17T05:45:38.000Z</time>
      </trkpt>
      <trkpt lat="45.2115" lon="5.73123">
        <ele>668.40002441406</ele>
        <time>2021-10-17T05:45:39.000Z</time>
      </trkpt>
      <trkpt lat="45.21145" lon="5.73121">
        <ele>667.59997558594</ele>
        <time>2021-10-17T05:45:42.000Z</time>
      </trkpt>
      <trkpt lat="45.21144" lon="5.73122">
        <ele>667.40002441406</ele>
        <time>2021-10-17T05:45:43.000Z</time>
      </trkpt>
      <trkpt lat="45.21139" lon="5.73124">
        <ele>666.20001220703</ele>
        <time>2021-10-17T05:45:46.000Z</time>
      </trkpt>
      <trkpt lat="45.21134" lon="5.73126">
        <ele>665.59997558594</ele>
        <time>2021-10-17T05:45:48.000Z</time>
      </trkpt>
      <trkpt lat="45.21132" lon="5.73126">
        <ele>665</ele>
        <time>2021-10-17T05:45:49.000Z</time>
      </trkpt>
      <trkpt lat="45.21126" lon="5.73126">
        <ele>663.59997558594</ele>
        <time>2021-10-17T05:45:52.000Z</time>
      </trkpt>
      <trkpt lat="45.21124" lon="5.73127">
        <ele>663.20001220703</ele>
        <time>2021-10-17T05:45:53.000Z</time>
      </trkpt>
      <trkpt lat="45.21121" lon="5.73129">
        <ele>662.59997558594</ele>
        <time>2021-10-17T05:45:55.000Z</time>
      </trkpt>
      <trkpt lat="45.2112" lon="5.7313">
        <ele>662.40002441406</ele>
        <time>2021-10-17T05:45:56.000Z</time>
      </trkpt>
      <trkpt lat="45.21117" lon="5.73134">
        <ele>661.59997558594</ele>
        <time>2021-10-17T05:45:58.000Z</time>
      </trkpt>
      <trkpt lat="45.21115" lon="5.73135">
        <ele>661.40002441406</ele>
        <time>2021-10-17T05:45:59.000Z</time>
      </trkpt>
      <trkpt lat="45.21114" lon="5.73136">
        <ele>660.79998779297</ele>
        <time>2021-10-17T05:46:00.000Z</time>
      </trkpt>
      <trkpt lat="45.21112" lon="5.73137">
        <ele>660.40002441406</ele>
        <time>2021-10-17T05:46:01.000Z</time>
      </trkpt>
      <trkpt lat="45.21112" lon="5.73137">
        <ele>659.79998779297</ele>
        <time>2021-10-17T05:46:02.000Z</time>
      </trkpt>
      <trkpt lat="45.21112" lon="5.7314">
        <ele>659.20001220703</ele>
        <time>2021-10-17T05:46:04.000Z</time>
      </trkpt>
      <trkpt lat="45.21112" lon="5.73141">
        <ele>658.79998779297</ele>
        <time>2021-10-17T05:46:07.000Z</time>
      </trkpt>
      <trkpt lat="45.2111" lon="5.73143">
        <ele>658.59997558594</ele>
        <time>2021-10-17T05:46:11.000Z</time>
      </trkpt>
      <trkpt lat="45.2111" lon="5.73143">
        <ele>658.59997558594</ele>
        <time>2021-10-17T05:46:12.000Z</time>
      </trkpt>
      <trkpt lat="45.2111" lon="5.73145">
        <ele>658.59997558594</ele>
        <time>2021-10-17T05:46:16.000Z</time>
      </trkpt>
      <trkpt lat="45.21111" lon="5.73144">
        <ele>658.59997558594</ele>
        <time>2021-10-17T05:46:19.000Z</time>
      </trkpt>
      <trkpt lat="45.21111" lon="5.73144">
        <ele>658.59997558594</ele>
        <time>2021-10-17T05:46:22.000Z</time>
      </trkpt>
      <trkpt lat="45.21111" lon="5.73144">
        <ele>658.59997558594</ele>
        <time>2021-10-17T05:46:28.000Z</time>
      </trkpt>
      <trkpt lat="45.21111" lon="5.73144">
        <ele>658.59997558594</ele>
        <time>2021-10-17T05:46:29.000Z</time>
      </trkpt>
      <trkpt lat="45.21111" lon="5.73143">
        <ele>658.59997558594</ele>
        <time>2021-10-17T05:46:33.000Z</time>
      </trkpt>
      <trkpt lat="45.21113" lon="5.73142">
        <ele>658.20001220703</ele>
        <time>2021-10-17T05:46:35.000Z</time>
      </trkpt>
      <trkpt lat="45.21115" lon="5.73141">
        <ele>657.79998779297</ele>
        <time>2021-10-17T05:46:36.000Z</time>
      </trkpt>
      <trkpt lat="45.21116" lon="5.7314">
        <ele>657.59997558594</ele>
        <time>2021-10-17T05:46:37.000Z</time>
      </trkpt>
      <trkpt lat="45.21123" lon="5.73141">
        <ele>656.59997558594</ele>
        <time>2021-10-17T05:46:40.000Z</time>
      </trkpt>
      <trkpt lat="45.21128" lon="5.73142">
        <ele>655.40002441406</ele>
        <time>2021-10-17T05:46:42.000Z</time>
      </trkpt>
      <trkpt lat="45.21132" lon="5.73144">
        <ele>654.20001220703</ele>
        <time>2021-10-17T05:46:45.000Z</time>
      </trkpt>
      <trkpt lat="45.21132" lon="5.73145">
        <ele>653.79998779297</ele>
        <time>2021-10-17T05:46:46.000Z</time>
      </trkpt>
      <trkpt lat="45.21131" lon="5.73146">
        <ele>653.20001220703</ele>
        <time>2021-10-17T05:46:47.000Z</time>
      </trkpt>
      <trkpt lat="45.21126" lon="5.73148">
        <ele>652</ele>
        <time>2021-10-17T05:46:50.000Z</time>
      </trkpt>
      <trkpt lat="45.21121" lon="5.73149">
        <ele>650.79998779297</ele>
        <time>2021-10-17T05:46:53.000Z</time>
      </trkpt>
      <trkpt lat="45.2112" lon="5.73149">
        <ele>650.59997558594</ele>
        <time>2021-10-17T05:46:54.000Z</time>
      </trkpt>
      <trkpt lat="45.21118" lon="5.73154">
        <ele>650</ele>
        <time>2021-10-17T05:46:56.000Z</time>
      </trkpt>
      <trkpt lat="45.21117" lon="5.73156">
        <ele>649.79998779297</ele>
        <time>2021-10-17T05:46:57.000Z</time>
      </trkpt>
      <trkpt lat="45.21116" lon="5.73157">
        <ele>649.59997558594</ele>
        <time>2021-10-17T05:46:58.000Z</time>
      </trkpt>
      <trkpt lat="45.21114" lon="5.73158">
        <ele>649.40002441406</ele>
        <time>2021-10-17T05:46:59.000Z</time>
      </trkpt>
      <trkpt lat="45.21111" lon="5.7316">
        <ele>648.59997558594</ele>
        <time>2021-10-17T05:47:02.000Z</time>
      </trkpt>
      <trkpt lat="45.21109" lon="5.7316">
        <ele>648.20001220703</ele>
        <time>2021-10-17T05:47:03.000Z</time>
      </trkpt>
      <trkpt lat="45.21107" lon="5.73159">
        <ele>647.79998779297</ele>
        <time>2021-10-17T05:47:04.000Z</time>
      </trkpt>
      <trkpt lat="45.21106" lon="5.73157">
        <ele>647.40002441406</ele>
        <time>2021-10-17T05:47:05.000Z</time>
      </trkpt>
      <trkpt lat="45.211" lon="5.73149">
        <ele>646.40002441406</ele>
        <time>2021-10-17T05:47:08.000Z</time>
      </trkpt>
      <trkpt lat="45.21095" lon="5.73143">
        <ele>645</ele>
        <time>2021-10-17T05:47:11.000Z</time>
      </trkpt>
      <trkpt lat="45.21091" lon="5.73139">
        <ele>644.59997558594</ele>
        <time>2021-10-17T05:47:13.000Z</time>
      </trkpt>
      <trkpt lat="45.2109" lon="5.73138">
        <ele>644</ele>
        <time>2021-10-17T05:47:14.000Z</time>
      </trkpt>
      <trkpt lat="45.21085" lon="5.73136">
        <ele>642.79998779297</ele>
        <time>2021-10-17T05:47:17.000Z</time>
      </trkpt>
      <trkpt lat="45.21082" lon="5.73132">
        <ele>642.20001220703</ele>
        <time>2021-10-17T05:47:19.000Z</time>
      </trkpt>
      <trkpt lat="45.21079" lon="5.73127">
        <ele>641.40002441406</ele>
        <time>2021-10-17T05:47:21.000Z</time>
      </trkpt>
      <trkpt lat="45.21077" lon="5.73124">
        <ele>641</ele>
        <time>2021-10-17T05:47:23.000Z</time>
      </trkpt>
      <trkpt lat="45.21075" lon="5.73125">
        <ele>640.79998779297</ele>
        <time>2021-10-17T05:47:25.000Z</time>
      </trkpt>
      <trkpt lat="45.21072" lon="5.73128">
        <ele>640.40002441406</ele>
        <time>2021-10-17T05:47:27.000Z</time>
      </trkpt>
      <trkpt lat="45.21071" lon="5.7313">
        <ele>640</ele>
        <time>2021-10-17T05:47:28.000Z</time>
      </trkpt>
      <trkpt lat="45.21068" lon="5.73131">
        <ele>639.40002441406</ele>
        <time>2021-10-17T05:47:30.000Z</time>
      </trkpt>
      <trkpt lat="45.21063" lon="5.73133">
        <ele>638.20001220703</ele>
        <time>2021-10-17T05:47:33.000Z</time>
      </trkpt>
      <trkpt lat="45.21056" lon="5.73133">
        <ele>637</ele>
        <time>2021-10-17T05:47:36.000Z</time>
      </trkpt>
      <trkpt lat="45.21049" lon="5.73131">
        <ele>636</ele>
        <time>2021-10-17T05:47:40.000Z</time>
      </trkpt>
      <trkpt lat="45.21045" lon="5.7313">
        <ele>635.20001220703</ele>
        <time>2021-10-17T05:47:42.000Z</time>
      </trkpt>
      <trkpt lat="45.21044" lon="5.73128">
        <ele>634.79998779297</ele>
        <time>2021-10-17T05:47:43.000Z</time>
      </trkpt>
      <trkpt lat="45.21038" lon="5.73123">
        <ele>633.79998779297</ele>
        <time>2021-10-17T05:47:46.000Z</time>
      </trkpt>
      <trkpt lat="45.21031" lon="5.7312">
        <ele>632.59997558594</ele>
        <time>2021-10-17T05:47:50.000Z</time>
      </trkpt>
      <trkpt lat="45.21027" lon="5.73116">
        <ele>632</ele>
        <time>2021-10-17T05:47:53.000Z</time>
      </trkpt>
      <trkpt lat="45.21021" lon="5.73113">
        <ele>631.59997558594</ele>
        <time>2021-10-17T05:47:57.000Z</time>
      </trkpt>
      <trkpt lat="45.2102" lon="5.73114">
        <ele>631.59997558594</ele>
        <time>2021-10-17T05:47:58.000Z</time>
      </trkpt>
      <trkpt lat="45.21019" lon="5.73116">
        <ele>631</ele>
        <time>2021-10-17T05:47:59.000Z</time>
      </trkpt>
      <trkpt lat="45.21017" lon="5.73119">
        <ele>630.59997558594</ele>
        <time>2021-10-17T05:48:01.000Z</time>
      </trkpt>
      <trkpt lat="45.21015" lon="5.7312">
        <ele>630.40002441406</ele>
        <time>2021-10-17T05:48:02.000Z</time>
      </trkpt>
      <trkpt lat="45.21011" lon="5.73122">
        <ele>629.59997558594</ele>
        <time>2021-10-17T05:48:04.000Z</time>
      </trkpt>
      <trkpt lat="45.2101" lon="5.73124">
        <ele>629.20001220703</ele>
        <time>2021-10-17T05:48:05.000Z</time>
      </trkpt>
      <trkpt lat="45.2101" lon="5.73124">
        <ele>629</ele>
        <time>2021-10-17T05:48:06.000Z</time>
      </trkpt>
      <trkpt lat="45.21008" lon="5.73129">
        <ele>628.40002441406</ele>
        <time>2021-10-17T05:48:09.000Z</time>
      </trkpt>
      <trkpt lat="45.21007" lon="5.73129">
        <ele>628</ele>
        <time>2021-10-17T05:48:10.000Z</time>
      </trkpt>
      <trkpt lat="45.21001" lon="5.7313">
        <ele>626.79998779297</ele>
        <time>2021-10-17T05:48:13.000Z</time>
      </trkpt>
      <trkpt lat="45.21" lon="5.73131">
        <ele>626.40002441406</ele>
        <time>2021-10-17T05:48:14.000Z</time>
      </trkpt>
      <trkpt lat="45.20999" lon="5.73132">
        <ele>626.20001220703</ele>
        <time>2021-10-17T05:48:15.000Z</time>
      </trkpt>
      <trkpt lat="45.20998" lon="5.73136">
        <ele>625.79998779297</ele>
        <time>2021-10-17T05:48:16.000Z</time>
      </trkpt>
      <trkpt lat="45.20995" lon="5.7314">
        <ele>625.20001220703</ele>
        <time>2021-10-17T05:48:18.000Z</time>
      </trkpt>
      <trkpt lat="45.20992" lon="5.73143">
        <ele>624.40002441406</ele>
        <time>2021-10-17T05:48:20.000Z</time>
      </trkpt>
      <trkpt lat="45.2099" lon="5.73144">
        <ele>623.79998779297</ele>
        <time>2021-10-17T05:48:22.000Z</time>
      </trkpt>
      <trkpt lat="45.2099" lon="5.73144">
        <ele>623.79998779297</ele>
        <time>2021-10-17T05:48:23.000Z</time>
      </trkpt>
      <trkpt lat="45.20991" lon="5.73144">
        <ele>623.20001220703</ele>
        <time>2021-10-17T05:48:24.000Z</time>
      </trkpt>
      <trkpt lat="45.20993" lon="5.73141">
        <ele>622.59997558594</ele>
        <time>2021-10-17T05:48:27.000Z</time>
      </trkpt>
      <trkpt lat="45.20994" lon="5.7314">
        <ele>622.20001220703</ele>
        <time>2021-10-17T05:48:28.000Z</time>
      </trkpt>
      <trkpt lat="45.20998" lon="5.73137">
        <ele>621</ele>
        <time>2021-10-17T05:48:31.000Z</time>
      </trkpt>
      <trkpt lat="45.21003" lon="5.73134">
        <ele>620</ele>
        <time>2021-10-17T05:48:34.000Z</time>
      </trkpt>
      <trkpt lat="45.21005" lon="5.73133">
        <ele>619.20001220703</ele>
        <time>2021-10-17T05:48:36.000Z</time>
      </trkpt>
      <trkpt lat="45.21006" lon="5.73133">
        <ele>618.79998779297</ele>
        <time>2021-10-17T05:48:37.000Z</time>
      </trkpt>
      <trkpt lat="45.21009" lon="5.73131">
        <ele>618</ele>
        <time>2021-10-17T05:48:39.000Z</time>
      </trkpt>
      <trkpt lat="45.21011" lon="5.73128">
        <ele>617.79998779297</ele>
        <time>2021-10-17T05:48:41.000Z</time>
      </trkpt>
      <trkpt lat="45.21013" lon="5.73127">
        <ele>617.59997558594</ele>
        <time>2021-10-17T05:48:43.000Z</time>
      </trkpt>
      <trkpt lat="45.21015" lon="5.73127">
        <ele>617</ele>
        <time>2021-10-17T05:48:45.000Z</time>
      </trkpt>
      <trkpt lat="45.21017" lon="5.73125">
        <ele>616.79998779297</ele>
        <time>2021-10-17T05:48:47.000Z</time>
      </trkpt>
      <trkpt lat="45.21021" lon="5.73126">
        <ele>616.59997558594</ele>
        <time>2021-10-17T05:48:50.000Z</time>
      </trkpt>
      <trkpt lat="45.21021" lon="5.73127">
        <ele>616.59997558594</ele>
        <time>2021-10-17T05:48:51.000Z</time>
      </trkpt>
      <trkpt lat="45.21022" lon="5.73129">
        <ele>616.40002441406</ele>
        <time>2021-10-17T05:48:52.000Z</time>
      </trkpt>
      <trkpt lat="45.21023" lon="5.73136">
        <ele>615.40002441406</ele>
        <time>2021-10-17T05:48:55.000Z</time>
      </trkpt>
      <trkpt lat="45.21024" lon="5.73138">
        <ele>615</ele>
        <time>2021-10-17T05:48:56.000Z</time>
      </trkpt>
      <trkpt lat="45.21025" lon="5.7314">
        <ele>614.59997558594</ele>
        <time>2021-10-17T05:48:57.000Z</time>
      </trkpt>
      <trkpt lat="45.21026" lon="5.73142">
        <ele>614</ele>
        <time>2021-10-17T05:48:58.000Z</time>
      </trkpt>
      <trkpt lat="45.21027" lon="5.73145">
        <ele>613.59997558594</ele>
        <time>2021-10-17T05:48:59.000Z</time>
      </trkpt>
      <trkpt lat="45.21029" lon="5.73147">
        <ele>613.40002441406</ele>
        <time>2021-10-17T05:49:00.000Z</time>
      </trkpt>
      <trkpt lat="45.21029" lon="5.73148">
        <ele>613.20001220703</ele>
        <time>2021-10-17T05:49:01.000Z</time>
      </trkpt>
      <trkpt lat="45.21031" lon="5.7315">
        <ele>612.79998779297</ele>
        <time>2021-10-17T05:49:02.000Z</time>
      </trkpt>
      <trkpt lat="45.21033" lon="5.73152">
        <ele>611.79998779297</ele>
        <time>2021-10-17T05:49:04.000Z</time>
      </trkpt>
      <trkpt lat="45.21038" lon="5.73156">
        <ele>610.79998779297</ele>
        <time>2021-10-17T05:49:07.000Z</time>
      </trkpt>
      <trkpt lat="45.2104" lon="5.73158">
        <ele>610.40002441406</ele>
        <time>2021-10-17T05:49:08.000Z</time>
      </trkpt>
      <trkpt lat="45.21044" lon="5.7316">
        <ele>609.79998779297</ele>
        <time>2021-10-17T05:49:10.000Z</time>
      </trkpt>
      <trkpt lat="45.21047" lon="5.73161">
        <ele>609.20001220703</ele>
        <time>2021-10-17T05:49:11.000Z</time>
      </trkpt>
      <trkpt lat="45.21048" lon="5.73161">
        <ele>609</ele>
        <time>2021-10-17T05:49:12.000Z</time>
      </trkpt>
      <trkpt lat="45.21053" lon="5.73161">
        <ele>608.20001220703</ele>
        <time>2021-10-17T05:49:15.000Z</time>
      </trkpt>
      <trkpt lat="45.21056" lon="5.73162">
        <ele>607.79998779297</ele>
        <time>2021-10-17T05:49:17.000Z</time>
      </trkpt>
      <trkpt lat="45.21058" lon="5.73164">
        <ele>607.40002441406</ele>
        <time>2021-10-17T05:49:19.000Z</time>
      </trkpt>
      <trkpt lat="45.21058" lon="5.73167">
        <ele>607.20001220703</ele>
        <time>2021-10-17T05:49:20.000Z</time>
      </trkpt>
      <trkpt lat="45.21058" lon="5.73168">
        <ele>607</ele>
        <time>2021-10-17T05:49:21.000Z</time>
      </trkpt>
      <trkpt lat="45.21057" lon="5.7317">
        <ele>605.79998779297</ele>
        <time>2021-10-17T05:49:23.000Z</time>
      </trkpt>
      <trkpt lat="45.21059" lon="5.73172">
        <ele>605.20001220703</ele>
        <time>2021-10-17T05:49:25.000Z</time>
      </trkpt>
      <trkpt lat="45.21062" lon="5.73176">
        <ele>604.79998779297</ele>
        <time>2021-10-17T05:49:27.000Z</time>
      </trkpt>
      <trkpt lat="45.21068" lon="5.73186">
        <ele>603.40002441406</ele>
        <time>2021-10-17T05:49:31.000Z</time>
      </trkpt>
      <trkpt lat="45.21072" lon="5.73191">
        <ele>602.79998779297</ele>
        <time>2021-10-17T05:49:33.000Z</time>
      </trkpt>
      <trkpt lat="45.21074" lon="5.73196">
        <ele>602.20001220703</ele>
        <time>2021-10-17T05:49:35.000Z</time>
      </trkpt>
      <trkpt lat="45.21077" lon="5.73202">
        <ele>601.40002441406</ele>
        <time>2021-10-17T05:49:38.000Z</time>
      </trkpt>
      <trkpt lat="45.21078" lon="5.73203">
        <ele>601.20001220703</ele>
        <time>2021-10-17T05:49:39.000Z</time>
      </trkpt>
      <trkpt lat="45.21078" lon="5.73205">
        <ele>600.79998779297</ele>
        <time>2021-10-17T05:49:40.000Z</time>
      </trkpt>
      <trkpt lat="45.21079" lon="5.73206">
        <ele>600</ele>
        <time>2021-10-17T05:49:42.000Z</time>
      </trkpt>
      <trkpt lat="45.2108" lon="5.73207">
        <ele>599.59997558594</ele>
        <time>2021-10-17T05:49:43.000Z</time>
      </trkpt>
      <trkpt lat="45.21079" lon="5.7321">
        <ele>598.79998779297</ele>
        <time>2021-10-17T05:49:46.000Z</time>
      </trkpt>
      <trkpt lat="45.21078" lon="5.73209">
        <ele>598.40002441406</ele>
        <time>2021-10-17T05:49:47.000Z</time>
      </trkpt>
      <trkpt lat="45.21074" lon="5.73206">
        <ele>597.59997558594</ele>
        <time>2021-10-17T05:49:50.000Z</time>
      </trkpt>
      <trkpt lat="45.21071" lon="5.73205">
        <ele>596.79998779297</ele>
        <time>2021-10-17T05:49:53.000Z</time>
      </trkpt>
      <trkpt lat="45.21069" lon="5.73204">
        <ele>596.59997558594</ele>
        <time>2021-10-17T05:49:54.000Z</time>
      </trkpt>
      <trkpt lat="45.21067" lon="5.73203">
        <ele>596.20001220703</ele>
        <time>2021-10-17T05:49:55.000Z</time>
      </trkpt>
      <trkpt lat="45.21066" lon="5.73203">
        <ele>596</ele>
        <time>2021-10-17T05:49:56.000Z</time>
      </trkpt>
      <trkpt lat="45.21063" lon="5.73201">
        <ele>595.20001220703</ele>
        <time>2021-10-17T05:49:58.000Z</time>
      </trkpt>
      <trkpt lat="45.2106" lon="5.73196">
        <ele>594.59997558594</ele>
        <time>2021-10-17T05:50:01.000Z</time>
      </trkpt>
      <trkpt lat="45.21059" lon="5.73194">
        <ele>594.40002441406</ele>
        <time>2021-10-17T05:50:02.000Z</time>
      </trkpt>
      <trkpt lat="45.21057" lon="5.73193">
        <ele>594.20001220703</ele>
        <time>2021-10-17T05:50:03.000Z</time>
      </trkpt>
      <trkpt lat="45.21055" lon="5.73192">
        <ele>593.40002441406</ele>
        <time>2021-10-17T05:50:05.000Z</time>
      </trkpt>
      <trkpt lat="45.21054" lon="5.73192">
        <ele>593</ele>
        <time>2021-10-17T05:50:06.000Z</time>
      </trkpt>
      <trkpt lat="45.2105" lon="5.73194">
        <ele>592.59997558594</ele>
        <time>2021-10-17T05:50:08.000Z</time>
      </trkpt>
      <trkpt lat="45.21048" lon="5.73196">
        <ele>592</ele>
        <time>2021-10-17T05:50:10.000Z</time>
      </trkpt>
      <trkpt lat="45.21046" lon="5.73197">
        <ele>591.79998779297</ele>
        <time>2021-10-17T05:50:11.000Z</time>
      </trkpt>
      <trkpt lat="45.21042" lon="5.73196">
        <ele>591.20001220703</ele>
        <time>2021-10-17T05:50:13.000Z</time>
      </trkpt>
      <trkpt lat="45.2104" lon="5.73195">
        <ele>590.79998779297</ele>
        <time>2021-10-17T05:50:14.000Z</time>
      </trkpt>
      <trkpt lat="45.21038" lon="5.73195">
        <ele>590.59997558594</ele>
        <time>2021-10-17T05:50:15.000Z</time>
      </trkpt>
      <trkpt lat="45.21037" lon="5.73195">
        <ele>590.20001220703</ele>
        <time>2021-10-17T05:50:16.000Z</time>
      </trkpt>
      <trkpt lat="45.21036" lon="5.73193">
        <ele>589.40002441406</ele>
        <time>2021-10-17T05:50:18.000Z</time>
      </trkpt>
      <trkpt lat="45.21035" lon="5.7319">
        <ele>588.59997558594</ele>
        <time>2021-10-17T05:50:20.000Z</time>
      </trkpt>
      <trkpt lat="45.21033" lon="5.73188">
        <ele>588.40002441406</ele>
        <time>2021-10-17T05:50:21.000Z</time>
      </trkpt>
      <trkpt lat="45.21028" lon="5.7318">
        <ele>587.20001220703</ele>
        <time>2021-10-17T05:50:25.000Z</time>
      </trkpt>
      <trkpt lat="45.21026" lon="5.73179">
        <ele>587.20001220703</ele>
        <time>2021-10-17T05:50:26.000Z</time>
      </trkpt>
      <trkpt lat="45.21021" lon="5.73179">
        <ele>586.79998779297</ele>
        <time>2021-10-17T05:50:29.000Z</time>
      </trkpt>
      <trkpt lat="45.21017" lon="5.7318">
        <ele>586</ele>
        <time>2021-10-17T05:50:31.000Z</time>
      </trkpt>
      <trkpt lat="45.21014" lon="5.73181">
        <ele>585.59997558594</ele>
        <time>2021-10-17T05:50:33.000Z</time>
      </trkpt>
      <trkpt lat="45.21013" lon="5.73182">
        <ele>585.59997558594</ele>
        <time>2021-10-17T05:50:34.000Z</time>
      </trkpt>
      <trkpt lat="45.2101" lon="5.73186">
        <ele>585</ele>
        <time>2021-10-17T05:50:36.000Z</time>
      </trkpt>
      <trkpt lat="45.21006" lon="5.73191">
        <ele>583.79998779297</ele>
        <time>2021-10-17T05:50:39.000Z</time>
      </trkpt>
      <trkpt lat="45.21004" lon="5.73193">
        <ele>583.59997558594</ele>
        <time>2021-10-17T05:50:40.000Z</time>
      </trkpt>
      <trkpt lat="45.20996" lon="5.732">
        <ele>582.40002441406</ele>
        <time>2021-10-17T05:50:44.000Z</time>
      </trkpt>
      <trkpt lat="45.20994" lon="5.73202">
        <ele>582</ele>
        <time>2021-10-17T05:50:45.000Z</time>
      </trkpt>
      <trkpt lat="45.20991" lon="5.73207">
        <ele>581.20001220703</ele>
        <time>2021-10-17T05:50:47.000Z</time>
      </trkpt>
      <trkpt lat="45.20986" lon="5.73211">
        <ele>580.20001220703</ele>
        <time>2021-10-17T05:50:50.000Z</time>
      </trkpt>
      <trkpt lat="45.20979" lon="5.73215">
        <ele>579</ele>
        <time>2021-10-17T05:50:55.000Z</time>
      </trkpt>
      <trkpt lat="45.20978" lon="5.73212">
        <ele>578.79998779297</ele>
        <time>2021-10-17T05:50:58.000Z</time>
      </trkpt>
      <trkpt lat="45.20979" lon="5.73209">
        <ele>578.79998779297</ele>
        <time>2021-10-17T05:51:00.000Z</time>
      </trkpt>
      <trkpt lat="45.20982" lon="5.73206">
        <ele>579</ele>
        <time>2021-10-17T05:51:03.000Z</time>
      </trkpt>
      <trkpt lat="45.20983" lon="5.73206">
        <ele>579.20001220703</ele>
        <time>2021-10-17T05:51:06.000Z</time>
      </trkpt>
      <trkpt lat="45.20983" lon="5.73206">
        <ele>579.20001220703</ele>
        <time>2021-10-17T05:51:08.000Z</time>
      </trkpt>
      <trkpt lat="45.20983" lon="5.73205">
        <ele>579.40002441406</ele>
        <time>2021-10-17T05:51:13.000Z</time>
      </trkpt>
      <trkpt lat="45.20983" lon="5.73205">
        <ele>579.40002441406</ele>
        <time>2021-10-17T05:51:23.000Z</time>
      </trkpt>
      <trkpt lat="45.20983" lon="5.73205">
        <ele>579.40002441406</ele>
        <time>2021-10-17T05:51:25.000Z</time>
      </trkpt>
      <trkpt lat="45.20983" lon="5.73204">
        <ele>579.79998779297</ele>
        <time>2021-10-17T05:51:35.000Z</time>
      </trkpt>
      <trkpt lat="45.20983" lon="5.73204">
        <ele>579.79998779297</ele>
        <time>2021-10-17T05:51:46.000Z</time>
      </trkpt>
      <trkpt lat="45.20983" lon="5.73204">
        <ele>579.79998779297</ele>
        <time>2021-10-17T05:51:50.000Z</time>
      </trkpt>
      <trkpt lat="45.20983" lon="5.73204">
        <ele>579.79998779297</ele>
        <time>2021-10-17T05:51:52.000Z</time>
      </trkpt>
      <trkpt lat="45.20983" lon="5.73204">
        <ele>579.79998779297</ele>
        <time>2021-10-17T05:51:53.000Z</time>
      </trkpt>
      <trkpt lat="45.20983" lon="5.73204">
        <ele>580</ele>
        <time>2021-10-17T05:51:54.000Z</time>
      </trkpt>
      <trkpt lat="45.20983" lon="5.73204">
        <ele>580</ele>
        <time>2021-10-17T05:51:55.000Z</time>
      </trkpt>
      <trkpt lat="45.20983" lon="5.73204">
        <ele>580</ele>
        <time>2021-10-17T05:51:57.000Z</time>
      </trkpt>
      <trkpt lat="45.20983" lon="5.73204">
        <ele>580</ele>
        <time>2021-10-17T05:52:00.000Z</time>
      </trkpt>
      <trkpt lat="45.20983" lon="5.73204">
        <ele>580</ele>
        <time>2021-10-17T05:52:02.000Z</time>
      </trkpt>
      <trkpt lat="45.20983" lon="5.73204">
        <ele>580</ele>
        <time>2021-10-17T05:52:06.000Z</time>
      </trkpt>
      <trkpt lat="45.20983" lon="5.73204">
        <ele>580</ele>
        <time>2021-10-17T05:52:09.000Z</time>
      </trkpt>
      <trkpt lat="45.20983" lon="5.73204">
        <ele>580</ele>
        <time>2021-10-17T05:52:12.000Z</time>
      </trkpt>
      <trkpt lat="45.20983" lon="5.73204">
        <ele>580</ele>
        <time>2021-10-17T05:52:15.000Z</time>
      </trkpt>
      <trkpt lat="45.20982" lon="5.73204">
        <ele>580</ele>
        <time>2021-10-17T05:52:25.000Z</time>
      </trkpt>
      <trkpt lat="45.20982" lon="5.73204">
        <ele>580</ele>
        <time>2021-10-17T05:52:36.000Z</time>
      </trkpt>
      <trkpt lat="45.20981" lon="5.73206">
        <ele>580</ele>
        <time>2021-10-17T05:52:42.000Z</time>
      </trkpt>
      <trkpt lat="45.20976" lon="5.7321">
        <ele>580</ele>
        <time>2021-10-17T05:52:46.000Z</time>
      </trkpt>
      <trkpt lat="45.20974" lon="5.73213">
        <ele>580</ele>
        <time>2021-10-17T05:52:50.000Z</time>
      </trkpt>
      <trkpt lat="45.20981" lon="5.73212">
        <ele>580</ele>
        <time>2021-10-17T05:52:56.000Z</time>
      </trkpt>
      <trkpt lat="45.20986" lon="5.73212">
        <ele>580</ele>
        <time>2021-10-17T05:53:00.000Z</time>
      </trkpt>
      <trkpt lat="45.20985" lon="5.73215">
        <ele>580</ele>
        <time>2021-10-17T05:53:02.000Z</time>
      </trkpt>
      <trkpt lat="45.2098" lon="5.73216">
        <ele>578.79998779297</ele>
        <time>2021-10-17T05:53:07.000Z</time>
      </trkpt>
      <trkpt lat="45.20978" lon="5.73218">
        <ele>578.20001220703</ele>
        <time>2021-10-17T05:53:10.000Z</time>
      </trkpt>
      <trkpt lat="45.20975" lon="5.73219">
        <ele>577.79998779297</ele>
        <time>2021-10-17T05:53:12.000Z</time>
      </trkpt>
      <trkpt lat="45.20974" lon="5.73219">
        <ele>577.59997558594</ele>
        <time>2021-10-17T05:53:13.000Z</time>
      </trkpt>
      <trkpt lat="45.20969" lon="5.73218">
        <ele>577</ele>
        <time>2021-10-17T05:53:16.000Z</time>
      </trkpt>
      <trkpt lat="45.20968" lon="5.73218">
        <ele>576.59997558594</ele>
        <time>2021-10-17T05:53:17.000Z</time>
      </trkpt>
      <trkpt lat="45.20961" lon="5.73218">
        <ele>575.59997558594</ele>
        <time>2021-10-17T05:53:21.000Z</time>
      </trkpt>
      <trkpt lat="45.20955" lon="5.7322">
        <ele>574.79998779297</ele>
        <time>2021-10-17T05:53:24.000Z</time>
      </trkpt>
      <trkpt lat="45.20954" lon="5.73221">
        <ele>574.40002441406</ele>
        <time>2021-10-17T05:53:25.000Z</time>
      </trkpt>
      <trkpt lat="45.2095" lon="5.73223">
        <ele>574</ele>
        <time>2021-10-17T05:53:27.000Z</time>
      </trkpt>
      <trkpt lat="45.20948" lon="5.73224">
        <ele>573.40002441406</ele>
        <time>2021-10-17T05:53:28.000Z</time>
      </trkpt>
      <trkpt lat="45.20946" lon="5.73225">
        <ele>573</ele>
        <time>2021-10-17T05:53:29.000Z</time>
      </trkpt>
      <trkpt lat="45.20944" lon="5.73226">
        <ele>572.79998779297</ele>
        <time>2021-10-17T05:53:30.000Z</time>
      </trkpt>
      <trkpt lat="45.20941" lon="5.73227">
        <ele>572</ele>
        <time>2021-10-17T05:53:32.000Z</time>
      </trkpt>
      <trkpt lat="45.20936" lon="5.73227">
        <ele>571.20001220703</ele>
        <time>2021-10-17T05:53:35.000Z</time>
      </trkpt>
      <trkpt lat="45.20935" lon="5.73226">
        <ele>570.79998779297</ele>
        <time>2021-10-17T05:53:36.000Z</time>
      </trkpt>
      <trkpt lat="45.20934" lon="5.73226">
        <ele>570.59997558594</ele>
        <time>2021-10-17T05:53:37.000Z</time>
      </trkpt>
      <trkpt lat="45.20932" lon="5.73227">
        <ele>570.20001220703</ele>
        <time>2021-10-17T05:53:39.000Z</time>
      </trkpt>
      <trkpt lat="45.20933" lon="5.73229">
        <ele>569.40002441406</ele>
        <time>2021-10-17T05:53:41.000Z</time>
      </trkpt>
      <trkpt lat="45.20936" lon="5.73232">
        <ele>568.20001220703</ele>
        <time>2021-10-17T05:53:44.000Z</time>
      </trkpt>
      <trkpt lat="45.2094" lon="5.73235">
        <ele>567.20001220703</ele>
        <time>2021-10-17T05:53:47.000Z</time>
      </trkpt>
      <trkpt lat="45.20942" lon="5.73236">
        <ele>567</ele>
        <time>2021-10-17T05:53:48.000Z</time>
      </trkpt>
      <trkpt lat="45.20947" lon="5.73238">
        <ele>565.59997558594</ele>
        <time>2021-10-17T05:53:51.000Z</time>
      </trkpt>
      <trkpt lat="45.2095" lon="5.73239">
        <ele>565</ele>
        <time>2021-10-17T05:53:53.000Z</time>
      </trkpt>
      <trkpt lat="45.20953" lon="5.73237">
        <ele>564.20001220703</ele>
        <time>2021-10-17T05:53:55.000Z</time>
      </trkpt>
      <trkpt lat="45.2096" lon="5.73239">
        <ele>563</ele>
        <time>2021-10-17T05:53:59.000Z</time>
      </trkpt>
      <trkpt lat="45.20962" lon="5.73241">
        <ele>562.79998779297</ele>
        <time>2021-10-17T05:54:00.000Z</time>
      </trkpt>
      <trkpt lat="45.20969" lon="5.73243">
        <ele>561.59997558594</ele>
        <time>2021-10-17T05:54:03.000Z</time>
      </trkpt>
      <trkpt lat="45.20975" lon="5.73246">
        <ele>560.59997558594</ele>
        <time>2021-10-17T05:54:07.000Z</time>
      </trkpt>
      <trkpt lat="45.20976" lon="5.73247">
        <ele>560.40002441406</ele>
        <time>2021-10-17T05:54:08.000Z</time>
      </trkpt>
      <trkpt lat="45.20982" lon="5.73249">
        <ele>559.40002441406</ele>
        <time>2021-10-17T05:54:11.000Z</time>
      </trkpt>
      <trkpt lat="45.20983" lon="5.73251">
        <ele>559</ele>
        <time>2021-10-17T05:54:12.000Z</time>
      </trkpt>
      <trkpt lat="45.20982" lon="5.73253">
        <ele>558.59997558594</ele>
        <time>2021-10-17T05:54:13.000Z</time>
      </trkpt>
      <trkpt lat="45.2098" lon="5.73255">
        <ele>558.20001220703</ele>
        <time>2021-10-17T05:54:14.000Z</time>
      </trkpt>
      <trkpt lat="45.20976" lon="5.73257">
        <ele>557</ele>
        <time>2021-10-17T05:54:18.000Z</time>
      </trkpt>
      <trkpt lat="45.20974" lon="5.73257">
        <ele>556.59997558594</ele>
        <time>2021-10-17T05:54:19.000Z</time>
      </trkpt>
      <trkpt lat="45.20972" lon="5.73257">
        <ele>556.20001220703</ele>
        <time>2021-10-17T05:54:20.000Z</time>
      </trkpt>
      <trkpt lat="45.20971" lon="5.73257">
        <ele>556</ele>
        <time>2021-10-17T05:54:21.000Z</time>
      </trkpt>
      <trkpt lat="45.20966" lon="5.73259">
        <ele>555</ele>
        <time>2021-10-17T05:54:24.000Z</time>
      </trkpt>
      <trkpt lat="45.20965" lon="5.73259">
        <ele>554.40002441406</ele>
        <time>2021-10-17T05:54:25.000Z</time>
      </trkpt>
      <trkpt lat="45.20958" lon="5.73258">
        <ele>553.20001220703</ele>
        <time>2021-10-17T05:54:29.000Z</time>
      </trkpt>
      <trkpt lat="45.20955" lon="5.73259">
        <ele>552.40002441406</ele>
        <time>2021-10-17T05:54:31.000Z</time>
      </trkpt>
      <trkpt lat="45.20953" lon="5.7326">
        <ele>552</ele>
        <time>2021-10-17T05:54:32.000Z</time>
      </trkpt>
      <trkpt lat="45.20949" lon="5.73263">
        <ele>551.20001220703</ele>
        <time>2021-10-17T05:54:35.000Z</time>
      </trkpt>
      <trkpt lat="45.20947" lon="5.73264">
        <ele>550.79998779297</ele>
        <time>2021-10-17T05:54:36.000Z</time>
      </trkpt>
      <trkpt lat="45.20942" lon="5.73264">
        <ele>549.59997558594</ele>
        <time>2021-10-17T05:54:39.000Z</time>
      </trkpt>
      <trkpt lat="45.20937" lon="5.73263">
        <ele>548.59997558594</ele>
        <time>2021-10-17T05:54:42.000Z</time>
      </trkpt>
      <trkpt lat="45.20935" lon="5.73261">
        <ele>547.79998779297</ele>
        <time>2021-10-17T05:54:44.000Z</time>
      </trkpt>
      <trkpt lat="45.20932" lon="5.73262">
        <ele>547.40002441406</ele>
        <time>2021-10-17T05:54:46.000Z</time>
      </trkpt>
      <trkpt lat="45.20929" lon="5.73263">
        <ele>546.79998779297</ele>
        <time>2021-10-17T05:54:48.000Z</time>
      </trkpt>
      <trkpt lat="45.20924" lon="5.73263">
        <ele>546</ele>
        <time>2021-10-17T05:54:51.000Z</time>
      </trkpt>
      <trkpt lat="45.20917" lon="5.73262">
        <ele>545</ele>
        <time>2021-10-17T05:54:55.000Z</time>
      </trkpt>
      <trkpt lat="45.20916" lon="5.73262">
        <ele>544.59997558594</ele>
        <time>2021-10-17T05:54:56.000Z</time>
      </trkpt>
      <trkpt lat="45.20914" lon="5.73261">
        <ele>544.40002441406</ele>
        <time>2021-10-17T05:54:57.000Z</time>
      </trkpt>
      <trkpt lat="45.20913" lon="5.73261">
        <ele>543.79998779297</ele>
        <time>2021-10-17T05:54:59.000Z</time>
      </trkpt>
      <trkpt lat="45.20913" lon="5.73262">
        <ele>543.40002441406</ele>
        <time>2021-10-17T05:55:00.000Z</time>
      </trkpt>
      <trkpt lat="45.20914" lon="5.73262">
        <ele>543</ele>
        <time>2021-10-17T05:55:01.000Z</time>
      </trkpt>
      <trkpt lat="45.20916" lon="5.73263">
        <ele>542.59997558594</ele>
        <time>2021-10-17T05:55:02.000Z</time>
      </trkpt>
      <trkpt lat="45.2092" lon="5.73266">
        <ele>541.40002441406</ele>
        <time>2021-10-17T05:55:05.000Z</time>
      </trkpt>
      <trkpt lat="45.20925" lon="5.73269">
        <ele>540.40002441406</ele>
        <time>2021-10-17T05:55:08.000Z</time>
      </trkpt>
      <trkpt lat="45.20931" lon="5.73274">
        <ele>539</ele>
        <time>2021-10-17T05:55:12.000Z</time>
      </trkpt>
      <trkpt lat="45.20934" lon="5.73277">
        <ele>538</ele>
        <time>2021-10-17T05:55:15.000Z</time>
      </trkpt>
      <trkpt lat="45.20936" lon="5.73279">
        <ele>537.20001220703</ele>
        <time>2021-10-17T05:55:17.000Z</time>
      </trkpt>
      <trkpt lat="45.20937" lon="5.7328">
        <ele>536.79998779297</ele>
        <time>2021-10-17T05:55:18.000Z</time>
      </trkpt>
      <trkpt lat="45.20941" lon="5.73285">
        <ele>535.79998779297</ele>
        <time>2021-10-17T05:55:21.000Z</time>
      </trkpt>
      <trkpt lat="45.20942" lon="5.73286">
        <ele>535.59997558594</ele>
        <time>2021-10-17T05:55:22.000Z</time>
      </trkpt>
      <trkpt lat="45.20946" lon="5.73286">
        <ele>534.79998779297</ele>
        <time>2021-10-17T05:55:25.000Z</time>
      </trkpt>
      <trkpt lat="45.20951" lon="5.73285">
        <ele>533.79998779297</ele>
        <time>2021-10-17T05:55:28.000Z</time>
      </trkpt>
      <trkpt lat="45.20956" lon="5.73285">
        <ele>532.59997558594</ele>
        <time>2021-10-17T05:55:31.000Z</time>
      </trkpt>
      <trkpt lat="45.20958" lon="5.73286">
        <ele>532.40002441406</ele>
        <time>2021-10-17T05:55:32.000Z</time>
      </trkpt>
      <trkpt lat="45.20961" lon="5.73286">
        <ele>531.59997558594</ele>
        <time>2021-10-17T05:55:34.000Z</time>
      </trkpt>
      <trkpt lat="45.20966" lon="5.73288">
        <ele>530.40002441406</ele>
        <time>2021-10-17T05:55:37.000Z</time>
      </trkpt>
      <trkpt lat="45.20971" lon="5.73291">
        <ele>530.20001220703</ele>
        <time>2021-10-17T05:55:39.000Z</time>
      </trkpt>
      <trkpt lat="45.20976" lon="5.73294">
        <ele>529.40002441406</ele>
        <time>2021-10-17T05:55:42.000Z</time>
      </trkpt>
      <trkpt lat="45.20977" lon="5.73296">
        <ele>529</ele>
        <time>2021-10-17T05:55:43.000Z</time>
      </trkpt>
      <trkpt lat="45.20981" lon="5.73298">
        <ele>528.40002441406</ele>
        <time>2021-10-17T05:55:45.000Z</time>
      </trkpt>
      <trkpt lat="45.20982" lon="5.73299">
        <ele>528.20001220703</ele>
        <time>2021-10-17T05:55:46.000Z</time>
      </trkpt>
      <trkpt lat="45.20985" lon="5.73299">
        <ele>527.59997558594</ele>
        <time>2021-10-17T05:55:48.000Z</time>
      </trkpt>
      <trkpt lat="45.20985" lon="5.733">
        <ele>527.59997558594</ele>
        <time>2021-10-17T05:55:49.000Z</time>
      </trkpt>
      <trkpt lat="45.20983" lon="5.73302">
        <ele>527</ele>
        <time>2021-10-17T05:55:51.000Z</time>
      </trkpt>
      <trkpt lat="45.20982" lon="5.73303">
        <ele>526.59997558594</ele>
        <time>2021-10-17T05:55:52.000Z</time>
      </trkpt>
      <trkpt lat="45.20979" lon="5.73306">
        <ele>526</ele>
        <time>2021-10-17T05:55:54.000Z</time>
      </trkpt>
      <trkpt lat="45.20976" lon="5.73306">
        <ele>525.20001220703</ele>
        <time>2021-10-17T05:55:56.000Z</time>
      </trkpt>
      <trkpt lat="45.20975" lon="5.73306">
        <ele>525</ele>
        <time>2021-10-17T05:55:57.000Z</time>
      </trkpt>
      <trkpt lat="45.20973" lon="5.73305">
        <ele>524.59997558594</ele>
        <time>2021-10-17T05:55:58.000Z</time>
      </trkpt>
      <trkpt lat="45.20971" lon="5.73304">
        <ele>524</ele>
        <time>2021-10-17T05:56:00.000Z</time>
      </trkpt>
      <trkpt lat="45.2097" lon="5.73304">
        <ele>523.59997558594</ele>
        <time>2021-10-17T05:56:01.000Z</time>
      </trkpt>
      <trkpt lat="45.20968" lon="5.73305">
        <ele>523.40002441406</ele>
        <time>2021-10-17T05:56:02.000Z</time>
      </trkpt>
      <trkpt lat="45.20965" lon="5.73307">
        <ele>522.59997558594</ele>
        <time>2021-10-17T05:56:04.000Z</time>
      </trkpt>
      <trkpt lat="45.20963" lon="5.73308">
        <ele>522.40002441406</ele>
        <time>2021-10-17T05:56:05.000Z</time>
      </trkpt>
      <trkpt lat="45.20962" lon="5.73309">
        <ele>522</ele>
        <time>2021-10-17T05:56:06.000Z</time>
      </trkpt>
      <trkpt lat="45.20959" lon="5.73312">
        <ele>521.40002441406</ele>
        <time>2021-10-17T05:56:08.000Z</time>
      </trkpt>
      <trkpt lat="45.20957" lon="5.73313">
        <ele>521</ele>
        <time>2021-10-17T05:56:09.000Z</time>
      </trkpt>
      <trkpt lat="45.20956" lon="5.73313">
        <ele>520.79998779297</ele>
        <time>2021-10-17T05:56:10.000Z</time>
      </trkpt>
      <trkpt lat="45.2095" lon="5.73315">
        <ele>520</ele>
        <time>2021-10-17T05:56:13.000Z</time>
      </trkpt>
      <trkpt lat="45.20943" lon="5.73317">
        <ele>518.79998779297</ele>
        <time>2021-10-17T05:56:17.000Z</time>
      </trkpt>
      <trkpt lat="45.20938" lon="5.73318">
        <ele>517.59997558594</ele>
        <time>2021-10-17T05:56:20.000Z</time>
      </trkpt>
      <trkpt lat="45.20936" lon="5.73318">
        <ele>517.20001220703</ele>
        <time>2021-10-17T05:56:21.000Z</time>
      </trkpt>
      <trkpt lat="45.20934" lon="5.73318">
        <ele>516.79998779297</ele>
        <time>2021-10-17T05:56:22.000Z</time>
      </trkpt>
      <trkpt lat="45.20933" lon="5.73317">
        <ele>516.40002441406</ele>
        <time>2021-10-17T05:56:23.000Z</time>
      </trkpt>
      <trkpt lat="45.20925" lon="5.73313">
        <ele>515.20001220703</ele>
        <time>2021-10-17T05:56:27.000Z</time>
      </trkpt>
      <trkpt lat="45.20921" lon="5.73312">
        <ele>514.59997558594</ele>
        <time>2021-10-17T05:56:29.000Z</time>
      </trkpt>
      <trkpt lat="45.20917" lon="5.73311">
        <ele>514.20001220703</ele>
        <time>2021-10-17T05:56:31.000Z</time>
      </trkpt>
      <trkpt lat="45.20912" lon="5.7331">
        <ele>513.40002441406</ele>
        <time>2021-10-17T05:56:34.000Z</time>
      </trkpt>
      <trkpt lat="45.20908" lon="5.73311">
        <ele>512.79998779297</ele>
        <time>2021-10-17T05:56:36.000Z</time>
      </trkpt>
      <trkpt lat="45.20905" lon="5.73312">
        <ele>512.40002441406</ele>
        <time>2021-10-17T05:56:37.000Z</time>
      </trkpt>
      <trkpt lat="45.20901" lon="5.73312">
        <ele>511.60000610352</ele>
        <time>2021-10-17T05:56:39.000Z</time>
      </trkpt>
      <trkpt lat="45.20894" lon="5.73312">
        <ele>510.60000610352</ele>
        <time>2021-10-17T05:56:43.000Z</time>
      </trkpt>
      <trkpt lat="45.20893" lon="5.73312">
        <ele>510.39999389648</ele>
        <time>2021-10-17T05:56:44.000Z</time>
      </trkpt>
      <trkpt lat="45.20891" lon="5.73312">
        <ele>510.20001220703</ele>
        <time>2021-10-17T05:56:45.000Z</time>
      </trkpt>
      <trkpt lat="45.20888" lon="5.73312">
        <ele>509.79998779297</ele>
        <time>2021-10-17T05:56:47.000Z</time>
      </trkpt>
      <trkpt lat="45.20886" lon="5.73312">
        <ele>509.20001220703</ele>
        <time>2021-10-17T05:56:48.000Z</time>
      </trkpt>
      <trkpt lat="45.20882" lon="5.73312">
        <ele>508.39999389648</ele>
        <time>2021-10-17T05:56:50.000Z</time>
      </trkpt>
      <trkpt lat="45.2088" lon="5.73312">
        <ele>508.20001220703</ele>
        <time>2021-10-17T05:56:51.000Z</time>
      </trkpt>
      <trkpt lat="45.20878" lon="5.73313">
        <ele>507.79998779297</ele>
        <time>2021-10-17T05:56:52.000Z</time>
      </trkpt>
      <trkpt lat="45.20875" lon="5.73314">
        <ele>507.20001220703</ele>
        <time>2021-10-17T05:56:54.000Z</time>
      </trkpt>
      <trkpt lat="45.2087" lon="5.73315">
        <ele>506.60000610352</ele>
        <time>2021-10-17T05:56:57.000Z</time>
      </trkpt>
      <trkpt lat="45.20867" lon="5.73313">
        <ele>506.20001220703</ele>
        <time>2021-10-17T05:56:59.000Z</time>
      </trkpt>
      <trkpt lat="45.20865" lon="5.73312">
        <ele>505.79998779297</ele>
        <time>2021-10-17T05:57:00.000Z</time>
      </trkpt>
      <trkpt lat="45.20863" lon="5.73313">
        <ele>504.79998779297</ele>
        <time>2021-10-17T05:57:02.000Z</time>
      </trkpt>
      <trkpt lat="45.20861" lon="5.73313">
        <ele>504.60000610352</ele>
        <time>2021-10-17T05:57:03.000Z</time>
      </trkpt>
      <trkpt lat="45.20859" lon="5.73311">
        <ele>503.39999389648</ele>
        <time>2021-10-17T05:57:06.000Z</time>
      </trkpt>
      <trkpt lat="45.20857" lon="5.73308">
        <ele>502.79998779297</ele>
        <time>2021-10-17T05:57:08.000Z</time>
      </trkpt>
      <trkpt lat="45.20855" lon="5.73304">
        <ele>502.60000610352</ele>
        <time>2021-10-17T05:57:10.000Z</time>
      </trkpt>
      <trkpt lat="45.20853" lon="5.733">
        <ele>502.60000610352</ele>
        <time>2021-10-17T05:57:12.000Z</time>
      </trkpt>
      <trkpt lat="45.20852" lon="5.73296">
        <ele>502.79998779297</ele>
        <time>2021-10-17T05:57:14.000Z</time>
      </trkpt>
      <trkpt lat="45.20846" lon="5.73287">
        <ele>503.20001220703</ele>
        <time>2021-10-17T05:57:18.000Z</time>
      </trkpt>
      <trkpt lat="45.20845" lon="5.73283">
        <ele>503.20001220703</ele>
        <time>2021-10-17T05:57:20.000Z</time>
      </trkpt>
      <trkpt lat="45.20838" lon="5.73269">
        <ele>503.20001220703</ele>
        <time>2021-10-17T05:57:26.000Z</time>
      </trkpt>
      <trkpt lat="45.20837" lon="5.73267">
        <ele>503.20001220703</ele>
        <time>2021-10-17T05:57:27.000Z</time>
      </trkpt>
      <trkpt lat="45.20835" lon="5.73263">
        <ele>503.20001220703</ele>
        <time>2021-10-17T05:57:29.000Z</time>
      </trkpt>
      <trkpt lat="45.20833" lon="5.73259">
        <ele>503.60000610352</ele>
        <time>2021-10-17T05:57:31.000Z</time>
      </trkpt>
      <trkpt lat="45.20827" lon="5.73243">
        <ele>504.39999389648</ele>
        <time>2021-10-17T05:57:39.000Z</time>
      </trkpt>
      <trkpt lat="45.20826" lon="5.73242">
        <ele>504.79998779297</ele>
        <time>2021-10-17T05:57:40.000Z</time>
      </trkpt>
      <trkpt lat="45.20822" lon="5.73234">
        <ele>505.79998779297</ele>
        <time>2021-10-17T05:57:44.000Z</time>
      </trkpt>
      <trkpt lat="45.20821" lon="5.73229">
        <ele>506.20001220703</ele>
        <time>2021-10-17T05:57:46.000Z</time>
      </trkpt>
      <trkpt lat="45.20819" lon="5.73224">
        <ele>506.79998779297</ele>
        <time>2021-10-17T05:57:49.000Z</time>
      </trkpt>
      <trkpt lat="45.20817" lon="5.73216">
        <ele>507.39999389648</ele>
        <time>2021-10-17T05:57:52.000Z</time>
      </trkpt>
      <trkpt lat="45.20815" lon="5.73214">
        <ele>507.60000610352</ele>
        <time>2021-10-17T05:57:53.000Z</time>
      </trkpt>
      <trkpt lat="45.20811" lon="5.73204">
        <ele>507.79998779297</ele>
        <time>2021-10-17T05:57:58.000Z</time>
      </trkpt>
      <trkpt lat="45.2081" lon="5.73202">
        <ele>507.79998779297</ele>
        <time>2021-10-17T05:57:59.000Z</time>
      </trkpt>
      <trkpt lat="45.20809" lon="5.732">
        <ele>508.20001220703</ele>
        <time>2021-10-17T05:58:01.000Z</time>
      </trkpt>
      <trkpt lat="45.20806" lon="5.73195">
        <ele>508.79998779297</ele>
        <time>2021-10-17T05:58:05.000Z</time>
      </trkpt>
      <trkpt lat="45.20804" lon="5.73192">
        <ele>509.20001220703</ele>
        <time>2021-10-17T05:58:07.000Z</time>
      </trkpt>
      <trkpt lat="45.20799" lon="5.73184">
        <ele>509.60000610352</ele>
        <time>2021-10-17T05:58:12.000Z</time>
      </trkpt>
      <trkpt lat="45.20797" lon="5.7318">
        <ele>510</ele>
        <time>2021-10-17T05:58:14.000Z</time>
      </trkpt>
      <trkpt lat="45.20791" lon="5.73172">
        <ele>511.20001220703</ele>
        <time>2021-10-17T05:58:19.000Z</time>
      </trkpt>
      <trkpt lat="45.2079" lon="5.73168">
        <ele>511.60000610352</ele>
        <time>2021-10-17T05:58:21.000Z</time>
      </trkpt>
      <trkpt lat="45.2079" lon="5.73166">
        <ele>511.79998779297</ele>
        <time>2021-10-17T05:58:22.000Z</time>
      </trkpt>
      <trkpt lat="45.2079" lon="5.73164">
        <ele>512.20001220703</ele>
        <time>2021-10-17T05:58:23.000Z</time>
      </trkpt>
      <trkpt lat="45.20789" lon="5.73159">
        <ele>513.40002441406</ele>
        <time>2021-10-17T05:58:27.000Z</time>
      </trkpt>
      <trkpt lat="45.20789" lon="5.73157">
        <ele>514.59997558594</ele>
        <time>2021-10-17T05:58:30.000Z</time>
      </trkpt>
      <trkpt lat="45.20788" lon="5.73153">
        <ele>515.20001220703</ele>
        <time>2021-10-17T05:58:32.000Z</time>
      </trkpt>
      <trkpt lat="45.20788" lon="5.7315">
        <ele>515.59997558594</ele>
        <time>2021-10-17T05:58:34.000Z</time>
      </trkpt>
      <trkpt lat="45.20787" lon="5.73149">
        <ele>516.40002441406</ele>
        <time>2021-10-17T05:58:36.000Z</time>
      </trkpt>
      <trkpt lat="45.20787" lon="5.73147">
        <ele>516.59997558594</ele>
        <time>2021-10-17T05:58:37.000Z</time>
      </trkpt>
      <trkpt lat="45.20787" lon="5.73145">
        <ele>517.40002441406</ele>
        <time>2021-10-17T05:58:39.000Z</time>
      </trkpt>
      <trkpt lat="45.20787" lon="5.73142">
        <ele>517.79998779297</ele>
        <time>2021-10-17T05:58:41.000Z</time>
      </trkpt>
      <trkpt lat="45.20784" lon="5.73137">
        <ele>518.40002441406</ele>
        <time>2021-10-17T05:58:44.000Z</time>
      </trkpt>
      <trkpt lat="45.20783" lon="5.73135">
        <ele>518.59997558594</ele>
        <time>2021-10-17T05:58:45.000Z</time>
      </trkpt>
      <trkpt lat="45.20779" lon="5.73134">
        <ele>518.79998779297</ele>
        <time>2021-10-17T05:58:48.000Z</time>
      </trkpt>
      <trkpt lat="45.20777" lon="5.73133">
        <ele>519</ele>
        <time>2021-10-17T05:58:49.000Z</time>
      </trkpt>
      <trkpt lat="45.20776" lon="5.73132">
        <ele>519.20001220703</ele>
        <time>2021-10-17T05:58:50.000Z</time>
      </trkpt>
      <trkpt lat="45.20774" lon="5.73128">
        <ele>520</ele>
        <time>2021-10-17T05:58:53.000Z</time>
      </trkpt>
      <trkpt lat="45.2077" lon="5.73125">
        <ele>520.40002441406</ele>
        <time>2021-10-17T05:58:57.000Z</time>
      </trkpt>
      <trkpt lat="45.20762" lon="5.73115">
        <ele>520.79998779297</ele>
        <time>2021-10-17T05:59:04.000Z</time>
      </trkpt>
      <trkpt lat="45.20761" lon="5.73114">
        <ele>521</ele>
        <time>2021-10-17T05:59:05.000Z</time>
      </trkpt>
      <trkpt lat="45.20751" lon="5.73106">
        <ele>521.40002441406</ele>
        <time>2021-10-17T05:59:12.000Z</time>
      </trkpt>
      <trkpt lat="45.20741" lon="5.73093">
        <ele>520.79998779297</ele>
        <time>2021-10-17T05:59:20.000Z</time>
      </trkpt>
      <trkpt lat="45.2074" lon="5.73091">
        <ele>520.79998779297</ele>
        <time>2021-10-17T05:59:21.000Z</time>
      </trkpt>
      <trkpt lat="45.20735" lon="5.73084">
        <ele>520.79998779297</ele>
        <time>2021-10-17T05:59:25.000Z</time>
      </trkpt>
      <trkpt lat="45.20722" lon="5.73072">
        <ele>521.20001220703</ele>
        <time>2021-10-17T05:59:33.000Z</time>
      </trkpt>
      <trkpt lat="45.20709" lon="5.73063">
        <ele>521.40002441406</ele>
        <time>2021-10-17T05:59:41.000Z</time>
      </trkpt>
      <trkpt lat="45.20703" lon="5.73058">
        <ele>521</ele>
        <time>2021-10-17T05:59:45.000Z</time>
      </trkpt>
      <trkpt lat="45.20701" lon="5.73056">
        <ele>520.79998779297</ele>
        <time>2021-10-17T05:59:47.000Z</time>
      </trkpt>
      <trkpt lat="45.20697" lon="5.73051">
        <ele>520.59997558594</ele>
        <time>2021-10-17T05:59:50.000Z</time>
      </trkpt>
      <trkpt lat="45.20692" lon="5.73044">
        <ele>520.20001220703</ele>
        <time>2021-10-17T05:59:54.000Z</time>
      </trkpt>
      <trkpt lat="45.2069" lon="5.73043">
        <ele>520.20001220703</ele>
        <time>2021-10-17T05:59:55.000Z</time>
      </trkpt>
      <trkpt lat="45.20689" lon="5.73042">
        <ele>519.79998779297</ele>
        <time>2021-10-17T05:59:56.000Z</time>
      </trkpt>
      <trkpt lat="45.20679" lon="5.73032">
        <ele>518.59997558594</ele>
        <time>2021-10-17T06:00:02.000Z</time>
      </trkpt>
      <trkpt lat="45.20675" lon="5.73029">
        <ele>518.20001220703</ele>
        <time>2021-10-17T06:00:04.000Z</time>
      </trkpt>
      <trkpt lat="45.20665" lon="5.7302">
        <ele>517.59997558594</ele>
        <time>2021-10-17T06:00:11.000Z</time>
      </trkpt>
      <trkpt lat="45.20655" lon="5.73012">
        <ele>517.79998779297</ele>
        <time>2021-10-17T06:00:18.000Z</time>
      </trkpt>
      <trkpt lat="45.20654" lon="5.7301">
        <ele>517.59997558594</ele>
        <time>2021-10-17T06:00:21.000Z</time>
      </trkpt>
      <trkpt lat="45.20652" lon="5.73008">
        <ele>517.79998779297</ele>
        <time>2021-10-17T06:00:23.000Z</time>
      </trkpt>
      <trkpt lat="45.20642" lon="5.72997">
        <ele>517.59997558594</ele>
        <time>2021-10-17T06:00:30.000Z</time>
      </trkpt>
      <trkpt lat="45.20641" lon="5.72996">
        <ele>517.40002441406</ele>
        <time>2021-10-17T06:00:31.000Z</time>
      </trkpt>
      <trkpt lat="45.20638" lon="5.72993">
        <ele>517.40002441406</ele>
        <time>2021-10-17T06:00:33.000Z</time>
      </trkpt>
      <trkpt lat="45.20631" lon="5.72986">
        <ele>517.40002441406</ele>
        <time>2021-10-17T06:00:38.000Z</time>
      </trkpt>
      <trkpt lat="45.20625" lon="5.7298">
        <ele>517.59997558594</ele>
        <time>2021-10-17T06:00:42.000Z</time>
      </trkpt>
      <trkpt lat="45.2062" lon="5.72975">
        <ele>517.59997558594</ele>
        <time>2021-10-17T06:00:45.000Z</time>
      </trkpt>
      <trkpt lat="45.2061" lon="5.72965">
        <ele>517.20001220703</ele>
        <time>2021-10-17T06:00:52.000Z</time>
      </trkpt>
      <trkpt lat="45.20596" lon="5.72953">
        <ele>517.20001220703</ele>
        <time>2021-10-17T06:01:01.000Z</time>
      </trkpt>
      <trkpt lat="45.20591" lon="5.72949">
        <ele>517.20001220703</ele>
        <time>2021-10-17T06:01:04.000Z</time>
      </trkpt>
      <trkpt lat="45.20586" lon="5.72945">
        <ele>517.20001220703</ele>
        <time>2021-10-17T06:01:07.000Z</time>
      </trkpt>
      <trkpt lat="45.20576" lon="5.72938">
        <ele>517.79998779297</ele>
        <time>2021-10-17T06:01:13.000Z</time>
      </trkpt>
      <trkpt lat="45.20569" lon="5.72933">
        <ele>518</ele>
        <time>2021-10-17T06:01:17.000Z</time>
      </trkpt>
      <trkpt lat="45.20564" lon="5.72929">
        <ele>517.79998779297</ele>
        <time>2021-10-17T06:01:20.000Z</time>
      </trkpt>
      <trkpt lat="45.20552" lon="5.72925">
        <ele>518.20001220703</ele>
        <time>2021-10-17T06:01:26.000Z</time>
      </trkpt>
      <trkpt lat="45.20551" lon="5.72924">
        <ele>518.20001220703</ele>
        <time>2021-10-17T06:01:27.000Z</time>
      </trkpt>
      <trkpt lat="45.20545" lon="5.72919">
        <ele>518.59997558594</ele>
        <time>2021-10-17T06:01:30.000Z</time>
      </trkpt>
      <trkpt lat="45.20538" lon="5.72914">
        <ele>518.79998779297</ele>
        <time>2021-10-17T06:01:34.000Z</time>
      </trkpt>
      <trkpt lat="45.20535" lon="5.7291">
        <ele>519</ele>
        <time>2021-10-17T06:01:36.000Z</time>
      </trkpt>
      <trkpt lat="45.20527" lon="5.72904">
        <ele>519.20001220703</ele>
        <time>2021-10-17T06:01:40.000Z</time>
      </trkpt>
      <trkpt lat="45.20524" lon="5.72902">
        <ele>519.40002441406</ele>
        <time>2021-10-17T06:01:42.000Z</time>
      </trkpt>
      <trkpt lat="45.2052" lon="5.72897">
        <ele>519.59997558594</ele>
        <time>2021-10-17T06:01:45.000Z</time>
      </trkpt>
      <trkpt lat="45.20519" lon="5.72895">
        <ele>519.79998779297</ele>
        <time>2021-10-17T06:01:46.000Z</time>
      </trkpt>
      <trkpt lat="45.20517" lon="5.72891">
        <ele>520.40002441406</ele>
        <time>2021-10-17T06:01:48.000Z</time>
      </trkpt>
      <trkpt lat="45.20515" lon="5.72888">
        <ele>520.79998779297</ele>
        <time>2021-10-17T06:01:50.000Z</time>
      </trkpt>
      <trkpt lat="45.20508" lon="5.72881">
        <ele>521.79998779297</ele>
        <time>2021-10-17T06:01:55.000Z</time>
      </trkpt>
      <trkpt lat="45.20507" lon="5.7288">
        <ele>522</ele>
        <time>2021-10-17T06:01:56.000Z</time>
      </trkpt>
      <trkpt lat="45.20503" lon="5.72879">
        <ele>522.40002441406</ele>
        <time>2021-10-17T06:01:59.000Z</time>
      </trkpt>
      <trkpt lat="45.205" lon="5.72877">
        <ele>522.59997558594</ele>
        <time>2021-10-17T06:02:01.000Z</time>
      </trkpt>
      <trkpt lat="45.20496" lon="5.72874">
        <ele>522.79998779297</ele>
        <time>2021-10-17T06:02:03.000Z</time>
      </trkpt>
      <trkpt lat="45.20487" lon="5.72866">
        <ele>523.20001220703</ele>
        <time>2021-10-17T06:02:08.000Z</time>
      </trkpt>
      <trkpt lat="45.20483" lon="5.72864">
        <ele>523.20001220703</ele>
        <time>2021-10-17T06:02:10.000Z</time>
      </trkpt>
      <trkpt lat="45.2047" lon="5.72855">
        <ele>523.20001220703</ele>
        <time>2021-10-17T06:02:16.000Z</time>
      </trkpt>
      <trkpt lat="45.20468" lon="5.72854">
        <ele>523</ele>
        <time>2021-10-17T06:02:17.000Z</time>
      </trkpt>
      <trkpt lat="45.20459" lon="5.72844">
        <ele>521.59997558594</ele>
        <time>2021-10-17T06:02:22.000Z</time>
      </trkpt>
      <trkpt lat="45.20458" lon="5.72842">
        <ele>521.40002441406</ele>
        <time>2021-10-17T06:02:23.000Z</time>
      </trkpt>
      <trkpt lat="45.20456" lon="5.7284">
        <ele>521.20001220703</ele>
        <time>2021-10-17T06:02:24.000Z</time>
      </trkpt>
      <trkpt lat="45.20454" lon="5.72838">
        <ele>521</ele>
        <time>2021-10-17T06:02:25.000Z</time>
      </trkpt>
      <trkpt lat="45.20446" lon="5.72831">
        <ele>520.59997558594</ele>
        <time>2021-10-17T06:02:29.000Z</time>
      </trkpt>
      <trkpt lat="45.20442" lon="5.72828">
        <ele>520.59997558594</ele>
        <time>2021-10-17T06:02:31.000Z</time>
      </trkpt>
      <trkpt lat="45.20439" lon="5.72824">
        <ele>520.40002441406</ele>
        <time>2021-10-17T06:02:33.000Z</time>
      </trkpt>
      <trkpt lat="45.2043" lon="5.72814">
        <ele>519.59997558594</ele>
        <time>2021-10-17T06:02:38.000Z</time>
      </trkpt>
      <trkpt lat="45.20422" lon="5.72803">
        <ele>518.59997558594</ele>
        <time>2021-10-17T06:02:43.000Z</time>
      </trkpt>
      <trkpt lat="45.20421" lon="5.72801">
        <ele>518.40002441406</ele>
        <time>2021-10-17T06:02:44.000Z</time>
      </trkpt>
      <trkpt lat="45.2042" lon="5.72799">
        <ele>518</ele>
        <time>2021-10-17T06:02:45.000Z</time>
      </trkpt>
      <trkpt lat="45.20415" lon="5.72793">
        <ele>517</ele>
        <time>2021-10-17T06:02:48.000Z</time>
      </trkpt>
      <trkpt lat="45.20408" lon="5.7279">
        <ele>516.20001220703</ele>
        <time>2021-10-17T06:02:51.000Z</time>
      </trkpt>
      <trkpt lat="45.20405" lon="5.72789">
        <ele>516</ele>
        <time>2021-10-17T06:02:52.000Z</time>
      </trkpt>
      <trkpt lat="45.20396" lon="5.72783">
        <ele>515.20001220703</ele>
        <time>2021-10-17T06:02:56.000Z</time>
      </trkpt>
      <trkpt lat="45.20394" lon="5.72782">
        <ele>515</ele>
        <time>2021-10-17T06:02:57.000Z</time>
      </trkpt>
      <trkpt lat="45.20383" lon="5.72776">
        <ele>513.59997558594</ele>
        <time>2021-10-17T06:03:02.000Z</time>
      </trkpt>
      <trkpt lat="45.20379" lon="5.72773">
        <ele>513.20001220703</ele>
        <time>2021-10-17T06:03:04.000Z</time>
      </trkpt>
      <trkpt lat="45.20374" lon="5.72767">
        <ele>512.40002441406</ele>
        <time>2021-10-17T06:03:07.000Z</time>
      </trkpt>
      <trkpt lat="45.20368" lon="5.72762">
        <ele>511.79998779297</ele>
        <time>2021-10-17T06:03:10.000Z</time>
      </trkpt>
      <trkpt lat="45.20365" lon="5.72759">
        <ele>511.39999389648</ele>
        <time>2021-10-17T06:03:12.000Z</time>
      </trkpt>
      <trkpt lat="45.20362" lon="5.72755">
        <ele>511</ele>
        <time>2021-10-17T06:03:14.000Z</time>
      </trkpt>
      <trkpt lat="45.20359" lon="5.72751">
        <ele>510.20001220703</ele>
        <time>2021-10-17T06:03:16.000Z</time>
      </trkpt>
      <trkpt lat="45.20354" lon="5.72747">
        <ele>509.39999389648</ele>
        <time>2021-10-17T06:03:19.000Z</time>
      </trkpt>
      <trkpt lat="45.20353" lon="5.72746">
        <ele>509.20001220703</ele>
        <time>2021-10-17T06:03:20.000Z</time>
      </trkpt>
      <trkpt lat="45.20347" lon="5.72741">
        <ele>508.60000610352</ele>
        <time>2021-10-17T06:03:23.000Z</time>
      </trkpt>
      <trkpt lat="45.20343" lon="5.72738">
        <ele>508.20001220703</ele>
        <time>2021-10-17T06:03:25.000Z</time>
      </trkpt>
      <trkpt lat="45.20331" lon="5.7273">
        <ele>507.39999389648</ele>
        <time>2021-10-17T06:03:30.000Z</time>
      </trkpt>
      <trkpt lat="45.20318" lon="5.72723">
        <ele>507.20001220703</ele>
        <time>2021-10-17T06:03:35.000Z</time>
      </trkpt>
      <trkpt lat="45.20311" lon="5.7272">
        <ele>507</ele>
        <time>2021-10-17T06:03:38.000Z</time>
      </trkpt>
      <trkpt lat="45.20301" lon="5.72712">
        <ele>506.39999389648</ele>
        <time>2021-10-17T06:03:43.000Z</time>
      </trkpt>
      <trkpt lat="45.20298" lon="5.72709">
        <ele>506</ele>
        <time>2021-10-17T06:03:45.000Z</time>
      </trkpt>
      <trkpt lat="45.2029" lon="5.727">
        <ele>504.79998779297</ele>
        <time>2021-10-17T06:03:50.000Z</time>
      </trkpt>
      <trkpt lat="45.20286" lon="5.72696">
        <ele>504.20001220703</ele>
        <time>2021-10-17T06:03:52.000Z</time>
      </trkpt>
      <trkpt lat="45.20282" lon="5.72692">
        <ele>503.79998779297</ele>
        <time>2021-10-17T06:03:54.000Z</time>
      </trkpt>
      <trkpt lat="45.2027" lon="5.72679">
        <ele>503</ele>
        <time>2021-10-17T06:04:00.000Z</time>
      </trkpt>
      <trkpt lat="45.20268" lon="5.72673">
        <ele>503.79998779297</ele>
        <time>2021-10-17T06:04:03.000Z</time>
      </trkpt>
      <trkpt lat="45.20267" lon="5.72671">
        <ele>504</ele>
        <time>2021-10-17T06:04:04.000Z</time>
      </trkpt>
      <trkpt lat="45.20264" lon="5.72666">
        <ele>504.79998779297</ele>
        <time>2021-10-17T06:04:07.000Z</time>
      </trkpt>
      <trkpt lat="45.20261" lon="5.72661">
        <ele>505.79998779297</ele>
        <time>2021-10-17T06:04:10.000Z</time>
      </trkpt>
      <trkpt lat="45.2026" lon="5.7266">
        <ele>506</ele>
        <time>2021-10-17T06:04:11.000Z</time>
      </trkpt>
      <trkpt lat="45.20256" lon="5.72657">
        <ele>506.79998779297</ele>
        <time>2021-10-17T06:04:14.000Z</time>
      </trkpt>
      <trkpt lat="45.20255" lon="5.72655">
        <ele>507.20001220703</ele>
        <time>2021-10-17T06:04:15.000Z</time>
      </trkpt>
      <trkpt lat="45.20253" lon="5.72653">
        <ele>507.60000610352</ele>
        <time>2021-10-17T06:04:17.000Z</time>
      </trkpt>
      <trkpt lat="45.2025" lon="5.7265">
        <ele>508.60000610352</ele>
        <time>2021-10-17T06:04:19.000Z</time>
      </trkpt>
      <trkpt lat="45.20244" lon="5.72644">
        <ele>509.60000610352</ele>
        <time>2021-10-17T06:04:24.000Z</time>
      </trkpt>
      <trkpt lat="45.20242" lon="5.72642">
        <ele>510.20001220703</ele>
        <time>2021-10-17T06:04:26.000Z</time>
      </trkpt>
      <trkpt lat="45.20239" lon="5.72641">
        <ele>510.79998779297</ele>
        <time>2021-10-17T06:04:29.000Z</time>
      </trkpt>
      <trkpt lat="45.20229" lon="5.72632">
        <ele>511.39999389648</ele>
        <time>2021-10-17T06:04:36.000Z</time>
      </trkpt>
      <trkpt lat="45.20224" lon="5.72626">
        <ele>511.79998779297</ele>
        <time>2021-10-17T06:04:40.000Z</time>
      </trkpt>
      <trkpt lat="45.2022" lon="5.72621">
        <ele>512</ele>
        <time>2021-10-17T06:04:44.000Z</time>
      </trkpt>
      <trkpt lat="45.20216" lon="5.72616">
        <ele>512.79998779297</ele>
        <time>2021-10-17T06:04:48.000Z</time>
      </trkpt>
      <trkpt lat="45.20213" lon="5.72613">
        <ele>513.59997558594</ele>
        <time>2021-10-17T06:04:51.000Z</time>
      </trkpt>
      <trkpt lat="45.20211" lon="5.72608">
        <ele>514</ele>
        <time>2021-10-17T06:04:54.000Z</time>
      </trkpt>
      <trkpt lat="45.20208" lon="5.72604">
        <ele>514.79998779297</ele>
        <time>2021-10-17T06:04:57.000Z</time>
      </trkpt>
      <trkpt lat="45.20204" lon="5.72601">
        <ele>515.20001220703</ele>
        <time>2021-10-17T06:05:00.000Z</time>
      </trkpt>
      <trkpt lat="45.20198" lon="5.72594">
        <ele>516</ele>
        <time>2021-10-17T06:05:05.000Z</time>
      </trkpt>
      <trkpt lat="45.20195" lon="5.7259">
        <ele>516.20001220703</ele>
        <time>2021-10-17T06:05:08.000Z</time>
      </trkpt>
      <trkpt lat="45.20194" lon="5.72587">
        <ele>517.20001220703</ele>
        <time>2021-10-17T06:05:11.000Z</time>
      </trkpt>
      <trkpt lat="45.20192" lon="5.72585">
        <ele>517.20001220703</ele>
        <time>2021-10-17T06:05:12.000Z</time>
      </trkpt>
      <trkpt lat="45.20186" lon="5.72578">
        <ele>516.79998779297</ele>
        <time>2021-10-17T06:05:16.000Z</time>
      </trkpt>
      <trkpt lat="45.2018" lon="5.72576">
        <ele>516.20001220703</ele>
        <time>2021-10-17T06:05:19.000Z</time>
      </trkpt>
      <trkpt lat="45.20172" lon="5.72572">
        <ele>515</ele>
        <time>2021-10-17T06:05:23.000Z</time>
      </trkpt>
      <trkpt lat="45.2017" lon="5.72571">
        <ele>514.79998779297</ele>
        <time>2021-10-17T06:05:24.000Z</time>
      </trkpt>
      <trkpt lat="45.20163" lon="5.72565">
        <ele>513.79998779297</ele>
        <time>2021-10-17T06:05:28.000Z</time>
      </trkpt>
      <trkpt lat="45.20159" lon="5.72563">
        <ele>513.20001220703</ele>
        <time>2021-10-17T06:05:30.000Z</time>
      </trkpt>
      <trkpt lat="45.20157" lon="5.72562">
        <ele>512.79998779297</ele>
        <time>2021-10-17T06:05:31.000Z</time>
      </trkpt>
      <trkpt lat="45.20146" lon="5.72558">
        <ele>511.60000610352</ele>
        <time>2021-10-17T06:05:36.000Z</time>
      </trkpt>
      <trkpt lat="45.20141" lon="5.72557">
        <ele>510.60000610352</ele>
        <time>2021-10-17T06:05:39.000Z</time>
      </trkpt>
      <trkpt lat="45.20139" lon="5.72556">
        <ele>510.39999389648</ele>
        <time>2021-10-17T06:05:40.000Z</time>
      </trkpt>
      <trkpt lat="45.20131" lon="5.72552">
        <ele>509.60000610352</ele>
        <time>2021-10-17T06:05:45.000Z</time>
      </trkpt>
      <trkpt lat="45.20129" lon="5.72552">
        <ele>509.39999389648</ele>
        <time>2021-10-17T06:05:46.000Z</time>
      </trkpt>
      <trkpt lat="45.20122" lon="5.72549">
        <ele>508.20001220703</ele>
        <time>2021-10-17T06:05:50.000Z</time>
      </trkpt>
      <trkpt lat="45.2012" lon="5.72548">
        <ele>507.60000610352</ele>
        <time>2021-10-17T06:05:51.000Z</time>
      </trkpt>
      <trkpt lat="45.20117" lon="5.72547">
        <ele>507</ele>
        <time>2021-10-17T06:05:53.000Z</time>
      </trkpt>
      <trkpt lat="45.20112" lon="5.72546">
        <ele>505.79998779297</ele>
        <time>2021-10-17T06:05:56.000Z</time>
      </trkpt>
      <trkpt lat="45.20106" lon="5.72546">
        <ele>504.79998779297</ele>
        <time>2021-10-17T06:05:59.000Z</time>
      </trkpt>
      <trkpt lat="45.20102" lon="5.72546">
        <ele>503.79998779297</ele>
        <time>2021-10-17T06:06:02.000Z</time>
      </trkpt>
      <trkpt lat="45.20097" lon="5.72547">
        <ele>502.60000610352</ele>
        <time>2021-10-17T06:06:05.000Z</time>
      </trkpt>
      <trkpt lat="45.20091" lon="5.72547">
        <ele>501.39999389648</ele>
        <time>2021-10-17T06:06:08.000Z</time>
      </trkpt>
      <trkpt lat="45.20084" lon="5.72548">
        <ele>500.20001220703</ele>
        <time>2021-10-17T06:06:11.000Z</time>
      </trkpt>
      <trkpt lat="45.20079" lon="5.72546">
        <ele>499.20001220703</ele>
        <time>2021-10-17T06:06:13.000Z</time>
      </trkpt>
      <trkpt lat="45.20076" lon="5.72544">
        <ele>498.79998779297</ele>
        <time>2021-10-17T06:06:14.000Z</time>
      </trkpt>
      <trkpt lat="45.20069" lon="5.72532">
        <ele>498.20001220703</ele>
        <time>2021-10-17T06:06:18.000Z</time>
      </trkpt>
      <trkpt lat="45.2007" lon="5.72513">
        <ele>498</ele>
        <time>2021-10-17T06:06:23.000Z</time>
      </trkpt>
      <trkpt lat="45.20072" lon="5.72501">
        <ele>497.79998779297</ele>
        <time>2021-10-17T06:06:26.000Z</time>
      </trkpt>
      <trkpt lat="45.20074" lon="5.72483">
        <ele>496.79998779297</ele>
        <time>2021-10-17T06:06:31.000Z</time>
      </trkpt>
      <trkpt lat="45.20073" lon="5.72479">
        <ele>496.60000610352</ele>
        <time>2021-10-17T06:06:32.000Z</time>
      </trkpt>
      <trkpt lat="45.20071" lon="5.72465">
        <ele>496</ele>
        <time>2021-10-17T06:06:36.000Z</time>
      </trkpt>
      <trkpt lat="45.2007" lon="5.72458">
        <ele>495.39999389648</ele>
        <time>2021-10-17T06:06:38.000Z</time>
      </trkpt>
      <trkpt lat="45.2007" lon="5.72455">
        <ele>495.20001220703</ele>
        <time>2021-10-17T06:06:39.000Z</time>
      </trkpt>
      <trkpt lat="45.20067" lon="5.72445">
        <ele>494.79998779297</ele>
        <time>2021-10-17T06:06:42.000Z</time>
      </trkpt>
      <trkpt lat="45.20066" lon="5.72442">
        <ele>494.39999389648</ele>
        <time>2021-10-17T06:06:43.000Z</time>
      </trkpt>
      <trkpt lat="45.2006" lon="5.72436">
        <ele>493.60000610352</ele>
        <time>2021-10-17T06:06:46.000Z</time>
      </trkpt>
      <trkpt lat="45.20059" lon="5.72434">
        <ele>493</ele>
        <time>2021-10-17T06:06:47.000Z</time>
      </trkpt>
      <trkpt lat="45.20049" lon="5.72431">
        <ele>491.79998779297</ele>
        <time>2021-10-17T06:06:51.000Z</time>
      </trkpt>
      <trkpt lat="45.20047" lon="5.72431">
        <ele>491.39999389648</ele>
        <time>2021-10-17T06:06:52.000Z</time>
      </trkpt>
      <trkpt lat="45.20042" lon="5.72431">
        <ele>490.60000610352</ele>
        <time>2021-10-17T06:06:54.000Z</time>
      </trkpt>
      <trkpt lat="45.20031" lon="5.72431">
        <ele>489.60000610352</ele>
        <time>2021-10-17T06:06:58.000Z</time>
      </trkpt>
      <trkpt lat="45.20019" lon="5.7243">
        <ele>488.60000610352</ele>
        <time>2021-10-17T06:07:03.000Z</time>
      </trkpt>
      <trkpt lat="45.20012" lon="5.7243">
        <ele>487.60000610352</ele>
        <time>2021-10-17T06:07:06.000Z</time>
      </trkpt>
      <trkpt lat="45.19999" lon="5.72429">
        <ele>486</ele>
        <time>2021-10-17T06:07:11.000Z</time>
      </trkpt>
      <trkpt lat="45.19991" lon="5.72428">
        <ele>485.20001220703</ele>
        <time>2021-10-17T06:07:14.000Z</time>
      </trkpt>
      <trkpt lat="45.19988" lon="5.72428">
        <ele>484.79998779297</ele>
        <time>2021-10-17T06:07:15.000Z</time>
      </trkpt>
      <trkpt lat="45.19981" lon="5.72427">
        <ele>483.79998779297</ele>
        <time>2021-10-17T06:07:18.000Z</time>
      </trkpt>
      <trkpt lat="45.1997" lon="5.72425">
        <ele>482.79998779297</ele>
        <time>2021-10-17T06:07:22.000Z</time>
      </trkpt>
      <trkpt lat="45.19965" lon="5.72425">
        <ele>482.20001220703</ele>
        <time>2021-10-17T06:07:24.000Z</time>
      </trkpt>
      <trkpt lat="45.19959" lon="5.72425">
        <ele>481.39999389648</ele>
        <time>2021-10-17T06:07:26.000Z</time>
      </trkpt>
      <trkpt lat="45.19951" lon="5.72424">
        <ele>480.60000610352</ele>
        <time>2021-10-17T06:07:29.000Z</time>
      </trkpt>
      <trkpt lat="45.19948" lon="5.72424">
        <ele>480.39999389648</ele>
        <time>2021-10-17T06:07:30.000Z</time>
      </trkpt>
      <trkpt lat="45.19931" lon="5.72426">
        <ele>479.39999389648</ele>
        <time>2021-10-17T06:07:36.000Z</time>
      </trkpt>
      <trkpt lat="45.19919" lon="5.72432">
        <ele>479.79998779297</ele>
        <time>2021-10-17T06:07:41.000Z</time>
      </trkpt>
      <trkpt lat="45.19917" lon="5.72432">
        <ele>479.79998779297</ele>
        <time>2021-10-17T06:07:42.000Z</time>
      </trkpt>
      <trkpt lat="45.19899" lon="5.72437">
        <ele>481.20001220703</ele>
        <time>2021-10-17T06:07:49.000Z</time>
      </trkpt>
      <trkpt lat="45.19897" lon="5.72438">
        <ele>481.39999389648</ele>
        <time>2021-10-17T06:07:50.000Z</time>
      </trkpt>
      <trkpt lat="45.19894" lon="5.72438">
        <ele>481.60000610352</ele>
        <time>2021-10-17T06:07:51.000Z</time>
      </trkpt>
      <trkpt lat="45.19887" lon="5.72441">
        <ele>482.20001220703</ele>
        <time>2021-10-17T06:07:54.000Z</time>
      </trkpt>
      <trkpt lat="45.19886" lon="5.72443">
        <ele>482.39999389648</ele>
        <time>2021-10-17T06:07:55.000Z</time>
      </trkpt>
      <trkpt lat="45.19884" lon="5.72444">
        <ele>482.79998779297</ele>
        <time>2021-10-17T06:07:56.000Z</time>
      </trkpt>
      <trkpt lat="45.19882" lon="5.72452">
        <ele>483.60000610352</ele>
        <time>2021-10-17T06:07:59.000Z</time>
      </trkpt>
      <trkpt lat="45.19883" lon="5.72465">
        <ele>484.20001220703</ele>
        <time>2021-10-17T06:08:02.000Z</time>
      </trkpt>
      <trkpt lat="45.1988" lon="5.72469">
        <ele>484.20001220703</ele>
        <time>2021-10-17T06:08:04.000Z</time>
      </trkpt>
      <trkpt lat="45.19872" lon="5.72473">
        <ele>484.20001220703</ele>
        <time>2021-10-17T06:08:08.000Z</time>
      </trkpt>
      <trkpt lat="45.19868" lon="5.72478">
        <ele>483.79998779297</ele>
        <time>2021-10-17T06:08:11.000Z</time>
      </trkpt>
      <trkpt lat="45.19861" lon="5.7249">
        <ele>482.79998779297</ele>
        <time>2021-10-17T06:08:16.000Z</time>
      </trkpt>
      <trkpt lat="45.19859" lon="5.72499">
        <ele>482.39999389648</ele>
        <time>2021-10-17T06:08:18.000Z</time>
      </trkpt>
      <trkpt lat="45.19857" lon="5.72514">
        <ele>482.20001220703</ele>
        <time>2021-10-17T06:08:21.000Z</time>
      </trkpt>
      <trkpt lat="45.19858" lon="5.72542">
        <ele>481.39999389648</ele>
        <time>2021-10-17T06:08:27.000Z</time>
      </trkpt>
      <trkpt lat="45.1986" lon="5.72549">
        <ele>480.39999389648</ele>
        <time>2021-10-17T06:08:29.000Z</time>
      </trkpt>
      <trkpt lat="45.19861" lon="5.72552">
        <ele>480.20001220703</ele>
        <time>2021-10-17T06:08:30.000Z</time>
      </trkpt>
      <trkpt lat="45.19859" lon="5.72557">
        <ele>479.79998779297</ele>
        <time>2021-10-17T06:08:32.000Z</time>
      </trkpt>
      <trkpt lat="45.19858" lon="5.72556">
        <ele>479.39999389648</ele>
        <time>2021-10-17T06:08:33.000Z</time>
      </trkpt>
      <trkpt lat="45.19857" lon="5.72553">
        <ele>479</ele>
        <time>2021-10-17T06:08:34.000Z</time>
      </trkpt>
      <trkpt lat="45.19856" lon="5.72544">
        <ele>478.39999389648</ele>
        <time>2021-10-17T06:08:36.000Z</time>
      </trkpt>
      <trkpt lat="45.19853" lon="5.72537">
        <ele>477.79998779297</ele>
        <time>2021-10-17T06:08:38.000Z</time>
      </trkpt>
      <trkpt lat="45.19849" lon="5.72521">
        <ele>476.79998779297</ele>
        <time>2021-10-17T06:08:42.000Z</time>
      </trkpt>
      <trkpt lat="45.19847" lon="5.72506">
        <ele>475.79998779297</ele>
        <time>2021-10-17T06:08:46.000Z</time>
      </trkpt>
      <trkpt lat="45.19847" lon="5.72503">
        <ele>475.60000610352</ele>
        <time>2021-10-17T06:08:47.000Z</time>
      </trkpt>
      <trkpt lat="45.19847" lon="5.72489">
        <ele>474.60000610352</ele>
        <time>2021-10-17T06:08:51.000Z</time>
      </trkpt>
      <trkpt lat="45.19847" lon="5.72482">
        <ele>474.20001220703</ele>
        <time>2021-10-17T06:08:53.000Z</time>
      </trkpt>
      <trkpt lat="45.19845" lon="5.72469">
        <ele>473.20001220703</ele>
        <time>2021-10-17T06:08:57.000Z</time>
      </trkpt>
      <trkpt lat="45.19845" lon="5.72462">
        <ele>472.60000610352</ele>
        <time>2021-10-17T06:08:59.000Z</time>
      </trkpt>
      <trkpt lat="45.19845" lon="5.72454">
        <ele>472</ele>
        <time>2021-10-17T06:09:01.000Z</time>
      </trkpt>
      <trkpt lat="45.19842" lon="5.72443">
        <ele>470.79998779297</ele>
        <time>2021-10-17T06:09:05.000Z</time>
      </trkpt>
      <trkpt lat="45.19839" lon="5.72443">
        <ele>470.20001220703</ele>
        <time>2021-10-17T06:09:07.000Z</time>
      </trkpt>
      <trkpt lat="45.19836" lon="5.72448">
        <ele>470</ele>
        <time>2021-10-17T06:09:09.000Z</time>
      </trkpt>
      <trkpt lat="45.19835" lon="5.72452">
        <ele>469.79998779297</ele>
        <time>2021-10-17T06:09:10.000Z</time>
      </trkpt>
      <trkpt lat="45.19833" lon="5.72459">
        <ele>469.20001220703</ele>
        <time>2021-10-17T06:09:12.000Z</time>
      </trkpt>
      <trkpt lat="45.19833" lon="5.72467">
        <ele>468.60000610352</ele>
        <time>2021-10-17T06:09:14.000Z</time>
      </trkpt>
      <trkpt lat="45.19833" lon="5.72471">
        <ele>468.39999389648</ele>
        <time>2021-10-17T06:09:15.000Z</time>
      </trkpt>
      <trkpt lat="45.19832" lon="5.72482">
        <ele>467.39999389648</ele>
        <time>2021-10-17T06:09:18.000Z</time>
      </trkpt>
      <trkpt lat="45.1983" lon="5.72498">
        <ele>466</ele>
        <time>2021-10-17T06:09:22.000Z</time>
      </trkpt>
      <trkpt lat="45.19829" lon="5.72501">
        <ele>465.60000610352</ele>
        <time>2021-10-17T06:09:23.000Z</time>
      </trkpt>
      <trkpt lat="45.19827" lon="5.72508">
        <ele>464.79998779297</ele>
        <time>2021-10-17T06:09:25.000Z</time>
      </trkpt>
      <trkpt lat="45.19822" lon="5.72523">
        <ele>463.39999389648</ele>
        <time>2021-10-17T06:09:29.000Z</time>
      </trkpt>
      <trkpt lat="45.19821" lon="5.72527">
        <ele>463.20001220703</ele>
        <time>2021-10-17T06:09:30.000Z</time>
      </trkpt>
      <trkpt lat="45.1982" lon="5.72538">
        <ele>462.20001220703</ele>
        <time>2021-10-17T06:09:33.000Z</time>
      </trkpt>
      <trkpt lat="45.19821" lon="5.72546">
        <ele>461.39999389648</ele>
        <time>2021-10-17T06:09:35.000Z</time>
      </trkpt>
      <trkpt lat="45.19821" lon="5.72551">
        <ele>461.20001220703</ele>
        <time>2021-10-17T06:09:36.000Z</time>
      </trkpt>
      <trkpt lat="45.19822" lon="5.72567">
        <ele>460</ele>
        <time>2021-10-17T06:09:40.000Z</time>
      </trkpt>
      <trkpt lat="45.19824" lon="5.72575">
        <ele>459.20001220703</ele>
        <time>2021-10-17T06:09:42.000Z</time>
      </trkpt>
      <trkpt lat="45.19825" lon="5.72578">
        <ele>459</ele>
        <time>2021-10-17T06:09:43.000Z</time>
      </trkpt>
      <trkpt lat="45.19826" lon="5.72596">
        <ele>457.60000610352</ele>
        <time>2021-10-17T06:09:48.000Z</time>
      </trkpt>
      <trkpt lat="45.19829" lon="5.72606">
        <ele>456.60000610352</ele>
        <time>2021-10-17T06:09:51.000Z</time>
      </trkpt>
      <trkpt lat="45.19831" lon="5.72617">
        <ele>455.79998779297</ele>
        <time>2021-10-17T06:09:54.000Z</time>
      </trkpt>
      <trkpt lat="45.19832" lon="5.72623">
        <ele>455.20001220703</ele>
        <time>2021-10-17T06:09:56.000Z</time>
      </trkpt>
      <trkpt lat="45.19837" lon="5.72633">
        <ele>454.60000610352</ele>
        <time>2021-10-17T06:10:00.000Z</time>
      </trkpt>
      <trkpt lat="45.19839" lon="5.72637">
        <ele>454.20001220703</ele>
        <time>2021-10-17T06:10:01.000Z</time>
      </trkpt>
      <trkpt lat="45.19842" lon="5.72648">
        <ele>453.39999389648</ele>
        <time>2021-10-17T06:10:05.000Z</time>
      </trkpt>
      <trkpt lat="45.19844" lon="5.72651">
        <ele>453.20001220703</ele>
        <time>2021-10-17T06:10:06.000Z</time>
      </trkpt>
      <trkpt lat="45.19852" lon="5.72666">
        <ele>452</ele>
        <time>2021-10-17T06:10:11.000Z</time>
      </trkpt>
      <trkpt lat="45.19855" lon="5.72672">
        <ele>451.60000610352</ele>
        <time>2021-10-17T06:10:13.000Z</time>
      </trkpt>
      <trkpt lat="45.19859" lon="5.72678">
        <ele>451</ele>
        <time>2021-10-17T06:10:15.000Z</time>
      </trkpt>
      <trkpt lat="45.19861" lon="5.7268">
        <ele>450.39999389648</ele>
        <time>2021-10-17T06:10:16.000Z</time>
      </trkpt>
      <trkpt lat="45.19864" lon="5.72685">
        <ele>449.79998779297</ele>
        <time>2021-10-17T06:10:18.000Z</time>
      </trkpt>
      <trkpt lat="45.19864" lon="5.72687">
        <ele>449.60000610352</ele>
        <time>2021-10-17T06:10:19.000Z</time>
      </trkpt>
      <trkpt lat="45.19862" lon="5.72689">
        <ele>449.20001220703</ele>
        <time>2021-10-17T06:10:20.000Z</time>
      </trkpt>
      <trkpt lat="45.19857" lon="5.72687">
        <ele>448.60000610352</ele>
        <time>2021-10-17T06:10:22.000Z</time>
      </trkpt>
      <trkpt lat="45.19852" lon="5.72684">
        <ele>448</ele>
        <time>2021-10-17T06:10:24.000Z</time>
      </trkpt>
      <trkpt lat="45.19845" lon="5.72678">
        <ele>447.20001220703</ele>
        <time>2021-10-17T06:10:27.000Z</time>
      </trkpt>
      <trkpt lat="45.19833" lon="5.72666">
        <ele>446.39999389648</ele>
        <time>2021-10-17T06:10:32.000Z</time>
      </trkpt>
      <trkpt lat="45.19831" lon="5.72664">
        <ele>446</ele>
        <time>2021-10-17T06:10:33.000Z</time>
      </trkpt>
      <trkpt lat="45.19823" lon="5.72654">
        <ele>445</ele>
        <time>2021-10-17T06:10:37.000Z</time>
      </trkpt>
      <trkpt lat="45.19811" lon="5.72644">
        <ele>443.79998779297</ele>
        <time>2021-10-17T06:10:42.000Z</time>
      </trkpt>
      <trkpt lat="45.19801" lon="5.72632">
        <ele>442.39999389648</ele>
        <time>2021-10-17T06:10:47.000Z</time>
      </trkpt>
      <trkpt lat="45.19796" lon="5.72628">
        <ele>441.79998779297</ele>
        <time>2021-10-17T06:10:49.000Z</time>
      </trkpt>
      <trkpt lat="45.1979" lon="5.7262">
        <ele>441</ele>
        <time>2021-10-17T06:10:52.000Z</time>
      </trkpt>
      <trkpt lat="45.19785" lon="5.72606">
        <ele>440.39999389648</ele>
        <time>2021-10-17T06:10:56.000Z</time>
      </trkpt>
      <trkpt lat="45.19785" lon="5.72602">
        <ele>439.79998779297</ele>
        <time>2021-10-17T06:10:57.000Z</time>
      </trkpt>
      <trkpt lat="45.19784" lon="5.72583">
        <ele>438.60000610352</ele>
        <time>2021-10-17T06:11:02.000Z</time>
      </trkpt>
      <trkpt lat="45.19785" lon="5.72563">
        <ele>437.20001220703</ele>
        <time>2021-10-17T06:11:07.000Z</time>
      </trkpt>
      <trkpt lat="45.19786" lon="5.72551">
        <ele>436.39999389648</ele>
        <time>2021-10-17T06:11:10.000Z</time>
      </trkpt>
      <trkpt lat="45.19786" lon="5.72543">
        <ele>435.60000610352</ele>
        <time>2021-10-17T06:11:12.000Z</time>
      </trkpt>
      <trkpt lat="45.19788" lon="5.72529">
        <ele>434.79998779297</ele>
        <time>2021-10-17T06:11:16.000Z</time>
      </trkpt>
      <trkpt lat="45.19787" lon="5.72528">
        <ele>434.39999389648</ele>
        <time>2021-10-17T06:11:17.000Z</time>
      </trkpt>
      <trkpt lat="45.19785" lon="5.72529">
        <ele>434.20001220703</ele>
        <time>2021-10-17T06:11:18.000Z</time>
      </trkpt>
      <trkpt lat="45.19783" lon="5.72531">
        <ele>433.79998779297</ele>
        <time>2021-10-17T06:11:19.000Z</time>
      </trkpt>
      <trkpt lat="45.19782" lon="5.72537">
        <ele>433.20001220703</ele>
        <time>2021-10-17T06:11:21.000Z</time>
      </trkpt>
      <trkpt lat="45.19781" lon="5.72541">
        <ele>432.60000610352</ele>
        <time>2021-10-17T06:11:22.000Z</time>
      </trkpt>
      <trkpt lat="45.19782" lon="5.72549">
        <ele>432.20001220703</ele>
        <time>2021-10-17T06:11:24.000Z</time>
      </trkpt>
      <trkpt lat="45.19781" lon="5.72553">
        <ele>432</ele>
        <time>2021-10-17T06:11:25.000Z</time>
      </trkpt>
      <trkpt lat="45.19779" lon="5.72569">
        <ele>431.20001220703</ele>
        <time>2021-10-17T06:11:29.000Z</time>
      </trkpt>
      <trkpt lat="45.19778" lon="5.72577">
        <ele>430.79998779297</ele>
        <time>2021-10-17T06:11:31.000Z</time>
      </trkpt>
      <trkpt lat="45.19774" lon="5.72589">
        <ele>429.79998779297</ele>
        <time>2021-10-17T06:11:35.000Z</time>
      </trkpt>
      <trkpt lat="45.19773" lon="5.7259">
        <ele>429.39999389648</ele>
        <time>2021-10-17T06:11:36.000Z</time>
      </trkpt>
      <trkpt lat="45.19769" lon="5.72582">
        <ele>428.60000610352</ele>
        <time>2021-10-17T06:11:39.000Z</time>
      </trkpt>
      <trkpt lat="45.19769" lon="5.72578">
        <ele>428.39999389648</ele>
        <time>2021-10-17T06:11:40.000Z</time>
      </trkpt>
      <trkpt lat="45.19768" lon="5.72574">
        <ele>428</ele>
        <time>2021-10-17T06:11:41.000Z</time>
      </trkpt>
      <trkpt lat="45.19767" lon="5.72558">
        <ele>426.60000610352</ele>
        <time>2021-10-17T06:11:45.000Z</time>
      </trkpt>
      <trkpt lat="45.19765" lon="5.72547">
        <ele>425.60000610352</ele>
        <time>2021-10-17T06:11:48.000Z</time>
      </trkpt>
      <trkpt lat="45.19767" lon="5.72527">
        <ele>424.39999389648</ele>
        <time>2021-10-17T06:11:53.000Z</time>
      </trkpt>
      <trkpt lat="45.19771" lon="5.72511">
        <ele>423.20001220703</ele>
        <time>2021-10-17T06:11:57.000Z</time>
      </trkpt>
      <trkpt lat="45.19772" lon="5.72505">
        <ele>422.79998779297</ele>
        <time>2021-10-17T06:11:59.000Z</time>
      </trkpt>
      <trkpt lat="45.19772" lon="5.72504">
        <ele>422.60000610352</ele>
        <time>2021-10-17T06:12:00.000Z</time>
      </trkpt>
      <trkpt lat="45.19772" lon="5.72504">
        <ele>422.20001220703</ele>
        <time>2021-10-17T06:12:01.000Z</time>
      </trkpt>
      <trkpt lat="45.19768" lon="5.72507">
        <ele>421.79998779297</ele>
        <time>2021-10-17T06:12:03.000Z</time>
      </trkpt>
      <trkpt lat="45.19764" lon="5.72513">
        <ele>421</ele>
        <time>2021-10-17T06:12:05.000Z</time>
      </trkpt>
      <trkpt lat="45.19757" lon="5.72526">
        <ele>420</ele>
        <time>2021-10-17T06:12:09.000Z</time>
      </trkpt>
      <trkpt lat="45.19753" lon="5.72551">
        <ele>419</ele>
        <time>2021-10-17T06:12:16.000Z</time>
      </trkpt>
      <trkpt lat="45.19751" lon="5.72559">
        <ele>419</ele>
        <time>2021-10-17T06:12:19.000Z</time>
      </trkpt>
      <trkpt lat="45.19751" lon="5.72568">
        <ele>419</ele>
        <time>2021-10-17T06:12:22.000Z</time>
      </trkpt>
      <trkpt lat="45.19754" lon="5.72594">
        <ele>419</ele>
        <time>2021-10-17T06:12:30.000Z</time>
      </trkpt>
      <trkpt lat="45.1976" lon="5.72618">
        <ele>418.79998779297</ele>
        <time>2021-10-17T06:12:37.000Z</time>
      </trkpt>
      <trkpt lat="45.19765" lon="5.7264">
        <ele>418.79998779297</ele>
        <time>2021-10-17T06:12:43.000Z</time>
      </trkpt>
      <trkpt lat="45.19777" lon="5.72661">
        <ele>418.79998779297</ele>
        <time>2021-10-17T06:12:49.000Z</time>
      </trkpt>
      <trkpt lat="45.19779" lon="5.72664">
        <ele>418.60000610352</ele>
        <time>2021-10-17T06:12:50.000Z</time>
      </trkpt>
      <trkpt lat="45.19787" lon="5.72675">
        <ele>418.79998779297</ele>
        <time>2021-10-17T06:12:54.000Z</time>
      </trkpt>
      <trkpt lat="45.19791" lon="5.7268">
        <ele>418.79998779297</ele>
        <time>2021-10-17T06:12:56.000Z</time>
      </trkpt>
      <trkpt lat="45.19804" lon="5.72694">
        <ele>419.20001220703</ele>
        <time>2021-10-17T06:13:02.000Z</time>
      </trkpt>
      <trkpt lat="45.19808" lon="5.72697">
        <ele>419.20001220703</ele>
        <time>2021-10-17T06:13:04.000Z</time>
      </trkpt>
      <trkpt lat="45.1981" lon="5.72699">
        <ele>419.20001220703</ele>
        <time>2021-10-17T06:13:05.000Z</time>
      </trkpt>
      <trkpt lat="45.19819" lon="5.72709">
        <ele>419</ele>
        <time>2021-10-17T06:13:09.000Z</time>
      </trkpt>
      <trkpt lat="45.19832" lon="5.72726">
        <ele>419.39999389648</ele>
        <time>2021-10-17T06:13:16.000Z</time>
      </trkpt>
      <trkpt lat="45.19838" lon="5.7274">
        <ele>419.60000610352</ele>
        <time>2021-10-17T06:13:21.000Z</time>
      </trkpt>
      <trkpt lat="45.19841" lon="5.72744">
        <ele>419.60000610352</ele>
        <time>2021-10-17T06:13:23.000Z</time>
      </trkpt>
      <trkpt lat="45.19843" lon="5.72747">
        <ele>419.79998779297</ele>
        <time>2021-10-17T06:13:25.000Z</time>
      </trkpt>
      <trkpt lat="45.19863" lon="5.72733">
        <ele>416.60000610352</ele>
        <time>2021-10-17T06:13:38.000Z</time>
      </trkpt>
      <trkpt lat="45.19858" lon="5.72744">
        <ele>415.79998779297</ele>
        <time>2021-10-17T06:13:40.000Z</time>
      </trkpt>
      <trkpt lat="45.19857" lon="5.72749">
        <ele>415.60000610352</ele>
        <time>2021-10-17T06:13:41.000Z</time>
      </trkpt>
      <trkpt lat="45.19858" lon="5.72755">
        <ele>415.60000610352</ele>
        <time>2021-10-17T06:13:42.000Z</time>
      </trkpt>
      <trkpt lat="45.19859" lon="5.72764">
        <ele>414.79998779297</ele>
        <time>2021-10-17T06:13:45.000Z</time>
      </trkpt>
      <trkpt lat="45.19858" lon="5.72764">
        <ele>414.60000610352</ele>
        <time>2021-10-17T06:13:46.000Z</time>
      </trkpt>
      <trkpt lat="45.19858" lon="5.72764">
        <ele>414.20001220703</ele>
        <time>2021-10-17T06:13:47.000Z</time>
      </trkpt>
      <trkpt lat="45.19858" lon="5.72763">
        <ele>414</ele>
        <time>2021-10-17T06:13:48.000Z</time>
      </trkpt>
      <trkpt lat="45.19856" lon="5.72762">
        <ele>413.20001220703</ele>
        <time>2021-10-17T06:13:50.000Z</time>
      </trkpt>
      <trkpt lat="45.19855" lon="5.7276">
        <ele>411.79998779297</ele>
        <time>2021-10-17T06:13:52.000Z</time>
      </trkpt>
      <trkpt lat="45.19854" lon="5.7276">
        <ele>411.39999389648</ele>
        <time>2021-10-17T06:13:53.000Z</time>
      </trkpt>
      <trkpt lat="45.19853" lon="5.72761">
        <ele>411</ele>
        <time>2021-10-17T06:13:54.000Z</time>
      </trkpt>
      <trkpt lat="45.19853" lon="5.72763">
        <ele>410.60000610352</ele>
        <time>2021-10-17T06:13:55.000Z</time>
      </trkpt>
      <trkpt lat="45.19854" lon="5.72766">
        <ele>409.60000610352</ele>
        <time>2021-10-17T06:13:57.000Z</time>
      </trkpt>
      <trkpt lat="45.19856" lon="5.72787">
        <ele>395.60000610352</ele>
        <time>2021-10-17T06:14:28.000Z</time>
      </trkpt>
      <trkpt lat="45.19856" lon="5.72786">
        <ele>395.39999389648</ele>
        <time>2021-10-17T06:14:29.000Z</time>
      </trkpt>
      <trkpt lat="45.19854" lon="5.7279">
        <ele>394.39999389648</ele>
        <time>2021-10-17T06:14:32.000Z</time>
      </trkpt>
      <trkpt lat="45.19853" lon="5.72788">
        <ele>393.20001220703</ele>
        <time>2021-10-17T06:14:34.000Z</time>
      </trkpt>
      <trkpt lat="45.1985" lon="5.72781">
        <ele>392.79998779297</ele>
        <time>2021-10-17T06:14:35.000Z</time>
      </trkpt>
      <trkpt lat="45.1985" lon="5.72782">
        <ele>392.20001220703</ele>
        <time>2021-10-17T06:14:36.000Z</time>
      </trkpt>
      <trkpt lat="45.19852" lon="5.72783">
        <ele>391.20001220703</ele>
        <time>2021-10-17T06:14:38.000Z</time>
      </trkpt>
      <trkpt lat="45.19854" lon="5.72787">
        <ele>390.60000610352</ele>
        <time>2021-10-17T06:14:40.000Z</time>
      </trkpt>
      <trkpt lat="45.19855" lon="5.72792">
        <ele>390.20001220703</ele>
        <time>2021-10-17T06:14:42.000Z</time>
      </trkpt>
      <trkpt lat="45.19854" lon="5.72794">
        <ele>390</ele>
        <time>2021-10-17T06:14:43.000Z</time>
      </trkpt>
      <trkpt lat="45.19852" lon="5.72794">
        <ele>390</ele>
        <time>2021-10-17T06:14:44.000Z</time>
      </trkpt>
      <trkpt lat="45.1985" lon="5.72793">
        <ele>389.79998779297</ele>
        <time>2021-10-17T06:14:45.000Z</time>
      </trkpt>
      <trkpt lat="45.19842" lon="5.72785">
        <ele>388.79998779297</ele>
        <time>2021-10-17T06:14:48.000Z</time>
      </trkpt>
      <trkpt lat="45.1984" lon="5.72783">
        <ele>388.60000610352</ele>
        <time>2021-10-17T06:14:49.000Z</time>
      </trkpt>
      <trkpt lat="45.19836" lon="5.72777">
        <ele>387.79998779297</ele>
        <time>2021-10-17T06:14:51.000Z</time>
      </trkpt>
      <trkpt lat="45.19826" lon="5.72768">
        <ele>386.79998779297</ele>
        <time>2021-10-17T06:14:55.000Z</time>
      </trkpt>
      <trkpt lat="45.19813" lon="5.72756">
        <ele>385.60000610352</ele>
        <time>2021-10-17T06:15:01.000Z</time>
      </trkpt>
      <trkpt lat="45.19811" lon="5.72754">
        <ele>385.39999389648</ele>
        <time>2021-10-17T06:15:02.000Z</time>
      </trkpt>
      <trkpt lat="45.19804" lon="5.72745">
        <ele>384.39999389648</ele>
        <time>2021-10-17T06:15:06.000Z</time>
      </trkpt>
      <trkpt lat="45.19797" lon="5.72741">
        <ele>383.79998779297</ele>
        <time>2021-10-17T06:15:09.000Z</time>
      </trkpt>
      <trkpt lat="45.19794" lon="5.72739">
        <ele>383.20001220703</ele>
        <time>2021-10-17T06:15:11.000Z</time>
      </trkpt>
      <trkpt lat="45.19794" lon="5.7274">
        <ele>383</ele>
        <time>2021-10-17T06:15:12.000Z</time>
      </trkpt>
      <trkpt lat="45.19795" lon="5.72744">
        <ele>382.20001220703</ele>
        <time>2021-10-17T06:15:14.000Z</time>
      </trkpt>
      <trkpt lat="45.19799" lon="5.72748">
        <ele>381.79998779297</ele>
        <time>2021-10-17T06:15:16.000Z</time>
      </trkpt>
      <trkpt lat="45.19807" lon="5.72757">
        <ele>381</ele>
        <time>2021-10-17T06:15:20.000Z</time>
      </trkpt>
      <trkpt lat="45.19814" lon="5.72766">
        <ele>379.79998779297</ele>
        <time>2021-10-17T06:15:24.000Z</time>
      </trkpt>
      <trkpt lat="45.19818" lon="5.72773">
        <ele>378.60000610352</ele>
        <time>2021-10-17T06:15:27.000Z</time>
      </trkpt>
      <trkpt lat="45.19823" lon="5.7278">
        <ele>377.60000610352</ele>
        <time>2021-10-17T06:15:30.000Z</time>
      </trkpt>
      <trkpt lat="45.19824" lon="5.72783">
        <ele>377.39999389648</ele>
        <time>2021-10-17T06:15:31.000Z</time>
      </trkpt>
      <trkpt lat="45.19828" lon="5.72788">
        <ele>376.60000610352</ele>
        <time>2021-10-17T06:15:33.000Z</time>
      </trkpt>
      <trkpt lat="45.1983" lon="5.7279">
        <ele>376.39999389648</ele>
        <time>2021-10-17T06:15:34.000Z</time>
      </trkpt>
      <trkpt lat="45.19833" lon="5.72792">
        <ele>376</ele>
        <time>2021-10-17T06:15:35.000Z</time>
      </trkpt>
      <trkpt lat="45.19836" lon="5.72794">
        <ele>375.60000610352</ele>
        <time>2021-10-17T06:15:36.000Z</time>
      </trkpt>
      <trkpt lat="45.19838" lon="5.72796">
        <ele>375.20001220703</ele>
        <time>2021-10-17T06:15:37.000Z</time>
      </trkpt>
      <trkpt lat="45.19843" lon="5.72802">
        <ele>374.20001220703</ele>
        <time>2021-10-17T06:15:40.000Z</time>
      </trkpt>
      <trkpt lat="45.19844" lon="5.72803">
        <ele>373.79998779297</ele>
        <time>2021-10-17T06:15:41.000Z</time>
      </trkpt>
      <trkpt lat="45.19844" lon="5.72806">
        <ele>373.39999389648</ele>
        <time>2021-10-17T06:15:42.000Z</time>
      </trkpt>
      <trkpt lat="45.19843" lon="5.72807">
        <ele>373.20001220703</ele>
        <time>2021-10-17T06:15:43.000Z</time>
      </trkpt>
      <trkpt lat="45.19839" lon="5.72807">
        <ele>372.39999389648</ele>
        <time>2021-10-17T06:15:45.000Z</time>
      </trkpt>
      <trkpt lat="45.19838" lon="5.72806">
        <ele>372</ele>
        <time>2021-10-17T06:15:46.000Z</time>
      </trkpt>
      <trkpt lat="45.19828" lon="5.728">
        <ele>371</ele>
        <time>2021-10-17T06:15:50.000Z</time>
      </trkpt>
      <trkpt lat="45.19822" lon="5.72798">
        <ele>370.39999389648</ele>
        <time>2021-10-17T06:15:52.000Z</time>
      </trkpt>
      <trkpt lat="45.19816" lon="5.72793">
        <ele>369.60000610352</ele>
        <time>2021-10-17T06:15:54.000Z</time>
      </trkpt>
      <trkpt lat="45.19806" lon="5.72788">
        <ele>368.39999389648</ele>
        <time>2021-10-17T06:15:58.000Z</time>
      </trkpt>
      <trkpt lat="45.19804" lon="5.72787">
        <ele>368.20001220703</ele>
        <time>2021-10-17T06:15:59.000Z</time>
      </trkpt>
      <trkpt lat="45.198" lon="5.72783">
        <ele>367.20001220703</ele>
        <time>2021-10-17T06:16:02.000Z</time>
      </trkpt>
      <trkpt lat="45.19799" lon="5.72784">
        <ele>367</ele>
        <time>2021-10-17T06:16:03.000Z</time>
      </trkpt>
      <trkpt lat="45.19803" lon="5.72788">
        <ele>366</ele>
        <time>2021-10-17T06:16:06.000Z</time>
      </trkpt>
      <trkpt lat="45.19805" lon="5.72791">
        <ele>365.79998779297</ele>
        <time>2021-10-17T06:16:07.000Z</time>
      </trkpt>
      <trkpt lat="45.19818" lon="5.72799">
        <ele>365</ele>
        <time>2021-10-17T06:16:12.000Z</time>
      </trkpt>
      <trkpt lat="45.19825" lon="5.72803">
        <ele>363.79998779297</ele>
        <time>2021-10-17T06:16:15.000Z</time>
      </trkpt>
      <trkpt lat="45.19831" lon="5.72808">
        <ele>362.79998779297</ele>
        <time>2021-10-17T06:16:18.000Z</time>
      </trkpt>
      <trkpt lat="45.19835" lon="5.72814">
        <ele>361.60000610352</ele>
        <time>2021-10-17T06:16:21.000Z</time>
      </trkpt>
      <trkpt lat="45.19839" lon="5.72818">
        <ele>361</ele>
        <time>2021-10-17T06:16:23.000Z</time>
      </trkpt>
      <trkpt lat="45.19841" lon="5.7282">
        <ele>360.60000610352</ele>
        <time>2021-10-17T06:16:24.000Z</time>
      </trkpt>
      <trkpt lat="45.19845" lon="5.72828">
        <ele>359.39999389648</ele>
        <time>2021-10-17T06:16:28.000Z</time>
      </trkpt>
      <trkpt lat="45.19844" lon="5.72829">
        <ele>359.20001220703</ele>
        <time>2021-10-17T06:16:29.000Z</time>
      </trkpt>
      <trkpt lat="45.19842" lon="5.72829">
        <ele>359</ele>
        <time>2021-10-17T06:16:30.000Z</time>
      </trkpt>
      <trkpt lat="45.19835" lon="5.72826">
        <ele>358.20001220703</ele>
        <time>2021-10-17T06:16:33.000Z</time>
      </trkpt>
      <trkpt lat="45.19832" lon="5.72825">
        <ele>357.79998779297</ele>
        <time>2021-10-17T06:16:34.000Z</time>
      </trkpt>
      <trkpt lat="45.19824" lon="5.7282">
        <ele>357</ele>
        <time>2021-10-17T06:16:38.000Z</time>
      </trkpt>
      <trkpt lat="45.19818" lon="5.72817">
        <ele>356</ele>
        <time>2021-10-17T06:16:41.000Z</time>
      </trkpt>
      <trkpt lat="45.19818" lon="5.72818">
        <ele>355.79998779297</ele>
        <time>2021-10-17T06:16:42.000Z</time>
      </trkpt>
      <trkpt lat="45.19818" lon="5.72819">
        <ele>355.39999389648</ele>
        <time>2021-10-17T06:16:43.000Z</time>
      </trkpt>
      <trkpt lat="45.19821" lon="5.7282">
        <ele>355</ele>
        <time>2021-10-17T06:16:45.000Z</time>
      </trkpt>
      <trkpt lat="45.19827" lon="5.72822">
        <ele>354.60000610352</ele>
        <time>2021-10-17T06:16:47.000Z</time>
      </trkpt>
      <trkpt lat="45.19836" lon="5.72826">
        <ele>353.39999389648</ele>
        <time>2021-10-17T06:16:50.000Z</time>
      </trkpt>
      <trkpt lat="45.19839" lon="5.7283">
        <ele>353</ele>
        <time>2021-10-17T06:16:52.000Z</time>
      </trkpt>
      <trkpt lat="45.19838" lon="5.72834">
        <ele>352.39999389648</ele>
        <time>2021-10-17T06:16:54.000Z</time>
      </trkpt>
      <trkpt lat="45.19836" lon="5.72834">
        <ele>352.20001220703</ele>
        <time>2021-10-17T06:16:55.000Z</time>
      </trkpt>
      <trkpt lat="45.19824" lon="5.7283">
        <ele>351.20001220703</ele>
        <time>2021-10-17T06:16:59.000Z</time>
      </trkpt>
      <trkpt lat="45.19821" lon="5.72829">
        <ele>351</ele>
        <time>2021-10-17T06:17:00.000Z</time>
      </trkpt>
      <trkpt lat="45.19812" lon="5.72824">
        <ele>349.79998779297</ele>
        <time>2021-10-17T06:17:04.000Z</time>
      </trkpt>
      <trkpt lat="45.19807" lon="5.72821">
        <ele>349.20001220703</ele>
        <time>2021-10-17T06:17:06.000Z</time>
      </trkpt>
      <trkpt lat="45.19802" lon="5.72817">
        <ele>348.39999389648</ele>
        <time>2021-10-17T06:17:08.000Z</time>
      </trkpt>
      <trkpt lat="45.19794" lon="5.72814">
        <ele>347.20001220703</ele>
        <time>2021-10-17T06:17:12.000Z</time>
      </trkpt>
      <trkpt lat="45.19795" lon="5.72816">
        <ele>346.39999389648</ele>
        <time>2021-10-17T06:17:15.000Z</time>
      </trkpt>
      <trkpt lat="45.19797" lon="5.72817">
        <ele>346.20001220703</ele>
        <time>2021-10-17T06:17:16.000Z</time>
      </trkpt>
      <trkpt lat="45.19805" lon="5.72822">
        <ele>346</ele>
        <time>2021-10-17T06:17:19.000Z</time>
      </trkpt>
      <trkpt lat="45.19811" lon="5.72828">
        <ele>345.39999389648</ele>
        <time>2021-10-17T06:17:21.000Z</time>
      </trkpt>
      <trkpt lat="45.19817" lon="5.72833">
        <ele>344.79998779297</ele>
        <time>2021-10-17T06:17:24.000Z</time>
      </trkpt>
      <trkpt lat="45.19824" lon="5.7284">
        <ele>344.20001220703</ele>
        <time>2021-10-17T06:17:27.000Z</time>
      </trkpt>
      <trkpt lat="45.19825" lon="5.72842">
        <ele>344</ele>
        <time>2021-10-17T06:17:28.000Z</time>
      </trkpt>
      <trkpt lat="45.19825" lon="5.72843">
        <ele>343.79998779297</ele>
        <time>2021-10-17T06:17:29.000Z</time>
      </trkpt>
      <trkpt lat="45.19823" lon="5.72843">
        <ele>343.60000610352</ele>
        <time>2021-10-17T06:17:30.000Z</time>
      </trkpt>
      <trkpt lat="45.19813" lon="5.72841">
        <ele>342.60000610352</ele>
        <time>2021-10-17T06:17:34.000Z</time>
      </trkpt>
      <trkpt lat="45.1981" lon="5.72839">
        <ele>342.20001220703</ele>
        <time>2021-10-17T06:17:35.000Z</time>
      </trkpt>
      <trkpt lat="45.19803" lon="5.72835">
        <ele>341.39999389648</ele>
        <time>2021-10-17T06:17:38.000Z</time>
      </trkpt>
      <trkpt lat="45.19796" lon="5.72831">
        <ele>340.39999389648</ele>
        <time>2021-10-17T06:17:41.000Z</time>
      </trkpt>
      <trkpt lat="45.19794" lon="5.72829">
        <ele>340.20001220703</ele>
        <time>2021-10-17T06:17:42.000Z</time>
      </trkpt>
      <trkpt lat="45.19786" lon="5.72824">
        <ele>339.20001220703</ele>
        <time>2021-10-17T06:17:45.000Z</time>
      </trkpt>
      <trkpt lat="45.19782" lon="5.7282">
        <ele>338.60000610352</ele>
        <time>2021-10-17T06:17:47.000Z</time>
      </trkpt>
      <trkpt lat="45.19776" lon="5.72818">
        <ele>337.79998779297</ele>
        <time>2021-10-17T06:17:49.000Z</time>
      </trkpt>
      <trkpt lat="45.19769" lon="5.72815">
        <ele>336.60000610352</ele>
        <time>2021-10-17T06:17:52.000Z</time>
      </trkpt>
      <trkpt lat="45.19767" lon="5.72814">
        <ele>336.39999389648</ele>
        <time>2021-10-17T06:17:53.000Z</time>
      </trkpt>
      <trkpt lat="45.19761" lon="5.72812">
        <ele>335.60000610352</ele>
        <time>2021-10-17T06:17:55.000Z</time>
      </trkpt>
      <trkpt lat="45.19758" lon="5.7281">
        <ele>335</ele>
        <time>2021-10-17T06:17:57.000Z</time>
      </trkpt>
      <trkpt lat="45.19758" lon="5.7281">
        <ele>334.79998779297</ele>
        <time>2021-10-17T06:17:58.000Z</time>
      </trkpt>
      <trkpt lat="45.19759" lon="5.7281">
        <ele>334.20001220703</ele>
        <time>2021-10-17T06:17:59.000Z</time>
      </trkpt>
      <trkpt lat="45.19761" lon="5.72811">
        <ele>333.79998779297</ele>
        <time>2021-10-17T06:18:00.000Z</time>
      </trkpt>
      <trkpt lat="45.19766" lon="5.72817">
        <ele>333.39999389648</ele>
        <time>2021-10-17T06:18:03.000Z</time>
      </trkpt>
      <trkpt lat="45.19768" lon="5.72819">
        <ele>333</ele>
        <time>2021-10-17T06:18:04.000Z</time>
      </trkpt>
      <trkpt lat="45.1977" lon="5.72821">
        <ele>332.60000610352</ele>
        <time>2021-10-17T06:18:05.000Z</time>
      </trkpt>
      <trkpt lat="45.19775" lon="5.72829">
        <ele>331.60000610352</ele>
        <time>2021-10-17T06:18:08.000Z</time>
      </trkpt>
      <trkpt lat="45.1978" lon="5.72836">
        <ele>330.79998779297</ele>
        <time>2021-10-17T06:18:11.000Z</time>
      </trkpt>
      <trkpt lat="45.19782" lon="5.72838">
        <ele>330.39999389648</ele>
        <time>2021-10-17T06:18:12.000Z</time>
      </trkpt>
      <trkpt lat="45.19788" lon="5.72846">
        <ele>329.39999389648</ele>
        <time>2021-10-17T06:18:15.000Z</time>
      </trkpt>
      <trkpt lat="45.19796" lon="5.72855">
        <ele>328</ele>
        <time>2021-10-17T06:18:19.000Z</time>
      </trkpt>
      <trkpt lat="45.19798" lon="5.72857">
        <ele>327.79998779297</ele>
        <time>2021-10-17T06:18:20.000Z</time>
      </trkpt>
      <trkpt lat="45.19805" lon="5.72868">
        <ele>326.60000610352</ele>
        <time>2021-10-17T06:18:24.000Z</time>
      </trkpt>
      <trkpt lat="45.1981" lon="5.72874">
        <ele>325.39999389648</ele>
        <time>2021-10-17T06:18:27.000Z</time>
      </trkpt>
      <trkpt lat="45.19812" lon="5.72878">
        <ele>324.79998779297</ele>
        <time>2021-10-17T06:18:29.000Z</time>
      </trkpt>
      <trkpt lat="45.1981" lon="5.72879">
        <ele>324.20001220703</ele>
        <time>2021-10-17T06:18:30.000Z</time>
      </trkpt>
      <trkpt lat="45.19805" lon="5.72878">
        <ele>323.60000610352</ele>
        <time>2021-10-17T06:18:32.000Z</time>
      </trkpt>
      <trkpt lat="45.19797" lon="5.72876">
        <ele>322.79998779297</ele>
        <time>2021-10-17T06:18:35.000Z</time>
      </trkpt>
      <trkpt lat="45.1979" lon="5.72871">
        <ele>321.79998779297</ele>
        <time>2021-10-17T06:18:38.000Z</time>
      </trkpt>
      <trkpt lat="45.19787" lon="5.7287">
        <ele>321.39999389648</ele>
        <time>2021-10-17T06:18:39.000Z</time>
      </trkpt>
      <trkpt lat="45.19781" lon="5.72867">
        <ele>320.60000610352</ele>
        <time>2021-10-17T06:18:41.000Z</time>
      </trkpt>
      <trkpt lat="45.19769" lon="5.72861">
        <ele>319.39999389648</ele>
        <time>2021-10-17T06:18:45.000Z</time>
      </trkpt>
      <trkpt lat="45.19762" lon="5.72855">
        <ele>318.20001220703</ele>
        <time>2021-10-17T06:18:48.000Z</time>
      </trkpt>
      <trkpt lat="45.19756" lon="5.72851">
        <ele>317.39999389648</ele>
        <time>2021-10-17T06:18:50.000Z</time>
      </trkpt>
      <trkpt lat="45.19753" lon="5.72849">
        <ele>317</ele>
        <time>2021-10-17T06:18:51.000Z</time>
      </trkpt>
      <trkpt lat="45.19744" lon="5.72843">
        <ele>316</ele>
        <time>2021-10-17T06:18:55.000Z</time>
      </trkpt>
      <trkpt lat="45.19743" lon="5.72843">
        <ele>315.79998779297</ele>
        <time>2021-10-17T06:18:56.000Z</time>
      </trkpt>
      <trkpt lat="45.19745" lon="5.72848">
        <ele>314.79998779297</ele>
        <time>2021-10-17T06:18:59.000Z</time>
      </trkpt>
      <trkpt lat="45.19753" lon="5.72854">
        <ele>313.60000610352</ele>
        <time>2021-10-17T06:19:03.000Z</time>
      </trkpt>
      <trkpt lat="45.19761" lon="5.72861">
        <ele>312.39999389648</ele>
        <time>2021-10-17T06:19:06.000Z</time>
      </trkpt>
      <trkpt lat="45.19771" lon="5.7287">
        <ele>311.20001220703</ele>
        <time>2021-10-17T06:19:10.000Z</time>
      </trkpt>
      <trkpt lat="45.19775" lon="5.72874">
        <ele>310.60000610352</ele>
        <time>2021-10-17T06:19:12.000Z</time>
      </trkpt>
      <trkpt lat="45.19781" lon="5.72883">
        <ele>309.79998779297</ele>
        <time>2021-10-17T06:19:15.000Z</time>
      </trkpt>
      <trkpt lat="45.19788" lon="5.72893">
        <ele>308.79998779297</ele>
        <time>2021-10-17T06:19:19.000Z</time>
      </trkpt>
      <trkpt lat="45.19791" lon="5.729">
        <ele>307.60000610352</ele>
        <time>2021-10-17T06:19:22.000Z</time>
      </trkpt>
      <trkpt lat="45.19794" lon="5.72906">
        <ele>307</ele>
        <time>2021-10-17T06:19:24.000Z</time>
      </trkpt>
      <trkpt lat="45.19797" lon="5.72909">
        <ele>306.39999389648</ele>
        <time>2021-10-17T06:19:26.000Z</time>
      </trkpt>
      <trkpt lat="45.19801" lon="5.72913">
        <ele>306</ele>
        <time>2021-10-17T06:19:28.000Z</time>
      </trkpt>
      <trkpt lat="45.198" lon="5.72916">
        <ele>305.60000610352</ele>
        <time>2021-10-17T06:19:29.000Z</time>
      </trkpt>
      <trkpt lat="45.198" lon="5.72917">
        <ele>305</ele>
        <time>2021-10-17T06:19:30.000Z</time>
      </trkpt>
      <trkpt lat="45.19796" lon="5.72916">
        <ele>304.39999389648</ele>
        <time>2021-10-17T06:19:32.000Z</time>
      </trkpt>
      <trkpt lat="45.19793" lon="5.72917">
        <ele>304.20001220703</ele>
        <time>2021-10-17T06:19:33.000Z</time>
      </trkpt>
      <trkpt lat="45.1979" lon="5.72917">
        <ele>303.79998779297</ele>
        <time>2021-10-17T06:19:34.000Z</time>
      </trkpt>
      <trkpt lat="45.19781" lon="5.72913">
        <ele>302.60000610352</ele>
        <time>2021-10-17T06:19:38.000Z</time>
      </trkpt>
      <trkpt lat="45.19779" lon="5.72912">
        <ele>302.20001220703</ele>
        <time>2021-10-17T06:19:39.000Z</time>
      </trkpt>
      <trkpt lat="45.19771" lon="5.72909">
        <ele>301.39999389648</ele>
        <time>2021-10-17T06:19:42.000Z</time>
      </trkpt>
      <trkpt lat="45.19763" lon="5.72905">
        <ele>300.39999389648</ele>
        <time>2021-10-17T06:19:45.000Z</time>
      </trkpt>
      <trkpt lat="45.19759" lon="5.72902">
        <ele>299.79998779297</ele>
        <time>2021-10-17T06:19:47.000Z</time>
      </trkpt>
      <trkpt lat="45.19754" lon="5.729">
        <ele>299.20001220703</ele>
        <time>2021-10-17T06:19:49.000Z</time>
      </trkpt>
      <trkpt lat="45.19747" lon="5.72895">
        <ele>297.60000610352</ele>
        <time>2021-10-17T06:19:52.000Z</time>
      </trkpt>
      <trkpt lat="45.19742" lon="5.72892">
        <ele>297.20001220703</ele>
        <time>2021-10-17T06:19:54.000Z</time>
      </trkpt>
      <trkpt lat="45.19739" lon="5.7289">
        <ele>297</ele>
        <time>2021-10-17T06:19:55.000Z</time>
      </trkpt>
      <trkpt lat="45.19737" lon="5.72889">
        <ele>296.60000610352</ele>
        <time>2021-10-17T06:19:56.000Z</time>
      </trkpt>
      <trkpt lat="45.1973" lon="5.72883">
        <ele>295.39999389648</ele>
        <time>2021-10-17T06:19:59.000Z</time>
      </trkpt>
      <trkpt lat="45.19723" lon="5.72881">
        <ele>294.79998779297</ele>
        <time>2021-10-17T06:20:01.000Z</time>
      </trkpt>
      <trkpt lat="45.19716" lon="5.72878">
        <ele>294.20001220703</ele>
        <time>2021-10-17T06:20:03.000Z</time>
      </trkpt>
      <trkpt lat="45.19709" lon="5.72871">
        <ele>293</ele>
        <time>2021-10-17T06:20:06.000Z</time>
      </trkpt>
      <trkpt lat="45.19703" lon="5.72868">
        <ele>292.60000610352</ele>
        <time>2021-10-17T06:20:08.000Z</time>
      </trkpt>
      <trkpt lat="45.19699" lon="5.72863">
        <ele>292</ele>
        <time>2021-10-17T06:20:10.000Z</time>
      </trkpt>
      <trkpt lat="45.19692" lon="5.72858">
        <ele>290.79998779297</ele>
        <time>2021-10-17T06:20:14.000Z</time>
      </trkpt>
      <trkpt lat="45.19692" lon="5.72859">
        <ele>290.39999389648</ele>
        <time>2021-10-17T06:20:15.000Z</time>
      </trkpt>
      <trkpt lat="45.19692" lon="5.7286">
        <ele>290</ele>
        <time>2021-10-17T06:20:16.000Z</time>
      </trkpt>
      <trkpt lat="45.19692" lon="5.72862">
        <ele>289.79998779297</ele>
        <time>2021-10-17T06:20:17.000Z</time>
      </trkpt>
      <trkpt lat="45.19693" lon="5.72865">
        <ele>289.39999389648</ele>
        <time>2021-10-17T06:20:18.000Z</time>
      </trkpt>
      <trkpt lat="45.19699" lon="5.72871">
        <ele>288.60000610352</ele>
        <time>2021-10-17T06:20:21.000Z</time>
      </trkpt>
      <trkpt lat="45.19709" lon="5.72881">
        <ele>287.39999389648</ele>
        <time>2021-10-17T06:20:25.000Z</time>
      </trkpt>
      <trkpt lat="45.19717" lon="5.72892">
        <ele>286.39999389648</ele>
        <time>2021-10-17T06:20:29.000Z</time>
      </trkpt>
      <trkpt lat="45.19719" lon="5.72895">
        <ele>285.79998779297</ele>
        <time>2021-10-17T06:20:30.000Z</time>
      </trkpt>
      <trkpt lat="45.19721" lon="5.72898">
        <ele>285.20001220703</ele>
        <time>2021-10-17T06:20:31.000Z</time>
      </trkpt>
      <trkpt lat="45.19729" lon="5.72914">
        <ele>284</ele>
        <time>2021-10-17T06:20:36.000Z</time>
      </trkpt>
      <trkpt lat="45.19737" lon="5.72932">
        <ele>282.79998779297</ele>
        <time>2021-10-17T06:20:41.000Z</time>
      </trkpt>
      <trkpt lat="45.19738" lon="5.72935">
        <ele>282.39999389648</ele>
        <time>2021-10-17T06:20:42.000Z</time>
      </trkpt>
      <trkpt lat="45.19743" lon="5.72944">
        <ele>281.60000610352</ele>
        <time>2021-10-17T06:20:45.000Z</time>
      </trkpt>
      <trkpt lat="45.19749" lon="5.72954">
        <ele>280.39999389648</ele>
        <time>2021-10-17T06:20:48.000Z</time>
      </trkpt>
      <trkpt lat="45.19752" lon="5.7296">
        <ele>280</ele>
        <time>2021-10-17T06:20:50.000Z</time>
      </trkpt>
      <trkpt lat="45.19754" lon="5.72962">
        <ele>279.39999389648</ele>
        <time>2021-10-17T06:20:51.000Z</time>
      </trkpt>
      <trkpt lat="45.1976" lon="5.72969">
        <ele>278.39999389648</ele>
        <time>2021-10-17T06:20:54.000Z</time>
      </trkpt>
      <trkpt lat="45.19764" lon="5.72973">
        <ele>278</ele>
        <time>2021-10-17T06:20:56.000Z</time>
      </trkpt>
      <trkpt lat="45.19767" lon="5.72979">
        <ele>277.20001220703</ele>
        <time>2021-10-17T06:20:58.000Z</time>
      </trkpt>
      <trkpt lat="45.19773" lon="5.72986">
        <ele>276.20001220703</ele>
        <time>2021-10-17T06:21:01.000Z</time>
      </trkpt>
      <trkpt lat="45.19775" lon="5.72989">
        <ele>276</ele>
        <time>2021-10-17T06:21:02.000Z</time>
      </trkpt>
      <trkpt lat="45.19777" lon="5.72991">
        <ele>275.60000610352</ele>
        <time>2021-10-17T06:21:03.000Z</time>
      </trkpt>
      <trkpt lat="45.19782" lon="5.72995">
        <ele>275</ele>
        <time>2021-10-17T06:21:05.000Z</time>
      </trkpt>
      <trkpt lat="45.19792" lon="5.73003">
        <ele>274</ele>
        <time>2021-10-17T06:21:09.000Z</time>
      </trkpt>
      <trkpt lat="45.19794" lon="5.73005">
        <ele>273.60000610352</ele>
        <time>2021-10-17T06:21:10.000Z</time>
      </trkpt>
      <trkpt lat="45.19799" lon="5.7301">
        <ele>272.79998779297</ele>
        <time>2021-10-17T06:21:13.000Z</time>
      </trkpt>
      <trkpt lat="45.19804" lon="5.73014">
        <ele>272</ele>
        <time>2021-10-17T06:21:16.000Z</time>
      </trkpt>
      <trkpt lat="45.19806" lon="5.73015">
        <ele>271.60000610352</ele>
        <time>2021-10-17T06:21:17.000Z</time>
      </trkpt>
      <trkpt lat="45.19807" lon="5.73018">
        <ele>271.39999389648</ele>
        <time>2021-10-17T06:21:18.000Z</time>
      </trkpt>
      <trkpt lat="45.19804" lon="5.7302">
        <ele>270.60000610352</ele>
        <time>2021-10-17T06:21:21.000Z</time>
      </trkpt>
      <trkpt lat="45.19795" lon="5.73019">
        <ele>269.39999389648</ele>
        <time>2021-10-17T06:21:25.000Z</time>
      </trkpt>
      <trkpt lat="45.1979" lon="5.73016">
        <ele>268.79998779297</ele>
        <time>2021-10-17T06:21:27.000Z</time>
      </trkpt>
      <trkpt lat="45.19784" lon="5.73014">
        <ele>268.39999389648</ele>
        <time>2021-10-17T06:21:29.000Z</time>
      </trkpt>
      <trkpt lat="45.19776" lon="5.73011">
        <ele>267.39999389648</ele>
        <time>2021-10-17T06:21:32.000Z</time>
      </trkpt>
      <trkpt lat="45.19771" lon="5.73009">
        <ele>266.79998779297</ele>
        <time>2021-10-17T06:21:34.000Z</time>
      </trkpt>
      <trkpt lat="45.19768" lon="5.73008">
        <ele>266</ele>
        <time>2021-10-17T06:21:36.000Z</time>
      </trkpt>
      <trkpt lat="45.19767" lon="5.7301">
        <ele>265.60000610352</ele>
        <time>2021-10-17T06:21:37.000Z</time>
      </trkpt>
      <trkpt lat="45.19768" lon="5.73012">
        <ele>265.39999389648</ele>
        <time>2021-10-17T06:21:38.000Z</time>
      </trkpt>
      <trkpt lat="45.19771" lon="5.73015">
        <ele>264.79998779297</ele>
        <time>2021-10-17T06:21:40.000Z</time>
      </trkpt>
      <trkpt lat="45.19776" lon="5.73017">
        <ele>264</ele>
        <time>2021-10-17T06:21:42.000Z</time>
      </trkpt>
      <trkpt lat="45.19778" lon="5.73019">
        <ele>263.60000610352</ele>
        <time>2021-10-17T06:21:43.000Z</time>
      </trkpt>
      <trkpt lat="45.19787" lon="5.73025">
        <ele>262.60000610352</ele>
        <time>2021-10-17T06:21:47.000Z</time>
      </trkpt>
      <trkpt lat="45.19797" lon="5.73032">
        <ele>261.60000610352</ele>
        <time>2021-10-17T06:21:51.000Z</time>
      </trkpt>
      <trkpt lat="45.19799" lon="5.73034">
        <ele>261.39999389648</ele>
        <time>2021-10-17T06:21:52.000Z</time>
      </trkpt>
      <trkpt lat="45.19804" lon="5.73043">
        <ele>260.39999389648</ele>
        <time>2021-10-17T06:21:56.000Z</time>
      </trkpt>
      <trkpt lat="45.19802" lon="5.73043">
        <ele>260.20001220703</ele>
        <time>2021-10-17T06:21:57.000Z</time>
      </trkpt>
      <trkpt lat="45.19798" lon="5.73043">
        <ele>259.39999389648</ele>
        <time>2021-10-17T06:21:59.000Z</time>
      </trkpt>
      <trkpt lat="45.19791" lon="5.73041">
        <ele>258.39999389648</ele>
        <time>2021-10-17T06:22:02.000Z</time>
      </trkpt>
      <trkpt lat="45.1978" lon="5.73039">
        <ele>257</ele>
        <time>2021-10-17T06:22:06.000Z</time>
      </trkpt>
      <trkpt lat="45.19775" lon="5.73038">
        <ele>256.39999389648</ele>
        <time>2021-10-17T06:22:08.000Z</time>
      </trkpt>
      <trkpt lat="45.1977" lon="5.73036">
        <ele>255.39999389648</ele>
        <time>2021-10-17T06:22:10.000Z</time>
      </trkpt>
      <trkpt lat="45.19765" lon="5.73034">
        <ele>254.80000305176</ele>
        <time>2021-10-17T06:22:12.000Z</time>
      </trkpt>
      <trkpt lat="45.1976" lon="5.73033">
        <ele>254.19999694824</ele>
        <time>2021-10-17T06:22:14.000Z</time>
      </trkpt>
      <trkpt lat="45.19756" lon="5.73035">
        <ele>253.19999694824</ele>
        <time>2021-10-17T06:22:18.000Z</time>
      </trkpt>
      <trkpt lat="45.19758" lon="5.73036">
        <ele>253</ele>
        <time>2021-10-17T06:22:19.000Z</time>
      </trkpt>
      <trkpt lat="45.19763" lon="5.7304">
        <ele>252</ele>
        <time>2021-10-17T06:22:22.000Z</time>
      </trkpt>
      <trkpt lat="45.19765" lon="5.73042">
        <ele>251.80000305176</ele>
        <time>2021-10-17T06:22:23.000Z</time>
      </trkpt>
      <trkpt lat="45.19773" lon="5.73048">
        <ele>250.60000610352</ele>
        <time>2021-10-17T06:22:27.000Z</time>
      </trkpt>
      <trkpt lat="45.19775" lon="5.73049">
        <ele>250.19999694824</ele>
        <time>2021-10-17T06:22:28.000Z</time>
      </trkpt>
      <trkpt lat="45.19781" lon="5.7305">
        <ele>249.60000610352</ele>
        <time>2021-10-17T06:22:30.000Z</time>
      </trkpt>
      <trkpt lat="45.1979" lon="5.73054">
        <ele>248.80000305176</ele>
        <time>2021-10-17T06:22:33.000Z</time>
      </trkpt>
      <trkpt lat="45.19794" lon="5.73056">
        <ele>248.19999694824</ele>
        <time>2021-10-17T06:22:35.000Z</time>
      </trkpt>
      <trkpt lat="45.19797" lon="5.7306">
        <ele>247.39999389648</ele>
        <time>2021-10-17T06:22:37.000Z</time>
      </trkpt>
      <trkpt lat="45.19796" lon="5.73062">
        <ele>247.19999694824</ele>
        <time>2021-10-17T06:22:38.000Z</time>
      </trkpt>
      <trkpt lat="45.19787" lon="5.73065">
        <ele>246</ele>
        <time>2021-10-17T06:22:42.000Z</time>
      </trkpt>
      <trkpt lat="45.19784" lon="5.73065">
        <ele>245.80000305176</ele>
        <time>2021-10-17T06:22:43.000Z</time>
      </trkpt>
      <trkpt lat="45.19779" lon="5.73066">
        <ele>245</ele>
        <time>2021-10-17T06:22:45.000Z</time>
      </trkpt>
      <trkpt lat="45.1977" lon="5.73065">
        <ele>243.80000305176</ele>
        <time>2021-10-17T06:22:49.000Z</time>
      </trkpt>
      <trkpt lat="45.19768" lon="5.73064">
        <ele>243.39999389648</ele>
        <time>2021-10-17T06:22:50.000Z</time>
      </trkpt>
      <trkpt lat="45.19761" lon="5.7306">
        <ele>242.39999389648</ele>
        <time>2021-10-17T06:22:53.000Z</time>
      </trkpt>
      <trkpt lat="45.19754" lon="5.7306">
        <ele>241.19999694824</ele>
        <time>2021-10-17T06:22:57.000Z</time>
      </trkpt>
      <trkpt lat="45.19758" lon="5.73063">
        <ele>240.39999389648</ele>
        <time>2021-10-17T06:23:00.000Z</time>
      </trkpt>
      <trkpt lat="45.19762" lon="5.73064">
        <ele>240</ele>
        <time>2021-10-17T06:23:02.000Z</time>
      </trkpt>
      <trkpt lat="45.19765" lon="5.73067">
        <ele>239.39999389648</ele>
        <time>2021-10-17T06:23:04.000Z</time>
      </trkpt>
      <trkpt lat="45.19767" lon="5.73069">
        <ele>238.80000305176</ele>
        <time>2021-10-17T06:23:06.000Z</time>
      </trkpt>
      <trkpt lat="45.19774" lon="5.73075">
        <ele>237.80000305176</ele>
        <time>2021-10-17T06:23:10.000Z</time>
      </trkpt>
      <trkpt lat="45.19779" lon="5.73077">
        <ele>237.19999694824</ele>
        <time>2021-10-17T06:23:12.000Z</time>
      </trkpt>
      <trkpt lat="45.19781" lon="5.73078">
        <ele>236.80000305176</ele>
        <time>2021-10-17T06:23:13.000Z</time>
      </trkpt>
      <trkpt lat="45.19791" lon="5.73084">
        <ele>235.60000610352</ele>
        <time>2021-10-17T06:23:17.000Z</time>
      </trkpt>
      <trkpt lat="45.19798" lon="5.73088">
        <ele>234.60000610352</ele>
        <time>2021-10-17T06:23:20.000Z</time>
      </trkpt>
      <trkpt lat="45.198" lon="5.73092">
        <ele>234</ele>
        <time>2021-10-17T06:23:22.000Z</time>
      </trkpt>
      <trkpt lat="45.19799" lon="5.73095">
        <ele>233.80000305176</ele>
        <time>2021-10-17T06:23:23.000Z</time>
      </trkpt>
      <trkpt lat="45.19797" lon="5.73097">
        <ele>233.39999389648</ele>
        <time>2021-10-17T06:23:25.000Z</time>
      </trkpt>
      <trkpt lat="45.19792" lon="5.73096">
        <ele>233</ele>
        <time>2021-10-17T06:23:27.000Z</time>
      </trkpt>
      <trkpt lat="45.19788" lon="5.73095">
        <ele>232.39999389648</ele>
        <time>2021-10-17T06:23:29.000Z</time>
      </trkpt>
      <trkpt lat="45.19779" lon="5.73095">
        <ele>231.19999694824</ele>
        <time>2021-10-17T06:23:33.000Z</time>
      </trkpt>
      <trkpt lat="45.19769" lon="5.73093">
        <ele>229.80000305176</ele>
        <time>2021-10-17T06:23:37.000Z</time>
      </trkpt>
      <trkpt lat="45.1976" lon="5.73092">
        <ele>228.80000305176</ele>
        <time>2021-10-17T06:23:41.000Z</time>
      </trkpt>
      <trkpt lat="45.19759" lon="5.73092">
        <ele>228.60000610352</ele>
        <time>2021-10-17T06:23:42.000Z</time>
      </trkpt>
      <trkpt lat="45.19758" lon="5.73096">
        <ele>228</ele>
        <time>2021-10-17T06:23:44.000Z</time>
      </trkpt>
      <trkpt lat="45.19761" lon="5.73099">
        <ele>227.19999694824</ele>
        <time>2021-10-17T06:23:46.000Z</time>
      </trkpt>
      <trkpt lat="45.19767" lon="5.73101">
        <ele>226.80000305176</ele>
        <time>2021-10-17T06:23:48.000Z</time>
      </trkpt>
      <trkpt lat="45.19769" lon="5.73101">
        <ele>226.39999389648</ele>
        <time>2021-10-17T06:23:49.000Z</time>
      </trkpt>
      <trkpt lat="45.1977" lon="5.73102">
        <ele>226.19999694824</ele>
        <time>2021-10-17T06:23:50.000Z</time>
      </trkpt>
      <trkpt lat="45.19771" lon="5.73103">
        <ele>226</ele>
        <time>2021-10-17T06:23:51.000Z</time>
      </trkpt>
      <trkpt lat="45.19773" lon="5.73104">
        <ele>225.60000610352</ele>
        <time>2021-10-17T06:23:53.000Z</time>
      </trkpt>
      <trkpt lat="45.19805" lon="5.73115">
        <ele>223</ele>
        <time>2021-10-17T06:24:03.000Z</time>
      </trkpt>
      <trkpt lat="45.1981" lon="5.7312">
        <ele>222.39999389648</ele>
        <time>2021-10-17T06:24:05.000Z</time>
      </trkpt>
      <trkpt lat="45.19807" lon="5.73127">
        <ele>222</ele>
        <time>2021-10-17T06:24:07.000Z</time>
      </trkpt>
      <trkpt lat="45.198" lon="5.73135">
        <ele>221.19999694824</ele>
        <time>2021-10-17T06:24:09.000Z</time>
      </trkpt>
      <trkpt lat="45.19788" lon="5.73144">
        <ele>220.19999694824</ele>
        <time>2021-10-17T06:24:13.000Z</time>
      </trkpt>
      <trkpt lat="45.1978" lon="5.73149">
        <ele>219</ele>
        <time>2021-10-17T06:24:16.000Z</time>
      </trkpt>
      <trkpt lat="45.19777" lon="5.73154">
        <ele>218.19999694824</ele>
        <time>2021-10-17T06:24:18.000Z</time>
      </trkpt>
      <trkpt lat="45.19774" lon="5.73158">
        <ele>217.80000305176</ele>
        <time>2021-10-17T06:24:19.000Z</time>
      </trkpt>
      <trkpt lat="45.1977" lon="5.7317">
        <ele>216.80000305176</ele>
        <time>2021-10-17T06:24:22.000Z</time>
      </trkpt>
      <trkpt lat="45.1977" lon="5.73174">
        <ele>216.19999694824</ele>
        <time>2021-10-17T06:24:23.000Z</time>
      </trkpt>
      <trkpt lat="45.1977" lon="5.73178">
        <ele>216</ele>
        <time>2021-10-17T06:24:24.000Z</time>
      </trkpt>
      <trkpt lat="45.1977" lon="5.73181">
        <ele>215.39999389648</ele>
        <time>2021-10-17T06:24:25.000Z</time>
      </trkpt>
      <trkpt lat="45.1977" lon="5.73182">
        <ele>214.80000305176</ele>
        <time>2021-10-17T06:24:26.000Z</time>
      </trkpt>
      <trkpt lat="45.19771" lon="5.73184">
        <ele>214.39999389648</ele>
        <time>2021-10-17T06:24:28.000Z</time>
      </trkpt>
      <trkpt lat="45.19771" lon="5.73185">
        <ele>214.39999389648</ele>
        <time>2021-10-17T06:24:29.000Z</time>
      </trkpt>
      <trkpt lat="45.19772" lon="5.73196">
        <ele>214</ele>
        <time>2021-10-17T06:24:33.000Z</time>
      </trkpt>
      <trkpt lat="45.19776" lon="5.73205">
        <ele>214.19999694824</ele>
        <time>2021-10-17T06:24:38.000Z</time>
      </trkpt>
      <trkpt lat="45.19778" lon="5.73221">
        <ele>214.39999389648</ele>
        <time>2021-10-17T06:24:43.000Z</time>
      </trkpt>
      <trkpt lat="45.19777" lon="5.7323">
        <ele>214.39999389648</ele>
        <time>2021-10-17T06:24:46.000Z</time>
      </trkpt>
      <trkpt lat="45.19774" lon="5.73234">
        <ele>214.39999389648</ele>
        <time>2021-10-17T06:24:49.000Z</time>
      </trkpt>
      <trkpt lat="45.19773" lon="5.73236">
        <ele>214.39999389648</ele>
        <time>2021-10-17T06:24:50.000Z</time>
      </trkpt>
      <trkpt lat="45.19773" lon="5.7324">
        <ele>214.39999389648</ele>
        <time>2021-10-17T06:24:51.000Z</time>
      </trkpt>
      <trkpt lat="45.19771" lon="5.73253">
        <ele>214.39999389648</ele>
        <time>2021-10-17T06:24:56.000Z</time>
      </trkpt>
      <trkpt lat="45.19765" lon="5.73259">
        <ele>214.60000610352</ele>
        <time>2021-10-17T06:25:01.000Z</time>
      </trkpt>
      <trkpt lat="45.19761" lon="5.73261">
        <ele>215</ele>
        <time>2021-10-17T06:25:03.000Z</time>
      </trkpt>
      <trkpt lat="45.19758" lon="5.73265">
        <ele>215.39999389648</ele>
        <time>2021-10-17T06:25:05.000Z</time>
      </trkpt>
      <trkpt lat="45.19755" lon="5.73276">
        <ele>215.60000610352</ele>
        <time>2021-10-17T06:25:08.000Z</time>
      </trkpt>
      <trkpt lat="45.19752" lon="5.73289">
        <ele>216</ele>
        <time>2021-10-17T06:25:12.000Z</time>
      </trkpt>
      <trkpt lat="45.19748" lon="5.73305">
        <ele>216.19999694824</ele>
        <time>2021-10-17T06:25:16.000Z</time>
      </trkpt>
      <trkpt lat="45.19741" lon="5.7333">
        <ele>216.19999694824</ele>
        <time>2021-10-17T06:25:23.000Z</time>
      </trkpt>
      <trkpt lat="45.1974" lon="5.73334">
        <ele>216.19999694824</ele>
        <time>2021-10-17T06:25:24.000Z</time>
      </trkpt>
      <trkpt lat="45.19735" lon="5.73359">
        <ele>215.60000610352</ele>
        <time>2021-10-17T06:25:31.000Z</time>
      </trkpt>
      <trkpt lat="45.19734" lon="5.73363">
        <ele>215.60000610352</ele>
        <time>2021-10-17T06:25:32.000Z</time>
      </trkpt>
      <trkpt lat="45.19726" lon="5.73387">
        <ele>214.80000305176</ele>
        <time>2021-10-17T06:25:38.000Z</time>
      </trkpt>
      <trkpt lat="45.19718" lon="5.73399">
        <ele>214.19999694824</ele>
        <time>2021-10-17T06:25:42.000Z</time>
      </trkpt>
      <trkpt lat="45.19716" lon="5.73403">
        <ele>214.19999694824</ele>
        <time>2021-10-17T06:25:43.000Z</time>
      </trkpt>
      <trkpt lat="45.19705" lon="5.73419">
        <ele>213.19999694824</ele>
        <time>2021-10-17T06:25:49.000Z</time>
      </trkpt>
      <trkpt lat="45.19688" lon="5.73426">
        <ele>212.60000610352</ele>
        <time>2021-10-17T06:25:55.000Z</time>
      </trkpt>
      <trkpt lat="45.19674" lon="5.73438">
        <ele>212.39999389648</ele>
        <time>2021-10-17T06:26:01.000Z</time>
      </trkpt>
      <trkpt lat="45.19664" lon="5.73443">
        <ele>212.39999389648</ele>
        <time>2021-10-17T06:26:05.000Z</time>
      </trkpt>
      <trkpt lat="45.19652" lon="5.73448">
        <ele>212.39999389648</ele>
        <time>2021-10-17T06:26:10.000Z</time>
      </trkpt>
      <trkpt lat="45.19645" lon="5.73452">
        <ele>212.39999389648</ele>
        <time>2021-10-17T06:26:13.000Z</time>
      </trkpt>
      <trkpt lat="45.19639" lon="5.73454">
        <ele>212.39999389648</ele>
        <time>2021-10-17T06:26:15.000Z</time>
      </trkpt>
      <trkpt lat="45.19623" lon="5.73458">
        <ele>212.60000610352</ele>
        <time>2021-10-17T06:26:21.000Z</time>
      </trkpt>
      <trkpt lat="45.19609" lon="5.7347">
        <ele>212.80000305176</ele>
        <time>2021-10-17T06:26:27.000Z</time>
      </trkpt>
      <trkpt lat="45.19607" lon="5.73475">
        <ele>212.80000305176</ele>
        <time>2021-10-17T06:26:28.000Z</time>
      </trkpt>
      <trkpt lat="45.19605" lon="5.73484">
        <ele>212.60000610352</ele>
        <time>2021-10-17T06:26:30.000Z</time>
      </trkpt>
      <trkpt lat="45.19598" lon="5.73489">
        <ele>212.80000305176</ele>
        <time>2021-10-17T06:26:33.000Z</time>
      </trkpt>
      <trkpt lat="45.19578" lon="5.73496">
        <ele>213</ele>
        <time>2021-10-17T06:26:40.000Z</time>
      </trkpt>
      <trkpt lat="45.19558" lon="5.735">
        <ele>213.19999694824</ele>
        <time>2021-10-17T06:26:47.000Z</time>
      </trkpt>
      <trkpt lat="45.19552" lon="5.73501">
        <ele>213.39999389648</ele>
        <time>2021-10-17T06:26:49.000Z</time>
      </trkpt>
      <trkpt lat="45.19538" lon="5.73506">
        <ele>213.60000610352</ele>
        <time>2021-10-17T06:26:54.000Z</time>
      </trkpt>
      <trkpt lat="45.19526" lon="5.7351">
        <ele>213.60000610352</ele>
        <time>2021-10-17T06:26:59.000Z</time>
      </trkpt>
      <trkpt lat="45.19518" lon="5.73514">
        <ele>213.60000610352</ele>
        <time>2021-10-17T06:27:02.000Z</time>
      </trkpt>
      <trkpt lat="45.19499" lon="5.73522">
        <ele>213.80000305176</ele>
        <time>2021-10-17T06:27:09.000Z</time>
      </trkpt>
      <trkpt lat="45.19492" lon="5.73525">
        <ele>213.60000610352</ele>
        <time>2021-10-17T06:27:12.000Z</time>
      </trkpt>
      <trkpt lat="45.19481" lon="5.73529">
        <ele>214</ele>
        <time>2021-10-17T06:27:17.000Z</time>
      </trkpt>
      <trkpt lat="45.19466" lon="5.73541">
        <ele>214.19999694824</ele>
        <time>2021-10-17T06:27:23.000Z</time>
      </trkpt>
      <trkpt lat="45.19464" lon="5.73542">
        <ele>214.19999694824</ele>
        <time>2021-10-17T06:27:24.000Z</time>
      </trkpt>
      <trkpt lat="45.19449" lon="5.73554">
        <ele>214.39999389648</ele>
        <time>2021-10-17T06:27:30.000Z</time>
      </trkpt>
      <trkpt lat="45.19432" lon="5.73564">
        <ele>214.39999389648</ele>
        <time>2021-10-17T06:27:37.000Z</time>
      </trkpt>
      <trkpt lat="45.19429" lon="5.73566">
        <ele>214.39999389648</ele>
        <time>2021-10-17T06:27:38.000Z</time>
      </trkpt>
      <trkpt lat="45.19425" lon="5.73568">
        <ele>214.39999389648</ele>
        <time>2021-10-17T06:27:40.000Z</time>
      </trkpt>
      <trkpt lat="45.1942" lon="5.73573">
        <ele>214.39999389648</ele>
        <time>2021-10-17T06:27:42.000Z</time>
      </trkpt>
      <trkpt lat="45.19404" lon="5.73582">
        <ele>214.80000305176</ele>
        <time>2021-10-17T06:27:48.000Z</time>
      </trkpt>
      <trkpt lat="45.19395" lon="5.73604">
        <ele>214.80000305176</ele>
        <time>2021-10-17T06:27:54.000Z</time>
      </trkpt>
      <trkpt lat="45.19395" lon="5.73614">
        <ele>215</ele>
        <time>2021-10-17T06:27:57.000Z</time>
      </trkpt>
      <trkpt lat="45.19399" lon="5.73619">
        <ele>214.80000305176</ele>
        <time>2021-10-17T06:27:59.000Z</time>
      </trkpt>
      <trkpt lat="45.19406" lon="5.73635">
        <ele>214.60000610352</ele>
        <time>2021-10-17T06:28:04.000Z</time>
      </trkpt>
      <trkpt lat="45.19407" lon="5.73639">
        <ele>214.60000610352</ele>
        <time>2021-10-17T06:28:05.000Z</time>
      </trkpt>
      <trkpt lat="45.1942" lon="5.73649">
        <ele>214.39999389648</ele>
        <time>2021-10-17T06:28:10.000Z</time>
      </trkpt>
      <trkpt lat="45.19435" lon="5.73658">
        <ele>214.19999694824</ele>
        <time>2021-10-17T06:28:16.000Z</time>
      </trkpt>
      <trkpt lat="45.1945" lon="5.73671">
        <ele>213.80000305176</ele>
        <time>2021-10-17T06:28:22.000Z</time>
      </trkpt>
      <trkpt lat="45.19465" lon="5.73679">
        <ele>213.80000305176</ele>
        <time>2021-10-17T06:28:28.000Z</time>
      </trkpt>
      <trkpt lat="45.19471" lon="5.73683">
        <ele>213.80000305176</ele>
        <time>2021-10-17T06:28:32.000Z</time>
      </trkpt>
      <trkpt lat="45.19479" lon="5.73691">
        <ele>214</ele>
        <time>2021-10-17T06:28:35.000Z</time>
      </trkpt>
      <trkpt lat="45.19483" lon="5.73695">
        <ele>213.80000305176</ele>
        <time>2021-10-17T06:28:37.000Z</time>
      </trkpt>
      <trkpt lat="45.19496" lon="5.73703">
        <ele>213.80000305176</ele>
        <time>2021-10-17T06:28:42.000Z</time>
      </trkpt>
      <trkpt lat="45.19511" lon="5.73705">
        <ele>213.80000305176</ele>
        <time>2021-10-17T06:28:48.000Z</time>
      </trkpt>
      <trkpt lat="45.19531" lon="5.73693">
        <ele>214</ele>
        <time>2021-10-17T06:28:54.000Z</time>
      </trkpt>
      <trkpt lat="45.19534" lon="5.73691">
        <ele>214</ele>
        <time>2021-10-17T06:28:55.000Z</time>
      </trkpt>
      <trkpt lat="45.19551" lon="5.73689">
        <ele>214</ele>
        <time>2021-10-17T06:29:01.000Z</time>
      </trkpt>
      <trkpt lat="45.19565" lon="5.73694">
        <ele>214.19999694824</ele>
        <time>2021-10-17T06:29:06.000Z</time>
      </trkpt>
      <trkpt lat="45.19586" lon="5.73693">
        <ele>214</ele>
        <time>2021-10-17T06:29:11.000Z</time>
      </trkpt>
      <trkpt lat="45.19589" lon="5.73692">
        <ele>214</ele>
        <time>2021-10-17T06:29:12.000Z</time>
      </trkpt>
      <trkpt lat="45.19608" lon="5.73689">
        <ele>214</ele>
        <time>2021-10-17T06:29:18.000Z</time>
      </trkpt>
      <trkpt lat="45.19614" lon="5.73686">
        <ele>214</ele>
        <time>2021-10-17T06:29:20.000Z</time>
      </trkpt>
      <trkpt lat="45.19627" lon="5.73691">
        <ele>213.60000610352</ele>
        <time>2021-10-17T06:29:24.000Z</time>
      </trkpt>
      <trkpt lat="45.19629" lon="5.737">
        <ele>213.80000305176</ele>
        <time>2021-10-17T06:29:26.000Z</time>
      </trkpt>
      <trkpt lat="45.19631" lon="5.73725">
        <ele>214</ele>
        <time>2021-10-17T06:29:32.000Z</time>
      </trkpt>
      <trkpt lat="45.19632" lon="5.73741">
        <ele>213.80000305176</ele>
        <time>2021-10-17T06:29:36.000Z</time>
      </trkpt>
      <trkpt lat="45.19635" lon="5.73754">
        <ele>213.80000305176</ele>
        <time>2021-10-17T06:29:39.000Z</time>
      </trkpt>
      <trkpt lat="45.19644" lon="5.73777">
        <ele>213.80000305176</ele>
        <time>2021-10-17T06:29:45.000Z</time>
      </trkpt>
      <trkpt lat="45.19646" lon="5.73781">
        <ele>213.80000305176</ele>
        <time>2021-10-17T06:29:46.000Z</time>
      </trkpt>
      <trkpt lat="45.19649" lon="5.73796">
        <ele>214</ele>
        <time>2021-10-17T06:29:50.000Z</time>
      </trkpt>
      <trkpt lat="45.19651" lon="5.73803">
        <ele>214</ele>
        <time>2021-10-17T06:29:52.000Z</time>
      </trkpt>
      <trkpt lat="45.19658" lon="5.73817">
        <ele>213.80000305176</ele>
        <time>2021-10-17T06:29:56.000Z</time>
      </trkpt>
      <trkpt lat="45.19661" lon="5.73834">
        <ele>213.80000305176</ele>
        <time>2021-10-17T06:30:00.000Z</time>
      </trkpt>
      <trkpt lat="45.19662" lon="5.73842">
        <ele>213.80000305176</ele>
        <time>2021-10-17T06:30:02.000Z</time>
      </trkpt>
      <trkpt lat="45.19662" lon="5.73845">
        <ele>214</ele>
        <time>2021-10-17T06:30:03.000Z</time>
      </trkpt>
      <trkpt lat="45.19664" lon="5.73852">
        <ele>214</ele>
        <time>2021-10-17T06:30:05.000Z</time>
      </trkpt>
      <trkpt lat="45.19667" lon="5.73867">
        <ele>214.19999694824</ele>
        <time>2021-10-17T06:30:10.000Z</time>
      </trkpt>
      <trkpt lat="45.19665" lon="5.73882">
        <ele>214</ele>
        <time>2021-10-17T06:30:15.000Z</time>
      </trkpt>
      <trkpt lat="45.19668" lon="5.73904">
        <ele>213.80000305176</ele>
        <time>2021-10-17T06:30:20.000Z</time>
      </trkpt>
      <trkpt lat="45.19671" lon="5.73919">
        <ele>213.80000305176</ele>
        <time>2021-10-17T06:30:23.000Z</time>
      </trkpt>
      <trkpt lat="45.1968" lon="5.73946">
        <ele>213.80000305176</ele>
        <time>2021-10-17T06:30:29.000Z</time>
      </trkpt>
      <trkpt lat="45.19682" lon="5.7395">
        <ele>213.80000305176</ele>
        <time>2021-10-17T06:30:30.000Z</time>
      </trkpt>
      <trkpt lat="45.19689" lon="5.73977">
        <ele>213.60000610352</ele>
        <time>2021-10-17T06:30:36.000Z</time>
      </trkpt>
      <trkpt lat="45.19688" lon="5.7398">
        <ele>213.60000610352</ele>
        <time>2021-10-17T06:30:37.000Z</time>
      </trkpt>
      <trkpt lat="45.19687" lon="5.74007">
        <ele>213.60000610352</ele>
        <time>2021-10-17T06:30:44.000Z</time>
      </trkpt>
      <trkpt lat="45.19684" lon="5.74011">
        <ele>213.60000610352</ele>
        <time>2021-10-17T06:30:46.000Z</time>
      </trkpt>
      <trkpt lat="45.19681" lon="5.74012">
        <ele>213.39999389648</ele>
        <time>2021-10-17T06:30:47.000Z</time>
      </trkpt>
      <trkpt lat="45.19669" lon="5.74013">
        <ele>213.19999694824</ele>
        <time>2021-10-17T06:30:51.000Z</time>
      </trkpt>
      <trkpt lat="45.19663" lon="5.74012">
        <ele>213.19999694824</ele>
        <time>2021-10-17T06:30:53.000Z</time>
      </trkpt>
      <trkpt lat="45.19656" lon="5.74012">
        <ele>213.19999694824</ele>
        <time>2021-10-17T06:30:55.000Z</time>
      </trkpt>
      <trkpt lat="45.19638" lon="5.7401">
        <ele>213.39999389648</ele>
        <time>2021-10-17T06:31:01.000Z</time>
      </trkpt>
      <trkpt lat="45.1962" lon="5.74003">
        <ele>213.39999389648</ele>
        <time>2021-10-17T06:31:07.000Z</time>
      </trkpt>
      <trkpt lat="45.19618" lon="5.74001">
        <ele>213.39999389648</ele>
        <time>2021-10-17T06:31:08.000Z</time>
      </trkpt>
      <trkpt lat="45.19616" lon="5.73998">
        <ele>213.60000610352</ele>
        <time>2021-10-17T06:31:09.000Z</time>
      </trkpt>
      <trkpt lat="45.19616" lon="5.7399">
        <ele>213.60000610352</ele>
        <time>2021-10-17T06:31:11.000Z</time>
      </trkpt>
      <trkpt lat="45.1962" lon="5.73969">
        <ele>213.60000610352</ele>
        <time>2021-10-17T06:31:17.000Z</time>
      </trkpt>
      <trkpt lat="45.19631" lon="5.73969">
        <ele>213.39999389648</ele>
        <time>2021-10-17T06:31:22.000Z</time>
      </trkpt>
      <trkpt lat="45.19638" lon="5.73972">
        <ele>213.60000610352</ele>
        <time>2021-10-17T06:31:27.000Z</time>
      </trkpt>
      <trkpt lat="45.19639" lon="5.73972">
        <ele>213.60000610352</ele>
        <time>2021-10-17T06:31:29.000Z</time>
      </trkpt>
    </trkseg>
  </trk>
</gpx>